<?xml version="1.0" encoding="UTF-8" standalone="no" ?>
<gpx xmlns="http://www.topografix.com/GPX/1/1" xmlns:xsi="http://www.w3.org/2001/XMLSchema-instance" xsi:schemaLocation="http://www.topografix.com/GPX/1/1 http://www.topografix.com/GPX/1/1/gpx.xsd" version="1.1" creator="VisuGPX - https://www.visugpx.com">
  <metadata>
    <name>PassPortes_KR</name>
  </metadata>
  <trk>
    <name><![CDATA[PassPortes_KR_1]]></name>
    <trkseg>
      <trkpt lat="46.25763" lon="6.84007">
        <ele>1241</ele>
        <time>2000-01-01T07:53:26.000Z</time>
      </trkpt>
      <trkpt lat="46.25786" lon="6.8399">
        <ele>1237</ele>
        <time>2000-01-01T07:53:36.000Z</time>
      </trkpt>
      <trkpt lat="46.25805" lon="6.8402">
        <ele>1237</ele>
        <time>2000-01-01T07:53:46.000Z</time>
      </trkpt>
      <trkpt lat="46.25831" lon="6.84063">
        <ele>1235</ele>
        <time>2000-01-01T07:53:56.000Z</time>
      </trkpt>
      <trkpt lat="46.25861" lon="6.8407">
        <ele>1234</ele>
        <time>2000-01-01T07:54:06.000Z</time>
      </trkpt>
      <trkpt lat="46.25886" lon="6.84075">
        <ele>1233</ele>
        <time>2000-01-01T07:54:16.000Z</time>
      </trkpt>
      <trkpt lat="46.25915" lon="6.84082">
        <ele>1232</ele>
        <time>2000-01-01T07:54:26.000Z</time>
      </trkpt>
      <trkpt lat="46.25938" lon="6.84088">
        <ele>1231</ele>
        <time>2000-01-01T07:54:36.000Z</time>
      </trkpt>
      <trkpt lat="46.2597" lon="6.84086">
        <ele>1229</ele>
        <time>2000-01-01T07:54:46.000Z</time>
      </trkpt>
      <trkpt lat="46.26003" lon="6.84083">
        <ele>1228</ele>
        <time>2000-01-01T07:54:56.000Z</time>
      </trkpt>
      <trkpt lat="46.26045" lon="6.8408">
        <ele>1227</ele>
        <time>2000-01-01T07:55:06.000Z</time>
      </trkpt>
      <trkpt lat="46.26069" lon="6.8407">
        <ele>1225</ele>
        <time>2000-01-01T07:55:16.000Z</time>
      </trkpt>
      <trkpt lat="46.26098" lon="6.84058">
        <ele>1222</ele>
        <time>2000-01-01T07:55:26.000Z</time>
      </trkpt>
      <trkpt lat="46.26124" lon="6.84067">
        <ele>1222</ele>
        <time>2000-01-01T07:55:36.000Z</time>
      </trkpt>
      <trkpt lat="46.2616" lon="6.8408">
        <ele>1220</ele>
        <time>2000-01-01T07:55:46.000Z</time>
      </trkpt>
      <trkpt lat="46.262" lon="6.84093">
        <ele>1218</ele>
        <time>2000-01-01T07:55:56.000Z</time>
      </trkpt>
      <trkpt lat="46.26227" lon="6.84101">
        <ele>1216</ele>
        <time>2000-01-01T07:56:06.000Z</time>
      </trkpt>
      <trkpt lat="46.26269" lon="6.84114">
        <ele>1214</ele>
        <time>2000-01-01T07:56:16.000Z</time>
      </trkpt>
      <trkpt lat="46.26293" lon="6.84122">
        <ele>1212</ele>
        <time>2000-01-01T07:56:26.000Z</time>
      </trkpt>
      <trkpt lat="46.26319" lon="6.84131">
        <ele>1211</ele>
        <time>2000-01-01T07:56:36.000Z</time>
      </trkpt>
      <trkpt lat="46.26347" lon="6.8414">
        <ele>1208</ele>
        <time>2000-01-01T07:56:46.000Z</time>
      </trkpt>
      <trkpt lat="46.2639" lon="6.84153">
        <ele>1207</ele>
        <time>2000-01-01T07:56:56.000Z</time>
      </trkpt>
      <trkpt lat="46.26422" lon="6.84164">
        <ele>1204</ele>
        <time>2000-01-01T07:57:06.000Z</time>
      </trkpt>
      <trkpt lat="46.26445" lon="6.84171">
        <ele>1203</ele>
        <time>2000-01-01T07:57:16.000Z</time>
      </trkpt>
      <trkpt lat="46.26469" lon="6.84179">
        <ele>1201</ele>
        <time>2000-01-01T07:57:26.000Z</time>
      </trkpt>
      <trkpt lat="46.26494" lon="6.84175">
        <ele>1199</ele>
        <time>2000-01-01T07:57:36.000Z</time>
      </trkpt>
      <trkpt lat="46.26524" lon="6.8417">
        <ele>1198</ele>
        <time>2000-01-01T07:57:46.000Z</time>
      </trkpt>
      <trkpt lat="46.26555" lon="6.84166">
        <ele>1196</ele>
        <time>2000-01-01T07:57:56.000Z</time>
      </trkpt>
      <trkpt lat="46.2659" lon="6.84151">
        <ele>1194</ele>
        <time>2000-01-01T07:58:06.000Z</time>
      </trkpt>
      <trkpt lat="46.26624" lon="6.84138">
        <ele>1190</ele>
        <time>2000-01-01T07:58:16.000Z</time>
      </trkpt>
      <trkpt lat="46.26658" lon="6.84124">
        <ele>1190</ele>
        <time>2000-01-01T07:58:26.000Z</time>
      </trkpt>
      <trkpt lat="46.26692" lon="6.84111">
        <ele>1187</ele>
        <time>2000-01-01T07:58:36.000Z</time>
      </trkpt>
      <trkpt lat="46.26727" lon="6.84097">
        <ele>1186</ele>
        <time>2000-01-01T07:58:46.000Z</time>
      </trkpt>
      <trkpt lat="46.26761" lon="6.84094">
        <ele>1185</ele>
        <time>2000-01-01T07:58:56.000Z</time>
      </trkpt>
      <trkpt lat="46.26776" lon="6.8412">
        <ele>1185</ele>
        <time>2000-01-01T07:59:06.000Z</time>
      </trkpt>
      <trkpt lat="46.26776" lon="6.8412">
        <ele>1191.1</ele>
        <time>2000-01-01T07:59:16.000Z</time>
      </trkpt>
      <trkpt lat="46.26748" lon="6.84127">
        <ele>1188</ele>
        <time>2000-01-01T07:59:26.000Z</time>
      </trkpt>
      <trkpt lat="46.26724" lon="6.84133">
        <ele>1189</ele>
        <time>2000-01-01T07:59:36.000Z</time>
      </trkpt>
      <trkpt lat="46.26701" lon="6.84139">
        <ele>1189</ele>
        <time>2000-01-01T07:59:46.000Z</time>
      </trkpt>
      <trkpt lat="46.26698" lon="6.84146">
        <ele>1196</ele>
        <time>2000-01-01T07:59:56.000Z</time>
      </trkpt>
      <trkpt lat="46.26705" lon="6.84152">
        <ele>1196.6</ele>
        <time>2000-01-01T08:00:06.000Z</time>
      </trkpt>
      <trkpt lat="46.2673" lon="6.8417">
        <ele>1193</ele>
        <time>2000-01-01T08:00:16.000Z</time>
      </trkpt>
      <trkpt lat="46.26708" lon="6.84182">
        <ele>1196</ele>
        <time>2000-01-01T08:00:26.000Z</time>
      </trkpt>
      <trkpt lat="46.26686" lon="6.84193">
        <ele>1200</ele>
        <time>2000-01-01T08:00:36.000Z</time>
      </trkpt>
      <trkpt lat="46.26672" lon="6.84213">
        <ele>1203</ele>
        <time>2000-01-01T08:00:46.000Z</time>
      </trkpt>
      <trkpt lat="46.26672" lon="6.8425">
        <ele>1208</ele>
        <time>2000-01-01T08:00:56.000Z</time>
      </trkpt>
      <trkpt lat="46.26675" lon="6.84302">
        <ele>1217</ele>
        <time>2000-01-01T08:01:06.000Z</time>
      </trkpt>
      <trkpt lat="46.26677" lon="6.84354">
        <ele>1240</ele>
        <time>2000-01-01T08:01:16.000Z</time>
      </trkpt>
      <trkpt lat="46.2668" lon="6.84405">
        <ele>1253</ele>
        <time>2000-01-01T08:01:26.000Z</time>
      </trkpt>
      <trkpt lat="46.26682" lon="6.8444">
        <ele>1264</ele>
        <time>2000-01-01T08:01:36.000Z</time>
      </trkpt>
      <trkpt lat="46.26684" lon="6.84476">
        <ele>1282</ele>
        <time>2000-01-01T08:01:46.000Z</time>
      </trkpt>
      <trkpt lat="46.26686" lon="6.84532">
        <ele>1313</ele>
        <time>2000-01-01T08:01:56.000Z</time>
      </trkpt>
      <trkpt lat="46.26688" lon="6.84566">
        <ele>1329</ele>
        <time>2000-01-01T08:02:06.000Z</time>
      </trkpt>
      <trkpt lat="46.2669" lon="6.84601">
        <ele>1352</ele>
        <time>2000-01-01T08:02:16.000Z</time>
      </trkpt>
      <trkpt lat="46.26693" lon="6.84642">
        <ele>1374</ele>
        <time>2000-01-01T08:02:26.000Z</time>
      </trkpt>
      <trkpt lat="46.26696" lon="6.84703">
        <ele>1412</ele>
        <time>2000-01-01T08:02:36.000Z</time>
      </trkpt>
      <trkpt lat="46.267" lon="6.8476">
        <ele>1445</ele>
        <time>2000-01-01T08:02:46.000Z</time>
      </trkpt>
      <trkpt lat="46.26703" lon="6.84816">
        <ele>1473</ele>
        <time>2000-01-01T08:02:56.000Z</time>
      </trkpt>
      <trkpt lat="46.26705" lon="6.84852">
        <ele>1485</ele>
        <time>2000-01-01T08:03:06.000Z</time>
      </trkpt>
      <trkpt lat="46.26708" lon="6.84893">
        <ele>1493</ele>
        <time>2000-01-01T08:03:16.000Z</time>
      </trkpt>
      <trkpt lat="46.26711" lon="6.8493">
        <ele>1494</ele>
        <time>2000-01-01T08:03:26.000Z</time>
      </trkpt>
      <trkpt lat="46.26714" lon="6.84986">
        <ele>1506</ele>
        <time>2000-01-01T08:03:36.000Z</time>
      </trkpt>
      <trkpt lat="46.26717" lon="6.85022">
        <ele>1512</ele>
        <time>2000-01-01T08:03:46.000Z</time>
      </trkpt>
      <trkpt lat="46.2672" lon="6.85066">
        <ele>1512</ele>
        <time>2000-01-01T08:03:56.000Z</time>
      </trkpt>
      <trkpt lat="46.26723" lon="6.85122">
        <ele>1512</ele>
        <time>2000-01-01T08:04:06.000Z</time>
      </trkpt>
      <trkpt lat="46.26725" lon="6.85158">
        <ele>1514</ele>
        <time>2000-01-01T08:04:16.000Z</time>
      </trkpt>
      <trkpt lat="46.26728" lon="6.85199">
        <ele>1513</ele>
        <time>2000-01-01T08:04:26.000Z</time>
      </trkpt>
      <trkpt lat="46.26731" lon="6.85236">
        <ele>1513</ele>
        <time>2000-01-01T08:04:36.000Z</time>
      </trkpt>
      <trkpt lat="46.26734" lon="6.85292">
        <ele>1515</ele>
        <time>2000-01-01T08:04:46.000Z</time>
      </trkpt>
      <trkpt lat="46.26737" lon="6.85337">
        <ele>1523</ele>
        <time>2000-01-01T08:04:56.000Z</time>
      </trkpt>
      <trkpt lat="46.2674" lon="6.85382">
        <ele>1536</ele>
        <time>2000-01-01T08:05:06.000Z</time>
      </trkpt>
      <trkpt lat="46.26743" lon="6.85428">
        <ele>1546</ele>
        <time>2000-01-01T08:05:16.000Z</time>
      </trkpt>
      <trkpt lat="46.26746" lon="6.85483">
        <ele>1559</ele>
        <time>2000-01-01T08:05:26.000Z</time>
      </trkpt>
      <trkpt lat="46.26748" lon="6.85538">
        <ele>1571</ele>
        <time>2000-01-01T08:05:36.000Z</time>
      </trkpt>
      <trkpt lat="46.26751" lon="6.85593">
        <ele>1590</ele>
        <time>2000-01-01T08:05:46.000Z</time>
      </trkpt>
      <trkpt lat="46.26753" lon="6.85648">
        <ele>1604</ele>
        <time>2000-01-01T08:05:56.000Z</time>
      </trkpt>
      <trkpt lat="46.26755" lon="6.85685">
        <ele>1614</ele>
        <time>2000-01-01T08:06:06.000Z</time>
      </trkpt>
      <trkpt lat="46.26757" lon="6.85729">
        <ele>1616</ele>
        <time>2000-01-01T08:06:16.000Z</time>
      </trkpt>
      <trkpt lat="46.2677" lon="6.85699">
        <ele>1614</ele>
        <time>2000-01-01T08:06:26.000Z</time>
      </trkpt>
      <trkpt lat="46.26784" lon="6.85666">
        <ele>1615</ele>
        <time>2000-01-01T08:06:36.000Z</time>
      </trkpt>
      <trkpt lat="46.26808" lon="6.85674">
        <ele>1616</ele>
        <time>2000-01-01T08:06:46.000Z</time>
      </trkpt>
      <trkpt lat="46.26834" lon="6.85682">
        <ele>1617</ele>
        <time>2000-01-01T08:06:56.000Z</time>
      </trkpt>
      <trkpt lat="46.26871" lon="6.85693">
        <ele>1619</ele>
        <time>2000-01-01T08:07:06.000Z</time>
      </trkpt>
      <trkpt lat="46.26904" lon="6.85704">
        <ele>1623</ele>
        <time>2000-01-01T08:07:16.000Z</time>
      </trkpt>
      <trkpt lat="46.26934" lon="6.85713">
        <ele>1628</ele>
        <time>2000-01-01T08:07:26.000Z</time>
      </trkpt>
      <trkpt lat="46.26958" lon="6.8572">
        <ele>1634</ele>
        <time>2000-01-01T08:07:36.000Z</time>
      </trkpt>
      <trkpt lat="46.26988" lon="6.85729">
        <ele>1643</ele>
        <time>2000-01-01T08:07:46.000Z</time>
      </trkpt>
      <trkpt lat="46.27016" lon="6.85738">
        <ele>1656</ele>
        <time>2000-01-01T08:07:56.000Z</time>
      </trkpt>
      <trkpt lat="46.27058" lon="6.85751">
        <ele>1679</ele>
        <time>2000-01-01T08:08:06.000Z</time>
      </trkpt>
      <trkpt lat="46.27083" lon="6.8576">
        <ele>1691</ele>
        <time>2000-01-01T08:08:16.000Z</time>
      </trkpt>
      <trkpt lat="46.27115" lon="6.8577">
        <ele>1706</ele>
        <time>2000-01-01T08:08:26.000Z</time>
      </trkpt>
      <trkpt lat="46.2715" lon="6.85782">
        <ele>1725</ele>
        <time>2000-01-01T08:08:36.000Z</time>
      </trkpt>
      <trkpt lat="46.27178" lon="6.85792">
        <ele>1737</ele>
        <time>2000-01-01T08:08:46.000Z</time>
      </trkpt>
      <trkpt lat="46.27221" lon="6.85807">
        <ele>1753</ele>
        <time>2000-01-01T08:08:56.000Z</time>
      </trkpt>
      <trkpt lat="46.27248" lon="6.85815">
        <ele>1762</ele>
        <time>2000-01-01T08:09:06.000Z</time>
      </trkpt>
      <trkpt lat="46.27289" lon="6.85829">
        <ele>1779</ele>
        <time>2000-01-01T08:09:16.000Z</time>
      </trkpt>
      <trkpt lat="46.27324" lon="6.8584">
        <ele>1801</ele>
        <time>2000-01-01T08:09:26.000Z</time>
      </trkpt>
      <trkpt lat="46.27359" lon="6.85851">
        <ele>1819</ele>
        <time>2000-01-01T08:09:36.000Z</time>
      </trkpt>
      <trkpt lat="46.27394" lon="6.85862">
        <ele>1848</ele>
        <time>2000-01-01T08:09:46.000Z</time>
      </trkpt>
      <trkpt lat="46.27439" lon="6.85877">
        <ele>1877</ele>
        <time>2000-01-01T08:09:56.000Z</time>
      </trkpt>
      <trkpt lat="46.27474" lon="6.85888">
        <ele>1902</ele>
        <time>2000-01-01T08:10:06.000Z</time>
      </trkpt>
      <trkpt lat="46.27508" lon="6.859">
        <ele>1919</ele>
        <time>2000-01-01T08:10:16.000Z</time>
      </trkpt>
      <trkpt lat="46.27543" lon="6.85911">
        <ele>1935</ele>
        <time>2000-01-01T08:10:26.000Z</time>
      </trkpt>
      <trkpt lat="46.27587" lon="6.85926">
        <ele>1953</ele>
        <time>2000-01-01T08:10:36.000Z</time>
      </trkpt>
      <trkpt lat="46.27617" lon="6.85933">
        <ele>1961</ele>
        <time>2000-01-01T08:10:46.000Z</time>
      </trkpt>
      <trkpt lat="46.27642" lon="6.8594">
        <ele>1962</ele>
        <time>2000-01-01T08:10:56.000Z</time>
      </trkpt>
      <trkpt lat="46.27636" lon="6.85978">
        <ele>1962</ele>
        <time>2000-01-01T08:11:06.000Z</time>
      </trkpt>
      <trkpt lat="46.27628" lon="6.86032">
        <ele>1962</ele>
        <time>2000-01-01T08:11:16.000Z</time>
      </trkpt>
      <trkpt lat="46.27641" lon="6.86071">
        <ele>1961</ele>
        <time>2000-01-01T08:11:26.000Z</time>
      </trkpt>
      <trkpt lat="46.27659" lon="6.86102">
        <ele>1960</ele>
        <time>2000-01-01T08:11:36.000Z</time>
      </trkpt>
      <trkpt lat="46.27675" lon="6.86129">
        <ele>1954</ele>
        <time>2000-01-01T08:11:46.000Z</time>
      </trkpt>
      <trkpt lat="46.27698" lon="6.86147">
        <ele>1951</ele>
        <time>2000-01-01T08:11:56.000Z</time>
      </trkpt>
      <trkpt lat="46.27726" lon="6.86171">
        <ele>1946</ele>
        <time>2000-01-01T08:12:06.000Z</time>
      </trkpt>
      <trkpt lat="46.27753" lon="6.86193">
        <ele>1938</ele>
        <time>2000-01-01T08:12:16.000Z</time>
      </trkpt>
      <trkpt lat="46.27774" lon="6.86212">
        <ele>1932</ele>
        <time>2000-01-01T08:12:26.000Z</time>
      </trkpt>
      <trkpt lat="46.27797" lon="6.86234">
        <ele>1925</ele>
        <time>2000-01-01T08:12:36.000Z</time>
      </trkpt>
      <trkpt lat="46.27816" lon="6.86258">
        <ele>1920</ele>
        <time>2000-01-01T08:12:46.000Z</time>
      </trkpt>
      <trkpt lat="46.27841" lon="6.86287">
        <ele>1915</ele>
        <time>2000-01-01T08:12:56.000Z</time>
      </trkpt>
      <trkpt lat="46.27864" lon="6.86315">
        <ele>1913</ele>
        <time>2000-01-01T08:13:06.000Z</time>
      </trkpt>
      <trkpt lat="46.2786" lon="6.86346">
        <ele>1910</ele>
        <time>2000-01-01T08:13:16.000Z</time>
      </trkpt>
      <trkpt lat="46.27866" lon="6.86396">
        <ele>1901</ele>
        <time>2000-01-01T08:13:26.000Z</time>
      </trkpt>
      <trkpt lat="46.27875" lon="6.86427">
        <ele>1900</ele>
        <time>2000-01-01T08:13:36.000Z</time>
      </trkpt>
      <trkpt lat="46.27873" lon="6.86459">
        <ele>1895</ele>
        <time>2000-01-01T08:13:46.000Z</time>
      </trkpt>
      <trkpt lat="46.27879" lon="6.865">
        <ele>1888</ele>
        <time>2000-01-01T08:13:56.000Z</time>
      </trkpt>
      <trkpt lat="46.27885" lon="6.86533">
        <ele>1884</ele>
        <time>2000-01-01T08:14:06.000Z</time>
      </trkpt>
      <trkpt lat="46.2789" lon="6.86568">
        <ele>1877</ele>
        <time>2000-01-01T08:14:16.000Z</time>
      </trkpt>
      <trkpt lat="46.27898" lon="6.86615">
        <ele>1869</ele>
        <time>2000-01-01T08:14:26.000Z</time>
      </trkpt>
      <trkpt lat="46.27901" lon="6.8666">
        <ele>1857</ele>
        <time>2000-01-01T08:14:36.000Z</time>
      </trkpt>
      <trkpt lat="46.27914" lon="6.86681">
        <ele>1848</ele>
        <time>2000-01-01T08:14:46.000Z</time>
      </trkpt>
      <trkpt lat="46.27957" lon="6.86696">
        <ele>1847</ele>
        <time>2000-01-01T08:14:56.000Z</time>
      </trkpt>
      <trkpt lat="46.27974" lon="6.86709">
        <ele>1846</ele>
        <time>2000-01-01T08:15:06.000Z</time>
      </trkpt>
      <trkpt lat="46.28006" lon="6.86704">
        <ele>1846</ele>
        <time>2000-01-01T08:15:16.000Z</time>
      </trkpt>
      <trkpt lat="46.28038" lon="6.86699">
        <ele>1852</ele>
        <time>2000-01-01T08:15:26.000Z</time>
      </trkpt>
      <trkpt lat="46.2808" lon="6.86693">
        <ele>1853</ele>
        <time>2000-01-01T08:15:36.000Z</time>
      </trkpt>
      <trkpt lat="46.2812" lon="6.86688">
        <ele>1852</ele>
        <time>2000-01-01T08:15:46.000Z</time>
      </trkpt>
      <trkpt lat="46.28153" lon="6.86683">
        <ele>1853</ele>
        <time>2000-01-01T08:15:56.000Z</time>
      </trkpt>
      <trkpt lat="46.28186" lon="6.86678">
        <ele>1853</ele>
        <time>2000-01-01T08:16:06.000Z</time>
      </trkpt>
      <trkpt lat="46.28211" lon="6.86674">
        <ele>1853</ele>
        <time>2000-01-01T08:16:16.000Z</time>
      </trkpt>
      <trkpt lat="46.28238" lon="6.8667">
        <ele>1856</ele>
        <time>2000-01-01T08:16:26.000Z</time>
      </trkpt>
      <trkpt lat="46.28273" lon="6.86653">
        <ele>1862</ele>
        <time>2000-01-01T08:16:36.000Z</time>
      </trkpt>
      <trkpt lat="46.28298" lon="6.86634">
        <ele>1871</ele>
        <time>2000-01-01T08:16:46.000Z</time>
      </trkpt>
      <trkpt lat="46.28339" lon="6.86604">
        <ele>1881</ele>
        <time>2000-01-01T08:16:56.000Z</time>
      </trkpt>
      <trkpt lat="46.28347" lon="6.8655">
        <ele>1894</ele>
        <time>2000-01-01T08:17:06.000Z</time>
      </trkpt>
      <trkpt lat="46.28353" lon="6.86505">
        <ele>1901</ele>
        <time>2000-01-01T08:17:16.000Z</time>
      </trkpt>
      <trkpt lat="46.2836" lon="6.8646">
        <ele>1904</ele>
        <time>2000-01-01T08:17:26.000Z</time>
      </trkpt>
      <trkpt lat="46.28361" lon="6.86402">
        <ele>1903</ele>
        <time>2000-01-01T08:17:36.000Z</time>
      </trkpt>
      <trkpt lat="46.28378" lon="6.86376">
        <ele>1902</ele>
        <time>2000-01-01T08:17:46.000Z</time>
      </trkpt>
      <trkpt lat="46.28397" lon="6.86346">
        <ele>1898</ele>
        <time>2000-01-01T08:17:56.000Z</time>
      </trkpt>
      <trkpt lat="46.28402" lon="6.86359">
        <ele>1899.9</ele>
        <time>2000-01-01T08:18:06.000Z</time>
      </trkpt>
      <trkpt lat="46.28419" lon="6.86346">
        <ele>1896</ele>
        <time>2000-01-01T08:18:16.000Z</time>
      </trkpt>
      <trkpt lat="46.28444" lon="6.86317">
        <ele>1897</ele>
        <time>2000-01-01T08:18:26.000Z</time>
      </trkpt>
      <trkpt lat="46.28459" lon="6.8631">
        <ele>1896.1</ele>
        <time>2000-01-01T08:18:36.000Z</time>
      </trkpt>
      <trkpt lat="46.28473" lon="6.86299">
        <ele>1896</ele>
        <time>2000-01-01T08:18:46.000Z</time>
      </trkpt>
      <trkpt lat="46.28514" lon="6.86288">
        <ele>1895</ele>
        <time>2000-01-01T08:18:56.000Z</time>
      </trkpt>
      <trkpt lat="46.28528" lon="6.86267">
        <ele>1895</ele>
        <time>2000-01-01T08:19:06.000Z</time>
      </trkpt>
      <trkpt lat="46.28548" lon="6.86246">
        <ele>1896</ele>
        <time>2000-01-01T08:19:16.000Z</time>
      </trkpt>
      <trkpt lat="46.28567" lon="6.86221">
        <ele>1899</ele>
        <time>2000-01-01T08:19:26.000Z</time>
      </trkpt>
      <trkpt lat="46.28579" lon="6.86208">
        <ele>1902.2</ele>
        <time>2000-01-01T08:19:36.000Z</time>
      </trkpt>
      <trkpt lat="46.28597" lon="6.86184">
        <ele>1899</ele>
        <time>2000-01-01T08:19:46.000Z</time>
      </trkpt>
      <trkpt lat="46.28614" lon="6.86171">
        <ele>1897</ele>
        <time>2000-01-01T08:19:56.000Z</time>
      </trkpt>
      <trkpt lat="46.28616" lon="6.86155">
        <ele>1905.5</ele>
        <time>2000-01-01T08:20:06.000Z</time>
      </trkpt>
      <trkpt lat="46.28626" lon="6.86099">
        <ele>1896</ele>
        <time>2000-01-01T08:20:16.000Z</time>
      </trkpt>
      <trkpt lat="46.28635" lon="6.86065">
        <ele>1897</ele>
        <time>2000-01-01T08:20:26.000Z</time>
      </trkpt>
      <trkpt lat="46.28638" lon="6.86061">
        <ele>1894</ele>
        <time>2000-01-01T08:20:36.000Z</time>
      </trkpt>
      <trkpt lat="46.28643" lon="6.86058">
        <ele>1895.5</ele>
        <time>2000-01-01T08:20:46.000Z</time>
      </trkpt>
      <trkpt lat="46.2865" lon="6.86051">
        <ele>1896.9</ele>
        <time>2000-01-01T08:20:56.000Z</time>
      </trkpt>
      <trkpt lat="46.2866" lon="6.86046">
        <ele>1899</ele>
        <time>2000-01-01T08:21:06.000Z</time>
      </trkpt>
      <trkpt lat="46.28664" lon="6.86042">
        <ele>1901.3</ele>
        <time>2000-01-01T08:21:16.000Z</time>
      </trkpt>
      <trkpt lat="46.28666" lon="6.86039">
        <ele>1901.5</ele>
        <time>2000-01-01T08:21:26.000Z</time>
      </trkpt>
      <trkpt lat="46.2867" lon="6.86036">
        <ele>1901.9</ele>
        <time>2000-01-01T08:21:36.000Z</time>
      </trkpt>
      <trkpt lat="46.28675" lon="6.86036">
        <ele>1903.2</ele>
        <time>2000-01-01T08:21:46.000Z</time>
      </trkpt>
      <trkpt lat="46.28679" lon="6.86032">
        <ele>1899</ele>
        <time>2000-01-01T08:21:56.000Z</time>
      </trkpt>
      <trkpt lat="46.28681" lon="6.86028">
        <ele>1902.7</ele>
        <time>2000-01-01T08:22:06.000Z</time>
      </trkpt>
      <trkpt lat="46.28688" lon="6.86024">
        <ele>1903.6</ele>
        <time>2000-01-01T08:22:16.000Z</time>
      </trkpt>
      <trkpt lat="46.28695" lon="6.86017">
        <ele>1898</ele>
        <time>2000-01-01T08:22:26.000Z</time>
      </trkpt>
      <trkpt lat="46.28696" lon="6.86013">
        <ele>1903.1</ele>
        <time>2000-01-01T08:22:36.000Z</time>
      </trkpt>
      <trkpt lat="46.28706" lon="6.85998">
        <ele>1902.4</ele>
        <time>2000-01-01T08:22:46.000Z</time>
      </trkpt>
      <trkpt lat="46.2871" lon="6.8599">
        <ele>1897</ele>
        <time>2000-01-01T08:22:56.000Z</time>
      </trkpt>
      <trkpt lat="46.28714" lon="6.85985">
        <ele>1902.1</ele>
        <time>2000-01-01T08:23:06.000Z</time>
      </trkpt>
      <trkpt lat="46.28719" lon="6.85976">
        <ele>1901.7</ele>
        <time>2000-01-01T08:23:16.000Z</time>
      </trkpt>
      <trkpt lat="46.28722" lon="6.85969">
        <ele>1897</ele>
        <time>2000-01-01T08:23:26.000Z</time>
      </trkpt>
      <trkpt lat="46.28735" lon="6.85951">
        <ele>1901.6</ele>
        <time>2000-01-01T08:23:36.000Z</time>
      </trkpt>
      <trkpt lat="46.28736" lon="6.85947">
        <ele>1896</ele>
        <time>2000-01-01T08:23:46.000Z</time>
      </trkpt>
      <trkpt lat="46.28736" lon="6.85943">
        <ele>1900.4</ele>
        <time>2000-01-01T08:23:56.000Z</time>
      </trkpt>
      <trkpt lat="46.28737" lon="6.85936">
        <ele>1899.4</ele>
        <time>2000-01-01T08:24:06.000Z</time>
      </trkpt>
      <trkpt lat="46.28745" lon="6.85925">
        <ele>1894</ele>
        <time>2000-01-01T08:24:16.000Z</time>
      </trkpt>
      <trkpt lat="46.2875" lon="6.8591">
        <ele>1899</ele>
        <time>2000-01-01T08:24:26.000Z</time>
      </trkpt>
      <trkpt lat="46.28751" lon="6.85902">
        <ele>1898</ele>
        <time>2000-01-01T08:24:36.000Z</time>
      </trkpt>
      <trkpt lat="46.28751" lon="6.85896">
        <ele>1894</ele>
        <time>2000-01-01T08:24:46.000Z</time>
      </trkpt>
      <trkpt lat="46.28756" lon="6.85875">
        <ele>1895</ele>
        <time>2000-01-01T08:24:56.000Z</time>
      </trkpt>
      <trkpt lat="46.2876" lon="6.85865">
        <ele>1893</ele>
        <time>2000-01-01T08:25:06.000Z</time>
      </trkpt>
      <trkpt lat="46.28762" lon="6.85857">
        <ele>1893.7</ele>
        <time>2000-01-01T08:25:16.000Z</time>
      </trkpt>
      <trkpt lat="46.28762" lon="6.85844">
        <ele>1891.7</ele>
        <time>2000-01-01T08:25:26.000Z</time>
      </trkpt>
      <trkpt lat="46.28763" lon="6.85835">
        <ele>1892</ele>
        <time>2000-01-01T08:25:36.000Z</time>
      </trkpt>
      <trkpt lat="46.28765" lon="6.85827">
        <ele>1889.7</ele>
        <time>2000-01-01T08:25:46.000Z</time>
      </trkpt>
      <trkpt lat="46.28768" lon="6.8582">
        <ele>1889.2</ele>
        <time>2000-01-01T08:25:56.000Z</time>
      </trkpt>
      <trkpt lat="46.2878" lon="6.85798">
        <ele>1887</ele>
        <time>2000-01-01T08:26:06.000Z</time>
      </trkpt>
      <trkpt lat="46.28788" lon="6.85789">
        <ele>1888.8</ele>
        <time>2000-01-01T08:26:16.000Z</time>
      </trkpt>
      <trkpt lat="46.28791" lon="6.85783">
        <ele>1888.6</ele>
        <time>2000-01-01T08:26:26.000Z</time>
      </trkpt>
      <trkpt lat="46.28805" lon="6.85768">
        <ele>1887</ele>
        <time>2000-01-01T08:26:36.000Z</time>
      </trkpt>
      <trkpt lat="46.2881" lon="6.85758">
        <ele>1889.2</ele>
        <time>2000-01-01T08:26:46.000Z</time>
      </trkpt>
      <trkpt lat="46.28821" lon="6.85743">
        <ele>1885</ele>
        <time>2000-01-01T08:26:56.000Z</time>
      </trkpt>
      <trkpt lat="46.28832" lon="6.85733">
        <ele>1889.6</ele>
        <time>2000-01-01T08:27:06.000Z</time>
      </trkpt>
      <trkpt lat="46.2884" lon="6.85717">
        <ele>1885</ele>
        <time>2000-01-01T08:27:16.000Z</time>
      </trkpt>
      <trkpt lat="46.28842" lon="6.85711">
        <ele>1886.7</ele>
        <time>2000-01-01T08:27:26.000Z</time>
      </trkpt>
      <trkpt lat="46.28855" lon="6.85693">
        <ele>1885</ele>
        <time>2000-01-01T08:27:36.000Z</time>
      </trkpt>
      <trkpt lat="46.28873" lon="6.8567">
        <ele>1883</ele>
        <time>2000-01-01T08:27:46.000Z</time>
      </trkpt>
      <trkpt lat="46.28876" lon="6.85667">
        <ele>1883.8</ele>
        <time>2000-01-01T08:27:56.000Z</time>
      </trkpt>
      <trkpt lat="46.28878" lon="6.85663">
        <ele>1883.3</ele>
        <time>2000-01-01T08:28:06.000Z</time>
      </trkpt>
      <trkpt lat="46.28879" lon="6.85659">
        <ele>1882.6</ele>
        <time>2000-01-01T08:28:16.000Z</time>
      </trkpt>
      <trkpt lat="46.28882" lon="6.85655">
        <ele>1882.4</ele>
        <time>2000-01-01T08:28:26.000Z</time>
      </trkpt>
      <trkpt lat="46.28891" lon="6.85652">
        <ele>1882</ele>
        <time>2000-01-01T08:28:36.000Z</time>
      </trkpt>
      <trkpt lat="46.28895" lon="6.85648">
        <ele>1883.5</ele>
        <time>2000-01-01T08:28:46.000Z</time>
      </trkpt>
      <trkpt lat="46.28904" lon="6.85633">
        <ele>1881.6</ele>
        <time>2000-01-01T08:28:56.000Z</time>
      </trkpt>
      <trkpt lat="46.28908" lon="6.85629">
        <ele>1875</ele>
        <time>2000-01-01T08:29:06.000Z</time>
      </trkpt>
      <trkpt lat="46.28911" lon="6.85622">
        <ele>1880.1</ele>
        <time>2000-01-01T08:29:16.000Z</time>
      </trkpt>
      <trkpt lat="46.28949" lon="6.85588">
        <ele>1873</ele>
        <time>2000-01-01T08:29:26.000Z</time>
      </trkpt>
      <trkpt lat="46.28955" lon="6.85581">
        <ele>1876.6</ele>
        <time>2000-01-01T08:29:36.000Z</time>
      </trkpt>
      <trkpt lat="46.28961" lon="6.85571">
        <ele>1876</ele>
        <time>2000-01-01T08:29:46.000Z</time>
      </trkpt>
      <trkpt lat="46.28962" lon="6.85561">
        <ele>1871</ele>
        <time>2000-01-01T08:29:56.000Z</time>
      </trkpt>
      <trkpt lat="46.28961" lon="6.85544">
        <ele>1871.7</ele>
        <time>2000-01-01T08:30:06.000Z</time>
      </trkpt>
      <trkpt lat="46.28956" lon="6.85527">
        <ele>1869</ele>
        <time>2000-01-01T08:30:16.000Z</time>
      </trkpt>
      <trkpt lat="46.28951" lon="6.85503">
        <ele>1864.3</ele>
        <time>2000-01-01T08:30:26.000Z</time>
      </trkpt>
      <trkpt lat="46.2895" lon="6.8548">
        <ele>1866</ele>
        <time>2000-01-01T08:30:36.000Z</time>
      </trkpt>
      <trkpt lat="46.28945" lon="6.85456">
        <ele>1862.5</ele>
        <time>2000-01-01T08:30:46.000Z</time>
      </trkpt>
      <trkpt lat="46.28945" lon="6.85445">
        <ele>1866</ele>
        <time>2000-01-01T08:30:56.000Z</time>
      </trkpt>
      <trkpt lat="46.28946" lon="6.85423">
        <ele>1861.8</ele>
        <time>2000-01-01T08:31:06.000Z</time>
      </trkpt>
      <trkpt lat="46.2894" lon="6.85391">
        <ele>1866</ele>
        <time>2000-01-01T08:31:16.000Z</time>
      </trkpt>
      <trkpt lat="46.28935" lon="6.85377">
        <ele>1866.6</ele>
        <time>2000-01-01T08:31:26.000Z</time>
      </trkpt>
      <trkpt lat="46.28925" lon="6.85359">
        <ele>1872</ele>
        <time>2000-01-01T08:31:36.000Z</time>
      </trkpt>
      <trkpt lat="46.28911" lon="6.8533">
        <ele>1875</ele>
        <time>2000-01-01T08:31:46.000Z</time>
      </trkpt>
      <trkpt lat="46.28899" lon="6.8532">
        <ele>1869.6</ele>
        <time>2000-01-01T08:31:56.000Z</time>
      </trkpt>
      <trkpt lat="46.28891" lon="6.8531">
        <ele>1875</ele>
        <time>2000-01-01T08:32:06.000Z</time>
      </trkpt>
      <trkpt lat="46.28884" lon="6.85298">
        <ele>1866.8</ele>
        <time>2000-01-01T08:32:16.000Z</time>
      </trkpt>
      <trkpt lat="46.28881" lon="6.85287">
        <ele>1875</ele>
        <time>2000-01-01T08:32:26.000Z</time>
      </trkpt>
      <trkpt lat="46.2888" lon="6.8526">
        <ele>1869</ele>
        <time>2000-01-01T08:32:36.000Z</time>
      </trkpt>
      <trkpt lat="46.2888" lon="6.85216">
        <ele>1865</ele>
        <time>2000-01-01T08:32:46.000Z</time>
      </trkpt>
      <trkpt lat="46.28887" lon="6.85192">
        <ele>1868.6</ele>
        <time>2000-01-01T08:32:56.000Z</time>
      </trkpt>
      <trkpt lat="46.2891" lon="6.84995">
        <ele>1858</ele>
        <time>2000-01-01T08:33:06.000Z</time>
      </trkpt>
      <trkpt lat="46.28915" lon="6.84946">
        <ele>1852</ele>
        <time>2000-01-01T08:33:16.000Z</time>
      </trkpt>
      <trkpt lat="46.2892" lon="6.84897">
        <ele>1849</ele>
        <time>2000-01-01T08:33:26.000Z</time>
      </trkpt>
      <trkpt lat="46.28923" lon="6.8486">
        <ele>1847</ele>
        <time>2000-01-01T08:33:36.000Z</time>
      </trkpt>
      <trkpt lat="46.28928" lon="6.84814">
        <ele>1843</ele>
        <time>2000-01-01T08:33:46.000Z</time>
      </trkpt>
      <trkpt lat="46.28928" lon="6.84777">
        <ele>1837</ele>
        <time>2000-01-01T08:33:56.000Z</time>
      </trkpt>
      <trkpt lat="46.28934" lon="6.84728">
        <ele>1837</ele>
        <time>2000-01-01T08:34:06.000Z</time>
      </trkpt>
      <trkpt lat="46.28938" lon="6.84708">
        <ele>1827</ele>
        <time>2000-01-01T08:34:16.000Z</time>
      </trkpt>
      <trkpt lat="46.28948" lon="6.84682">
        <ele>1834</ele>
        <time>2000-01-01T08:34:26.000Z</time>
      </trkpt>
      <trkpt lat="46.28962" lon="6.84662">
        <ele>1831</ele>
        <time>2000-01-01T08:34:36.000Z</time>
      </trkpt>
      <trkpt lat="46.28983" lon="6.84658">
        <ele>1831</ele>
        <time>2000-01-01T08:34:46.000Z</time>
      </trkpt>
      <trkpt lat="46.29004" lon="6.84647">
        <ele>1828</ele>
        <time>2000-01-01T08:34:56.000Z</time>
      </trkpt>
      <trkpt lat="46.29011" lon="6.84641">
        <ele>1820.6</ele>
        <time>2000-01-01T08:35:06.000Z</time>
      </trkpt>
      <trkpt lat="46.29032" lon="6.84613">
        <ele>1822</ele>
        <time>2000-01-01T08:35:16.000Z</time>
      </trkpt>
      <trkpt lat="46.29049" lon="6.84593">
        <ele>1815</ele>
        <time>2000-01-01T08:35:26.000Z</time>
      </trkpt>
      <trkpt lat="46.29058" lon="6.84586">
        <ele>1803.4</ele>
        <time>2000-01-01T08:35:36.000Z</time>
      </trkpt>
      <trkpt lat="46.29079" lon="6.84573">
        <ele>1806</ele>
        <time>2000-01-01T08:35:46.000Z</time>
      </trkpt>
      <trkpt lat="46.29088" lon="6.84563">
        <ele>1799.1</ele>
        <time>2000-01-01T08:35:56.000Z</time>
      </trkpt>
      <trkpt lat="46.29094" lon="6.84551">
        <ele>1803</ele>
        <time>2000-01-01T08:36:06.000Z</time>
      </trkpt>
      <trkpt lat="46.29103" lon="6.84536">
        <ele>1794.1</ele>
        <time>2000-01-01T08:36:16.000Z</time>
      </trkpt>
      <trkpt lat="46.29115" lon="6.84522">
        <ele>1799</ele>
        <time>2000-01-01T08:36:26.000Z</time>
      </trkpt>
      <trkpt lat="46.29123" lon="6.84519">
        <ele>1792.5</ele>
        <time>2000-01-01T08:36:36.000Z</time>
      </trkpt>
      <trkpt lat="46.29144" lon="6.84513">
        <ele>1798</ele>
        <time>2000-01-01T08:36:46.000Z</time>
      </trkpt>
      <trkpt lat="46.29151" lon="6.8451">
        <ele>1792.8</ele>
        <time>2000-01-01T08:36:56.000Z</time>
      </trkpt>
      <trkpt lat="46.29162" lon="6.84497">
        <ele>1797</ele>
        <time>2000-01-01T08:37:06.000Z</time>
      </trkpt>
      <trkpt lat="46.29173" lon="6.8448">
        <ele>1795.6</ele>
        <time>2000-01-01T08:37:16.000Z</time>
      </trkpt>
      <trkpt lat="46.29176" lon="6.84474">
        <ele>1795</ele>
        <time>2000-01-01T08:37:26.000Z</time>
      </trkpt>
      <trkpt lat="46.29178" lon="6.84458">
        <ele>1796</ele>
        <time>2000-01-01T08:37:36.000Z</time>
      </trkpt>
      <trkpt lat="46.29187" lon="6.84438">
        <ele>1793</ele>
        <time>2000-01-01T08:37:46.000Z</time>
      </trkpt>
      <trkpt lat="46.29191" lon="6.84413">
        <ele>1799.4</ele>
        <time>2000-01-01T08:37:56.000Z</time>
      </trkpt>
      <trkpt lat="46.29192" lon="6.844">
        <ele>1792</ele>
        <time>2000-01-01T08:38:06.000Z</time>
      </trkpt>
      <trkpt lat="46.29196" lon="6.84375">
        <ele>1793.3</ele>
        <time>2000-01-01T08:38:16.000Z</time>
      </trkpt>
      <trkpt lat="46.29207" lon="6.84338">
        <ele>1781</ele>
        <time>2000-01-01T08:38:26.000Z</time>
      </trkpt>
      <trkpt lat="46.29217" lon="6.84292">
        <ele>1778</ele>
        <time>2000-01-01T08:38:36.000Z</time>
      </trkpt>
      <trkpt lat="46.29224" lon="6.84249">
        <ele>1772</ele>
        <time>2000-01-01T08:38:46.000Z</time>
      </trkpt>
      <trkpt lat="46.2923" lon="6.8422">
        <ele>1770</ele>
        <time>2000-01-01T08:38:56.000Z</time>
      </trkpt>
      <trkpt lat="46.29245" lon="6.84162">
        <ele>1768</ele>
        <time>2000-01-01T08:39:06.000Z</time>
      </trkpt>
      <trkpt lat="46.29255" lon="6.84115">
        <ele>1768</ele>
        <time>2000-01-01T08:39:16.000Z</time>
      </trkpt>
      <trkpt lat="46.29257" lon="6.84079">
        <ele>1766</ele>
        <time>2000-01-01T08:39:26.000Z</time>
      </trkpt>
      <trkpt lat="46.29259" lon="6.8404">
        <ele>1764</ele>
        <time>2000-01-01T08:39:36.000Z</time>
      </trkpt>
      <trkpt lat="46.2926" lon="6.83995">
        <ele>1763</ele>
        <time>2000-01-01T08:39:46.000Z</time>
      </trkpt>
      <trkpt lat="46.29262" lon="6.83952">
        <ele>1763</ele>
        <time>2000-01-01T08:39:56.000Z</time>
      </trkpt>
      <trkpt lat="46.29262" lon="6.8391">
        <ele>1756</ele>
        <time>2000-01-01T08:40:06.000Z</time>
      </trkpt>
      <trkpt lat="46.29262" lon="6.83875">
        <ele>1752</ele>
        <time>2000-01-01T08:40:16.000Z</time>
      </trkpt>
      <trkpt lat="46.29262" lon="6.83838">
        <ele>1744</ele>
        <time>2000-01-01T08:40:26.000Z</time>
      </trkpt>
      <trkpt lat="46.2926" lon="6.83785">
        <ele>1731</ele>
        <time>2000-01-01T08:40:36.000Z</time>
      </trkpt>
      <trkpt lat="46.29248" lon="6.83792">
        <ele>1737.9</ele>
        <time>2000-01-01T08:40:46.000Z</time>
      </trkpt>
      <trkpt lat="46.29238" lon="6.83802">
        <ele>1727</ele>
        <time>2000-01-01T08:40:56.000Z</time>
      </trkpt>
      <trkpt lat="46.29231" lon="6.83806">
        <ele>1734.7</ele>
        <time>2000-01-01T08:41:06.000Z</time>
      </trkpt>
      <trkpt lat="46.29224" lon="6.83808">
        <ele>1732.7</ele>
        <time>2000-01-01T08:41:16.000Z</time>
      </trkpt>
      <trkpt lat="46.29206" lon="6.83807">
        <ele>1723</ele>
        <time>2000-01-01T08:41:26.000Z</time>
      </trkpt>
      <trkpt lat="46.29192" lon="6.8381">
        <ele>1721.7</ele>
        <time>2000-01-01T08:41:36.000Z</time>
      </trkpt>
      <trkpt lat="46.29175" lon="6.83828">
        <ele>1716</ele>
        <time>2000-01-01T08:41:46.000Z</time>
      </trkpt>
      <trkpt lat="46.29168" lon="6.83839">
        <ele>1718.1</ele>
        <time>2000-01-01T08:41:56.000Z</time>
      </trkpt>
      <trkpt lat="46.29159" lon="6.8385">
        <ele>1713</ele>
        <time>2000-01-01T08:42:06.000Z</time>
      </trkpt>
      <trkpt lat="46.29153" lon="6.83863">
        <ele>1714.6</ele>
        <time>2000-01-01T08:42:16.000Z</time>
      </trkpt>
      <trkpt lat="46.29148" lon="6.83877">
        <ele>1709</ele>
        <time>2000-01-01T08:42:26.000Z</time>
      </trkpt>
      <trkpt lat="46.29124" lon="6.83933">
        <ele>1704</ele>
        <time>2000-01-01T08:42:36.000Z</time>
      </trkpt>
      <trkpt lat="46.29104" lon="6.83961">
        <ele>1699</ele>
        <time>2000-01-01T08:42:46.000Z</time>
      </trkpt>
      <trkpt lat="46.29094" lon="6.83973">
        <ele>1691.1</ele>
        <time>2000-01-01T08:42:56.000Z</time>
      </trkpt>
      <trkpt lat="46.29091" lon="6.83983">
        <ele>1698</ele>
        <time>2000-01-01T08:43:06.000Z</time>
      </trkpt>
      <trkpt lat="46.29088" lon="6.83997">
        <ele>1688.2</ele>
        <time>2000-01-01T08:43:16.000Z</time>
      </trkpt>
      <trkpt lat="46.2909" lon="6.84013">
        <ele>1688</ele>
        <time>2000-01-01T08:43:26.000Z</time>
      </trkpt>
      <trkpt lat="46.29092" lon="6.84051">
        <ele>1687</ele>
        <time>2000-01-01T08:43:36.000Z</time>
      </trkpt>
      <trkpt lat="46.2909" lon="6.84068">
        <ele>1686.1</ele>
        <time>2000-01-01T08:43:46.000Z</time>
      </trkpt>
      <trkpt lat="46.29069" lon="6.84121">
        <ele>1675</ele>
        <time>2000-01-01T08:43:56.000Z</time>
      </trkpt>
      <trkpt lat="46.29047" lon="6.84163">
        <ele>1668</ele>
        <time>2000-01-01T08:44:06.000Z</time>
      </trkpt>
      <trkpt lat="46.29031" lon="6.8419">
        <ele>1666</ele>
        <time>2000-01-01T08:44:16.000Z</time>
      </trkpt>
      <trkpt lat="46.29022" lon="6.84201">
        <ele>1679.2</ele>
        <time>2000-01-01T08:44:26.000Z</time>
      </trkpt>
      <trkpt lat="46.29008" lon="6.84204">
        <ele>1660</ele>
        <time>2000-01-01T08:44:36.000Z</time>
      </trkpt>
      <trkpt lat="46.2898" lon="6.84218">
        <ele>1653</ele>
        <time>2000-01-01T08:44:46.000Z</time>
      </trkpt>
      <trkpt lat="46.28972" lon="6.84223">
        <ele>1670.8</ele>
        <time>2000-01-01T08:44:56.000Z</time>
      </trkpt>
      <trkpt lat="46.28961" lon="6.84227">
        <ele>1652</ele>
        <time>2000-01-01T08:45:06.000Z</time>
      </trkpt>
      <trkpt lat="46.28955" lon="6.84228">
        <ele>1667.4</ele>
        <time>2000-01-01T08:45:16.000Z</time>
      </trkpt>
      <trkpt lat="46.28947" lon="6.84228">
        <ele>1665.1</ele>
        <time>2000-01-01T08:45:26.000Z</time>
      </trkpt>
      <trkpt lat="46.28921" lon="6.84218">
        <ele>1641</ele>
        <time>2000-01-01T08:45:36.000Z</time>
      </trkpt>
      <trkpt lat="46.28912" lon="6.84216">
        <ele>1651.9</ele>
        <time>2000-01-01T08:45:46.000Z</time>
      </trkpt>
      <trkpt lat="46.28872" lon="6.84216">
        <ele>1630</ele>
        <time>2000-01-01T08:45:56.000Z</time>
      </trkpt>
      <trkpt lat="46.28861" lon="6.84213">
        <ele>1639</ele>
        <time>2000-01-01T08:46:06.000Z</time>
      </trkpt>
      <trkpt lat="46.28838" lon="6.84205">
        <ele>1621</ele>
        <time>2000-01-01T08:46:16.000Z</time>
      </trkpt>
      <trkpt lat="46.28794" lon="6.84206">
        <ele>1613</ele>
        <time>2000-01-01T08:46:26.000Z</time>
      </trkpt>
      <trkpt lat="46.28771" lon="6.84211">
        <ele>1612</ele>
        <time>2000-01-01T08:46:36.000Z</time>
      </trkpt>
      <trkpt lat="46.28764" lon="6.84211">
        <ele>1619.4</ele>
        <time>2000-01-01T08:46:46.000Z</time>
      </trkpt>
      <trkpt lat="46.2873" lon="6.84205">
        <ele>1603</ele>
        <time>2000-01-01T08:46:56.000Z</time>
      </trkpt>
      <trkpt lat="46.28717" lon="6.84201">
        <ele>1608.1</ele>
        <time>2000-01-01T08:47:06.000Z</time>
      </trkpt>
      <trkpt lat="46.28711" lon="6.84197">
        <ele>1597</ele>
        <time>2000-01-01T08:47:16.000Z</time>
      </trkpt>
      <trkpt lat="46.28676" lon="6.84192">
        <ele>1593</ele>
        <time>2000-01-01T08:47:26.000Z</time>
      </trkpt>
      <trkpt lat="46.28658" lon="6.84191">
        <ele>1594.4</ele>
        <time>2000-01-01T08:47:36.000Z</time>
      </trkpt>
      <trkpt lat="46.28649" lon="6.84192">
        <ele>1588</ele>
        <time>2000-01-01T08:47:46.000Z</time>
      </trkpt>
      <trkpt lat="46.28635" lon="6.84195">
        <ele>1590.9</ele>
        <time>2000-01-01T08:47:56.000Z</time>
      </trkpt>
      <trkpt lat="46.28623" lon="6.84203">
        <ele>1587</ele>
        <time>2000-01-01T08:48:06.000Z</time>
      </trkpt>
      <trkpt lat="46.28618" lon="6.84203">
        <ele>1589.8</ele>
        <time>2000-01-01T08:48:16.000Z</time>
      </trkpt>
      <trkpt lat="46.28616" lon="6.842">
        <ele>1588.5</ele>
        <time>2000-01-01T08:48:26.000Z</time>
      </trkpt>
      <trkpt lat="46.28615" lon="6.84196">
        <ele>1587.1</ele>
        <time>2000-01-01T08:48:36.000Z</time>
      </trkpt>
      <trkpt lat="46.28617" lon="6.84189">
        <ele>1585.3</ele>
        <time>2000-01-01T08:48:46.000Z</time>
      </trkpt>
      <trkpt lat="46.28622" lon="6.84181">
        <ele>1581</ele>
        <time>2000-01-01T08:48:56.000Z</time>
      </trkpt>
      <trkpt lat="46.28638" lon="6.84168">
        <ele>1582.9</ele>
        <time>2000-01-01T08:49:06.000Z</time>
      </trkpt>
      <trkpt lat="46.28652" lon="6.84154">
        <ele>1576</ele>
        <time>2000-01-01T08:49:16.000Z</time>
      </trkpt>
      <trkpt lat="46.28671" lon="6.84144">
        <ele>1575</ele>
        <time>2000-01-01T08:49:26.000Z</time>
      </trkpt>
      <trkpt lat="46.28689" lon="6.84131">
        <ele>1573</ele>
        <time>2000-01-01T08:49:36.000Z</time>
      </trkpt>
      <trkpt lat="46.28708" lon="6.84121">
        <ele>1572</ele>
        <time>2000-01-01T08:49:46.000Z</time>
      </trkpt>
      <trkpt lat="46.28713" lon="6.84115">
        <ele>1583.5</ele>
        <time>2000-01-01T08:49:56.000Z</time>
      </trkpt>
      <trkpt lat="46.28712" lon="6.84109">
        <ele>1581.7</ele>
        <time>2000-01-01T08:50:06.000Z</time>
      </trkpt>
      <trkpt lat="46.28707" lon="6.84105">
        <ele>1579.7</ele>
        <time>2000-01-01T08:50:16.000Z</time>
      </trkpt>
      <trkpt lat="46.2869" lon="6.84105">
        <ele>1562</ele>
        <time>2000-01-01T08:50:26.000Z</time>
      </trkpt>
      <trkpt lat="46.28672" lon="6.84106">
        <ele>1572.4</ele>
        <time>2000-01-01T08:50:36.000Z</time>
      </trkpt>
      <trkpt lat="46.28656" lon="6.84102">
        <ele>1555</ele>
        <time>2000-01-01T08:50:46.000Z</time>
      </trkpt>
      <trkpt lat="46.2863" lon="6.84094">
        <ele>1547</ele>
        <time>2000-01-01T08:50:56.000Z</time>
      </trkpt>
      <trkpt lat="46.28606" lon="6.84088">
        <ele>1541</ele>
        <time>2000-01-01T08:51:06.000Z</time>
      </trkpt>
      <trkpt lat="46.28581" lon="6.8408">
        <ele>1534</ele>
        <time>2000-01-01T08:51:16.000Z</time>
      </trkpt>
      <trkpt lat="46.28565" lon="6.8408">
        <ele>1539</ele>
        <time>2000-01-01T08:51:26.000Z</time>
      </trkpt>
      <trkpt lat="46.28544" lon="6.84087">
        <ele>1528</ele>
        <time>2000-01-01T08:51:36.000Z</time>
      </trkpt>
      <trkpt lat="46.28519" lon="6.84093">
        <ele>1525</ele>
        <time>2000-01-01T08:51:46.000Z</time>
      </trkpt>
      <trkpt lat="46.28487" lon="6.84097">
        <ele>1519</ele>
        <time>2000-01-01T08:51:56.000Z</time>
      </trkpt>
      <trkpt lat="46.2845" lon="6.84105">
        <ele>1512</ele>
        <time>2000-01-01T08:52:06.000Z</time>
      </trkpt>
      <trkpt lat="46.28408" lon="6.84107">
        <ele>1509</ele>
        <time>2000-01-01T08:52:16.000Z</time>
      </trkpt>
      <trkpt lat="46.28391" lon="6.84112">
        <ele>1504.9</ele>
        <time>2000-01-01T08:52:26.000Z</time>
      </trkpt>
      <trkpt lat="46.2838" lon="6.84118">
        <ele>1507</ele>
        <time>2000-01-01T08:52:36.000Z</time>
      </trkpt>
      <trkpt lat="46.28373" lon="6.84124">
        <ele>1501.1</ele>
        <time>2000-01-01T08:52:46.000Z</time>
      </trkpt>
      <trkpt lat="46.28365" lon="6.84136">
        <ele>1506</ele>
        <time>2000-01-01T08:52:56.000Z</time>
      </trkpt>
      <trkpt lat="46.28348" lon="6.84171">
        <ele>1498</ele>
        <time>2000-01-01T08:53:06.000Z</time>
      </trkpt>
      <trkpt lat="46.28335" lon="6.84202">
        <ele>1497</ele>
        <time>2000-01-01T08:53:16.000Z</time>
      </trkpt>
      <trkpt lat="46.28322" lon="6.84231">
        <ele>1493</ele>
        <time>2000-01-01T08:53:26.000Z</time>
      </trkpt>
      <trkpt lat="46.28303" lon="6.84285">
        <ele>1487</ele>
        <time>2000-01-01T08:53:36.000Z</time>
      </trkpt>
      <trkpt lat="46.28287" lon="6.84324">
        <ele>1483</ele>
        <time>2000-01-01T08:53:46.000Z</time>
      </trkpt>
      <trkpt lat="46.28283" lon="6.84329">
        <ele>1493.5</ele>
        <time>2000-01-01T08:53:56.000Z</time>
      </trkpt>
      <trkpt lat="46.28274" lon="6.84336">
        <ele>1491</ele>
        <time>2000-01-01T08:54:06.000Z</time>
      </trkpt>
      <trkpt lat="46.28252" lon="6.84355">
        <ele>1479</ele>
        <time>2000-01-01T08:54:16.000Z</time>
      </trkpt>
      <trkpt lat="46.28222" lon="6.84379">
        <ele>1477</ele>
        <time>2000-01-01T08:54:26.000Z</time>
      </trkpt>
      <trkpt lat="46.28218" lon="6.8438">
        <ele>1487.4</ele>
        <time>2000-01-01T08:54:36.000Z</time>
      </trkpt>
      <trkpt lat="46.28216" lon="6.84379">
        <ele>1487.2</ele>
        <time>2000-01-01T08:54:46.000Z</time>
      </trkpt>
      <trkpt lat="46.28211" lon="6.84381">
        <ele>1487.4</ele>
        <time>2000-01-01T08:54:56.000Z</time>
      </trkpt>
      <trkpt lat="46.28201" lon="6.84374">
        <ele>1477</ele>
        <time>2000-01-01T08:55:06.000Z</time>
      </trkpt>
      <trkpt lat="46.28194" lon="6.84362">
        <ele>1484.4</ele>
        <time>2000-01-01T08:55:16.000Z</time>
      </trkpt>
      <trkpt lat="46.28182" lon="6.84335">
        <ele>1477</ele>
        <time>2000-01-01T08:55:26.000Z</time>
      </trkpt>
      <trkpt lat="46.28169" lon="6.84316">
        <ele>1478.4</ele>
        <time>2000-01-01T08:55:36.000Z</time>
      </trkpt>
      <trkpt lat="46.28162" lon="6.84302">
        <ele>1482</ele>
        <time>2000-01-01T08:55:46.000Z</time>
      </trkpt>
      <trkpt lat="46.28154" lon="6.84282">
        <ele>1479.1</ele>
        <time>2000-01-01T08:55:56.000Z</time>
      </trkpt>
      <trkpt lat="46.28139" lon="6.84255">
        <ele>1484</ele>
        <time>2000-01-01T08:56:06.000Z</time>
      </trkpt>
      <trkpt lat="46.28119" lon="6.84225">
        <ele>1485</ele>
        <time>2000-01-01T08:56:16.000Z</time>
      </trkpt>
      <trkpt lat="46.28115" lon="6.84211">
        <ele>1481.2</ele>
        <time>2000-01-01T08:56:26.000Z</time>
      </trkpt>
      <trkpt lat="46.28093" lon="6.84164">
        <ele>1486</ele>
        <time>2000-01-01T08:56:36.000Z</time>
      </trkpt>
      <trkpt lat="46.28088" lon="6.84159">
        <ele>1480.4</ele>
        <time>2000-01-01T08:56:46.000Z</time>
      </trkpt>
      <trkpt lat="46.28084" lon="6.84156">
        <ele>1480.6</ele>
        <time>2000-01-01T08:56:56.000Z</time>
      </trkpt>
      <trkpt lat="46.2808" lon="6.8416">
        <ele>1480.6</ele>
        <time>2000-01-01T08:57:06.000Z</time>
      </trkpt>
      <trkpt lat="46.28066" lon="6.84192">
        <ele>1489</ele>
        <time>2000-01-01T08:57:16.000Z</time>
      </trkpt>
      <trkpt lat="46.28062" lon="6.84204">
        <ele>1483.3</ele>
        <time>2000-01-01T08:57:26.000Z</time>
      </trkpt>
      <trkpt lat="46.28053" lon="6.84237">
        <ele>1490</ele>
        <time>2000-01-01T08:57:36.000Z</time>
      </trkpt>
      <trkpt lat="46.28032" lon="6.84271">
        <ele>1487</ele>
        <time>2000-01-01T08:57:46.000Z</time>
      </trkpt>
      <trkpt lat="46.2802" lon="6.84289">
        <ele>1493.8</ele>
        <time>2000-01-01T08:57:56.000Z</time>
      </trkpt>
      <trkpt lat="46.28007" lon="6.84312">
        <ele>1486</ele>
        <time>2000-01-01T08:58:06.000Z</time>
      </trkpt>
      <trkpt lat="46.27999" lon="6.84327">
        <ele>1499.1</ele>
        <time>2000-01-01T08:58:16.000Z</time>
      </trkpt>
      <trkpt lat="46.27994" lon="6.84341">
        <ele>1486</ele>
        <time>2000-01-01T08:58:26.000Z</time>
      </trkpt>
      <trkpt lat="46.27993" lon="6.84346">
        <ele>1501.3</ele>
        <time>2000-01-01T08:58:36.000Z</time>
      </trkpt>
      <trkpt lat="46.27983" lon="6.84361">
        <ele>1500.9</ele>
        <time>2000-01-01T08:58:46.000Z</time>
      </trkpt>
      <trkpt lat="46.27971" lon="6.84372">
        <ele>1482</ele>
        <time>2000-01-01T08:58:56.000Z</time>
      </trkpt>
      <trkpt lat="46.27967" lon="6.84377">
        <ele>1498.1</ele>
        <time>2000-01-01T08:59:06.000Z</time>
      </trkpt>
      <trkpt lat="46.27958" lon="6.84384">
        <ele>1495.9</ele>
        <time>2000-01-01T08:59:16.000Z</time>
      </trkpt>
      <trkpt lat="46.27935" lon="6.84399">
        <ele>1479</ele>
        <time>2000-01-01T08:59:26.000Z</time>
      </trkpt>
      <trkpt lat="46.27906" lon="6.84422">
        <ele>1475</ele>
        <time>2000-01-01T08:59:36.000Z</time>
      </trkpt>
      <trkpt lat="46.27886" lon="6.84443">
        <ele>1473</ele>
        <time>2000-01-01T08:59:46.000Z</time>
      </trkpt>
      <trkpt lat="46.27867" lon="6.84477">
        <ele>1471</ele>
        <time>2000-01-01T08:59:56.000Z</time>
      </trkpt>
      <trkpt lat="46.27864" lon="6.84475">
        <ele>1483.5</ele>
        <time>2000-01-01T09:00:06.000Z</time>
      </trkpt>
      <trkpt lat="46.27858" lon="6.84475">
        <ele>1480.9</ele>
        <time>2000-01-01T09:00:16.000Z</time>
      </trkpt>
      <trkpt lat="46.27845" lon="6.8448">
        <ele>1463</ele>
        <time>2000-01-01T09:00:26.000Z</time>
      </trkpt>
      <trkpt lat="46.27821" lon="6.84484">
        <ele>1459</ele>
        <time>2000-01-01T09:00:36.000Z</time>
      </trkpt>
      <trkpt lat="46.27814" lon="6.84486">
        <ele>1466.7</ele>
        <time>2000-01-01T09:00:46.000Z</time>
      </trkpt>
      <trkpt lat="46.27802" lon="6.84491">
        <ele>1453</ele>
        <time>2000-01-01T09:00:56.000Z</time>
      </trkpt>
      <trkpt lat="46.27799" lon="6.84488">
        <ele>1461.8</ele>
        <time>2000-01-01T09:01:06.000Z</time>
      </trkpt>
      <trkpt lat="46.27799" lon="6.84467">
        <ele>1455.9</ele>
        <time>2000-01-01T09:01:16.000Z</time>
      </trkpt>
      <trkpt lat="46.27795" lon="6.84462">
        <ele>1444</ele>
        <time>2000-01-01T09:01:26.000Z</time>
      </trkpt>
      <trkpt lat="46.27787" lon="6.84459">
        <ele>1449.6</ele>
        <time>2000-01-01T09:01:36.000Z</time>
      </trkpt>
      <trkpt lat="46.2778" lon="6.84462">
        <ele>1448.1</ele>
        <time>2000-01-01T09:01:46.000Z</time>
      </trkpt>
      <trkpt lat="46.27753" lon="6.84459">
        <ele>1429</ele>
        <time>2000-01-01T09:01:56.000Z</time>
      </trkpt>
      <trkpt lat="46.27738" lon="6.84455">
        <ele>1432.1</ele>
        <time>2000-01-01T09:02:06.000Z</time>
      </trkpt>
      <trkpt lat="46.27726" lon="6.84454">
        <ele>1419</ele>
        <time>2000-01-01T09:02:16.000Z</time>
      </trkpt>
      <trkpt lat="46.27684" lon="6.84474">
        <ele>1415</ele>
        <time>2000-01-01T09:02:26.000Z</time>
      </trkpt>
      <trkpt lat="46.27678" lon="6.84479">
        <ele>1418</ele>
        <time>2000-01-01T09:02:36.000Z</time>
      </trkpt>
      <trkpt lat="46.27662" lon="6.84487">
        <ele>1413</ele>
        <time>2000-01-01T09:02:46.000Z</time>
      </trkpt>
      <trkpt lat="46.27652" lon="6.8449">
        <ele>1414.5</ele>
        <time>2000-01-01T09:02:56.000Z</time>
      </trkpt>
      <trkpt lat="46.27642" lon="6.84487">
        <ele>1408</ele>
        <time>2000-01-01T09:03:06.000Z</time>
      </trkpt>
      <trkpt lat="46.27632" lon="6.84488">
        <ele>1410.1</ele>
        <time>2000-01-01T09:03:16.000Z</time>
      </trkpt>
      <trkpt lat="46.27602" lon="6.84501">
        <ele>1404</ele>
        <time>2000-01-01T09:03:26.000Z</time>
      </trkpt>
      <trkpt lat="46.27589" lon="6.8451">
        <ele>1410.9</ele>
        <time>2000-01-01T09:03:36.000Z</time>
      </trkpt>
      <trkpt lat="46.27574" lon="6.84524">
        <ele>1399</ele>
        <time>2000-01-01T09:03:46.000Z</time>
      </trkpt>
      <trkpt lat="46.27568" lon="6.84528">
        <ele>1414.4</ele>
        <time>2000-01-01T09:03:56.000Z</time>
      </trkpt>
      <trkpt lat="46.27553" lon="6.84535">
        <ele>1399</ele>
        <time>2000-01-01T09:04:06.000Z</time>
      </trkpt>
      <trkpt lat="46.27529" lon="6.84548">
        <ele>1391</ele>
        <time>2000-01-01T09:04:16.000Z</time>
      </trkpt>
      <trkpt lat="46.27499" lon="6.84564">
        <ele>1390</ele>
        <time>2000-01-01T09:04:26.000Z</time>
      </trkpt>
      <trkpt lat="46.27473" lon="6.84585">
        <ele>1390</ele>
        <time>2000-01-01T09:04:36.000Z</time>
      </trkpt>
      <trkpt lat="46.27463" lon="6.84587">
        <ele>1408.6</ele>
        <time>2000-01-01T09:04:46.000Z</time>
      </trkpt>
      <trkpt lat="46.2745" lon="6.84592">
        <ele>1386</ele>
        <time>2000-01-01T09:04:56.000Z</time>
      </trkpt>
      <trkpt lat="46.27423" lon="6.84597">
        <ele>1381</ele>
        <time>2000-01-01T09:05:06.000Z</time>
      </trkpt>
      <trkpt lat="46.27402" lon="6.8461">
        <ele>1380</ele>
        <time>2000-01-01T09:05:16.000Z</time>
      </trkpt>
      <trkpt lat="46.27391" lon="6.84615">
        <ele>1396.7</ele>
        <time>2000-01-01T09:05:26.000Z</time>
      </trkpt>
      <trkpt lat="46.27374" lon="6.84621">
        <ele>1379</ele>
        <time>2000-01-01T09:05:36.000Z</time>
      </trkpt>
      <trkpt lat="46.27367" lon="6.84628">
        <ele>1394.8</ele>
        <time>2000-01-01T09:05:46.000Z</time>
      </trkpt>
      <trkpt lat="46.27362" lon="6.84631">
        <ele>1394.4</ele>
        <time>2000-01-01T09:05:56.000Z</time>
      </trkpt>
      <trkpt lat="46.27347" lon="6.84629">
        <ele>1373</ele>
        <time>2000-01-01T09:06:06.000Z</time>
      </trkpt>
      <trkpt lat="46.27327" lon="6.84629">
        <ele>1371</ele>
        <time>2000-01-01T09:06:16.000Z</time>
      </trkpt>
      <trkpt lat="46.27309" lon="6.84632">
        <ele>1378.2</ele>
        <time>2000-01-01T09:06:26.000Z</time>
      </trkpt>
      <trkpt lat="46.27297" lon="6.84637">
        <ele>1367</ele>
        <time>2000-01-01T09:06:36.000Z</time>
      </trkpt>
      <trkpt lat="46.27273" lon="6.8465">
        <ele>1367</ele>
        <time>2000-01-01T09:06:46.000Z</time>
      </trkpt>
      <trkpt lat="46.27243" lon="6.84666">
        <ele>1368</ele>
        <time>2000-01-01T09:06:56.000Z</time>
      </trkpt>
      <trkpt lat="46.27231" lon="6.84678">
        <ele>1370.9</ele>
        <time>2000-01-01T09:07:06.000Z</time>
      </trkpt>
      <trkpt lat="46.27225" lon="6.84683">
        <ele>1368</ele>
        <time>2000-01-01T09:07:16.000Z</time>
      </trkpt>
      <trkpt lat="46.27211" lon="6.84688">
        <ele>1372.2</ele>
        <time>2000-01-01T09:07:26.000Z</time>
      </trkpt>
      <trkpt lat="46.27194" lon="6.84699">
        <ele>1366</ele>
        <time>2000-01-01T09:07:36.000Z</time>
      </trkpt>
      <trkpt lat="46.27189" lon="6.84701">
        <ele>1374</ele>
        <time>2000-01-01T09:07:46.000Z</time>
      </trkpt>
      <trkpt lat="46.27186" lon="6.84701">
        <ele>1373.7</ele>
        <time>2000-01-01T09:07:56.000Z</time>
      </trkpt>
      <trkpt lat="46.27181" lon="6.84698">
        <ele>1372.5</ele>
        <time>2000-01-01T09:08:06.000Z</time>
      </trkpt>
      <trkpt lat="46.27202" lon="6.84678">
        <ele>1364</ele>
        <time>2000-01-01T09:08:16.000Z</time>
      </trkpt>
      <trkpt lat="46.27193" lon="6.84678">
        <ele>1368</ele>
        <time>2000-01-01T09:08:26.000Z</time>
      </trkpt>
      <trkpt lat="46.27179" lon="6.84682">
        <ele>1363</ele>
        <time>2000-01-01T09:08:36.000Z</time>
      </trkpt>
      <trkpt lat="46.27154" lon="6.84693">
        <ele>1363</ele>
        <time>2000-01-01T09:08:46.000Z</time>
      </trkpt>
      <trkpt lat="46.27135" lon="6.84698">
        <ele>1360</ele>
        <time>2000-01-01T09:08:56.000Z</time>
      </trkpt>
      <trkpt lat="46.27122" lon="6.847">
        <ele>1366.7</ele>
        <time>2000-01-01T09:09:06.000Z</time>
      </trkpt>
      <trkpt lat="46.27104" lon="6.84711">
        <ele>1359</ele>
        <time>2000-01-01T09:09:16.000Z</time>
      </trkpt>
      <trkpt lat="46.27089" lon="6.84719">
        <ele>1366</ele>
        <time>2000-01-01T09:09:26.000Z</time>
      </trkpt>
      <trkpt lat="46.27079" lon="6.84722">
        <ele>1357</ele>
        <time>2000-01-01T09:09:36.000Z</time>
      </trkpt>
      <trkpt lat="46.27073" lon="6.8472">
        <ele>1366.2</ele>
        <time>2000-01-01T09:09:46.000Z</time>
      </trkpt>
      <trkpt lat="46.27068" lon="6.84716">
        <ele>1366</ele>
        <time>2000-01-01T09:09:56.000Z</time>
      </trkpt>
      <trkpt lat="46.27066" lon="6.84709">
        <ele>1365.2</ele>
        <time>2000-01-01T09:10:06.000Z</time>
      </trkpt>
      <trkpt lat="46.27067" lon="6.84701">
        <ele>1354</ele>
        <time>2000-01-01T09:10:16.000Z</time>
      </trkpt>
      <trkpt lat="46.27071" lon="6.84683">
        <ele>1360.9</ele>
        <time>2000-01-01T09:10:26.000Z</time>
      </trkpt>
      <trkpt lat="46.2707" lon="6.84673">
        <ele>1355</ele>
        <time>2000-01-01T09:10:36.000Z</time>
      </trkpt>
      <trkpt lat="46.27061" lon="6.84652">
        <ele>1358.6</ele>
        <time>2000-01-01T09:10:46.000Z</time>
      </trkpt>
      <trkpt lat="46.27055" lon="6.84626">
        <ele>1357</ele>
        <time>2000-01-01T09:10:56.000Z</time>
      </trkpt>
      <trkpt lat="46.27046" lon="6.84621">
        <ele>1357.8</ele>
        <time>2000-01-01T09:11:06.000Z</time>
      </trkpt>
      <trkpt lat="46.27031" lon="6.84639">
        <ele>1358</ele>
        <time>2000-01-01T09:11:16.000Z</time>
      </trkpt>
      <trkpt lat="46.2702" lon="6.84628">
        <ele>1360.9</ele>
        <time>2000-01-01T09:11:26.000Z</time>
      </trkpt>
      <trkpt lat="46.27016" lon="6.84613">
        <ele>1357</ele>
        <time>2000-01-01T09:11:36.000Z</time>
      </trkpt>
      <trkpt lat="46.27012" lon="6.84604">
        <ele>1359.2</ele>
        <time>2000-01-01T09:11:46.000Z</time>
      </trkpt>
      <trkpt lat="46.27004" lon="6.84592">
        <ele>1356</ele>
        <time>2000-01-01T09:11:56.000Z</time>
      </trkpt>
      <trkpt lat="46.26992" lon="6.84579">
        <ele>1357.1</ele>
        <time>2000-01-01T09:12:06.000Z</time>
      </trkpt>
      <trkpt lat="46.26973" lon="6.84562">
        <ele>1345</ele>
        <time>2000-01-01T09:12:16.000Z</time>
      </trkpt>
      <trkpt lat="46.26955" lon="6.84551">
        <ele>1339</ele>
        <time>2000-01-01T09:12:26.000Z</time>
      </trkpt>
      <trkpt lat="46.26943" lon="6.84546">
        <ele>1347.8</ele>
        <time>2000-01-01T09:12:36.000Z</time>
      </trkpt>
      <trkpt lat="46.26884" lon="6.84537">
        <ele>1317</ele>
        <time>2000-01-01T09:12:46.000Z</time>
      </trkpt>
      <trkpt lat="46.26875" lon="6.84534">
        <ele>1339</ele>
        <time>2000-01-01T09:12:56.000Z</time>
      </trkpt>
      <trkpt lat="46.26865" lon="6.84527">
        <ele>1311</ele>
        <time>2000-01-01T09:13:06.000Z</time>
      </trkpt>
      <trkpt lat="46.26852" lon="6.84516">
        <ele>1327.4</ele>
        <time>2000-01-01T09:13:16.000Z</time>
      </trkpt>
      <trkpt lat="46.26827" lon="6.84501">
        <ele>1302</ele>
        <time>2000-01-01T09:13:26.000Z</time>
      </trkpt>
      <trkpt lat="46.26806" lon="6.84489">
        <ele>1296</ele>
        <time>2000-01-01T09:13:36.000Z</time>
      </trkpt>
      <trkpt lat="46.26782" lon="6.84478">
        <ele>1291</ele>
        <time>2000-01-01T09:13:46.000Z</time>
      </trkpt>
      <trkpt lat="46.26755" lon="6.84465">
        <ele>1284</ele>
        <time>2000-01-01T09:13:56.000Z</time>
      </trkpt>
      <trkpt lat="46.26726" lon="6.84455">
        <ele>1278</ele>
        <time>2000-01-01T09:14:06.000Z</time>
      </trkpt>
      <trkpt lat="46.26709" lon="6.84452">
        <ele>1290.5</ele>
        <time>2000-01-01T09:14:16.000Z</time>
      </trkpt>
      <trkpt lat="46.26703" lon="6.84452">
        <ele>1275</ele>
        <time>2000-01-01T09:14:26.000Z</time>
      </trkpt>
      <trkpt lat="46.26696" lon="6.84453">
        <ele>1290.7</ele>
        <time>2000-01-01T09:14:36.000Z</time>
      </trkpt>
      <trkpt lat="46.26663" lon="6.84438">
        <ele>1266</ele>
        <time>2000-01-01T09:14:46.000Z</time>
      </trkpt>
      <trkpt lat="46.26647" lon="6.84428">
        <ele>1279.4</ele>
        <time>2000-01-01T09:14:56.000Z</time>
      </trkpt>
      <trkpt lat="46.26619" lon="6.84406">
        <ele>1257</ele>
        <time>2000-01-01T09:15:06.000Z</time>
      </trkpt>
      <trkpt lat="46.26595" lon="6.8439">
        <ele>1253</ele>
        <time>2000-01-01T09:15:16.000Z</time>
      </trkpt>
      <trkpt lat="46.26572" lon="6.84377">
        <ele>1252</ele>
        <time>2000-01-01T09:15:26.000Z</time>
      </trkpt>
      <trkpt lat="46.26545" lon="6.84362">
        <ele>1251</ele>
        <time>2000-01-01T09:15:36.000Z</time>
      </trkpt>
      <trkpt lat="46.26511" lon="6.84347">
        <ele>1244</ele>
        <time>2000-01-01T09:15:46.000Z</time>
      </trkpt>
      <trkpt lat="46.26489" lon="6.8433">
        <ele>1240</ele>
        <time>2000-01-01T09:15:56.000Z</time>
      </trkpt>
      <trkpt lat="46.26465" lon="6.84312">
        <ele>1234</ele>
        <time>2000-01-01T09:16:06.000Z</time>
      </trkpt>
      <trkpt lat="46.26443" lon="6.84298">
        <ele>1233</ele>
        <time>2000-01-01T09:16:16.000Z</time>
      </trkpt>
      <trkpt lat="46.26413" lon="6.84281">
        <ele>1233</ele>
        <time>2000-01-01T09:16:26.000Z</time>
      </trkpt>
      <trkpt lat="46.26377" lon="6.84267">
        <ele>1234</ele>
        <time>2000-01-01T09:16:36.000Z</time>
      </trkpt>
      <trkpt lat="46.26355" lon="6.84262">
        <ele>1235</ele>
        <time>2000-01-01T09:16:46.000Z</time>
      </trkpt>
      <trkpt lat="46.26327" lon="6.84252">
        <ele>1235</ele>
        <time>2000-01-01T09:16:56.000Z</time>
      </trkpt>
      <trkpt lat="46.26303" lon="6.84246">
        <ele>1235</ele>
        <time>2000-01-01T09:17:06.000Z</time>
      </trkpt>
      <trkpt lat="46.26277" lon="6.84239">
        <ele>1236</ele>
        <time>2000-01-01T09:17:16.000Z</time>
      </trkpt>
      <trkpt lat="46.26262" lon="6.84232">
        <ele>1247.2</ele>
        <time>2000-01-01T09:17:26.000Z</time>
      </trkpt>
      <trkpt lat="46.26249" lon="6.84227">
        <ele>1237</ele>
        <time>2000-01-01T09:17:36.000Z</time>
      </trkpt>
      <trkpt lat="46.26234" lon="6.84224">
        <ele>1249.3</ele>
        <time>2000-01-01T09:17:46.000Z</time>
      </trkpt>
      <trkpt lat="46.26219" lon="6.84224">
        <ele>1243</ele>
        <time>2000-01-01T09:17:56.000Z</time>
      </trkpt>
      <trkpt lat="46.26208" lon="6.84223">
        <ele>1254.3</ele>
        <time>2000-01-01T09:18:06.000Z</time>
      </trkpt>
      <trkpt lat="46.26185" lon="6.84223">
        <ele>1249</ele>
        <time>2000-01-01T09:18:16.000Z</time>
      </trkpt>
      <trkpt lat="46.26155" lon="6.84219">
        <ele>1252</ele>
        <time>2000-01-01T09:18:26.000Z</time>
      </trkpt>
      <trkpt lat="46.26129" lon="6.84215">
        <ele>1258</ele>
        <time>2000-01-01T09:18:36.000Z</time>
      </trkpt>
      <trkpt lat="46.26098" lon="6.84211">
        <ele>1258</ele>
        <time>2000-01-01T09:18:46.000Z</time>
      </trkpt>
      <trkpt lat="46.26056" lon="6.84206">
        <ele>1258</ele>
        <time>2000-01-01T09:18:56.000Z</time>
      </trkpt>
      <trkpt lat="46.26022" lon="6.842">
        <ele>1259</ele>
        <time>2000-01-01T09:19:06.000Z</time>
      </trkpt>
      <trkpt lat="46.26001" lon="6.84205">
        <ele>1258</ele>
        <time>2000-01-01T09:19:16.000Z</time>
      </trkpt>
      <trkpt lat="46.25974" lon="6.84218">
        <ele>1257</ele>
        <time>2000-01-01T09:19:26.000Z</time>
      </trkpt>
      <trkpt lat="46.25938" lon="6.84238">
        <ele>1254</ele>
        <time>2000-01-01T09:19:36.000Z</time>
      </trkpt>
      <trkpt lat="46.25931" lon="6.84239">
        <ele>1266</ele>
        <time>2000-01-01T09:19:46.000Z</time>
      </trkpt>
      <trkpt lat="46.25912" lon="6.8425">
        <ele>1250</ele>
        <time>2000-01-01T09:19:56.000Z</time>
      </trkpt>
      <trkpt lat="46.25891" lon="6.84257">
        <ele>1249</ele>
        <time>2000-01-01T09:20:06.000Z</time>
      </trkpt>
      <trkpt lat="46.25874" lon="6.84256">
        <ele>1265.4</ele>
        <time>2000-01-01T09:20:16.000Z</time>
      </trkpt>
      <trkpt lat="46.25857" lon="6.84256">
        <ele>1249</ele>
        <time>2000-01-01T09:20:26.000Z</time>
      </trkpt>
      <trkpt lat="46.25847" lon="6.84252">
        <ele>1261.7</ele>
        <time>2000-01-01T09:20:36.000Z</time>
      </trkpt>
      <trkpt lat="46.25837" lon="6.8424">
        <ele>1245</ele>
        <time>2000-01-01T09:20:46.000Z</time>
      </trkpt>
      <trkpt lat="46.25822" lon="6.84233">
        <ele>1255.9</ele>
        <time>2000-01-01T09:20:56.000Z</time>
      </trkpt>
      <trkpt lat="46.25817" lon="6.8423">
        <ele>1242</ele>
        <time>2000-01-01T09:21:06.000Z</time>
      </trkpt>
      <trkpt lat="46.25813" lon="6.84225">
        <ele>1254.1</ele>
        <time>2000-01-01T09:21:16.000Z</time>
      </trkpt>
      <trkpt lat="46.25811" lon="6.84217">
        <ele>1252.4</ele>
        <time>2000-01-01T09:21:26.000Z</time>
      </trkpt>
      <trkpt lat="46.25809" lon="6.8422">
        <ele>1253</ele>
        <time>2000-01-01T09:21:36.000Z</time>
      </trkpt>
      <trkpt lat="46.25769" lon="6.84224">
        <ele>1241</ele>
        <time>2000-01-01T09:21:46.000Z</time>
      </trkpt>
      <trkpt lat="46.25745" lon="6.84228">
        <ele>1241</ele>
        <time>2000-01-01T09:21:56.000Z</time>
      </trkpt>
      <trkpt lat="46.25717" lon="6.84233">
        <ele>1241</ele>
        <time>2000-01-01T09:22:06.000Z</time>
      </trkpt>
      <trkpt lat="46.25688" lon="6.8424">
        <ele>1241</ele>
        <time>2000-01-01T09:22:16.000Z</time>
      </trkpt>
      <trkpt lat="46.25665" lon="6.84245">
        <ele>1241</ele>
        <time>2000-01-01T09:22:26.000Z</time>
      </trkpt>
      <trkpt lat="46.25641" lon="6.84251">
        <ele>1241</ele>
        <time>2000-01-01T09:22:36.000Z</time>
      </trkpt>
      <trkpt lat="46.256" lon="6.84255">
        <ele>1241</ele>
        <time>2000-01-01T09:22:46.000Z</time>
      </trkpt>
      <trkpt lat="46.25576" lon="6.84237">
        <ele>1242</ele>
        <time>2000-01-01T09:22:56.000Z</time>
      </trkpt>
      <trkpt lat="46.25573" lon="6.84201">
        <ele>1242</ele>
        <time>2000-01-01T09:23:06.000Z</time>
      </trkpt>
      <trkpt lat="46.25596" lon="6.84162">
        <ele>1243</ele>
        <time>2000-01-01T09:23:16.000Z</time>
      </trkpt>
      <trkpt lat="46.25604" lon="6.84137">
        <ele>1243</ele>
        <time>2000-01-01T09:23:26.000Z</time>
      </trkpt>
      <trkpt lat="46.25632" lon="6.84121">
        <ele>1243</ele>
        <time>2000-01-01T09:23:36.000Z</time>
      </trkpt>
      <trkpt lat="46.25652" lon="6.84099">
        <ele>1242</ele>
        <time>2000-01-01T09:23:46.000Z</time>
      </trkpt>
      <trkpt lat="46.25676" lon="6.84072">
        <ele>1242</ele>
        <time>2000-01-01T09:23:56.000Z</time>
      </trkpt>
      <trkpt lat="46.25688" lon="6.84065">
        <ele>1248.7</ele>
        <time>2000-01-01T09:24:06.000Z</time>
      </trkpt>
      <trkpt lat="46.25729" lon="6.84027">
        <ele>1242</ele>
        <time>2000-01-01T09:24:16.000Z</time>
      </trkpt>
      <trkpt lat="46.2571" lon="6.83988">
        <ele>1243</ele>
        <time>2000-01-01T09:24:26.000Z</time>
      </trkpt>
      <trkpt lat="46.25681" lon="6.83951">
        <ele>1245</ele>
        <time>2000-01-01T09:24:36.000Z</time>
      </trkpt>
      <trkpt lat="46.25656" lon="6.83932">
        <ele>1253</ele>
        <time>2000-01-01T09:24:46.000Z</time>
      </trkpt>
      <trkpt lat="46.25642" lon="6.83911">
        <ele>1253</ele>
        <time>2000-01-01T09:24:56.000Z</time>
      </trkpt>
      <trkpt lat="46.25633" lon="6.8388">
        <ele>1253</ele>
        <time>2000-01-01T09:25:06.000Z</time>
      </trkpt>
      <trkpt lat="46.25623" lon="6.83848">
        <ele>1254</ele>
        <time>2000-01-01T09:25:16.000Z</time>
      </trkpt>
      <trkpt lat="46.25594" lon="6.83798">
        <ele>1255</ele>
        <time>2000-01-01T09:25:26.000Z</time>
      </trkpt>
      <trkpt lat="46.25578" lon="6.83773">
        <ele>1254</ele>
        <time>2000-01-01T09:25:36.000Z</time>
      </trkpt>
      <trkpt lat="46.25561" lon="6.83747">
        <ele>1254</ele>
        <time>2000-01-01T09:25:46.000Z</time>
      </trkpt>
      <trkpt lat="46.25531" lon="6.83704">
        <ele>1257</ele>
        <time>2000-01-01T09:25:56.000Z</time>
      </trkpt>
      <trkpt lat="46.25515" lon="6.83673">
        <ele>1257</ele>
        <time>2000-01-01T09:26:06.000Z</time>
      </trkpt>
      <trkpt lat="46.25502" lon="6.83642">
        <ele>1256</ele>
        <time>2000-01-01T09:26:16.000Z</time>
      </trkpt>
      <trkpt lat="46.25486" lon="6.83606">
        <ele>1256</ele>
        <time>2000-01-01T09:26:26.000Z</time>
      </trkpt>
      <trkpt lat="46.25474" lon="6.83573">
        <ele>1256</ele>
        <time>2000-01-01T09:26:36.000Z</time>
      </trkpt>
      <trkpt lat="46.25459" lon="6.83533">
        <ele>1255</ele>
        <time>2000-01-01T09:26:46.000Z</time>
      </trkpt>
      <trkpt lat="46.25445" lon="6.83503">
        <ele>1255</ele>
        <time>2000-01-01T09:26:56.000Z</time>
      </trkpt>
      <trkpt lat="46.25429" lon="6.83467">
        <ele>1255</ele>
        <time>2000-01-01T09:27:06.000Z</time>
      </trkpt>
      <trkpt lat="46.25409" lon="6.83432">
        <ele>1255</ele>
        <time>2000-01-01T09:27:16.000Z</time>
      </trkpt>
      <trkpt lat="46.25389" lon="6.83398">
        <ele>1255</ele>
        <time>2000-01-01T09:27:26.000Z</time>
      </trkpt>
      <trkpt lat="46.25369" lon="6.83363">
        <ele>1256</ele>
        <time>2000-01-01T09:27:36.000Z</time>
      </trkpt>
      <trkpt lat="46.2534" lon="6.83317">
        <ele>1257</ele>
        <time>2000-01-01T09:27:46.000Z</time>
      </trkpt>
      <trkpt lat="46.25325" lon="6.83276">
        <ele>1256</ele>
        <time>2000-01-01T09:27:56.000Z</time>
      </trkpt>
      <trkpt lat="46.25322" lon="6.83251">
        <ele>1270.5</ele>
        <time>2000-01-01T09:28:06.000Z</time>
      </trkpt>
      <trkpt lat="46.25302" lon="6.83223">
        <ele>1256</ele>
        <time>2000-01-01T09:28:16.000Z</time>
      </trkpt>
      <trkpt lat="46.25295" lon="6.83191">
        <ele>1258</ele>
        <time>2000-01-01T09:28:26.000Z</time>
      </trkpt>
      <trkpt lat="46.25278" lon="6.83156">
        <ele>1259</ele>
        <time>2000-01-01T09:28:36.000Z</time>
      </trkpt>
      <trkpt lat="46.25264" lon="6.83126">
        <ele>1261</ele>
        <time>2000-01-01T09:28:46.000Z</time>
      </trkpt>
      <trkpt lat="46.25248" lon="6.83093">
        <ele>1263</ele>
        <time>2000-01-01T09:28:56.000Z</time>
      </trkpt>
      <trkpt lat="46.25242" lon="6.83062">
        <ele>1263</ele>
        <time>2000-01-01T09:29:06.000Z</time>
      </trkpt>
      <trkpt lat="46.2524" lon="6.83014">
        <ele>1263</ele>
        <time>2000-01-01T09:29:16.000Z</time>
      </trkpt>
      <trkpt lat="46.25232" lon="6.82974">
        <ele>1263</ele>
        <time>2000-01-01T09:29:26.000Z</time>
      </trkpt>
      <trkpt lat="46.25233" lon="6.82938">
        <ele>1264</ele>
        <time>2000-01-01T09:29:36.000Z</time>
      </trkpt>
      <trkpt lat="46.25238" lon="6.82873">
        <ele>1265</ele>
        <time>2000-01-01T09:29:46.000Z</time>
      </trkpt>
      <trkpt lat="46.25238" lon="6.82832">
        <ele>1262</ele>
        <time>2000-01-01T09:29:56.000Z</time>
      </trkpt>
      <trkpt lat="46.25237" lon="6.82771">
        <ele>1259</ele>
        <time>2000-01-01T09:30:06.000Z</time>
      </trkpt>
      <trkpt lat="46.25234" lon="6.82734">
        <ele>1259</ele>
        <time>2000-01-01T09:30:16.000Z</time>
      </trkpt>
      <trkpt lat="46.25231" lon="6.82687">
        <ele>1257</ele>
        <time>2000-01-01T09:30:26.000Z</time>
      </trkpt>
      <trkpt lat="46.25225" lon="6.8264">
        <ele>1257</ele>
        <time>2000-01-01T09:30:36.000Z</time>
      </trkpt>
      <trkpt lat="46.25206" lon="6.82595">
        <ele>1260</ele>
        <time>2000-01-01T09:30:46.000Z</time>
      </trkpt>
      <trkpt lat="46.25179" lon="6.82567">
        <ele>1260</ele>
        <time>2000-01-01T09:30:56.000Z</time>
      </trkpt>
      <trkpt lat="46.25152" lon="6.82539">
        <ele>1260</ele>
        <time>2000-01-01T09:31:06.000Z</time>
      </trkpt>
      <trkpt lat="46.25133" lon="6.82519">
        <ele>1260</ele>
        <time>2000-01-01T09:31:16.000Z</time>
      </trkpt>
      <trkpt lat="46.25113" lon="6.82499">
        <ele>1259</ele>
        <time>2000-01-01T09:31:26.000Z</time>
      </trkpt>
      <trkpt lat="46.25101" lon="6.82491">
        <ele>1282.7</ele>
        <time>2000-01-01T09:31:36.000Z</time>
      </trkpt>
      <trkpt lat="46.25067" lon="6.82476">
        <ele>1259</ele>
        <time>2000-01-01T09:31:46.000Z</time>
      </trkpt>
      <trkpt lat="46.25038" lon="6.82448">
        <ele>1257</ele>
        <time>2000-01-01T09:31:56.000Z</time>
      </trkpt>
      <trkpt lat="46.25032" lon="6.82436">
        <ele>1280.2</ele>
        <time>2000-01-01T09:32:06.000Z</time>
      </trkpt>
      <trkpt lat="46.25032" lon="6.82412">
        <ele>1257</ele>
        <time>2000-01-01T09:32:16.000Z</time>
      </trkpt>
      <trkpt lat="46.25035" lon="6.82365">
        <ele>1258</ele>
        <time>2000-01-01T09:32:26.000Z</time>
      </trkpt>
      <trkpt lat="46.25033" lon="6.8233">
        <ele>1258</ele>
        <time>2000-01-01T09:32:36.000Z</time>
      </trkpt>
      <trkpt lat="46.25045" lon="6.82285">
        <ele>1258</ele>
        <time>2000-01-01T09:32:46.000Z</time>
      </trkpt>
      <trkpt lat="46.25051" lon="6.82253">
        <ele>1258</ele>
        <time>2000-01-01T09:32:56.000Z</time>
      </trkpt>
      <trkpt lat="46.25057" lon="6.8222">
        <ele>1261</ele>
        <time>2000-01-01T09:33:06.000Z</time>
      </trkpt>
      <trkpt lat="46.2506" lon="6.82183">
        <ele>1261</ele>
        <time>2000-01-01T09:33:16.000Z</time>
      </trkpt>
      <trkpt lat="46.25057" lon="6.82145">
        <ele>1257</ele>
        <time>2000-01-01T09:33:26.000Z</time>
      </trkpt>
      <trkpt lat="46.25053" lon="6.82117">
        <ele>1256</ele>
        <time>2000-01-01T09:33:36.000Z</time>
      </trkpt>
      <trkpt lat="46.25039" lon="6.8208">
        <ele>1256</ele>
        <time>2000-01-01T09:33:46.000Z</time>
      </trkpt>
      <trkpt lat="46.25035" lon="6.82055">
        <ele>1265.2</ele>
        <time>2000-01-01T09:33:56.000Z</time>
      </trkpt>
      <trkpt lat="46.25035" lon="6.82021">
        <ele>1257</ele>
        <time>2000-01-01T09:34:06.000Z</time>
      </trkpt>
      <trkpt lat="46.2503" lon="6.81991">
        <ele>1255</ele>
        <time>2000-01-01T09:34:16.000Z</time>
      </trkpt>
      <trkpt lat="46.25017" lon="6.81953">
        <ele>1253</ele>
        <time>2000-01-01T09:34:26.000Z</time>
      </trkpt>
      <trkpt lat="46.25012" lon="6.81933">
        <ele>1263.5</ele>
        <time>2000-01-01T09:34:36.000Z</time>
      </trkpt>
      <trkpt lat="46.25005" lon="6.81913">
        <ele>1249</ele>
        <time>2000-01-01T09:34:46.000Z</time>
      </trkpt>
      <trkpt lat="46.24988" lon="6.81875">
        <ele>1245</ele>
        <time>2000-01-01T09:34:56.000Z</time>
      </trkpt>
      <trkpt lat="46.24981" lon="6.81842">
        <ele>1244</ele>
        <time>2000-01-01T09:35:06.000Z</time>
      </trkpt>
      <trkpt lat="46.24972" lon="6.81791">
        <ele>1239</ele>
        <time>2000-01-01T09:35:16.000Z</time>
      </trkpt>
      <trkpt lat="46.24961" lon="6.81749">
        <ele>1234</ele>
        <time>2000-01-01T09:35:26.000Z</time>
      </trkpt>
      <trkpt lat="46.24954" lon="6.81708">
        <ele>1231</ele>
        <time>2000-01-01T09:35:36.000Z</time>
      </trkpt>
      <trkpt lat="46.24953" lon="6.81675">
        <ele>1229</ele>
        <time>2000-01-01T09:35:46.000Z</time>
      </trkpt>
      <trkpt lat="46.2495" lon="6.81641">
        <ele>1229</ele>
        <time>2000-01-01T09:35:56.000Z</time>
      </trkpt>
      <trkpt lat="46.24941" lon="6.81598">
        <ele>1222</ele>
        <time>2000-01-01T09:36:06.000Z</time>
      </trkpt>
      <trkpt lat="46.24934" lon="6.81549">
        <ele>1222</ele>
        <time>2000-01-01T09:36:16.000Z</time>
      </trkpt>
      <trkpt lat="46.24929" lon="6.81534">
        <ele>1235.9</ele>
        <time>2000-01-01T09:36:26.000Z</time>
      </trkpt>
      <trkpt lat="46.24928" lon="6.81506">
        <ele>1221</ele>
        <time>2000-01-01T09:36:36.000Z</time>
      </trkpt>
      <trkpt lat="46.24928" lon="6.81463">
        <ele>1221</ele>
        <time>2000-01-01T09:36:46.000Z</time>
      </trkpt>
      <trkpt lat="46.24925" lon="6.81441">
        <ele>1230</ele>
        <time>2000-01-01T09:36:56.000Z</time>
      </trkpt>
      <trkpt lat="46.24919" lon="6.81411">
        <ele>1217</ele>
        <time>2000-01-01T09:37:06.000Z</time>
      </trkpt>
      <trkpt lat="46.24917" lon="6.81394">
        <ele>1230.1</ele>
        <time>2000-01-01T09:37:16.000Z</time>
      </trkpt>
      <trkpt lat="46.24915" lon="6.81309">
        <ele>1210</ele>
        <time>2000-01-01T09:37:26.000Z</time>
      </trkpt>
      <trkpt lat="46.24911" lon="6.81283">
        <ele>1215.9</ele>
        <time>2000-01-01T09:37:36.000Z</time>
      </trkpt>
      <trkpt lat="46.24905" lon="6.81256">
        <ele>1206</ele>
        <time>2000-01-01T09:37:46.000Z</time>
      </trkpt>
      <trkpt lat="46.24897" lon="6.81231">
        <ele>1206</ele>
        <time>2000-01-01T09:37:56.000Z</time>
      </trkpt>
      <trkpt lat="46.24881" lon="6.812">
        <ele>1203</ele>
        <time>2000-01-01T09:38:06.000Z</time>
      </trkpt>
      <trkpt lat="46.24859" lon="6.8116">
        <ele>1201</ele>
        <time>2000-01-01T09:38:16.000Z</time>
      </trkpt>
      <trkpt lat="46.24852" lon="6.81142">
        <ele>1211.6</ele>
        <time>2000-01-01T09:38:26.000Z</time>
      </trkpt>
      <trkpt lat="46.24847" lon="6.81119">
        <ele>1201</ele>
        <time>2000-01-01T09:38:36.000Z</time>
      </trkpt>
      <trkpt lat="46.24842" lon="6.81082">
        <ele>1198</ele>
        <time>2000-01-01T09:38:46.000Z</time>
      </trkpt>
      <trkpt lat="46.24833" lon="6.81025">
        <ele>1195</ele>
        <time>2000-01-01T09:38:56.000Z</time>
      </trkpt>
      <trkpt lat="46.24822" lon="6.80975">
        <ele>1192</ele>
        <time>2000-01-01T09:39:06.000Z</time>
      </trkpt>
      <trkpt lat="46.24809" lon="6.80922">
        <ele>1191</ele>
        <time>2000-01-01T09:39:16.000Z</time>
      </trkpt>
      <trkpt lat="46.24791" lon="6.80876">
        <ele>1183</ele>
        <time>2000-01-01T09:39:26.000Z</time>
      </trkpt>
      <trkpt lat="46.24773" lon="6.80854">
        <ele>1183</ele>
        <time>2000-01-01T09:39:36.000Z</time>
      </trkpt>
      <trkpt lat="46.24771" lon="6.80842">
        <ele>1202.1</ele>
        <time>2000-01-01T09:39:46.000Z</time>
      </trkpt>
      <trkpt lat="46.24774" lon="6.80837">
        <ele>1200.1</ele>
        <time>2000-01-01T09:39:56.000Z</time>
      </trkpt>
      <trkpt lat="46.24778" lon="6.80839">
        <ele>1199</ele>
        <time>2000-01-01T09:40:06.000Z</time>
      </trkpt>
      <trkpt lat="46.24789" lon="6.80852">
        <ele>1183</ele>
        <time>2000-01-01T09:40:16.000Z</time>
      </trkpt>
      <trkpt lat="46.24799" lon="6.80868">
        <ele>1196.5</ele>
        <time>2000-01-01T09:40:26.000Z</time>
      </trkpt>
      <trkpt lat="46.24819" lon="6.8089">
        <ele>1179</ele>
        <time>2000-01-01T09:40:36.000Z</time>
      </trkpt>
      <trkpt lat="46.24843" lon="6.80911">
        <ele>1173</ele>
        <time>2000-01-01T09:40:46.000Z</time>
      </trkpt>
      <trkpt lat="46.24867" lon="6.80927">
        <ele>1169</ele>
        <time>2000-01-01T09:40:56.000Z</time>
      </trkpt>
      <trkpt lat="46.24897" lon="6.80948">
        <ele>1165</ele>
        <time>2000-01-01T09:41:06.000Z</time>
      </trkpt>
      <trkpt lat="46.2492" lon="6.80965">
        <ele>1162</ele>
        <time>2000-01-01T09:41:16.000Z</time>
      </trkpt>
      <trkpt lat="46.24947" lon="6.80986">
        <ele>1160</ele>
        <time>2000-01-01T09:41:26.000Z</time>
      </trkpt>
      <trkpt lat="46.24964" lon="6.80994">
        <ele>1166.8</ele>
        <time>2000-01-01T09:41:36.000Z</time>
      </trkpt>
      <trkpt lat="46.24976" lon="6.80996">
        <ele>1160</ele>
        <time>2000-01-01T09:41:46.000Z</time>
      </trkpt>
      <trkpt lat="46.25" lon="6.80983">
        <ele>1161</ele>
        <time>2000-01-01T09:41:56.000Z</time>
      </trkpt>
      <trkpt lat="46.24984" lon="6.80949">
        <ele>1161</ele>
        <time>2000-01-01T09:42:06.000Z</time>
      </trkpt>
      <trkpt lat="46.2497" lon="6.80921">
        <ele>1163</ele>
        <time>2000-01-01T09:42:16.000Z</time>
      </trkpt>
      <trkpt lat="46.24957" lon="6.80893">
        <ele>1163</ele>
        <time>2000-01-01T09:42:26.000Z</time>
      </trkpt>
      <trkpt lat="46.24942" lon="6.80858">
        <ele>1163</ele>
        <time>2000-01-01T09:42:36.000Z</time>
      </trkpt>
      <trkpt lat="46.24918" lon="6.80805">
        <ele>1164</ele>
        <time>2000-01-01T09:42:46.000Z</time>
      </trkpt>
      <trkpt lat="46.24906" lon="6.80773">
        <ele>1165</ele>
        <time>2000-01-01T09:42:56.000Z</time>
      </trkpt>
      <trkpt lat="46.24893" lon="6.80736">
        <ele>1166</ele>
        <time>2000-01-01T09:43:06.000Z</time>
      </trkpt>
      <trkpt lat="46.2488" lon="6.80702">
        <ele>1167</ele>
        <time>2000-01-01T09:43:16.000Z</time>
      </trkpt>
      <trkpt lat="46.24877" lon="6.80687">
        <ele>1170.6</ele>
        <time>2000-01-01T09:43:26.000Z</time>
      </trkpt>
      <trkpt lat="46.24876" lon="6.80673">
        <ele>1167</ele>
        <time>2000-01-01T09:43:36.000Z</time>
      </trkpt>
      <trkpt lat="46.24877" lon="6.80636">
        <ele>1168</ele>
        <time>2000-01-01T09:43:46.000Z</time>
      </trkpt>
      <trkpt lat="46.24873" lon="6.80608">
        <ele>1168</ele>
        <time>2000-01-01T09:43:56.000Z</time>
      </trkpt>
      <trkpt lat="46.24864" lon="6.80568">
        <ele>1169</ele>
        <time>2000-01-01T09:44:06.000Z</time>
      </trkpt>
      <trkpt lat="46.24858" lon="6.80535">
        <ele>1171</ele>
        <time>2000-01-01T09:44:16.000Z</time>
      </trkpt>
      <trkpt lat="46.24852" lon="6.80501">
        <ele>1172</ele>
        <time>2000-01-01T09:44:26.000Z</time>
      </trkpt>
      <trkpt lat="46.24839" lon="6.80477">
        <ele>1173</ele>
        <time>2000-01-01T09:44:36.000Z</time>
      </trkpt>
      <trkpt lat="46.2482" lon="6.80446">
        <ele>1176</ele>
        <time>2000-01-01T09:44:46.000Z</time>
      </trkpt>
      <trkpt lat="46.24804" lon="6.80421">
        <ele>1177</ele>
        <time>2000-01-01T09:44:56.000Z</time>
      </trkpt>
      <trkpt lat="46.24788" lon="6.80395">
        <ele>1179</ele>
        <time>2000-01-01T09:45:06.000Z</time>
      </trkpt>
      <trkpt lat="46.24774" lon="6.80381">
        <ele>1184.4</ele>
        <time>2000-01-01T09:45:16.000Z</time>
      </trkpt>
      <trkpt lat="46.24733" lon="6.80348">
        <ele>1183</ele>
        <time>2000-01-01T09:45:26.000Z</time>
      </trkpt>
      <trkpt lat="46.24725" lon="6.80336">
        <ele>1184</ele>
        <time>2000-01-01T09:45:36.000Z</time>
      </trkpt>
      <trkpt lat="46.24711" lon="6.80306">
        <ele>1186</ele>
        <time>2000-01-01T09:45:46.000Z</time>
      </trkpt>
      <trkpt lat="46.24697" lon="6.8028">
        <ele>1189</ele>
        <time>2000-01-01T09:45:56.000Z</time>
      </trkpt>
      <trkpt lat="46.24678" lon="6.80252">
        <ele>1191</ele>
        <time>2000-01-01T09:46:06.000Z</time>
      </trkpt>
      <trkpt lat="46.24644" lon="6.80219">
        <ele>1194</ele>
        <time>2000-01-01T09:46:16.000Z</time>
      </trkpt>
      <trkpt lat="46.24635" lon="6.80206">
        <ele>1203.5</ele>
        <time>2000-01-01T09:46:26.000Z</time>
      </trkpt>
      <trkpt lat="46.24626" lon="6.8019">
        <ele>1196</ele>
        <time>2000-01-01T09:46:36.000Z</time>
      </trkpt>
      <trkpt lat="46.24606" lon="6.80136">
        <ele>1199</ele>
        <time>2000-01-01T09:46:46.000Z</time>
      </trkpt>
      <trkpt lat="46.246" lon="6.80126">
        <ele>1215.2</ele>
        <time>2000-01-01T09:46:56.000Z</time>
      </trkpt>
      <trkpt lat="46.24575" lon="6.80105">
        <ele>1202</ele>
        <time>2000-01-01T09:47:06.000Z</time>
      </trkpt>
      <trkpt lat="46.24553" lon="6.80082">
        <ele>1204</ele>
        <time>2000-01-01T09:47:16.000Z</time>
      </trkpt>
      <trkpt lat="46.24528" lon="6.8006">
        <ele>1207</ele>
        <time>2000-01-01T09:47:26.000Z</time>
      </trkpt>
      <trkpt lat="46.24506" lon="6.80025">
        <ele>1209</ele>
        <time>2000-01-01T09:47:36.000Z</time>
      </trkpt>
      <trkpt lat="46.24482" lon="6.79991">
        <ele>1211</ele>
        <time>2000-01-01T09:47:46.000Z</time>
      </trkpt>
      <trkpt lat="46.24464" lon="6.7996">
        <ele>1215</ele>
        <time>2000-01-01T09:47:56.000Z</time>
      </trkpt>
      <trkpt lat="46.24459" lon="6.79953">
        <ele>1225.2</ele>
        <time>2000-01-01T09:48:06.000Z</time>
      </trkpt>
      <trkpt lat="46.24453" lon="6.79947">
        <ele>1225.7</ele>
        <time>2000-01-01T09:48:16.000Z</time>
      </trkpt>
      <trkpt lat="46.2442" lon="6.79925">
        <ele>1220</ele>
        <time>2000-01-01T09:48:26.000Z</time>
      </trkpt>
      <trkpt lat="46.24409" lon="6.79922">
        <ele>1224.1</ele>
        <time>2000-01-01T09:48:36.000Z</time>
      </trkpt>
      <trkpt lat="46.24395" lon="6.79922">
        <ele>1222</ele>
        <time>2000-01-01T09:48:46.000Z</time>
      </trkpt>
      <trkpt lat="46.24387" lon="6.7992">
        <ele>1224.9</ele>
        <time>2000-01-01T09:48:56.000Z</time>
      </trkpt>
      <trkpt lat="46.24379" lon="6.79915">
        <ele>1225.8</ele>
        <time>2000-01-01T09:49:06.000Z</time>
      </trkpt>
      <trkpt lat="46.24354" lon="6.79888">
        <ele>1226</ele>
        <time>2000-01-01T09:49:16.000Z</time>
      </trkpt>
      <trkpt lat="46.24324" lon="6.79862">
        <ele>1228</ele>
        <time>2000-01-01T09:49:26.000Z</time>
      </trkpt>
      <trkpt lat="46.24313" lon="6.79849">
        <ele>1232.7</ele>
        <time>2000-01-01T09:49:36.000Z</time>
      </trkpt>
      <trkpt lat="46.24305" lon="6.79835">
        <ele>1231</ele>
        <time>2000-01-01T09:49:46.000Z</time>
      </trkpt>
      <trkpt lat="46.24284" lon="6.79785">
        <ele>1234</ele>
        <time>2000-01-01T09:49:56.000Z</time>
      </trkpt>
      <trkpt lat="46.24275" lon="6.79773">
        <ele>1242.6</ele>
        <time>2000-01-01T09:50:06.000Z</time>
      </trkpt>
      <trkpt lat="46.24265" lon="6.79767">
        <ele>1237</ele>
        <time>2000-01-01T09:50:16.000Z</time>
      </trkpt>
      <trkpt lat="46.24247" lon="6.79762">
        <ele>1240.3</ele>
        <time>2000-01-01T09:50:26.000Z</time>
      </trkpt>
      <trkpt lat="46.24224" lon="6.79758">
        <ele>1241</ele>
        <time>2000-01-01T09:50:36.000Z</time>
      </trkpt>
      <trkpt lat="46.24212" lon="6.79752">
        <ele>1241.8</ele>
        <time>2000-01-01T09:50:46.000Z</time>
      </trkpt>
      <trkpt lat="46.24182" lon="6.79735">
        <ele>1245</ele>
        <time>2000-01-01T09:50:56.000Z</time>
      </trkpt>
      <trkpt lat="46.24159" lon="6.7972">
        <ele>1247</ele>
        <time>2000-01-01T09:51:06.000Z</time>
      </trkpt>
      <trkpt lat="46.24147" lon="6.7971">
        <ele>1248.8</ele>
        <time>2000-01-01T09:51:16.000Z</time>
      </trkpt>
      <trkpt lat="46.24141" lon="6.79702">
        <ele>1248</ele>
        <time>2000-01-01T09:51:26.000Z</time>
      </trkpt>
      <trkpt lat="46.2413" lon="6.79686">
        <ele>1250.7</ele>
        <time>2000-01-01T09:51:36.000Z</time>
      </trkpt>
      <trkpt lat="46.24103" lon="6.79633">
        <ele>1248</ele>
        <time>2000-01-01T09:51:46.000Z</time>
      </trkpt>
      <trkpt lat="46.2409" lon="6.79602">
        <ele>1248</ele>
        <time>2000-01-01T09:51:56.000Z</time>
      </trkpt>
      <trkpt lat="46.24086" lon="6.79564">
        <ele>1250</ele>
        <time>2000-01-01T09:52:06.000Z</time>
      </trkpt>
      <trkpt lat="46.24087" lon="6.79524">
        <ele>1250</ele>
        <time>2000-01-01T09:52:16.000Z</time>
      </trkpt>
      <trkpt lat="46.2409" lon="6.7949">
        <ele>1252</ele>
        <time>2000-01-01T09:52:26.000Z</time>
      </trkpt>
      <trkpt lat="46.24086" lon="6.79464">
        <ele>1263.1</ele>
        <time>2000-01-01T09:52:36.000Z</time>
      </trkpt>
      <trkpt lat="46.24078" lon="6.79435">
        <ele>1252</ele>
        <time>2000-01-01T09:52:46.000Z</time>
      </trkpt>
      <trkpt lat="46.24064" lon="6.79407">
        <ele>1253</ele>
        <time>2000-01-01T09:52:56.000Z</time>
      </trkpt>
      <trkpt lat="46.24037" lon="6.79378">
        <ele>1253</ele>
        <time>2000-01-01T09:53:06.000Z</time>
      </trkpt>
      <trkpt lat="46.24001" lon="6.79342">
        <ele>1255</ele>
        <time>2000-01-01T09:53:16.000Z</time>
      </trkpt>
      <trkpt lat="46.2398" lon="6.79314">
        <ele>1256</ele>
        <time>2000-01-01T09:53:26.000Z</time>
      </trkpt>
      <trkpt lat="46.23947" lon="6.79287">
        <ele>1258</ele>
        <time>2000-01-01T09:53:36.000Z</time>
      </trkpt>
      <trkpt lat="46.23923" lon="6.79269">
        <ele>1259</ele>
        <time>2000-01-01T09:53:46.000Z</time>
      </trkpt>
      <trkpt lat="46.23892" lon="6.79245">
        <ele>1260</ele>
        <time>2000-01-01T09:53:56.000Z</time>
      </trkpt>
      <trkpt lat="46.23869" lon="6.79227">
        <ele>1261</ele>
        <time>2000-01-01T09:54:06.000Z</time>
      </trkpt>
      <trkpt lat="46.23841" lon="6.79205">
        <ele>1263</ele>
        <time>2000-01-01T09:54:16.000Z</time>
      </trkpt>
      <trkpt lat="46.23822" lon="6.79197">
        <ele>1264</ele>
        <time>2000-01-01T09:54:26.000Z</time>
      </trkpt>
      <trkpt lat="46.23785" lon="6.79201">
        <ele>1265</ele>
        <time>2000-01-01T09:54:36.000Z</time>
      </trkpt>
      <trkpt lat="46.23769" lon="6.79204">
        <ele>1267.5</ele>
        <time>2000-01-01T09:54:46.000Z</time>
      </trkpt>
      <trkpt lat="46.23751" lon="6.792">
        <ele>1267</ele>
        <time>2000-01-01T09:54:56.000Z</time>
      </trkpt>
      <trkpt lat="46.23716" lon="6.79176">
        <ele>1267</ele>
        <time>2000-01-01T09:55:06.000Z</time>
      </trkpt>
      <trkpt lat="46.23685" lon="6.79158">
        <ele>1268</ele>
        <time>2000-01-01T09:55:16.000Z</time>
      </trkpt>
      <trkpt lat="46.2365" lon="6.7912">
        <ele>1271</ele>
        <time>2000-01-01T09:55:26.000Z</time>
      </trkpt>
      <trkpt lat="46.23637" lon="6.79109">
        <ele>1276.4</ele>
        <time>2000-01-01T09:55:36.000Z</time>
      </trkpt>
      <trkpt lat="46.23624" lon="6.79102">
        <ele>1272</ele>
        <time>2000-01-01T09:55:46.000Z</time>
      </trkpt>
      <trkpt lat="46.23601" lon="6.79097">
        <ele>1273</ele>
        <time>2000-01-01T09:55:56.000Z</time>
      </trkpt>
      <trkpt lat="46.23572" lon="6.791">
        <ele>1275</ele>
        <time>2000-01-01T09:56:06.000Z</time>
      </trkpt>
      <trkpt lat="46.23553" lon="6.79097">
        <ele>1276</ele>
        <time>2000-01-01T09:56:16.000Z</time>
      </trkpt>
      <trkpt lat="46.23526" lon="6.79112">
        <ele>1278</ele>
        <time>2000-01-01T09:56:26.000Z</time>
      </trkpt>
      <trkpt lat="46.23493" lon="6.79117">
        <ele>1280</ele>
        <time>2000-01-01T09:56:36.000Z</time>
      </trkpt>
      <trkpt lat="46.23465" lon="6.79105">
        <ele>1282</ele>
        <time>2000-01-01T09:56:46.000Z</time>
      </trkpt>
      <trkpt lat="46.23442" lon="6.79096">
        <ele>1283</ele>
        <time>2000-01-01T09:56:56.000Z</time>
      </trkpt>
      <trkpt lat="46.2342" lon="6.79086">
        <ele>1285</ele>
        <time>2000-01-01T09:57:06.000Z</time>
      </trkpt>
      <trkpt lat="46.234" lon="6.79071">
        <ele>1286</ele>
        <time>2000-01-01T09:57:16.000Z</time>
      </trkpt>
      <trkpt lat="46.23384" lon="6.7905">
        <ele>1287</ele>
        <time>2000-01-01T09:57:26.000Z</time>
      </trkpt>
      <trkpt lat="46.2335" lon="6.79025">
        <ele>1290</ele>
        <time>2000-01-01T09:57:36.000Z</time>
      </trkpt>
      <trkpt lat="46.23316" lon="6.79008">
        <ele>1292</ele>
        <time>2000-01-01T09:57:46.000Z</time>
      </trkpt>
      <trkpt lat="46.2329" lon="6.78993">
        <ele>1294</ele>
        <time>2000-01-01T09:57:56.000Z</time>
      </trkpt>
      <trkpt lat="46.23253" lon="6.78972">
        <ele>1296</ele>
        <time>2000-01-01T09:58:06.000Z</time>
      </trkpt>
      <trkpt lat="46.23231" lon="6.78957">
        <ele>1298</ele>
        <time>2000-01-01T09:58:16.000Z</time>
      </trkpt>
      <trkpt lat="46.23207" lon="6.78942">
        <ele>1297</ele>
        <time>2000-01-01T09:58:26.000Z</time>
      </trkpt>
      <trkpt lat="46.23196" lon="6.78931">
        <ele>1306.7</ele>
        <time>2000-01-01T09:58:36.000Z</time>
      </trkpt>
      <trkpt lat="46.23208" lon="6.789">
        <ele>1297</ele>
        <time>2000-01-01T09:58:46.000Z</time>
      </trkpt>
      <trkpt lat="46.23218" lon="6.78903">
        <ele>1303.9</ele>
        <time>2000-01-01T09:58:56.000Z</time>
      </trkpt>
      <trkpt lat="46.23211" lon="6.78877">
        <ele>1297</ele>
        <time>2000-01-01T09:59:06.000Z</time>
      </trkpt>
      <trkpt lat="46.23197" lon="6.78841">
        <ele>1300</ele>
        <time>2000-01-01T09:59:16.000Z</time>
      </trkpt>
      <trkpt lat="46.23188" lon="6.7881">
        <ele>1300</ele>
        <time>2000-01-01T09:59:26.000Z</time>
      </trkpt>
      <trkpt lat="46.23156" lon="6.78829">
        <ele>1301</ele>
        <time>2000-01-01T09:59:36.000Z</time>
      </trkpt>
      <trkpt lat="46.23129" lon="6.78837">
        <ele>1303</ele>
        <time>2000-01-01T09:59:46.000Z</time>
      </trkpt>
      <trkpt lat="46.23088" lon="6.78849">
        <ele>1314</ele>
        <time>2000-01-01T09:59:56.000Z</time>
      </trkpt>
      <trkpt lat="46.23061" lon="6.78858">
        <ele>1320</ele>
        <time>2000-01-01T10:00:06.000Z</time>
      </trkpt>
      <trkpt lat="46.23022" lon="6.78871">
        <ele>1339</ele>
        <time>2000-01-01T10:00:16.000Z</time>
      </trkpt>
      <trkpt lat="46.22993" lon="6.7888">
        <ele>1349</ele>
        <time>2000-01-01T10:00:26.000Z</time>
      </trkpt>
      <trkpt lat="46.22968" lon="6.78889">
        <ele>1361</ele>
        <time>2000-01-01T10:00:36.000Z</time>
      </trkpt>
      <trkpt lat="46.22936" lon="6.78898">
        <ele>1370</ele>
        <time>2000-01-01T10:00:46.000Z</time>
      </trkpt>
      <trkpt lat="46.22904" lon="6.78908">
        <ele>1378</ele>
        <time>2000-01-01T10:00:56.000Z</time>
      </trkpt>
      <trkpt lat="46.22863" lon="6.7892">
        <ele>1386</ele>
        <time>2000-01-01T10:01:06.000Z</time>
      </trkpt>
      <trkpt lat="46.2283" lon="6.78931">
        <ele>1399</ele>
        <time>2000-01-01T10:01:16.000Z</time>
      </trkpt>
      <trkpt lat="46.22797" lon="6.78943">
        <ele>1407</ele>
        <time>2000-01-01T10:01:26.000Z</time>
      </trkpt>
      <trkpt lat="46.22772" lon="6.78951">
        <ele>1412</ele>
        <time>2000-01-01T10:01:36.000Z</time>
      </trkpt>
      <trkpt lat="46.22741" lon="6.78962">
        <ele>1419</ele>
        <time>2000-01-01T10:01:46.000Z</time>
      </trkpt>
      <trkpt lat="46.22705" lon="6.78973">
        <ele>1423</ele>
        <time>2000-01-01T10:01:56.000Z</time>
      </trkpt>
      <trkpt lat="46.22668" lon="6.78985">
        <ele>1423</ele>
        <time>2000-01-01T10:02:06.000Z</time>
      </trkpt>
      <trkpt lat="46.22632" lon="6.78996">
        <ele>1423</ele>
        <time>2000-01-01T10:02:16.000Z</time>
      </trkpt>
      <trkpt lat="46.22605" lon="6.79005">
        <ele>1423</ele>
        <time>2000-01-01T10:02:26.000Z</time>
      </trkpt>
      <trkpt lat="46.22563" lon="6.79018">
        <ele>1424</ele>
        <time>2000-01-01T10:02:36.000Z</time>
      </trkpt>
      <trkpt lat="46.22539" lon="6.79026">
        <ele>1428</ele>
        <time>2000-01-01T10:02:46.000Z</time>
      </trkpt>
      <trkpt lat="46.22512" lon="6.79035">
        <ele>1432</ele>
        <time>2000-01-01T10:02:56.000Z</time>
      </trkpt>
      <trkpt lat="46.22478" lon="6.79045">
        <ele>1440</ele>
        <time>2000-01-01T10:03:06.000Z</time>
      </trkpt>
      <trkpt lat="46.2245" lon="6.79054">
        <ele>1444</ele>
        <time>2000-01-01T10:03:16.000Z</time>
      </trkpt>
      <trkpt lat="46.22407" lon="6.79068">
        <ele>1454</ele>
        <time>2000-01-01T10:03:26.000Z</time>
      </trkpt>
      <trkpt lat="46.2238" lon="6.79076">
        <ele>1463</ele>
        <time>2000-01-01T10:03:36.000Z</time>
      </trkpt>
      <trkpt lat="46.22346" lon="6.79087">
        <ele>1470</ele>
        <time>2000-01-01T10:03:46.000Z</time>
      </trkpt>
      <trkpt lat="46.22315" lon="6.79098">
        <ele>1476</ele>
        <time>2000-01-01T10:03:56.000Z</time>
      </trkpt>
      <trkpt lat="46.22284" lon="6.79108">
        <ele>1482</ele>
        <time>2000-01-01T10:04:06.000Z</time>
      </trkpt>
      <trkpt lat="46.22247" lon="6.79121">
        <ele>1488</ele>
        <time>2000-01-01T10:04:16.000Z</time>
      </trkpt>
      <trkpt lat="46.22214" lon="6.79131">
        <ele>1494</ele>
        <time>2000-01-01T10:04:26.000Z</time>
      </trkpt>
      <trkpt lat="46.22182" lon="6.79141">
        <ele>1499</ele>
        <time>2000-01-01T10:04:36.000Z</time>
      </trkpt>
      <trkpt lat="46.22159" lon="6.79148">
        <ele>1505</ele>
        <time>2000-01-01T10:04:46.000Z</time>
      </trkpt>
      <trkpt lat="46.22134" lon="6.79156">
        <ele>1511</ele>
        <time>2000-01-01T10:04:56.000Z</time>
      </trkpt>
      <trkpt lat="46.22106" lon="6.79165">
        <ele>1523</ele>
        <time>2000-01-01T10:05:06.000Z</time>
      </trkpt>
      <trkpt lat="46.22064" lon="6.7918">
        <ele>1543</ele>
        <time>2000-01-01T10:05:16.000Z</time>
      </trkpt>
      <trkpt lat="46.22029" lon="6.79191">
        <ele>1567</ele>
        <time>2000-01-01T10:05:26.000Z</time>
      </trkpt>
      <trkpt lat="46.22" lon="6.79201">
        <ele>1585</ele>
        <time>2000-01-01T10:05:36.000Z</time>
      </trkpt>
      <trkpt lat="46.21976" lon="6.79209">
        <ele>1598</ele>
        <time>2000-01-01T10:05:46.000Z</time>
      </trkpt>
      <trkpt lat="46.21948" lon="6.79218">
        <ele>1617</ele>
        <time>2000-01-01T10:05:56.000Z</time>
      </trkpt>
      <trkpt lat="46.21917" lon="6.79227">
        <ele>1630</ele>
        <time>2000-01-01T10:06:06.000Z</time>
      </trkpt>
      <trkpt lat="46.21886" lon="6.79236">
        <ele>1633</ele>
        <time>2000-01-01T10:06:16.000Z</time>
      </trkpt>
      <trkpt lat="46.21851" lon="6.79247">
        <ele>1633</ele>
        <time>2000-01-01T10:06:26.000Z</time>
      </trkpt>
      <trkpt lat="46.21839" lon="6.7928">
        <ele>1633</ele>
        <time>2000-01-01T10:06:36.000Z</time>
      </trkpt>
      <trkpt lat="46.21823" lon="6.79322">
        <ele>1634</ele>
        <time>2000-01-01T10:06:46.000Z</time>
      </trkpt>
      <trkpt lat="46.21796" lon="6.79314">
        <ele>1636</ele>
        <time>2000-01-01T10:06:56.000Z</time>
      </trkpt>
      <trkpt lat="46.21757" lon="6.79302">
        <ele>1638</ele>
        <time>2000-01-01T10:07:06.000Z</time>
      </trkpt>
      <trkpt lat="46.21727" lon="6.79294">
        <ele>1640</ele>
        <time>2000-01-01T10:07:16.000Z</time>
      </trkpt>
      <trkpt lat="46.21702" lon="6.79287">
        <ele>1643</ele>
        <time>2000-01-01T10:07:26.000Z</time>
      </trkpt>
      <trkpt lat="46.2167" lon="6.79278">
        <ele>1654</ele>
        <time>2000-01-01T10:07:36.000Z</time>
      </trkpt>
      <trkpt lat="46.21641" lon="6.79271">
        <ele>1663</ele>
        <time>2000-01-01T10:07:46.000Z</time>
      </trkpt>
      <trkpt lat="46.21618" lon="6.79265">
        <ele>1678</ele>
        <time>2000-01-01T10:07:56.000Z</time>
      </trkpt>
      <trkpt lat="46.21595" lon="6.79259">
        <ele>1694</ele>
        <time>2000-01-01T10:08:06.000Z</time>
      </trkpt>
      <trkpt lat="46.21567" lon="6.79251">
        <ele>1715</ele>
        <time>2000-01-01T10:08:16.000Z</time>
      </trkpt>
      <trkpt lat="46.21523" lon="6.79239">
        <ele>1746</ele>
        <time>2000-01-01T10:08:26.000Z</time>
      </trkpt>
      <trkpt lat="46.21487" lon="6.79228">
        <ele>1773</ele>
        <time>2000-01-01T10:08:36.000Z</time>
      </trkpt>
      <trkpt lat="46.21456" lon="6.79219">
        <ele>1788</ele>
        <time>2000-01-01T10:08:46.000Z</time>
      </trkpt>
      <trkpt lat="46.21425" lon="6.79211">
        <ele>1797</ele>
        <time>2000-01-01T10:08:56.000Z</time>
      </trkpt>
      <trkpt lat="46.21393" lon="6.79202">
        <ele>1810</ele>
        <time>2000-01-01T10:09:06.000Z</time>
      </trkpt>
      <trkpt lat="46.21357" lon="6.79191">
        <ele>1826</ele>
        <time>2000-01-01T10:09:16.000Z</time>
      </trkpt>
      <trkpt lat="46.21328" lon="6.79183">
        <ele>1841</ele>
        <time>2000-01-01T10:09:26.000Z</time>
      </trkpt>
      <trkpt lat="46.21305" lon="6.79177">
        <ele>1852</ele>
        <time>2000-01-01T10:09:36.000Z</time>
      </trkpt>
      <trkpt lat="46.21282" lon="6.79171">
        <ele>1861</ele>
        <time>2000-01-01T10:09:46.000Z</time>
      </trkpt>
      <trkpt lat="46.21248" lon="6.79162">
        <ele>1885</ele>
        <time>2000-01-01T10:09:56.000Z</time>
      </trkpt>
      <trkpt lat="46.21215" lon="6.79152">
        <ele>1899</ele>
        <time>2000-01-01T10:10:06.000Z</time>
      </trkpt>
      <trkpt lat="46.21189" lon="6.79145">
        <ele>1916</ele>
        <time>2000-01-01T10:10:16.000Z</time>
      </trkpt>
      <trkpt lat="46.21157" lon="6.79136">
        <ele>1915</ele>
        <time>2000-01-01T10:10:26.000Z</time>
      </trkpt>
      <trkpt lat="46.21169" lon="6.79095">
        <ele>1915</ele>
        <time>2000-01-01T10:10:36.000Z</time>
      </trkpt>
      <trkpt lat="46.21169" lon="6.79056">
        <ele>1909</ele>
        <time>2000-01-01T10:10:46.000Z</time>
      </trkpt>
      <trkpt lat="46.21161" lon="6.79057">
        <ele>1910.7</ele>
        <time>2000-01-01T10:10:56.000Z</time>
      </trkpt>
      <trkpt lat="46.21152" lon="6.79071">
        <ele>1909</ele>
        <time>2000-01-01T10:11:06.000Z</time>
      </trkpt>
      <trkpt lat="46.21149" lon="6.79071">
        <ele>1910.7</ele>
        <time>2000-01-01T10:11:16.000Z</time>
      </trkpt>
      <trkpt lat="46.21149" lon="6.79064">
        <ele>1909.3</ele>
        <time>2000-01-01T10:11:26.000Z</time>
      </trkpt>
      <trkpt lat="46.2115" lon="6.79061">
        <ele>1909</ele>
        <time>2000-01-01T10:11:36.000Z</time>
      </trkpt>
      <trkpt lat="46.21156" lon="6.79052">
        <ele>1906</ele>
        <time>2000-01-01T10:11:46.000Z</time>
      </trkpt>
      <trkpt lat="46.21156" lon="6.7905">
        <ele>1908.1</ele>
        <time>2000-01-01T10:11:56.000Z</time>
      </trkpt>
      <trkpt lat="46.21155" lon="6.79048">
        <ele>1907.5</ele>
        <time>2000-01-01T10:12:06.000Z</time>
      </trkpt>
      <trkpt lat="46.21149" lon="6.79055">
        <ele>1907.5</ele>
        <time>2000-01-01T10:12:16.000Z</time>
      </trkpt>
      <trkpt lat="46.21144" lon="6.79057">
        <ele>1906.8</ele>
        <time>2000-01-01T10:12:26.000Z</time>
      </trkpt>
      <trkpt lat="46.21144" lon="6.79054">
        <ele>1906.2</ele>
        <time>2000-01-01T10:12:36.000Z</time>
      </trkpt>
      <trkpt lat="46.21149" lon="6.7904">
        <ele>1899</ele>
        <time>2000-01-01T10:12:46.000Z</time>
      </trkpt>
      <trkpt lat="46.21149" lon="6.79033">
        <ele>1903.1</ele>
        <time>2000-01-01T10:12:56.000Z</time>
      </trkpt>
      <trkpt lat="46.21147" lon="6.79031">
        <ele>1902.3</ele>
        <time>2000-01-01T10:13:06.000Z</time>
      </trkpt>
      <trkpt lat="46.21143" lon="6.7903">
        <ele>1901.1</ele>
        <time>2000-01-01T10:13:16.000Z</time>
      </trkpt>
      <trkpt lat="46.21138" lon="6.79035">
        <ele>1900.9</ele>
        <time>2000-01-01T10:13:26.000Z</time>
      </trkpt>
      <trkpt lat="46.21137" lon="6.7904">
        <ele>1896</ele>
        <time>2000-01-01T10:13:36.000Z</time>
      </trkpt>
      <trkpt lat="46.21134" lon="6.79048">
        <ele>1902.7</ele>
        <time>2000-01-01T10:13:46.000Z</time>
      </trkpt>
      <trkpt lat="46.21129" lon="6.79054">
        <ele>1902.8</ele>
        <time>2000-01-01T10:13:56.000Z</time>
      </trkpt>
      <trkpt lat="46.21124" lon="6.79057">
        <ele>1902.2</ele>
        <time>2000-01-01T10:14:06.000Z</time>
      </trkpt>
      <trkpt lat="46.21113" lon="6.79057">
        <ele>1892</ele>
        <time>2000-01-01T10:14:16.000Z</time>
      </trkpt>
      <trkpt lat="46.21109" lon="6.79059">
        <ele>1899.3</ele>
        <time>2000-01-01T10:14:26.000Z</time>
      </trkpt>
      <trkpt lat="46.21079" lon="6.7908">
        <ele>1891</ele>
        <time>2000-01-01T10:14:36.000Z</time>
      </trkpt>
      <trkpt lat="46.21077" lon="6.79082">
        <ele>1897.6</ele>
        <time>2000-01-01T10:14:46.000Z</time>
      </trkpt>
      <trkpt lat="46.21071" lon="6.79085">
        <ele>1897.3</ele>
        <time>2000-01-01T10:14:56.000Z</time>
      </trkpt>
      <trkpt lat="46.21061" lon="6.79092">
        <ele>1891</ele>
        <time>2000-01-01T10:15:06.000Z</time>
      </trkpt>
      <trkpt lat="46.21052" lon="6.79097">
        <ele>1897.2</ele>
        <time>2000-01-01T10:15:16.000Z</time>
      </trkpt>
      <trkpt lat="46.2103" lon="6.79098">
        <ele>1887</ele>
        <time>2000-01-01T10:15:26.000Z</time>
      </trkpt>
      <trkpt lat="46.21014" lon="6.79096">
        <ele>1890.9</ele>
        <time>2000-01-01T10:15:36.000Z</time>
      </trkpt>
      <trkpt lat="46.2101" lon="6.79093">
        <ele>1886</ele>
        <time>2000-01-01T10:15:46.000Z</time>
      </trkpt>
      <trkpt lat="46.21007" lon="6.79089">
        <ele>1887.8</ele>
        <time>2000-01-01T10:15:56.000Z</time>
      </trkpt>
      <trkpt lat="46.20997" lon="6.79081">
        <ele>1884.4</ele>
        <time>2000-01-01T10:16:06.000Z</time>
      </trkpt>
      <trkpt lat="46.20995" lon="6.79081">
        <ele>1884.3</ele>
        <time>2000-01-01T10:16:16.000Z</time>
      </trkpt>
      <trkpt lat="46.20986" lon="6.79085">
        <ele>1884</ele>
        <time>2000-01-01T10:16:26.000Z</time>
      </trkpt>
      <trkpt lat="46.20981" lon="6.79084">
        <ele>1884.5</ele>
        <time>2000-01-01T10:16:36.000Z</time>
      </trkpt>
      <trkpt lat="46.20978" lon="6.7908">
        <ele>1883.5</ele>
        <time>2000-01-01T10:16:46.000Z</time>
      </trkpt>
      <trkpt lat="46.20974" lon="6.79079">
        <ele>1883.1</ele>
        <time>2000-01-01T10:16:56.000Z</time>
      </trkpt>
      <trkpt lat="46.20963" lon="6.79084">
        <ele>1882</ele>
        <time>2000-01-01T10:17:06.000Z</time>
      </trkpt>
      <trkpt lat="46.20946" lon="6.79084">
        <ele>1883.2</ele>
        <time>2000-01-01T10:17:16.000Z</time>
      </trkpt>
      <trkpt lat="46.20933" lon="6.79088">
        <ele>1879</ele>
        <time>2000-01-01T10:17:26.000Z</time>
      </trkpt>
      <trkpt lat="46.20928" lon="6.79086">
        <ele>1883.1</ele>
        <time>2000-01-01T10:17:36.000Z</time>
      </trkpt>
      <trkpt lat="46.20926" lon="6.79067">
        <ele>1878.8</ele>
        <time>2000-01-01T10:17:46.000Z</time>
      </trkpt>
      <trkpt lat="46.20931" lon="6.79059">
        <ele>1873</ele>
        <time>2000-01-01T10:17:56.000Z</time>
      </trkpt>
      <trkpt lat="46.20936" lon="6.79058">
        <ele>1877.2</ele>
        <time>2000-01-01T10:18:06.000Z</time>
      </trkpt>
      <trkpt lat="46.20941" lon="6.79059">
        <ele>1877.6</ele>
        <time>2000-01-01T10:18:16.000Z</time>
      </trkpt>
      <trkpt lat="46.20957" lon="6.79056">
        <ele>1873</ele>
        <time>2000-01-01T10:18:26.000Z</time>
      </trkpt>
      <trkpt lat="46.20961" lon="6.79058">
        <ele>1878.1</ele>
        <time>2000-01-01T10:18:36.000Z</time>
      </trkpt>
      <trkpt lat="46.20966" lon="6.79056">
        <ele>1877.9</ele>
        <time>2000-01-01T10:18:46.000Z</time>
      </trkpt>
      <trkpt lat="46.20966" lon="6.79051">
        <ele>1876.8</ele>
        <time>2000-01-01T10:18:56.000Z</time>
      </trkpt>
      <trkpt lat="46.20963" lon="6.79047">
        <ele>1875.8</ele>
        <time>2000-01-01T10:19:06.000Z</time>
      </trkpt>
      <trkpt lat="46.20953" lon="6.7905">
        <ele>1870</ele>
        <time>2000-01-01T10:19:16.000Z</time>
      </trkpt>
      <trkpt lat="46.2095" lon="6.79047">
        <ele>1875.4</ele>
        <time>2000-01-01T10:19:26.000Z</time>
      </trkpt>
      <trkpt lat="46.20952" lon="6.79042">
        <ele>1874.3</ele>
        <time>2000-01-01T10:19:36.000Z</time>
      </trkpt>
      <trkpt lat="46.20956" lon="6.79042">
        <ele>1874.5</ele>
        <time>2000-01-01T10:19:46.000Z</time>
      </trkpt>
      <trkpt lat="46.20959" lon="6.79041">
        <ele>1874.4</ele>
        <time>2000-01-01T10:19:56.000Z</time>
      </trkpt>
      <trkpt lat="46.2096" lon="6.79034">
        <ele>1868</ele>
        <time>2000-01-01T10:20:06.000Z</time>
      </trkpt>
      <trkpt lat="46.20959" lon="6.7903">
        <ele>1872</ele>
        <time>2000-01-01T10:20:16.000Z</time>
      </trkpt>
      <trkpt lat="46.20949" lon="6.79025">
        <ele>1870.6</ele>
        <time>2000-01-01T10:20:26.000Z</time>
      </trkpt>
      <trkpt lat="46.20932" lon="6.79014">
        <ele>1864</ele>
        <time>2000-01-01T10:20:36.000Z</time>
      </trkpt>
      <trkpt lat="46.20923" lon="6.79009">
        <ele>1866.2</ele>
        <time>2000-01-01T10:20:46.000Z</time>
      </trkpt>
      <trkpt lat="46.20915" lon="6.79009">
        <ele>1865.7</ele>
        <time>2000-01-01T10:20:56.000Z</time>
      </trkpt>
      <trkpt lat="46.20911" lon="6.7901">
        <ele>1861</ele>
        <time>2000-01-01T10:21:06.000Z</time>
      </trkpt>
      <trkpt lat="46.20903" lon="6.79016">
        <ele>1865.2</ele>
        <time>2000-01-01T10:21:16.000Z</time>
      </trkpt>
      <trkpt lat="46.20899" lon="6.79013">
        <ele>1863.8</ele>
        <time>2000-01-01T10:21:26.000Z</time>
      </trkpt>
      <trkpt lat="46.209" lon="6.79009">
        <ele>1863.1</ele>
        <time>2000-01-01T10:21:36.000Z</time>
      </trkpt>
      <trkpt lat="46.20907" lon="6.79002">
        <ele>1861</ele>
        <time>2000-01-01T10:21:46.000Z</time>
      </trkpt>
      <trkpt lat="46.20907" lon="6.78999">
        <ele>1862.2</ele>
        <time>2000-01-01T10:21:56.000Z</time>
      </trkpt>
      <trkpt lat="46.20899" lon="6.78997">
        <ele>1860.4</ele>
        <time>2000-01-01T10:22:06.000Z</time>
      </trkpt>
      <trkpt lat="46.20898" lon="6.78995">
        <ele>1859.8</ele>
        <time>2000-01-01T10:22:16.000Z</time>
      </trkpt>
      <trkpt lat="46.20899" lon="6.78991">
        <ele>1859.2</ele>
        <time>2000-01-01T10:22:26.000Z</time>
      </trkpt>
      <trkpt lat="46.20915" lon="6.78976">
        <ele>1854</ele>
        <time>2000-01-01T10:22:36.000Z</time>
      </trkpt>
      <trkpt lat="46.20918" lon="6.78968">
        <ele>1857.1</ele>
        <time>2000-01-01T10:22:46.000Z</time>
      </trkpt>
      <trkpt lat="46.20916" lon="6.78962">
        <ele>1855.7</ele>
        <time>2000-01-01T10:22:56.000Z</time>
      </trkpt>
      <trkpt lat="46.20913" lon="6.78958">
        <ele>1854.4</ele>
        <time>2000-01-01T10:23:06.000Z</time>
      </trkpt>
      <trkpt lat="46.20907" lon="6.78957">
        <ele>1852</ele>
        <time>2000-01-01T10:23:16.000Z</time>
      </trkpt>
      <trkpt lat="46.20901" lon="6.78958">
        <ele>1852.6</ele>
        <time>2000-01-01T10:23:26.000Z</time>
      </trkpt>
      <trkpt lat="46.20894" lon="6.78961">
        <ele>1852.1</ele>
        <time>2000-01-01T10:23:36.000Z</time>
      </trkpt>
      <trkpt lat="46.2089" lon="6.78967">
        <ele>1851</ele>
        <time>2000-01-01T10:23:46.000Z</time>
      </trkpt>
      <trkpt lat="46.20887" lon="6.78969">
        <ele>1852.7</ele>
        <time>2000-01-01T10:23:56.000Z</time>
      </trkpt>
      <trkpt lat="46.20885" lon="6.78965">
        <ele>1851.6</ele>
        <time>2000-01-01T10:24:06.000Z</time>
      </trkpt>
      <trkpt lat="46.20885" lon="6.78961">
        <ele>1850.8</ele>
        <time>2000-01-01T10:24:16.000Z</time>
      </trkpt>
      <trkpt lat="46.20888" lon="6.78953">
        <ele>1849.6</ele>
        <time>2000-01-01T10:24:26.000Z</time>
      </trkpt>
      <trkpt lat="46.20895" lon="6.78947">
        <ele>1848</ele>
        <time>2000-01-01T10:24:36.000Z</time>
      </trkpt>
      <trkpt lat="46.20904" lon="6.78942">
        <ele>1849.7</ele>
        <time>2000-01-01T10:24:46.000Z</time>
      </trkpt>
      <trkpt lat="46.20907" lon="6.78936">
        <ele>1848.8</ele>
        <time>2000-01-01T10:24:56.000Z</time>
      </trkpt>
      <trkpt lat="46.20915" lon="6.78925">
        <ele>1843</ele>
        <time>2000-01-01T10:25:06.000Z</time>
      </trkpt>
      <trkpt lat="46.20914" lon="6.7892">
        <ele>1846.4</ele>
        <time>2000-01-01T10:25:16.000Z</time>
      </trkpt>
      <trkpt lat="46.20914" lon="6.78917">
        <ele>1845.7</ele>
        <time>2000-01-01T10:25:26.000Z</time>
      </trkpt>
      <trkpt lat="46.20911" lon="6.78912">
        <ele>1843.9</ele>
        <time>2000-01-01T10:25:36.000Z</time>
      </trkpt>
      <trkpt lat="46.20901" lon="6.7891">
        <ele>1840</ele>
        <time>2000-01-01T10:25:46.000Z</time>
      </trkpt>
      <trkpt lat="46.20889" lon="6.78906">
        <ele>1839.4</ele>
        <time>2000-01-01T10:25:56.000Z</time>
      </trkpt>
      <trkpt lat="46.20885" lon="6.78908">
        <ele>1839.5</ele>
        <time>2000-01-01T10:26:06.000Z</time>
      </trkpt>
      <trkpt lat="46.20878" lon="6.78916">
        <ele>1840</ele>
        <time>2000-01-01T10:26:16.000Z</time>
      </trkpt>
      <trkpt lat="46.20876" lon="6.78921">
        <ele>1841.5</ele>
        <time>2000-01-01T10:26:26.000Z</time>
      </trkpt>
      <trkpt lat="46.20872" lon="6.78927">
        <ele>1842.1</ele>
        <time>2000-01-01T10:26:36.000Z</time>
      </trkpt>
      <trkpt lat="46.20866" lon="6.78926">
        <ele>1841.1</ele>
        <time>2000-01-01T10:26:46.000Z</time>
      </trkpt>
      <trkpt lat="46.20862" lon="6.78923">
        <ele>1839</ele>
        <time>2000-01-01T10:26:56.000Z</time>
      </trkpt>
      <trkpt lat="46.20861" lon="6.78917">
        <ele>1838.7</ele>
        <time>2000-01-01T10:27:06.000Z</time>
      </trkpt>
      <trkpt lat="46.20863" lon="6.78908">
        <ele>1836.7</ele>
        <time>2000-01-01T10:27:16.000Z</time>
      </trkpt>
      <trkpt lat="46.20875" lon="6.789">
        <ele>1835</ele>
        <time>2000-01-01T10:27:26.000Z</time>
      </trkpt>
      <trkpt lat="46.20877" lon="6.78892">
        <ele>1834.2</ele>
        <time>2000-01-01T10:27:36.000Z</time>
      </trkpt>
      <trkpt lat="46.20876" lon="6.78889">
        <ele>1833.3</ele>
        <time>2000-01-01T10:27:46.000Z</time>
      </trkpt>
      <trkpt lat="46.20869" lon="6.78887">
        <ele>1832</ele>
        <time>2000-01-01T10:27:56.000Z</time>
      </trkpt>
      <trkpt lat="46.20865" lon="6.78888">
        <ele>1831</ele>
        <time>2000-01-01T10:28:06.000Z</time>
      </trkpt>
      <trkpt lat="46.20857" lon="6.78895">
        <ele>1832.7</ele>
        <time>2000-01-01T10:28:16.000Z</time>
      </trkpt>
      <trkpt lat="46.20837" lon="6.78907">
        <ele>1828</ele>
        <time>2000-01-01T10:28:26.000Z</time>
      </trkpt>
      <trkpt lat="46.20822" lon="6.78917">
        <ele>1833.2</ele>
        <time>2000-01-01T10:28:36.000Z</time>
      </trkpt>
      <trkpt lat="46.2082" lon="6.78919">
        <ele>1825</ele>
        <time>2000-01-01T10:28:46.000Z</time>
      </trkpt>
      <trkpt lat="46.2082" lon="6.78923">
        <ele>1833.9</ele>
        <time>2000-01-01T10:28:56.000Z</time>
      </trkpt>
      <trkpt lat="46.20817" lon="6.78928">
        <ele>1834.3</ele>
        <time>2000-01-01T10:29:06.000Z</time>
      </trkpt>
      <trkpt lat="46.20814" lon="6.78927">
        <ele>1833.6</ele>
        <time>2000-01-01T10:29:16.000Z</time>
      </trkpt>
      <trkpt lat="46.20813" lon="6.78921">
        <ele>1832.4</ele>
        <time>2000-01-01T10:29:26.000Z</time>
      </trkpt>
      <trkpt lat="46.20817" lon="6.78917">
        <ele>1825</ele>
        <time>2000-01-01T10:29:36.000Z</time>
      </trkpt>
      <trkpt lat="46.2082" lon="6.78915">
        <ele>1832.4</ele>
        <time>2000-01-01T10:29:46.000Z</time>
      </trkpt>
      <trkpt lat="46.20823" lon="6.78908">
        <ele>1831.4</ele>
        <time>2000-01-01T10:29:56.000Z</time>
      </trkpt>
      <trkpt lat="46.2082" lon="6.78906">
        <ele>1830.5</ele>
        <time>2000-01-01T10:30:06.000Z</time>
      </trkpt>
      <trkpt lat="46.20816" lon="6.78906">
        <ele>1829.8</ele>
        <time>2000-01-01T10:30:16.000Z</time>
      </trkpt>
      <trkpt lat="46.20812" lon="6.78908">
        <ele>1823</ele>
        <time>2000-01-01T10:30:26.000Z</time>
      </trkpt>
      <trkpt lat="46.20807" lon="6.78916">
        <ele>1830.4</ele>
        <time>2000-01-01T10:30:36.000Z</time>
      </trkpt>
      <trkpt lat="46.20797" lon="6.78926">
        <ele>1823</ele>
        <time>2000-01-01T10:30:46.000Z</time>
      </trkpt>
      <trkpt lat="46.20793" lon="6.78927">
        <ele>1830</ele>
        <time>2000-01-01T10:30:56.000Z</time>
      </trkpt>
      <trkpt lat="46.20787" lon="6.7892">
        <ele>1827.8</ele>
        <time>2000-01-01T10:31:06.000Z</time>
      </trkpt>
      <trkpt lat="46.20786" lon="6.78912">
        <ele>1826.2</ele>
        <time>2000-01-01T10:31:16.000Z</time>
      </trkpt>
      <trkpt lat="46.20786" lon="6.78908">
        <ele>1819</ele>
        <time>2000-01-01T10:31:26.000Z</time>
      </trkpt>
      <trkpt lat="46.20788" lon="6.78904">
        <ele>1825.1</ele>
        <time>2000-01-01T10:31:36.000Z</time>
      </trkpt>
      <trkpt lat="46.2079" lon="6.78897">
        <ele>1824.1</ele>
        <time>2000-01-01T10:31:46.000Z</time>
      </trkpt>
      <trkpt lat="46.20789" lon="6.78893">
        <ele>1823.2</ele>
        <time>2000-01-01T10:31:56.000Z</time>
      </trkpt>
      <trkpt lat="46.20786" lon="6.78888">
        <ele>1821.9</ele>
        <time>2000-01-01T10:32:06.000Z</time>
      </trkpt>
      <trkpt lat="46.20783" lon="6.78886">
        <ele>1815</ele>
        <time>2000-01-01T10:32:16.000Z</time>
      </trkpt>
      <trkpt lat="46.20777" lon="6.78885">
        <ele>1820.1</ele>
        <time>2000-01-01T10:32:26.000Z</time>
      </trkpt>
      <trkpt lat="46.2077" lon="6.78881">
        <ele>1818.5</ele>
        <time>2000-01-01T10:32:36.000Z</time>
      </trkpt>
      <trkpt lat="46.20769" lon="6.78873">
        <ele>1813</ele>
        <time>2000-01-01T10:32:46.000Z</time>
      </trkpt>
      <trkpt lat="46.2077" lon="6.78866">
        <ele>1816</ele>
        <time>2000-01-01T10:32:56.000Z</time>
      </trkpt>
      <trkpt lat="46.20773" lon="6.7886">
        <ele>1815.4</ele>
        <time>2000-01-01T10:33:06.000Z</time>
      </trkpt>
      <trkpt lat="46.20778" lon="6.78859">
        <ele>1815.8</ele>
        <time>2000-01-01T10:33:16.000Z</time>
      </trkpt>
      <trkpt lat="46.20783" lon="6.78852">
        <ele>1812</ele>
        <time>2000-01-01T10:33:26.000Z</time>
      </trkpt>
      <trkpt lat="46.20776" lon="6.7884">
        <ele>1812.3</ele>
        <time>2000-01-01T10:33:36.000Z</time>
      </trkpt>
      <trkpt lat="46.20765" lon="6.78815">
        <ele>1806</ele>
        <time>2000-01-01T10:33:46.000Z</time>
      </trkpt>
      <trkpt lat="46.20745" lon="6.78796">
        <ele>1802</ele>
        <time>2000-01-01T10:33:56.000Z</time>
      </trkpt>
      <trkpt lat="46.20726" lon="6.78776">
        <ele>1802</ele>
        <time>2000-01-01T10:34:06.000Z</time>
      </trkpt>
      <trkpt lat="46.20713" lon="6.78776">
        <ele>1797.1</ele>
        <time>2000-01-01T10:34:16.000Z</time>
      </trkpt>
      <trkpt lat="46.20709" lon="6.7878">
        <ele>1797.2</ele>
        <time>2000-01-01T10:34:26.000Z</time>
      </trkpt>
      <trkpt lat="46.20706" lon="6.78785">
        <ele>1801</ele>
        <time>2000-01-01T10:34:36.000Z</time>
      </trkpt>
      <trkpt lat="46.20705" lon="6.7879">
        <ele>1798.2</ele>
        <time>2000-01-01T10:34:46.000Z</time>
      </trkpt>
      <trkpt lat="46.20702" lon="6.78789">
        <ele>1797.7</ele>
        <time>2000-01-01T10:34:56.000Z</time>
      </trkpt>
      <trkpt lat="46.20699" lon="6.78785">
        <ele>1796.9</ele>
        <time>2000-01-01T10:35:06.000Z</time>
      </trkpt>
      <trkpt lat="46.20697" lon="6.78778">
        <ele>1795.7</ele>
        <time>2000-01-01T10:35:16.000Z</time>
      </trkpt>
      <trkpt lat="46.20696" lon="6.78767">
        <ele>1797</ele>
        <time>2000-01-01T10:35:26.000Z</time>
      </trkpt>
      <trkpt lat="46.20694" lon="6.78764">
        <ele>1793.5</ele>
        <time>2000-01-01T10:35:36.000Z</time>
      </trkpt>
      <trkpt lat="46.20687" lon="6.78767">
        <ele>1793.2</ele>
        <time>2000-01-01T10:35:46.000Z</time>
      </trkpt>
      <trkpt lat="46.20679" lon="6.78783">
        <ele>1796</ele>
        <time>2000-01-01T10:35:56.000Z</time>
      </trkpt>
      <trkpt lat="46.20674" lon="6.78787">
        <ele>1794.6</ele>
        <time>2000-01-01T10:36:06.000Z</time>
      </trkpt>
      <trkpt lat="46.2064" lon="6.78761">
        <ele>1792</ele>
        <time>2000-01-01T10:36:16.000Z</time>
      </trkpt>
      <trkpt lat="46.2064" lon="6.78756">
        <ele>1778.8</ele>
        <time>2000-01-01T10:36:26.000Z</time>
      </trkpt>
      <trkpt lat="46.20642" lon="6.78749">
        <ele>1777.8</ele>
        <time>2000-01-01T10:36:36.000Z</time>
      </trkpt>
      <trkpt lat="46.20647" lon="6.78742">
        <ele>1776.2</ele>
        <time>2000-01-01T10:36:46.000Z</time>
      </trkpt>
      <trkpt lat="46.20675" lon="6.78734">
        <ele>1788</ele>
        <time>2000-01-01T10:36:56.000Z</time>
      </trkpt>
      <trkpt lat="46.20677" lon="6.78731">
        <ele>1780.9</ele>
        <time>2000-01-01T10:37:06.000Z</time>
      </trkpt>
      <trkpt lat="46.20683" lon="6.78727">
        <ele>1779.7</ele>
        <time>2000-01-01T10:37:16.000Z</time>
      </trkpt>
      <trkpt lat="46.20688" lon="6.78725">
        <ele>1779.4</ele>
        <time>2000-01-01T10:37:26.000Z</time>
      </trkpt>
      <trkpt lat="46.20693" lon="6.78725">
        <ele>1786</ele>
        <time>2000-01-01T10:37:36.000Z</time>
      </trkpt>
      <trkpt lat="46.20691" lon="6.78721">
        <ele>1777.9</ele>
        <time>2000-01-01T10:37:46.000Z</time>
      </trkpt>
      <trkpt lat="46.20678" lon="6.78721">
        <ele>1776.2</ele>
        <time>2000-01-01T10:37:56.000Z</time>
      </trkpt>
      <trkpt lat="46.20672" lon="6.78723">
        <ele>1785</ele>
        <time>2000-01-01T10:38:06.000Z</time>
      </trkpt>
      <trkpt lat="46.20669" lon="6.78721">
        <ele>1775</ele>
        <time>2000-01-01T10:38:16.000Z</time>
      </trkpt>
      <trkpt lat="46.20695" lon="6.78703">
        <ele>1778</ele>
        <time>2000-01-01T10:38:26.000Z</time>
      </trkpt>
      <trkpt lat="46.2071" lon="6.78703">
        <ele>1772.4</ele>
        <time>2000-01-01T10:38:36.000Z</time>
      </trkpt>
      <trkpt lat="46.20719" lon="6.78698">
        <ele>1778</ele>
        <time>2000-01-01T10:38:46.000Z</time>
      </trkpt>
      <trkpt lat="46.20731" lon="6.78696">
        <ele>1772.6</ele>
        <time>2000-01-01T10:38:56.000Z</time>
      </trkpt>
      <trkpt lat="46.2074" lon="6.78702">
        <ele>1779</ele>
        <time>2000-01-01T10:39:06.000Z</time>
      </trkpt>
      <trkpt lat="46.2075" lon="6.78707">
        <ele>1780</ele>
        <time>2000-01-01T10:39:16.000Z</time>
      </trkpt>
      <trkpt lat="46.20791" lon="6.78721">
        <ele>1779</ele>
        <time>2000-01-01T10:39:26.000Z</time>
      </trkpt>
      <trkpt lat="46.20821" lon="6.78712">
        <ele>1779</ele>
        <time>2000-01-01T10:39:36.000Z</time>
      </trkpt>
      <trkpt lat="46.20846" lon="6.78704">
        <ele>1776</ele>
        <time>2000-01-01T10:39:46.000Z</time>
      </trkpt>
      <trkpt lat="46.20877" lon="6.78695">
        <ele>1773</ele>
        <time>2000-01-01T10:39:56.000Z</time>
      </trkpt>
      <trkpt lat="46.20912" lon="6.78686">
        <ele>1772</ele>
        <time>2000-01-01T10:40:06.000Z</time>
      </trkpt>
      <trkpt lat="46.20916" lon="6.78682">
        <ele>1775.4</ele>
        <time>2000-01-01T10:40:16.000Z</time>
      </trkpt>
      <trkpt lat="46.20923" lon="6.78679">
        <ele>1775.7</ele>
        <time>2000-01-01T10:40:26.000Z</time>
      </trkpt>
      <trkpt lat="46.20929" lon="6.7868">
        <ele>1777.1</ele>
        <time>2000-01-01T10:40:36.000Z</time>
      </trkpt>
      <trkpt lat="46.20935" lon="6.78684">
        <ele>1771</ele>
        <time>2000-01-01T10:40:46.000Z</time>
      </trkpt>
      <trkpt lat="46.20938" lon="6.78684">
        <ele>1779.8</ele>
        <time>2000-01-01T10:40:56.000Z</time>
      </trkpt>
      <trkpt lat="46.2094" lon="6.78682">
        <ele>1779.6</ele>
        <time>2000-01-01T10:41:06.000Z</time>
      </trkpt>
      <trkpt lat="46.20941" lon="6.78677">
        <ele>1778.5</ele>
        <time>2000-01-01T10:41:16.000Z</time>
      </trkpt>
      <trkpt lat="46.2094" lon="6.7867">
        <ele>1776.4</ele>
        <time>2000-01-01T10:41:26.000Z</time>
      </trkpt>
      <trkpt lat="46.20935" lon="6.78652">
        <ele>1763</ele>
        <time>2000-01-01T10:41:36.000Z</time>
      </trkpt>
      <trkpt lat="46.20937" lon="6.7864">
        <ele>1766.6</ele>
        <time>2000-01-01T10:41:46.000Z</time>
      </trkpt>
      <trkpt lat="46.2094" lon="6.78637">
        <ele>1766.3</ele>
        <time>2000-01-01T10:41:56.000Z</time>
      </trkpt>
      <trkpt lat="46.2094" lon="6.78634">
        <ele>1765.3</ele>
        <time>2000-01-01T10:42:06.000Z</time>
      </trkpt>
      <trkpt lat="46.20942" lon="6.78628">
        <ele>1758</ele>
        <time>2000-01-01T10:42:16.000Z</time>
      </trkpt>
      <trkpt lat="46.20953" lon="6.78605">
        <ele>1754</ele>
        <time>2000-01-01T10:42:26.000Z</time>
      </trkpt>
      <trkpt lat="46.20962" lon="6.78593">
        <ele>1757.8</ele>
        <time>2000-01-01T10:42:36.000Z</time>
      </trkpt>
      <trkpt lat="46.2097" lon="6.78586">
        <ele>1748</ele>
        <time>2000-01-01T10:42:46.000Z</time>
      </trkpt>
      <trkpt lat="46.20975" lon="6.78583">
        <ele>1757.9</ele>
        <time>2000-01-01T10:42:56.000Z</time>
      </trkpt>
      <trkpt lat="46.20982" lon="6.78582">
        <ele>1759.2</ele>
        <time>2000-01-01T10:43:06.000Z</time>
      </trkpt>
      <trkpt lat="46.20994" lon="6.78578">
        <ele>1748</ele>
        <time>2000-01-01T10:43:16.000Z</time>
      </trkpt>
      <trkpt lat="46.21003" lon="6.78576">
        <ele>1762.2</ele>
        <time>2000-01-01T10:43:26.000Z</time>
      </trkpt>
      <trkpt lat="46.21007" lon="6.78576">
        <ele>1763.3</ele>
        <time>2000-01-01T10:43:36.000Z</time>
      </trkpt>
      <trkpt lat="46.21013" lon="6.78573">
        <ele>1745</ele>
        <time>2000-01-01T10:43:46.000Z</time>
      </trkpt>
      <trkpt lat="46.21017" lon="6.78569">
        <ele>1763.7</ele>
        <time>2000-01-01T10:43:56.000Z</time>
      </trkpt>
      <trkpt lat="46.2103" lon="6.78552">
        <ele>1742</ele>
        <time>2000-01-01T10:44:06.000Z</time>
      </trkpt>
      <trkpt lat="46.21033" lon="6.78547">
        <ele>1761.1</ele>
        <time>2000-01-01T10:44:16.000Z</time>
      </trkpt>
      <trkpt lat="46.21036" lon="6.78539">
        <ele>1759.4</ele>
        <time>2000-01-01T10:44:26.000Z</time>
      </trkpt>
      <trkpt lat="46.21043" lon="6.78525">
        <ele>1738</ele>
        <time>2000-01-01T10:44:36.000Z</time>
      </trkpt>
      <trkpt lat="46.21051" lon="6.78503">
        <ele>1752.7</ele>
        <time>2000-01-01T10:44:46.000Z</time>
      </trkpt>
      <trkpt lat="46.21061" lon="6.78478">
        <ele>1736</ele>
        <time>2000-01-01T10:44:56.000Z</time>
      </trkpt>
      <trkpt lat="46.21068" lon="6.78456">
        <ele>1747.7</ele>
        <time>2000-01-01T10:45:06.000Z</time>
      </trkpt>
      <trkpt lat="46.2107" lon="6.78442">
        <ele>1729</ele>
        <time>2000-01-01T10:45:16.000Z</time>
      </trkpt>
      <trkpt lat="46.21072" lon="6.78416">
        <ele>1740.7</ele>
        <time>2000-01-01T10:45:26.000Z</time>
      </trkpt>
      <trkpt lat="46.21074" lon="6.78406">
        <ele>1726</ele>
        <time>2000-01-01T10:45:36.000Z</time>
      </trkpt>
      <trkpt lat="46.21078" lon="6.78393">
        <ele>1738.1</ele>
        <time>2000-01-01T10:45:46.000Z</time>
      </trkpt>
      <trkpt lat="46.21082" lon="6.78374">
        <ele>1726</ele>
        <time>2000-01-01T10:45:56.000Z</time>
      </trkpt>
      <trkpt lat="46.21087" lon="6.78357">
        <ele>1733.6</ele>
        <time>2000-01-01T10:46:06.000Z</time>
      </trkpt>
      <trkpt lat="46.21088" lon="6.78351">
        <ele>1732.5</ele>
        <time>2000-01-01T10:46:16.000Z</time>
      </trkpt>
      <trkpt lat="46.21089" lon="6.78344">
        <ele>1720</ele>
        <time>2000-01-01T10:46:26.000Z</time>
      </trkpt>
      <trkpt lat="46.21089" lon="6.78339">
        <ele>1729.8</ele>
        <time>2000-01-01T10:46:36.000Z</time>
      </trkpt>
      <trkpt lat="46.21088" lon="6.78331">
        <ele>1727.3</ele>
        <time>2000-01-01T10:46:46.000Z</time>
      </trkpt>
      <trkpt lat="46.21088" lon="6.78322">
        <ele>1725</ele>
        <time>2000-01-01T10:46:56.000Z</time>
      </trkpt>
      <trkpt lat="46.21089" lon="6.78313">
        <ele>1714</ele>
        <time>2000-01-01T10:47:06.000Z</time>
      </trkpt>
      <trkpt lat="46.21089" lon="6.78308">
        <ele>1721.7</ele>
        <time>2000-01-01T10:47:16.000Z</time>
      </trkpt>
      <trkpt lat="46.2109" lon="6.78303">
        <ele>1720.9</ele>
        <time>2000-01-01T10:47:26.000Z</time>
      </trkpt>
      <trkpt lat="46.21108" lon="6.78257">
        <ele>1708</ele>
        <time>2000-01-01T10:47:36.000Z</time>
      </trkpt>
      <trkpt lat="46.21115" lon="6.78241">
        <ele>1716.2</ele>
        <time>2000-01-01T10:47:46.000Z</time>
      </trkpt>
      <trkpt lat="46.21117" lon="6.78234">
        <ele>1715.7</ele>
        <time>2000-01-01T10:47:56.000Z</time>
      </trkpt>
      <trkpt lat="46.21119" lon="6.78223">
        <ele>1704</ele>
        <time>2000-01-01T10:48:06.000Z</time>
      </trkpt>
      <trkpt lat="46.21119" lon="6.78208">
        <ele>1711.3</ele>
        <time>2000-01-01T10:48:16.000Z</time>
      </trkpt>
      <trkpt lat="46.2112" lon="6.78198">
        <ele>1709.8</ele>
        <time>2000-01-01T10:48:26.000Z</time>
      </trkpt>
      <trkpt lat="46.2112" lon="6.7818">
        <ele>1699</ele>
        <time>2000-01-01T10:48:36.000Z</time>
      </trkpt>
      <trkpt lat="46.21121" lon="6.78167">
        <ele>1704.1</ele>
        <time>2000-01-01T10:48:46.000Z</time>
      </trkpt>
      <trkpt lat="46.21124" lon="6.78152">
        <ele>1695</ele>
        <time>2000-01-01T10:48:56.000Z</time>
      </trkpt>
      <trkpt lat="46.21129" lon="6.78133">
        <ele>1698.7</ele>
        <time>2000-01-01T10:49:06.000Z</time>
      </trkpt>
      <trkpt lat="46.21131" lon="6.78123">
        <ele>1690</ele>
        <time>2000-01-01T10:49:16.000Z</time>
      </trkpt>
      <trkpt lat="46.21132" lon="6.78115">
        <ele>1695.3</ele>
        <time>2000-01-01T10:49:26.000Z</time>
      </trkpt>
      <trkpt lat="46.21132" lon="6.78109">
        <ele>1693.6</ele>
        <time>2000-01-01T10:49:36.000Z</time>
      </trkpt>
      <trkpt lat="46.21131" lon="6.78103">
        <ele>1691.5</ele>
        <time>2000-01-01T10:49:46.000Z</time>
      </trkpt>
      <trkpt lat="46.21132" lon="6.78086">
        <ele>1679</ele>
        <time>2000-01-01T10:49:56.000Z</time>
      </trkpt>
      <trkpt lat="46.21134" lon="6.78078">
        <ele>1686.1</ele>
        <time>2000-01-01T10:50:06.000Z</time>
      </trkpt>
      <trkpt lat="46.2114" lon="6.78063">
        <ele>1685.2</ele>
        <time>2000-01-01T10:50:16.000Z</time>
      </trkpt>
      <trkpt lat="46.21145" lon="6.78044">
        <ele>1671</ele>
        <time>2000-01-01T10:50:26.000Z</time>
      </trkpt>
      <trkpt lat="46.2116" lon="6.77992">
        <ele>1660</ele>
        <time>2000-01-01T10:50:36.000Z</time>
      </trkpt>
      <trkpt lat="46.21163" lon="6.77976">
        <ele>1671.9</ele>
        <time>2000-01-01T10:50:46.000Z</time>
      </trkpt>
      <trkpt lat="46.21171" lon="6.77941">
        <ele>1654</ele>
        <time>2000-01-01T10:50:56.000Z</time>
      </trkpt>
      <trkpt lat="46.21174" lon="6.7793">
        <ele>1661.7</ele>
        <time>2000-01-01T10:51:06.000Z</time>
      </trkpt>
      <trkpt lat="46.21179" lon="6.77916">
        <ele>1645</ele>
        <time>2000-01-01T10:51:16.000Z</time>
      </trkpt>
      <trkpt lat="46.21186" lon="6.77902">
        <ele>1656.9</ele>
        <time>2000-01-01T10:51:26.000Z</time>
      </trkpt>
      <trkpt lat="46.21196" lon="6.77885">
        <ele>1643</ele>
        <time>2000-01-01T10:51:36.000Z</time>
      </trkpt>
      <trkpt lat="46.21215" lon="6.77857">
        <ele>1638</ele>
        <time>2000-01-01T10:51:46.000Z</time>
      </trkpt>
      <trkpt lat="46.21234" lon="6.77823">
        <ele>1634</ele>
        <time>2000-01-01T10:51:56.000Z</time>
      </trkpt>
      <trkpt lat="46.2125" lon="6.77799">
        <ele>1632</ele>
        <time>2000-01-01T10:52:06.000Z</time>
      </trkpt>
      <trkpt lat="46.21264" lon="6.77781">
        <ele>1631</ele>
        <time>2000-01-01T10:52:16.000Z</time>
      </trkpt>
      <trkpt lat="46.21268" lon="6.77761">
        <ele>1639.8</ele>
        <time>2000-01-01T10:52:26.000Z</time>
      </trkpt>
      <trkpt lat="46.21266" lon="6.77753">
        <ele>1624</ele>
        <time>2000-01-01T10:52:36.000Z</time>
      </trkpt>
      <trkpt lat="46.2126" lon="6.77749">
        <ele>1633.2</ele>
        <time>2000-01-01T10:52:46.000Z</time>
      </trkpt>
      <trkpt lat="46.21232" lon="6.7776">
        <ele>1617</ele>
        <time>2000-01-01T10:52:56.000Z</time>
      </trkpt>
      <trkpt lat="46.2121" lon="6.77774">
        <ele>1616</ele>
        <time>2000-01-01T10:53:06.000Z</time>
      </trkpt>
      <trkpt lat="46.21187" lon="6.77789">
        <ele>1611</ele>
        <time>2000-01-01T10:53:16.000Z</time>
      </trkpt>
      <trkpt lat="46.21162" lon="6.77801">
        <ele>1611</ele>
        <time>2000-01-01T10:53:26.000Z</time>
      </trkpt>
      <trkpt lat="46.21131" lon="6.77816">
        <ele>1605</ele>
        <time>2000-01-01T10:53:36.000Z</time>
      </trkpt>
      <trkpt lat="46.21117" lon="6.77825">
        <ele>1607.9</ele>
        <time>2000-01-01T10:53:46.000Z</time>
      </trkpt>
      <trkpt lat="46.21107" lon="6.77835">
        <ele>1600</ele>
        <time>2000-01-01T10:53:56.000Z</time>
      </trkpt>
      <trkpt lat="46.21094" lon="6.7785">
        <ele>1606.2</ele>
        <time>2000-01-01T10:54:06.000Z</time>
      </trkpt>
      <trkpt lat="46.21088" lon="6.77855">
        <ele>1597</ele>
        <time>2000-01-01T10:54:16.000Z</time>
      </trkpt>
      <trkpt lat="46.2108" lon="6.7786">
        <ele>1604.2</ele>
        <time>2000-01-01T10:54:26.000Z</time>
      </trkpt>
      <trkpt lat="46.21071" lon="6.77864">
        <ele>1602.5</ele>
        <time>2000-01-01T10:54:36.000Z</time>
      </trkpt>
      <trkpt lat="46.21064" lon="6.77866">
        <ele>1594</ele>
        <time>2000-01-01T10:54:46.000Z</time>
      </trkpt>
      <trkpt lat="46.21052" lon="6.77868">
        <ele>1597.1</ele>
        <time>2000-01-01T10:54:56.000Z</time>
      </trkpt>
      <trkpt lat="46.21043" lon="6.77871">
        <ele>1590</ele>
        <time>2000-01-01T10:55:06.000Z</time>
      </trkpt>
      <trkpt lat="46.21025" lon="6.77888">
        <ele>1585</ele>
        <time>2000-01-01T10:55:16.000Z</time>
      </trkpt>
      <trkpt lat="46.21015" lon="6.77902">
        <ele>1589</ele>
        <time>2000-01-01T10:55:26.000Z</time>
      </trkpt>
      <trkpt lat="46.21" lon="6.77926">
        <ele>1579</ele>
        <time>2000-01-01T10:55:36.000Z</time>
      </trkpt>
      <trkpt lat="46.20992" lon="6.77936">
        <ele>1584.5</ele>
        <time>2000-01-01T10:55:46.000Z</time>
      </trkpt>
      <trkpt lat="46.2098" lon="6.77957">
        <ele>1574</ele>
        <time>2000-01-01T10:55:56.000Z</time>
      </trkpt>
      <trkpt lat="46.20971" lon="6.7797">
        <ele>1582.2</ele>
        <time>2000-01-01T10:56:06.000Z</time>
      </trkpt>
      <trkpt lat="46.20961" lon="6.77979">
        <ele>1571</ele>
        <time>2000-01-01T10:56:16.000Z</time>
      </trkpt>
      <trkpt lat="46.2095" lon="6.77992">
        <ele>1577.2</ele>
        <time>2000-01-01T10:56:26.000Z</time>
      </trkpt>
      <trkpt lat="46.20926" lon="6.78014">
        <ele>1563</ele>
        <time>2000-01-01T10:56:36.000Z</time>
      </trkpt>
      <trkpt lat="46.2091" lon="6.78025">
        <ele>1567.4</ele>
        <time>2000-01-01T10:56:46.000Z</time>
      </trkpt>
      <trkpt lat="46.20875" lon="6.78043">
        <ele>1553</ele>
        <time>2000-01-01T10:56:56.000Z</time>
      </trkpt>
      <trkpt lat="46.2085" lon="6.78057">
        <ele>1545</ele>
        <time>2000-01-01T10:57:06.000Z</time>
      </trkpt>
      <trkpt lat="46.20837" lon="6.78062">
        <ele>1553.7</ele>
        <time>2000-01-01T10:57:16.000Z</time>
      </trkpt>
      <trkpt lat="46.20822" lon="6.78063">
        <ele>1542</ele>
        <time>2000-01-01T10:57:26.000Z</time>
      </trkpt>
      <trkpt lat="46.20787" lon="6.78052">
        <ele>1535</ele>
        <time>2000-01-01T10:57:36.000Z</time>
      </trkpt>
      <trkpt lat="46.20778" lon="6.7805">
        <ele>1538.8</ele>
        <time>2000-01-01T10:57:46.000Z</time>
      </trkpt>
      <trkpt lat="46.20749" lon="6.78051">
        <ele>1527</ele>
        <time>2000-01-01T10:57:56.000Z</time>
      </trkpt>
      <trkpt lat="46.20736" lon="6.78058">
        <ele>1532.5</ele>
        <time>2000-01-01T10:58:06.000Z</time>
      </trkpt>
      <trkpt lat="46.20729" lon="6.7806">
        <ele>1524</ele>
        <time>2000-01-01T10:58:16.000Z</time>
      </trkpt>
      <trkpt lat="46.20723" lon="6.7806">
        <ele>1531.4</ele>
        <time>2000-01-01T10:58:26.000Z</time>
      </trkpt>
      <trkpt lat="46.20711" lon="6.78056">
        <ele>1529.5</ele>
        <time>2000-01-01T10:58:36.000Z</time>
      </trkpt>
      <trkpt lat="46.207" lon="6.78042">
        <ele>1522</ele>
        <time>2000-01-01T10:58:46.000Z</time>
      </trkpt>
      <trkpt lat="46.20709" lon="6.78028">
        <ele>1525.4</ele>
        <time>2000-01-01T10:58:56.000Z</time>
      </trkpt>
      <trkpt lat="46.20719" lon="6.78002">
        <ele>1516</ele>
        <time>2000-01-01T10:59:06.000Z</time>
      </trkpt>
      <trkpt lat="46.20724" lon="6.77992">
        <ele>1521.8</ele>
        <time>2000-01-01T10:59:16.000Z</time>
      </trkpt>
      <trkpt lat="46.20731" lon="6.77983">
        <ele>1521.2</ele>
        <time>2000-01-01T10:59:26.000Z</time>
      </trkpt>
      <trkpt lat="46.20735" lon="6.77974">
        <ele>1512</ele>
        <time>2000-01-01T10:59:36.000Z</time>
      </trkpt>
      <trkpt lat="46.20746" lon="6.77933">
        <ele>1508</ele>
        <time>2000-01-01T10:59:46.000Z</time>
      </trkpt>
      <trkpt lat="46.20757" lon="6.77887">
        <ele>1504</ele>
        <time>2000-01-01T10:59:56.000Z</time>
      </trkpt>
      <trkpt lat="46.20767" lon="6.77841">
        <ele>1502</ele>
        <time>2000-01-01T11:00:06.000Z</time>
      </trkpt>
      <trkpt lat="46.20775" lon="6.77808">
        <ele>1500</ele>
        <time>2000-01-01T11:00:16.000Z</time>
      </trkpt>
      <trkpt lat="46.20784" lon="6.77771">
        <ele>1498</ele>
        <time>2000-01-01T11:00:26.000Z</time>
      </trkpt>
      <trkpt lat="46.208" lon="6.77724">
        <ele>1497</ele>
        <time>2000-01-01T11:00:36.000Z</time>
      </trkpt>
      <trkpt lat="46.20817" lon="6.77677">
        <ele>1496</ele>
        <time>2000-01-01T11:00:46.000Z</time>
      </trkpt>
      <trkpt lat="46.20829" lon="6.77642">
        <ele>1494</ele>
        <time>2000-01-01T11:00:56.000Z</time>
      </trkpt>
      <trkpt lat="46.20845" lon="6.77596">
        <ele>1494</ele>
        <time>2000-01-01T11:01:06.000Z</time>
      </trkpt>
      <trkpt lat="46.20859" lon="6.77554">
        <ele>1495</ele>
        <time>2000-01-01T11:01:16.000Z</time>
      </trkpt>
      <trkpt lat="46.20886" lon="6.77548">
        <ele>1497</ele>
        <time>2000-01-01T11:01:26.000Z</time>
      </trkpt>
      <trkpt lat="46.20906" lon="6.77523">
        <ele>1497</ele>
        <time>2000-01-01T11:01:36.000Z</time>
      </trkpt>
      <trkpt lat="46.2091" lon="6.77493">
        <ele>1488</ele>
        <time>2000-01-01T11:01:46.000Z</time>
      </trkpt>
      <trkpt lat="46.20936" lon="6.77468">
        <ele>1484</ele>
        <time>2000-01-01T11:01:56.000Z</time>
      </trkpt>
      <trkpt lat="46.20952" lon="6.77437">
        <ele>1481</ele>
        <time>2000-01-01T11:02:06.000Z</time>
      </trkpt>
      <trkpt lat="46.20978" lon="6.7744">
        <ele>1481</ele>
        <time>2000-01-01T11:02:16.000Z</time>
      </trkpt>
      <trkpt lat="46.21011" lon="6.77444">
        <ele>1477</ele>
        <time>2000-01-01T11:02:26.000Z</time>
      </trkpt>
      <trkpt lat="46.21055" lon="6.77426">
        <ele>1473</ele>
        <time>2000-01-01T11:02:36.000Z</time>
      </trkpt>
      <trkpt lat="46.21081" lon="6.77407">
        <ele>1471</ele>
        <time>2000-01-01T11:02:46.000Z</time>
      </trkpt>
      <trkpt lat="46.21096" lon="6.77389">
        <ele>1469</ele>
        <time>2000-01-01T11:02:56.000Z</time>
      </trkpt>
      <trkpt lat="46.21097" lon="6.77371">
        <ele>1475.7</ele>
        <time>2000-01-01T11:03:06.000Z</time>
      </trkpt>
      <trkpt lat="46.21086" lon="6.77355">
        <ele>1466</ele>
        <time>2000-01-01T11:03:16.000Z</time>
      </trkpt>
      <trkpt lat="46.21063" lon="6.77356">
        <ele>1465</ele>
        <time>2000-01-01T11:03:26.000Z</time>
      </trkpt>
      <trkpt lat="46.21039" lon="6.77357">
        <ele>1464</ele>
        <time>2000-01-01T11:03:36.000Z</time>
      </trkpt>
      <trkpt lat="46.21026" lon="6.77352">
        <ele>1468.7</ele>
        <time>2000-01-01T11:03:46.000Z</time>
      </trkpt>
      <trkpt lat="46.21014" lon="6.7736">
        <ele>1463</ele>
        <time>2000-01-01T11:03:56.000Z</time>
      </trkpt>
      <trkpt lat="46.20995" lon="6.77356">
        <ele>1462</ele>
        <time>2000-01-01T11:04:06.000Z</time>
      </trkpt>
      <trkpt lat="46.20971" lon="6.77337">
        <ele>1458</ele>
        <time>2000-01-01T11:04:16.000Z</time>
      </trkpt>
      <trkpt lat="46.2097" lon="6.77315">
        <ele>1473.5</ele>
        <time>2000-01-01T11:04:26.000Z</time>
      </trkpt>
      <trkpt lat="46.20972" lon="6.77308">
        <ele>1457</ele>
        <time>2000-01-01T11:04:36.000Z</time>
      </trkpt>
      <trkpt lat="46.20978" lon="6.77294">
        <ele>1468.3</ele>
        <time>2000-01-01T11:04:46.000Z</time>
      </trkpt>
      <trkpt lat="46.2099" lon="6.77258">
        <ele>1452</ele>
        <time>2000-01-01T11:04:56.000Z</time>
      </trkpt>
      <trkpt lat="46.20998" lon="6.77246">
        <ele>1453.8</ele>
        <time>2000-01-01T11:05:06.000Z</time>
      </trkpt>
      <trkpt lat="46.21004" lon="6.77227">
        <ele>1444</ele>
        <time>2000-01-01T11:05:16.000Z</time>
      </trkpt>
      <trkpt lat="46.21012" lon="6.77211">
        <ele>1450</ele>
        <time>2000-01-01T11:05:26.000Z</time>
      </trkpt>
      <trkpt lat="46.21036" lon="6.77178">
        <ele>1430</ele>
        <time>2000-01-01T11:05:36.000Z</time>
      </trkpt>
      <trkpt lat="46.21049" lon="6.77155">
        <ele>1425</ele>
        <time>2000-01-01T11:05:46.000Z</time>
      </trkpt>
      <trkpt lat="46.21068" lon="6.77129">
        <ele>1415</ele>
        <time>2000-01-01T11:05:56.000Z</time>
      </trkpt>
      <trkpt lat="46.21091" lon="6.77096">
        <ele>1402</ele>
        <time>2000-01-01T11:06:06.000Z</time>
      </trkpt>
      <trkpt lat="46.21098" lon="6.77087">
        <ele>1410.1</ele>
        <time>2000-01-01T11:06:16.000Z</time>
      </trkpt>
      <trkpt lat="46.21108" lon="6.77069">
        <ele>1394</ele>
        <time>2000-01-01T11:06:26.000Z</time>
      </trkpt>
      <trkpt lat="46.2112" lon="6.77056">
        <ele>1402</ele>
        <time>2000-01-01T11:06:36.000Z</time>
      </trkpt>
      <trkpt lat="46.21127" lon="6.77042">
        <ele>1385</ele>
        <time>2000-01-01T11:06:46.000Z</time>
      </trkpt>
      <trkpt lat="46.21134" lon="6.77037">
        <ele>1396.9</ele>
        <time>2000-01-01T11:06:56.000Z</time>
      </trkpt>
      <trkpt lat="46.2114" lon="6.77035">
        <ele>1395.4</ele>
        <time>2000-01-01T11:07:06.000Z</time>
      </trkpt>
      <trkpt lat="46.21161" lon="6.77022">
        <ele>1376</ele>
        <time>2000-01-01T11:07:16.000Z</time>
      </trkpt>
      <trkpt lat="46.21185" lon="6.77009">
        <ele>1373</ele>
        <time>2000-01-01T11:07:26.000Z</time>
      </trkpt>
      <trkpt lat="46.21201" lon="6.76983">
        <ele>1369</ele>
        <time>2000-01-01T11:07:36.000Z</time>
      </trkpt>
      <trkpt lat="46.21212" lon="6.76965">
        <ele>1371.9</ele>
        <time>2000-01-01T11:07:46.000Z</time>
      </trkpt>
      <trkpt lat="46.21222" lon="6.76947">
        <ele>1360</ele>
        <time>2000-01-01T11:07:56.000Z</time>
      </trkpt>
      <trkpt lat="46.21227" lon="6.76931">
        <ele>1363.3</ele>
        <time>2000-01-01T11:08:06.000Z</time>
      </trkpt>
      <trkpt lat="46.2123" lon="6.76904">
        <ele>1352</ele>
        <time>2000-01-01T11:08:16.000Z</time>
      </trkpt>
      <trkpt lat="46.21231" lon="6.76867">
        <ele>1343</ele>
        <time>2000-01-01T11:08:26.000Z</time>
      </trkpt>
      <trkpt lat="46.21232" lon="6.76823">
        <ele>1336</ele>
        <time>2000-01-01T11:08:36.000Z</time>
      </trkpt>
      <trkpt lat="46.21229" lon="6.76793">
        <ele>1329</ele>
        <time>2000-01-01T11:08:46.000Z</time>
      </trkpt>
      <trkpt lat="46.21222" lon="6.76771">
        <ele>1329.5</ele>
        <time>2000-01-01T11:08:56.000Z</time>
      </trkpt>
      <trkpt lat="46.21212" lon="6.76757">
        <ele>1321</ele>
        <time>2000-01-01T11:09:06.000Z</time>
      </trkpt>
      <trkpt lat="46.21176" lon="6.76727">
        <ele>1306</ele>
        <time>2000-01-01T11:09:16.000Z</time>
      </trkpt>
      <trkpt lat="46.21152" lon="6.76703">
        <ele>1298</ele>
        <time>2000-01-01T11:09:26.000Z</time>
      </trkpt>
      <trkpt lat="46.21142" lon="6.76684">
        <ele>1315.3</ele>
        <time>2000-01-01T11:09:36.000Z</time>
      </trkpt>
      <trkpt lat="46.21139" lon="6.76675">
        <ele>1292</ele>
        <time>2000-01-01T11:09:46.000Z</time>
      </trkpt>
      <trkpt lat="46.21139" lon="6.76665">
        <ele>1310.5</ele>
        <time>2000-01-01T11:09:56.000Z</time>
      </trkpt>
      <trkpt lat="46.21141" lon="6.76645">
        <ele>1286</ele>
        <time>2000-01-01T11:10:06.000Z</time>
      </trkpt>
      <trkpt lat="46.21146" lon="6.76626">
        <ele>1297.8</ele>
        <time>2000-01-01T11:10:16.000Z</time>
      </trkpt>
      <trkpt lat="46.21154" lon="6.7661">
        <ele>1275</ele>
        <time>2000-01-01T11:10:26.000Z</time>
      </trkpt>
      <trkpt lat="46.21165" lon="6.76591">
        <ele>1281.6</ele>
        <time>2000-01-01T11:10:36.000Z</time>
      </trkpt>
      <trkpt lat="46.21184" lon="6.76561">
        <ele>1263</ele>
        <time>2000-01-01T11:10:46.000Z</time>
      </trkpt>
      <trkpt lat="46.21192" lon="6.76522">
        <ele>1255</ele>
        <time>2000-01-01T11:10:56.000Z</time>
      </trkpt>
      <trkpt lat="46.21204" lon="6.76487">
        <ele>1248</ele>
        <time>2000-01-01T11:11:06.000Z</time>
      </trkpt>
      <trkpt lat="46.21221" lon="6.76445">
        <ele>1240</ele>
        <time>2000-01-01T11:11:16.000Z</time>
      </trkpt>
      <trkpt lat="46.21239" lon="6.76403">
        <ele>1232</ele>
        <time>2000-01-01T11:11:26.000Z</time>
      </trkpt>
      <trkpt lat="46.21251" lon="6.76372">
        <ele>1231</ele>
        <time>2000-01-01T11:11:36.000Z</time>
      </trkpt>
      <trkpt lat="46.21267" lon="6.76336">
        <ele>1227</ele>
        <time>2000-01-01T11:11:46.000Z</time>
      </trkpt>
      <trkpt lat="46.21271" lon="6.76316">
        <ele>1235.1</ele>
        <time>2000-01-01T11:11:56.000Z</time>
      </trkpt>
      <trkpt lat="46.21279" lon="6.76306">
        <ele>1223</ele>
        <time>2000-01-01T11:12:06.000Z</time>
      </trkpt>
      <trkpt lat="46.21306" lon="6.76296">
        <ele>1220</ele>
        <time>2000-01-01T11:12:16.000Z</time>
      </trkpt>
      <trkpt lat="46.21329" lon="6.76248">
        <ele>1214</ele>
        <time>2000-01-01T11:12:26.000Z</time>
      </trkpt>
      <trkpt lat="46.21342" lon="6.76219">
        <ele>1211</ele>
        <time>2000-01-01T11:12:36.000Z</time>
      </trkpt>
      <trkpt lat="46.21355" lon="6.76189">
        <ele>1209</ele>
        <time>2000-01-01T11:12:46.000Z</time>
      </trkpt>
      <trkpt lat="46.2136" lon="6.76162">
        <ele>1207</ele>
        <time>2000-01-01T11:12:56.000Z</time>
      </trkpt>
      <trkpt lat="46.2137" lon="6.76142">
        <ele>1218.2</ele>
        <time>2000-01-01T11:13:06.000Z</time>
      </trkpt>
      <trkpt lat="46.21389" lon="6.76134">
        <ele>1204</ele>
        <time>2000-01-01T11:13:16.000Z</time>
      </trkpt>
      <trkpt lat="46.21423" lon="6.76151">
        <ele>1204</ele>
        <time>2000-01-01T11:13:26.000Z</time>
      </trkpt>
      <trkpt lat="46.21432" lon="6.76137">
        <ele>1211</ele>
        <time>2000-01-01T11:13:36.000Z</time>
      </trkpt>
      <trkpt lat="46.21437" lon="6.76109">
        <ele>1202</ele>
        <time>2000-01-01T11:13:46.000Z</time>
      </trkpt>
      <trkpt lat="46.21445" lon="6.76077">
        <ele>1201</ele>
        <time>2000-01-01T11:13:56.000Z</time>
      </trkpt>
      <trkpt lat="46.21453" lon="6.76044">
        <ele>1200</ele>
        <time>2000-01-01T11:14:06.000Z</time>
      </trkpt>
      <trkpt lat="46.21451" lon="6.76">
        <ele>1199</ele>
        <time>2000-01-01T11:14:16.000Z</time>
      </trkpt>
      <trkpt lat="46.21462" lon="6.75958">
        <ele>1197</ele>
        <time>2000-01-01T11:14:26.000Z</time>
      </trkpt>
      <trkpt lat="46.21473" lon="6.75915">
        <ele>1196</ele>
        <time>2000-01-01T11:14:36.000Z</time>
      </trkpt>
      <trkpt lat="46.21485" lon="6.75871">
        <ele>1195</ele>
        <time>2000-01-01T11:14:46.000Z</time>
      </trkpt>
      <trkpt lat="46.21495" lon="6.75829">
        <ele>1193</ele>
        <time>2000-01-01T11:14:56.000Z</time>
      </trkpt>
      <trkpt lat="46.21506" lon="6.75787">
        <ele>1193</ele>
        <time>2000-01-01T11:15:06.000Z</time>
      </trkpt>
      <trkpt lat="46.21517" lon="6.75744">
        <ele>1193</ele>
        <time>2000-01-01T11:15:16.000Z</time>
      </trkpt>
      <trkpt lat="46.21501" lon="6.7572">
        <ele>1192</ele>
        <time>2000-01-01T11:15:26.000Z</time>
      </trkpt>
      <trkpt lat="46.21489" lon="6.75709">
        <ele>1206.5</ele>
        <time>2000-01-01T11:15:36.000Z</time>
      </trkpt>
      <trkpt lat="46.2148" lon="6.75683">
        <ele>1190</ele>
        <time>2000-01-01T11:15:46.000Z</time>
      </trkpt>
      <trkpt lat="46.21469" lon="6.75665">
        <ele>1215.2</ele>
        <time>2000-01-01T11:15:56.000Z</time>
      </trkpt>
      <trkpt lat="46.21461" lon="6.75641">
        <ele>1189</ele>
        <time>2000-01-01T11:16:06.000Z</time>
      </trkpt>
      <trkpt lat="46.21438" lon="6.756">
        <ele>1189</ele>
        <time>2000-01-01T11:16:16.000Z</time>
      </trkpt>
      <trkpt lat="46.21432" lon="6.75586">
        <ele>1215</ele>
        <time>2000-01-01T11:16:26.000Z</time>
      </trkpt>
      <trkpt lat="46.21428" lon="6.75575">
        <ele>1187</ele>
        <time>2000-01-01T11:16:36.000Z</time>
      </trkpt>
      <trkpt lat="46.21427" lon="6.75546">
        <ele>1185</ele>
        <time>2000-01-01T11:16:46.000Z</time>
      </trkpt>
      <trkpt lat="46.21428" lon="6.75533">
        <ele>1204.5</ele>
        <time>2000-01-01T11:16:56.000Z</time>
      </trkpt>
      <trkpt lat="46.21438" lon="6.75513">
        <ele>1179</ele>
        <time>2000-01-01T11:17:06.000Z</time>
      </trkpt>
      <trkpt lat="46.21435" lon="6.75502">
        <ele>1198.5</ele>
        <time>2000-01-01T11:17:16.000Z</time>
      </trkpt>
      <trkpt lat="46.21434" lon="6.75491">
        <ele>1196.1</ele>
        <time>2000-01-01T11:17:26.000Z</time>
      </trkpt>
      <trkpt lat="46.21436" lon="6.75475">
        <ele>1173</ele>
        <time>2000-01-01T11:17:36.000Z</time>
      </trkpt>
      <trkpt lat="46.21432" lon="6.75451">
        <ele>1187.3</ele>
        <time>2000-01-01T11:17:46.000Z</time>
      </trkpt>
      <trkpt lat="46.21422" lon="6.75432">
        <ele>1163</ele>
        <time>2000-01-01T11:17:56.000Z</time>
      </trkpt>
      <trkpt lat="46.2141" lon="6.75412">
        <ele>1176.1</ele>
        <time>2000-01-01T11:18:06.000Z</time>
      </trkpt>
      <trkpt lat="46.21404" lon="6.75407">
        <ele>1158</ele>
        <time>2000-01-01T11:18:16.000Z</time>
      </trkpt>
      <trkpt lat="46.21395" lon="6.75405">
        <ele>1172.8</ele>
        <time>2000-01-01T11:18:26.000Z</time>
      </trkpt>
      <trkpt lat="46.21383" lon="6.75404">
        <ele>1154</ele>
        <time>2000-01-01T11:18:36.000Z</time>
      </trkpt>
      <trkpt lat="46.21341" lon="6.75422">
        <ele>1154</ele>
        <time>2000-01-01T11:18:46.000Z</time>
      </trkpt>
      <trkpt lat="46.21324" lon="6.75427">
        <ele>1175.5</ele>
        <time>2000-01-01T11:18:56.000Z</time>
      </trkpt>
      <trkpt lat="46.21316" lon="6.75426">
        <ele>1148</ele>
        <time>2000-01-01T11:19:06.000Z</time>
      </trkpt>
      <trkpt lat="46.21284" lon="6.75407">
        <ele>1140</ele>
        <time>2000-01-01T11:19:16.000Z</time>
      </trkpt>
      <trkpt lat="46.21261" lon="6.75383">
        <ele>1138</ele>
        <time>2000-01-01T11:19:26.000Z</time>
      </trkpt>
      <trkpt lat="46.21244" lon="6.75357">
        <ele>1133</ele>
        <time>2000-01-01T11:19:36.000Z</time>
      </trkpt>
      <trkpt lat="46.21225" lon="6.75327">
        <ele>1130</ele>
        <time>2000-01-01T11:19:46.000Z</time>
      </trkpt>
      <trkpt lat="46.21215" lon="6.75302">
        <ele>1128</ele>
        <time>2000-01-01T11:19:56.000Z</time>
      </trkpt>
      <trkpt lat="46.21207" lon="6.75255">
        <ele>1124</ele>
        <time>2000-01-01T11:20:06.000Z</time>
      </trkpt>
      <trkpt lat="46.21203" lon="6.75206">
        <ele>1121</ele>
        <time>2000-01-01T11:20:16.000Z</time>
      </trkpt>
      <trkpt lat="46.21203" lon="6.75168">
        <ele>1118</ele>
        <time>2000-01-01T11:20:26.000Z</time>
      </trkpt>
      <trkpt lat="46.21202" lon="6.75119">
        <ele>1111</ele>
        <time>2000-01-01T11:20:36.000Z</time>
      </trkpt>
      <trkpt lat="46.21196" lon="6.75093">
        <ele>1111</ele>
        <time>2000-01-01T11:20:46.000Z</time>
      </trkpt>
      <trkpt lat="46.21187" lon="6.75081">
        <ele>1125.2</ele>
        <time>2000-01-01T11:20:56.000Z</time>
      </trkpt>
      <trkpt lat="46.21167" lon="6.75058">
        <ele>1110</ele>
        <time>2000-01-01T11:21:06.000Z</time>
      </trkpt>
      <trkpt lat="46.21146" lon="6.7503">
        <ele>1109</ele>
        <time>2000-01-01T11:21:16.000Z</time>
      </trkpt>
      <trkpt lat="46.21123" lon="6.74995">
        <ele>1109</ele>
        <time>2000-01-01T11:21:26.000Z</time>
      </trkpt>
      <trkpt lat="46.21115" lon="6.74975">
        <ele>1127.3</ele>
        <time>2000-01-01T11:21:36.000Z</time>
      </trkpt>
      <trkpt lat="46.21093" lon="6.74909">
        <ele>1107</ele>
        <time>2000-01-01T11:21:46.000Z</time>
      </trkpt>
      <trkpt lat="46.21093" lon="6.74891">
        <ele>1121.2</ele>
        <time>2000-01-01T11:21:56.000Z</time>
      </trkpt>
      <trkpt lat="46.21073" lon="6.74814">
        <ele>1105</ele>
        <time>2000-01-01T11:22:06.000Z</time>
      </trkpt>
      <trkpt lat="46.21063" lon="6.74768">
        <ele>1105</ele>
        <time>2000-01-01T11:22:16.000Z</time>
      </trkpt>
      <trkpt lat="46.21052" lon="6.74722">
        <ele>1105</ele>
        <time>2000-01-01T11:22:26.000Z</time>
      </trkpt>
      <trkpt lat="46.21044" lon="6.74688">
        <ele>1105</ele>
        <time>2000-01-01T11:22:36.000Z</time>
      </trkpt>
      <trkpt lat="46.21036" lon="6.74651">
        <ele>1106</ele>
        <time>2000-01-01T11:22:46.000Z</time>
      </trkpt>
      <trkpt lat="46.21037" lon="6.74631">
        <ele>1132.1</ele>
        <time>2000-01-01T11:22:56.000Z</time>
      </trkpt>
      <trkpt lat="46.21034" lon="6.74612">
        <ele>1106</ele>
        <time>2000-01-01T11:23:06.000Z</time>
      </trkpt>
      <trkpt lat="46.21035" lon="6.74576">
        <ele>1105</ele>
        <time>2000-01-01T11:23:16.000Z</time>
      </trkpt>
      <trkpt lat="46.21034" lon="6.74544">
        <ele>1105</ele>
        <time>2000-01-01T11:23:26.000Z</time>
      </trkpt>
      <trkpt lat="46.21042" lon="6.74505">
        <ele>1105</ele>
        <time>2000-01-01T11:23:36.000Z</time>
      </trkpt>
      <trkpt lat="46.21055" lon="6.74446">
        <ele>1105</ele>
        <time>2000-01-01T11:23:46.000Z</time>
      </trkpt>
      <trkpt lat="46.21069" lon="6.74446">
        <ele>1113.6</ele>
        <time>2000-01-01T11:23:56.000Z</time>
      </trkpt>
      <trkpt lat="46.21073" lon="6.74403">
        <ele>1100</ele>
        <time>2000-01-01T11:24:06.000Z</time>
      </trkpt>
      <trkpt lat="46.2108" lon="6.74363">
        <ele>1100</ele>
        <time>2000-01-01T11:24:16.000Z</time>
      </trkpt>
      <trkpt lat="46.21073" lon="6.74329">
        <ele>1101</ele>
        <time>2000-01-01T11:24:26.000Z</time>
      </trkpt>
      <trkpt lat="46.21064" lon="6.74289">
        <ele>1101</ele>
        <time>2000-01-01T11:24:36.000Z</time>
      </trkpt>
      <trkpt lat="46.21057" lon="6.74244">
        <ele>1100</ele>
        <time>2000-01-01T11:24:46.000Z</time>
      </trkpt>
      <trkpt lat="46.2105" lon="6.742">
        <ele>1097</ele>
        <time>2000-01-01T11:24:56.000Z</time>
      </trkpt>
      <trkpt lat="46.21042" lon="6.7415">
        <ele>1093</ele>
        <time>2000-01-01T11:25:06.000Z</time>
      </trkpt>
      <trkpt lat="46.21037" lon="6.74107">
        <ele>1091</ele>
        <time>2000-01-01T11:25:16.000Z</time>
      </trkpt>
      <trkpt lat="46.21032" lon="6.74072">
        <ele>1089</ele>
        <time>2000-01-01T11:25:26.000Z</time>
      </trkpt>
      <trkpt lat="46.21027" lon="6.74031">
        <ele>1087</ele>
        <time>2000-01-01T11:25:36.000Z</time>
      </trkpt>
      <trkpt lat="46.21029" lon="6.73999">
        <ele>1083</ele>
        <time>2000-01-01T11:25:46.000Z</time>
      </trkpt>
      <trkpt lat="46.21021" lon="6.73967">
        <ele>1081</ele>
        <time>2000-01-01T11:25:56.000Z</time>
      </trkpt>
      <trkpt lat="46.21012" lon="6.73934">
        <ele>1078</ele>
        <time>2000-01-01T11:26:06.000Z</time>
      </trkpt>
      <trkpt lat="46.21001" lon="6.739">
        <ele>1076</ele>
        <time>2000-01-01T11:26:16.000Z</time>
      </trkpt>
      <trkpt lat="46.20988" lon="6.73871">
        <ele>1074</ele>
        <time>2000-01-01T11:26:26.000Z</time>
      </trkpt>
      <trkpt lat="46.20984" lon="6.73827">
        <ele>1073</ele>
        <time>2000-01-01T11:26:36.000Z</time>
      </trkpt>
      <trkpt lat="46.20981" lon="6.7379">
        <ele>1073</ele>
        <time>2000-01-01T11:26:46.000Z</time>
      </trkpt>
      <trkpt lat="46.20977" lon="6.73745">
        <ele>1069</ele>
        <time>2000-01-01T11:26:56.000Z</time>
      </trkpt>
      <trkpt lat="46.20974" lon="6.73703">
        <ele>1068</ele>
        <time>2000-01-01T11:27:06.000Z</time>
      </trkpt>
      <trkpt lat="46.20959" lon="6.73701">
        <ele>1081.6</ele>
        <time>2000-01-01T11:27:16.000Z</time>
      </trkpt>
      <trkpt lat="46.20944" lon="6.73701">
        <ele>1068</ele>
        <time>2000-01-01T11:27:26.000Z</time>
      </trkpt>
      <trkpt lat="46.20929" lon="6.73693">
        <ele>1083.4</ele>
        <time>2000-01-01T11:27:36.000Z</time>
      </trkpt>
      <trkpt lat="46.20917" lon="6.73682">
        <ele>1068</ele>
        <time>2000-01-01T11:27:46.000Z</time>
      </trkpt>
      <trkpt lat="46.20894" lon="6.73668">
        <ele>1070</ele>
        <time>2000-01-01T11:27:56.000Z</time>
      </trkpt>
      <trkpt lat="46.20881" lon="6.73653">
        <ele>1088.9</ele>
        <time>2000-01-01T11:28:06.000Z</time>
      </trkpt>
      <trkpt lat="46.20873" lon="6.73637">
        <ele>1070</ele>
        <time>2000-01-01T11:28:16.000Z</time>
      </trkpt>
      <trkpt lat="46.20866" lon="6.736">
        <ele>1067</ele>
        <time>2000-01-01T11:28:26.000Z</time>
      </trkpt>
      <trkpt lat="46.20854" lon="6.73569">
        <ele>1067</ele>
        <time>2000-01-01T11:28:36.000Z</time>
      </trkpt>
      <trkpt lat="46.20844" lon="6.73552">
        <ele>1084</ele>
        <time>2000-01-01T11:28:46.000Z</time>
      </trkpt>
      <trkpt lat="46.20831" lon="6.73545">
        <ele>1067</ele>
        <time>2000-01-01T11:28:56.000Z</time>
      </trkpt>
      <trkpt lat="46.20827" lon="6.73531">
        <ele>1087.3</ele>
        <time>2000-01-01T11:29:06.000Z</time>
      </trkpt>
      <trkpt lat="46.20828" lon="6.73512">
        <ele>1070</ele>
        <time>2000-01-01T11:29:16.000Z</time>
      </trkpt>
      <trkpt lat="46.20826" lon="6.73491">
        <ele>1084.5</ele>
        <time>2000-01-01T11:29:26.000Z</time>
      </trkpt>
      <trkpt lat="46.20809" lon="6.73452">
        <ele>1069</ele>
        <time>2000-01-01T11:29:36.000Z</time>
      </trkpt>
      <trkpt lat="46.20808" lon="6.7343">
        <ele>1090.4</ele>
        <time>2000-01-01T11:29:46.000Z</time>
      </trkpt>
      <trkpt lat="46.20821" lon="6.73375">
        <ele>1069</ele>
        <time>2000-01-01T11:29:56.000Z</time>
      </trkpt>
      <trkpt lat="46.20824" lon="6.73323">
        <ele>1069</ele>
        <time>2000-01-01T11:30:06.000Z</time>
      </trkpt>
      <trkpt lat="46.20818" lon="6.73284">
        <ele>1069</ele>
        <time>2000-01-01T11:30:16.000Z</time>
      </trkpt>
      <trkpt lat="46.20804" lon="6.73248">
        <ele>1069</ele>
        <time>2000-01-01T11:30:26.000Z</time>
      </trkpt>
      <trkpt lat="46.20791" lon="6.73228">
        <ele>1070</ele>
        <time>2000-01-01T11:30:36.000Z</time>
      </trkpt>
      <trkpt lat="46.2076" lon="6.73188">
        <ele>1070</ele>
        <time>2000-01-01T11:30:46.000Z</time>
      </trkpt>
      <trkpt lat="46.20755" lon="6.73173">
        <ele>1093</ele>
        <time>2000-01-01T11:30:56.000Z</time>
      </trkpt>
      <trkpt lat="46.20752" lon="6.73149">
        <ele>1071</ele>
        <time>2000-01-01T11:31:06.000Z</time>
      </trkpt>
      <trkpt lat="46.20755" lon="6.73105">
        <ele>1070</ele>
        <time>2000-01-01T11:31:16.000Z</time>
      </trkpt>
      <trkpt lat="46.20761" lon="6.73051">
        <ele>1070</ele>
        <time>2000-01-01T11:31:26.000Z</time>
      </trkpt>
      <trkpt lat="46.20759" lon="6.73012">
        <ele>1072</ele>
        <time>2000-01-01T11:31:36.000Z</time>
      </trkpt>
      <trkpt lat="46.20756" lon="6.72959">
        <ele>1072</ele>
        <time>2000-01-01T11:31:46.000Z</time>
      </trkpt>
      <trkpt lat="46.20753" lon="6.72918">
        <ele>1072</ele>
        <time>2000-01-01T11:31:56.000Z</time>
      </trkpt>
      <trkpt lat="46.20748" lon="6.72855">
        <ele>1076</ele>
        <time>2000-01-01T11:32:06.000Z</time>
      </trkpt>
      <trkpt lat="46.20748" lon="6.72811">
        <ele>1076</ele>
        <time>2000-01-01T11:32:16.000Z</time>
      </trkpt>
      <trkpt lat="46.20748" lon="6.72773">
        <ele>1076</ele>
        <time>2000-01-01T11:32:26.000Z</time>
      </trkpt>
      <trkpt lat="46.20748" lon="6.72725">
        <ele>1074</ele>
        <time>2000-01-01T11:32:36.000Z</time>
      </trkpt>
      <trkpt lat="46.20749" lon="6.7269">
        <ele>1072</ele>
        <time>2000-01-01T11:32:46.000Z</time>
      </trkpt>
      <trkpt lat="46.20741" lon="6.72637">
        <ele>1073</ele>
        <time>2000-01-01T11:32:56.000Z</time>
      </trkpt>
      <trkpt lat="46.20737" lon="6.72578">
        <ele>1071</ele>
        <time>2000-01-01T11:33:06.000Z</time>
      </trkpt>
      <trkpt lat="46.20742" lon="6.72526">
        <ele>1072</ele>
        <time>2000-01-01T11:33:16.000Z</time>
      </trkpt>
      <trkpt lat="46.20748" lon="6.72491">
        <ele>1073</ele>
        <time>2000-01-01T11:33:26.000Z</time>
      </trkpt>
      <trkpt lat="46.20755" lon="6.7245">
        <ele>1073</ele>
        <time>2000-01-01T11:33:36.000Z</time>
      </trkpt>
      <trkpt lat="46.20763" lon="6.7241">
        <ele>1070</ele>
        <time>2000-01-01T11:33:46.000Z</time>
      </trkpt>
      <trkpt lat="46.20766" lon="6.7237">
        <ele>1070</ele>
        <time>2000-01-01T11:33:56.000Z</time>
      </trkpt>
      <trkpt lat="46.20759" lon="6.72334">
        <ele>1069</ele>
        <time>2000-01-01T11:34:06.000Z</time>
      </trkpt>
      <trkpt lat="46.20752" lon="6.72312">
        <ele>1084.7</ele>
        <time>2000-01-01T11:34:16.000Z</time>
      </trkpt>
      <trkpt lat="46.20748" lon="6.72283">
        <ele>1069</ele>
        <time>2000-01-01T11:34:26.000Z</time>
      </trkpt>
      <trkpt lat="46.20749" lon="6.72248">
        <ele>1067</ele>
        <time>2000-01-01T11:34:36.000Z</time>
      </trkpt>
      <trkpt lat="46.2075" lon="6.7221">
        <ele>1065</ele>
        <time>2000-01-01T11:34:46.000Z</time>
      </trkpt>
      <trkpt lat="46.20744" lon="6.72156">
        <ele>1065</ele>
        <time>2000-01-01T11:34:56.000Z</time>
      </trkpt>
      <trkpt lat="46.20742" lon="6.72115">
        <ele>1065</ele>
        <time>2000-01-01T11:35:06.000Z</time>
      </trkpt>
      <trkpt lat="46.20744" lon="6.72091">
        <ele>1086.7</ele>
        <time>2000-01-01T11:35:16.000Z</time>
      </trkpt>
      <trkpt lat="46.20748" lon="6.72071">
        <ele>1065</ele>
        <time>2000-01-01T11:35:26.000Z</time>
      </trkpt>
      <trkpt lat="46.20774" lon="6.72064">
        <ele>1066</ele>
        <time>2000-01-01T11:35:36.000Z</time>
      </trkpt>
      <trkpt lat="46.20808" lon="6.72055">
        <ele>1067</ele>
        <time>2000-01-01T11:35:46.000Z</time>
      </trkpt>
      <trkpt lat="46.20816" lon="6.7205">
        <ele>1078.1</ele>
        <time>2000-01-01T11:35:56.000Z</time>
      </trkpt>
      <trkpt lat="46.2084" lon="6.72018">
        <ele>1067</ele>
        <time>2000-01-01T11:36:06.000Z</time>
      </trkpt>
      <trkpt lat="46.20873" lon="6.71991">
        <ele>1066</ele>
        <time>2000-01-01T11:36:16.000Z</time>
      </trkpt>
      <trkpt lat="46.20871" lon="6.71975">
        <ele>1088.5</ele>
        <time>2000-01-01T11:36:26.000Z</time>
      </trkpt>
      <trkpt lat="46.20873" lon="6.7196">
        <ele>1066</ele>
        <time>2000-01-01T11:36:36.000Z</time>
      </trkpt>
      <trkpt lat="46.20878" lon="6.71952">
        <ele>1092.1</ele>
        <time>2000-01-01T11:36:46.000Z</time>
      </trkpt>
      <trkpt lat="46.20889" lon="6.71944">
        <ele>1066</ele>
        <time>2000-01-01T11:36:56.000Z</time>
      </trkpt>
      <trkpt lat="46.20884" lon="6.71904">
        <ele>1066</ele>
        <time>2000-01-01T11:37:06.000Z</time>
      </trkpt>
      <trkpt lat="46.20875" lon="6.7184">
        <ele>1064</ele>
        <time>2000-01-01T11:37:16.000Z</time>
      </trkpt>
      <trkpt lat="46.20867" lon="6.7181">
        <ele>1064</ele>
        <time>2000-01-01T11:37:26.000Z</time>
      </trkpt>
      <trkpt lat="46.20855" lon="6.71794">
        <ele>1089.6</ele>
        <time>2000-01-01T11:37:36.000Z</time>
      </trkpt>
      <trkpt lat="46.20857" lon="6.71778">
        <ele>1061</ele>
        <time>2000-01-01T11:37:46.000Z</time>
      </trkpt>
      <trkpt lat="46.20855" lon="6.71757">
        <ele>1088.6</ele>
        <time>2000-01-01T11:37:56.000Z</time>
      </trkpt>
      <trkpt lat="46.20843" lon="6.71666">
        <ele>1056</ele>
        <time>2000-01-01T11:38:06.000Z</time>
      </trkpt>
      <trkpt lat="46.20836" lon="6.71652">
        <ele>1078.2</ele>
        <time>2000-01-01T11:38:16.000Z</time>
      </trkpt>
      <trkpt lat="46.20823" lon="6.71649">
        <ele>1051</ele>
        <time>2000-01-01T11:38:26.000Z</time>
      </trkpt>
      <trkpt lat="46.20804" lon="6.71629">
        <ele>1047</ele>
        <time>2000-01-01T11:38:36.000Z</time>
      </trkpt>
      <trkpt lat="46.20785" lon="6.71608">
        <ele>1042</ele>
        <time>2000-01-01T11:38:46.000Z</time>
      </trkpt>
      <trkpt lat="46.20775" lon="6.716">
        <ele>1062.9</ele>
        <time>2000-01-01T11:38:56.000Z</time>
      </trkpt>
      <trkpt lat="46.20752" lon="6.71589">
        <ele>1039</ele>
        <time>2000-01-01T11:39:06.000Z</time>
      </trkpt>
      <trkpt lat="46.20728" lon="6.71573">
        <ele>1028</ele>
        <time>2000-01-01T11:39:16.000Z</time>
      </trkpt>
      <trkpt lat="46.2072" lon="6.71563">
        <ele>1055.1</ele>
        <time>2000-01-01T11:39:26.000Z</time>
      </trkpt>
      <trkpt lat="46.2071" lon="6.71513">
        <ele>1022</ele>
        <time>2000-01-01T11:39:36.000Z</time>
      </trkpt>
      <trkpt lat="46.20704" lon="6.71474">
        <ele>1021</ele>
        <time>2000-01-01T11:39:46.000Z</time>
      </trkpt>
      <trkpt lat="46.20695" lon="6.71417">
        <ele>1016</ele>
        <time>2000-01-01T11:39:56.000Z</time>
      </trkpt>
      <trkpt lat="46.20689" lon="6.7138">
        <ele>1013</ele>
        <time>2000-01-01T11:40:06.000Z</time>
      </trkpt>
      <trkpt lat="46.20681" lon="6.71332">
        <ele>1011</ele>
        <time>2000-01-01T11:40:16.000Z</time>
      </trkpt>
      <trkpt lat="46.2068" lon="6.7129">
        <ele>1005</ele>
        <time>2000-01-01T11:40:26.000Z</time>
      </trkpt>
      <trkpt lat="46.20685" lon="6.71267">
        <ele>1010.1</ele>
        <time>2000-01-01T11:40:36.000Z</time>
      </trkpt>
      <trkpt lat="46.20691" lon="6.71232">
        <ele>1001</ele>
        <time>2000-01-01T11:40:46.000Z</time>
      </trkpt>
      <trkpt lat="46.20693" lon="6.71201">
        <ele>999</ele>
        <time>2000-01-01T11:40:56.000Z</time>
      </trkpt>
      <trkpt lat="46.20671" lon="6.71151">
        <ele>996</ele>
        <time>2000-01-01T11:41:06.000Z</time>
      </trkpt>
      <trkpt lat="46.20667" lon="6.71132">
        <ele>995.8</ele>
        <time>2000-01-01T11:41:16.000Z</time>
      </trkpt>
      <trkpt lat="46.20664" lon="6.71095">
        <ele>993</ele>
        <time>2000-01-01T11:41:26.000Z</time>
      </trkpt>
      <trkpt lat="46.20646" lon="6.71104">
        <ele>990</ele>
        <time>2000-01-01T11:41:36.000Z</time>
      </trkpt>
      <trkpt lat="46.20629" lon="6.71105">
        <ele>996</ele>
        <time>2000-01-01T11:41:46.000Z</time>
      </trkpt>
      <trkpt lat="46.20621" lon="6.71098">
        <ele>989</ele>
        <time>2000-01-01T11:41:56.000Z</time>
      </trkpt>
      <trkpt lat="46.20613" lon="6.71097">
        <ele>995.5</ele>
        <time>2000-01-01T11:42:06.000Z</time>
      </trkpt>
      <trkpt lat="46.20576" lon="6.71059">
        <ele>984</ele>
        <time>2000-01-01T11:42:16.000Z</time>
      </trkpt>
      <trkpt lat="46.20569" lon="6.71047">
        <ele>994.5</ele>
        <time>2000-01-01T11:42:26.000Z</time>
      </trkpt>
      <trkpt lat="46.2056" lon="6.71026">
        <ele>983</ele>
        <time>2000-01-01T11:42:36.000Z</time>
      </trkpt>
      <trkpt lat="46.20548" lon="6.71002">
        <ele>981</ele>
        <time>2000-01-01T11:42:46.000Z</time>
      </trkpt>
      <trkpt lat="46.20533" lon="6.7097">
        <ele>979</ele>
        <time>2000-01-01T11:42:56.000Z</time>
      </trkpt>
      <trkpt lat="46.20528" lon="6.70956">
        <ele>995.1</ele>
        <time>2000-01-01T11:43:06.000Z</time>
      </trkpt>
      <trkpt lat="46.20517" lon="6.7091">
        <ele>976</ele>
        <time>2000-01-01T11:43:16.000Z</time>
      </trkpt>
      <trkpt lat="46.20491" lon="6.70857">
        <ele>974</ele>
        <time>2000-01-01T11:43:26.000Z</time>
      </trkpt>
      <trkpt lat="46.20479" lon="6.70834">
        <ele>973</ele>
        <time>2000-01-01T11:43:36.000Z</time>
      </trkpt>
      <trkpt lat="46.20457" lon="6.70806">
        <ele>970</ele>
        <time>2000-01-01T11:43:46.000Z</time>
      </trkpt>
      <trkpt lat="46.20451" lon="6.70787">
        <ele>990.1</ele>
        <time>2000-01-01T11:43:56.000Z</time>
      </trkpt>
      <trkpt lat="46.20449" lon="6.70751">
        <ele>966</ele>
        <time>2000-01-01T11:44:06.000Z</time>
      </trkpt>
      <trkpt lat="46.2043" lon="6.70707">
        <ele>962</ele>
        <time>2000-01-01T11:44:16.000Z</time>
      </trkpt>
      <trkpt lat="46.20423" lon="6.70694">
        <ele>979.7</ele>
        <time>2000-01-01T11:44:26.000Z</time>
      </trkpt>
      <trkpt lat="46.20417" lon="6.70652">
        <ele>957</ele>
        <time>2000-01-01T11:44:36.000Z</time>
      </trkpt>
      <trkpt lat="46.20414" lon="6.70616">
        <ele>955</ele>
        <time>2000-01-01T11:44:46.000Z</time>
      </trkpt>
      <trkpt lat="46.20405" lon="6.70594">
        <ele>973.9</ele>
        <time>2000-01-01T11:44:56.000Z</time>
      </trkpt>
      <trkpt lat="46.20398" lon="6.70568">
        <ele>951</ele>
        <time>2000-01-01T11:45:06.000Z</time>
      </trkpt>
      <trkpt lat="46.20398" lon="6.70534">
        <ele>948</ele>
        <time>2000-01-01T11:45:16.000Z</time>
      </trkpt>
      <trkpt lat="46.20394" lon="6.70501">
        <ele>947</ele>
        <time>2000-01-01T11:45:26.000Z</time>
      </trkpt>
      <trkpt lat="46.2039" lon="6.70493">
        <ele>967.9</ele>
        <time>2000-01-01T11:45:36.000Z</time>
      </trkpt>
      <trkpt lat="46.20383" lon="6.70474">
        <ele>947</ele>
        <time>2000-01-01T11:45:46.000Z</time>
      </trkpt>
      <trkpt lat="46.20366" lon="6.70446">
        <ele>943</ele>
        <time>2000-01-01T11:45:56.000Z</time>
      </trkpt>
      <trkpt lat="46.20347" lon="6.70421">
        <ele>942</ele>
        <time>2000-01-01T11:46:06.000Z</time>
      </trkpt>
      <trkpt lat="46.20343" lon="6.70404">
        <ele>963.8</ele>
        <time>2000-01-01T11:46:16.000Z</time>
      </trkpt>
      <trkpt lat="46.20341" lon="6.70349">
        <ele>940</ele>
        <time>2000-01-01T11:46:26.000Z</time>
      </trkpt>
      <trkpt lat="46.20338" lon="6.70335">
        <ele>955.8</ele>
        <time>2000-01-01T11:46:36.000Z</time>
      </trkpt>
      <trkpt lat="46.20321" lon="6.70292">
        <ele>937</ele>
        <time>2000-01-01T11:46:46.000Z</time>
      </trkpt>
      <trkpt lat="46.20318" lon="6.70281">
        <ele>952.2</ele>
        <time>2000-01-01T11:46:56.000Z</time>
      </trkpt>
      <trkpt lat="46.2032" lon="6.70267">
        <ele>950</ele>
        <time>2000-01-01T11:47:06.000Z</time>
      </trkpt>
      <trkpt lat="46.20328" lon="6.70243">
        <ele>936</ele>
        <time>2000-01-01T11:47:16.000Z</time>
      </trkpt>
      <trkpt lat="46.20331" lon="6.70227">
        <ele>944.9</ele>
        <time>2000-01-01T11:47:26.000Z</time>
      </trkpt>
      <trkpt lat="46.20331" lon="6.70208">
        <ele>935</ele>
        <time>2000-01-01T11:47:36.000Z</time>
      </trkpt>
      <trkpt lat="46.20316" lon="6.70171">
        <ele>932</ele>
        <time>2000-01-01T11:47:46.000Z</time>
      </trkpt>
      <trkpt lat="46.20314" lon="6.70155">
        <ele>947.2</ele>
        <time>2000-01-01T11:47:56.000Z</time>
      </trkpt>
      <trkpt lat="46.20279" lon="6.70074">
        <ele>929</ele>
        <time>2000-01-01T11:48:06.000Z</time>
      </trkpt>
      <trkpt lat="46.20275" lon="6.70056">
        <ele>950.8</ele>
        <time>2000-01-01T11:48:16.000Z</time>
      </trkpt>
      <trkpt lat="46.20274" lon="6.70041">
        <ele>928</ele>
        <time>2000-01-01T11:48:26.000Z</time>
      </trkpt>
      <trkpt lat="46.20275" lon="6.7002">
        <ele>951</ele>
        <time>2000-01-01T11:48:36.000Z</time>
      </trkpt>
      <trkpt lat="46.2027" lon="6.69994">
        <ele>926</ele>
        <time>2000-01-01T11:48:46.000Z</time>
      </trkpt>
      <trkpt lat="46.20257" lon="6.69956">
        <ele>925</ele>
        <time>2000-01-01T11:48:56.000Z</time>
      </trkpt>
      <trkpt lat="46.20248" lon="6.69925">
        <ele>925</ele>
        <time>2000-01-01T11:49:06.000Z</time>
      </trkpt>
      <trkpt lat="46.20245" lon="6.69902">
        <ele>943.9</ele>
        <time>2000-01-01T11:49:16.000Z</time>
      </trkpt>
      <trkpt lat="46.20237" lon="6.69879">
        <ele>923</ele>
        <time>2000-01-01T11:49:26.000Z</time>
      </trkpt>
      <trkpt lat="46.20225" lon="6.69854">
        <ele>922</ele>
        <time>2000-01-01T11:49:36.000Z</time>
      </trkpt>
      <trkpt lat="46.20224" lon="6.6984">
        <ele>942.3</ele>
        <time>2000-01-01T11:49:46.000Z</time>
      </trkpt>
      <trkpt lat="46.20225" lon="6.69825">
        <ele>921</ele>
        <time>2000-01-01T11:49:56.000Z</time>
      </trkpt>
      <trkpt lat="46.20231" lon="6.69778">
        <ele>921</ele>
        <time>2000-01-01T11:50:06.000Z</time>
      </trkpt>
      <trkpt lat="46.20228" lon="6.69756">
        <ele>937.5</ele>
        <time>2000-01-01T11:50:16.000Z</time>
      </trkpt>
      <trkpt lat="46.20213" lon="6.69698">
        <ele>917</ele>
        <time>2000-01-01T11:50:26.000Z</time>
      </trkpt>
      <trkpt lat="46.20202" lon="6.69663">
        <ele>916</ele>
        <time>2000-01-01T11:50:36.000Z</time>
      </trkpt>
      <trkpt lat="46.20199" lon="6.69641">
        <ele>936.7</ele>
        <time>2000-01-01T11:50:46.000Z</time>
      </trkpt>
      <trkpt lat="46.20187" lon="6.69611">
        <ele>914</ele>
        <time>2000-01-01T11:50:56.000Z</time>
      </trkpt>
      <trkpt lat="46.20178" lon="6.69577">
        <ele>912</ele>
        <time>2000-01-01T11:51:06.000Z</time>
      </trkpt>
      <trkpt lat="46.20168" lon="6.69527">
        <ele>911</ele>
        <time>2000-01-01T11:51:16.000Z</time>
      </trkpt>
      <trkpt lat="46.20169" lon="6.69494">
        <ele>909</ele>
        <time>2000-01-01T11:51:26.000Z</time>
      </trkpt>
      <trkpt lat="46.20166" lon="6.69469">
        <ele>924.8</ele>
        <time>2000-01-01T11:51:36.000Z</time>
      </trkpt>
      <trkpt lat="46.2016" lon="6.69446">
        <ele>908</ele>
        <time>2000-01-01T11:51:46.000Z</time>
      </trkpt>
      <trkpt lat="46.2014" lon="6.69407">
        <ele>908</ele>
        <time>2000-01-01T11:51:56.000Z</time>
      </trkpt>
      <trkpt lat="46.20127" lon="6.69394">
        <ele>924.6</ele>
        <time>2000-01-01T11:52:06.000Z</time>
      </trkpt>
      <trkpt lat="46.20103" lon="6.69376">
        <ele>907</ele>
        <time>2000-01-01T11:52:16.000Z</time>
      </trkpt>
      <trkpt lat="46.20094" lon="6.69365">
        <ele>920.9</ele>
        <time>2000-01-01T11:52:26.000Z</time>
      </trkpt>
      <trkpt lat="46.20082" lon="6.69339">
        <ele>906</ele>
        <time>2000-01-01T11:52:36.000Z</time>
      </trkpt>
      <trkpt lat="46.20072" lon="6.69307">
        <ele>906</ele>
        <time>2000-01-01T11:52:46.000Z</time>
      </trkpt>
      <trkpt lat="46.2006" lon="6.6927">
        <ele>905</ele>
        <time>2000-01-01T11:52:56.000Z</time>
      </trkpt>
      <trkpt lat="46.20054" lon="6.69236">
        <ele>904</ele>
        <time>2000-01-01T11:53:06.000Z</time>
      </trkpt>
      <trkpt lat="46.20051" lon="6.69199">
        <ele>903</ele>
        <time>2000-01-01T11:53:16.000Z</time>
      </trkpt>
      <trkpt lat="46.20049" lon="6.69186">
        <ele>915.8</ele>
        <time>2000-01-01T11:53:26.000Z</time>
      </trkpt>
      <trkpt lat="46.20041" lon="6.69143">
        <ele>900</ele>
        <time>2000-01-01T11:53:36.000Z</time>
      </trkpt>
      <trkpt lat="46.20033" lon="6.69095">
        <ele>899</ele>
        <time>2000-01-01T11:53:46.000Z</time>
      </trkpt>
      <trkpt lat="46.20025" lon="6.69053">
        <ele>897</ele>
        <time>2000-01-01T11:53:56.000Z</time>
      </trkpt>
      <trkpt lat="46.20017" lon="6.69018">
        <ele>897</ele>
        <time>2000-01-01T11:54:06.000Z</time>
      </trkpt>
      <trkpt lat="46.20008" lon="6.68974">
        <ele>897</ele>
        <time>2000-01-01T11:54:16.000Z</time>
      </trkpt>
      <trkpt lat="46.20007" lon="6.68955">
        <ele>900.3</ele>
        <time>2000-01-01T11:54:26.000Z</time>
      </trkpt>
      <trkpt lat="46.20014" lon="6.68931">
        <ele>893</ele>
        <time>2000-01-01T11:54:36.000Z</time>
      </trkpt>
      <trkpt lat="46.20021" lon="6.68904">
        <ele>893</ele>
        <time>2000-01-01T11:54:46.000Z</time>
      </trkpt>
      <trkpt lat="46.20027" lon="6.6889">
        <ele>900</ele>
        <time>2000-01-01T11:54:56.000Z</time>
      </trkpt>
      <trkpt lat="46.19992" lon="6.6888">
        <ele>893</ele>
        <time>2000-01-01T11:55:06.000Z</time>
      </trkpt>
      <trkpt lat="46.19975" lon="6.68893">
        <ele>894</ele>
        <time>2000-01-01T11:55:16.000Z</time>
      </trkpt>
      <trkpt lat="46.19953" lon="6.68906">
        <ele>894</ele>
        <time>2000-01-01T11:55:26.000Z</time>
      </trkpt>
      <trkpt lat="46.19932" lon="6.6892">
        <ele>894</ele>
        <time>2000-01-01T11:55:36.000Z</time>
      </trkpt>
      <trkpt lat="46.1992" lon="6.68898">
        <ele>894</ele>
        <time>2000-01-01T11:55:46.000Z</time>
      </trkpt>
      <trkpt lat="46.1991" lon="6.68867">
        <ele>893</ele>
        <time>2000-01-01T11:55:56.000Z</time>
      </trkpt>
      <trkpt lat="46.19888" lon="6.68836">
        <ele>893</ele>
        <time>2000-01-01T11:56:06.000Z</time>
      </trkpt>
      <trkpt lat="46.19865" lon="6.6883">
        <ele>893</ele>
        <time>2000-01-01T11:56:16.000Z</time>
      </trkpt>
      <trkpt lat="46.19842" lon="6.68825">
        <ele>893</ele>
        <time>2000-01-01T11:56:26.000Z</time>
      </trkpt>
      <trkpt lat="46.19826" lon="6.68794">
        <ele>891</ele>
        <time>2000-01-01T11:56:36.000Z</time>
      </trkpt>
      <trkpt lat="46.19841" lon="6.68773">
        <ele>891</ele>
        <time>2000-01-01T11:56:46.000Z</time>
      </trkpt>
      <trkpt lat="46.19861" lon="6.68742">
        <ele>890</ele>
        <time>2000-01-01T11:56:56.000Z</time>
      </trkpt>
      <trkpt lat="46.19869" lon="6.68738">
        <ele>897.2</ele>
        <time>2000-01-01T11:57:06.000Z</time>
      </trkpt>
      <trkpt lat="46.19879" lon="6.68714">
        <ele>890</ele>
        <time>2000-01-01T11:57:16.000Z</time>
      </trkpt>
      <trkpt lat="46.19862" lon="6.68686">
        <ele>890</ele>
        <time>2000-01-01T11:57:26.000Z</time>
      </trkpt>
      <trkpt lat="46.19853" lon="6.68664">
        <ele>904</ele>
        <time>2000-01-01T11:57:36.000Z</time>
      </trkpt>
      <trkpt lat="46.1985" lon="6.68641">
        <ele>890</ele>
        <time>2000-01-01T11:57:46.000Z</time>
      </trkpt>
      <trkpt lat="46.19846" lon="6.68632">
        <ele>908.3</ele>
        <time>2000-01-01T11:57:56.000Z</time>
      </trkpt>
      <trkpt lat="46.19842" lon="6.68633">
        <ele>908.9</ele>
        <time>2000-01-01T11:58:06.000Z</time>
      </trkpt>
      <trkpt lat="46.19834" lon="6.68644">
        <ele>891</ele>
        <time>2000-01-01T11:58:16.000Z</time>
      </trkpt>
      <trkpt lat="46.19823" lon="6.68656">
        <ele>909.5</ele>
        <time>2000-01-01T11:58:26.000Z</time>
      </trkpt>
      <trkpt lat="46.19766" lon="6.68688">
        <ele>893</ele>
        <time>2000-01-01T11:58:36.000Z</time>
      </trkpt>
      <trkpt lat="46.19762" lon="6.68693">
        <ele>914.4</ele>
        <time>2000-01-01T11:58:46.000Z</time>
      </trkpt>
      <trkpt lat="46.19755" lon="6.68698">
        <ele>914.9</ele>
        <time>2000-01-01T11:58:56.000Z</time>
      </trkpt>
      <trkpt lat="46.19744" lon="6.68717">
        <ele>893</ele>
        <time>2000-01-01T11:59:06.000Z</time>
      </trkpt>
      <trkpt lat="46.19735" lon="6.68721">
        <ele>917.2</ele>
        <time>2000-01-01T11:59:16.000Z</time>
      </trkpt>
      <trkpt lat="46.1971" lon="6.68739">
        <ele>894</ele>
        <time>2000-01-01T11:59:26.000Z</time>
      </trkpt>
      <trkpt lat="46.19692" lon="6.68759">
        <ele>894</ele>
        <time>2000-01-01T11:59:36.000Z</time>
      </trkpt>
      <trkpt lat="46.1967" lon="6.68803">
        <ele>895</ele>
        <time>2000-01-01T11:59:46.000Z</time>
      </trkpt>
      <trkpt lat="46.19657" lon="6.6882">
        <ele>921.5</ele>
        <time>2000-01-01T11:59:56.000Z</time>
      </trkpt>
      <trkpt lat="46.19619" lon="6.68857">
        <ele>899</ele>
        <time>2000-01-01T12:00:06.000Z</time>
      </trkpt>
      <trkpt lat="46.19604" lon="6.68887">
        <ele>899</ele>
        <time>2000-01-01T12:00:16.000Z</time>
      </trkpt>
      <trkpt lat="46.19584" lon="6.68911">
        <ele>899</ele>
        <time>2000-01-01T12:00:26.000Z</time>
      </trkpt>
      <trkpt lat="46.19563" lon="6.68928">
        <ele>902</ele>
        <time>2000-01-01T12:00:36.000Z</time>
      </trkpt>
      <trkpt lat="46.19548" lon="6.68962">
        <ele>903</ele>
        <time>2000-01-01T12:00:46.000Z</time>
      </trkpt>
      <trkpt lat="46.19532" lon="6.68977">
        <ele>903</ele>
        <time>2000-01-01T12:00:56.000Z</time>
      </trkpt>
      <trkpt lat="46.19514" lon="6.69003">
        <ele>902</ele>
        <time>2000-01-01T12:01:06.000Z</time>
      </trkpt>
      <trkpt lat="46.19491" lon="6.69035">
        <ele>902</ele>
        <time>2000-01-01T12:01:16.000Z</time>
      </trkpt>
      <trkpt lat="46.1946" lon="6.69065">
        <ele>903</ele>
        <time>2000-01-01T12:01:26.000Z</time>
      </trkpt>
      <trkpt lat="46.1945" lon="6.6908">
        <ele>926.4</ele>
        <time>2000-01-01T12:01:36.000Z</time>
      </trkpt>
      <trkpt lat="46.19444" lon="6.69101">
        <ele>902</ele>
        <time>2000-01-01T12:01:46.000Z</time>
      </trkpt>
      <trkpt lat="46.19437" lon="6.6914">
        <ele>902</ele>
        <time>2000-01-01T12:01:56.000Z</time>
      </trkpt>
      <trkpt lat="46.19432" lon="6.69152">
        <ele>919.9</ele>
        <time>2000-01-01T12:02:06.000Z</time>
      </trkpt>
      <trkpt lat="46.19418" lon="6.6916">
        <ele>902</ele>
        <time>2000-01-01T12:02:16.000Z</time>
      </trkpt>
      <trkpt lat="46.19397" lon="6.69185">
        <ele>903</ele>
        <time>2000-01-01T12:02:26.000Z</time>
      </trkpt>
      <trkpt lat="46.19367" lon="6.69221">
        <ele>904</ele>
        <time>2000-01-01T12:02:36.000Z</time>
      </trkpt>
      <trkpt lat="46.1935" lon="6.69234">
        <ele>906</ele>
        <time>2000-01-01T12:02:46.000Z</time>
      </trkpt>
      <trkpt lat="46.19345" lon="6.69241">
        <ele>928.9</ele>
        <time>2000-01-01T12:02:56.000Z</time>
      </trkpt>
      <trkpt lat="46.19335" lon="6.69258">
        <ele>906</ele>
        <time>2000-01-01T12:03:06.000Z</time>
      </trkpt>
      <trkpt lat="46.19318" lon="6.69289">
        <ele>906</ele>
        <time>2000-01-01T12:03:16.000Z</time>
      </trkpt>
      <trkpt lat="46.19292" lon="6.69335">
        <ele>907</ele>
        <time>2000-01-01T12:03:26.000Z</time>
      </trkpt>
      <trkpt lat="46.19274" lon="6.69362">
        <ele>908</ele>
        <time>2000-01-01T12:03:36.000Z</time>
      </trkpt>
      <trkpt lat="46.19249" lon="6.6939">
        <ele>910</ele>
        <time>2000-01-01T12:03:46.000Z</time>
      </trkpt>
      <trkpt lat="46.19227" lon="6.69418">
        <ele>910</ele>
        <time>2000-01-01T12:03:56.000Z</time>
      </trkpt>
      <trkpt lat="46.1922" lon="6.6943">
        <ele>926.8</ele>
        <time>2000-01-01T12:04:06.000Z</time>
      </trkpt>
      <trkpt lat="46.19216" lon="6.69458">
        <ele>910</ele>
        <time>2000-01-01T12:04:16.000Z</time>
      </trkpt>
      <trkpt lat="46.1921" lon="6.6947">
        <ele>924.7</ele>
        <time>2000-01-01T12:04:26.000Z</time>
      </trkpt>
      <trkpt lat="46.19196" lon="6.69493">
        <ele>910</ele>
        <time>2000-01-01T12:04:36.000Z</time>
      </trkpt>
      <trkpt lat="46.19174" lon="6.69514">
        <ele>911</ele>
        <time>2000-01-01T12:04:46.000Z</time>
      </trkpt>
      <trkpt lat="46.19141" lon="6.69538">
        <ele>916</ele>
        <time>2000-01-01T12:04:56.000Z</time>
      </trkpt>
      <trkpt lat="46.19133" lon="6.69552">
        <ele>926.4</ele>
        <time>2000-01-01T12:05:06.000Z</time>
      </trkpt>
      <trkpt lat="46.19127" lon="6.69561">
        <ele>914</ele>
        <time>2000-01-01T12:05:16.000Z</time>
      </trkpt>
      <trkpt lat="46.19117" lon="6.69568">
        <ele>926.8</ele>
        <time>2000-01-01T12:05:26.000Z</time>
      </trkpt>
      <trkpt lat="46.19105" lon="6.69572">
        <ele>914</ele>
        <time>2000-01-01T12:05:36.000Z</time>
      </trkpt>
      <trkpt lat="46.19095" lon="6.69587">
        <ele>927.7</ele>
        <time>2000-01-01T12:05:46.000Z</time>
      </trkpt>
      <trkpt lat="46.19067" lon="6.69602">
        <ele>914</ele>
        <time>2000-01-01T12:05:56.000Z</time>
      </trkpt>
      <trkpt lat="46.19033" lon="6.69626">
        <ele>914</ele>
        <time>2000-01-01T12:06:06.000Z</time>
      </trkpt>
      <trkpt lat="46.19003" lon="6.69636">
        <ele>915</ele>
        <time>2000-01-01T12:06:16.000Z</time>
      </trkpt>
      <trkpt lat="46.18978" lon="6.69657">
        <ele>918</ele>
        <time>2000-01-01T12:06:26.000Z</time>
      </trkpt>
      <trkpt lat="46.18975" lon="6.69657">
        <ele>930.7</ele>
        <time>2000-01-01T12:06:36.000Z</time>
      </trkpt>
      <trkpt lat="46.18975" lon="6.6965">
        <ele>931.7</ele>
        <time>2000-01-01T12:06:46.000Z</time>
      </trkpt>
      <trkpt lat="46.18972" lon="6.69636">
        <ele>934.1</ele>
        <time>2000-01-01T12:06:56.000Z</time>
      </trkpt>
      <trkpt lat="46.18966" lon="6.69619">
        <ele>922</ele>
        <time>2000-01-01T12:07:06.000Z</time>
      </trkpt>
      <trkpt lat="46.18965" lon="6.69613">
        <ele>938.7</ele>
        <time>2000-01-01T12:07:16.000Z</time>
      </trkpt>
      <trkpt lat="46.18965" lon="6.69608">
        <ele>939.4</ele>
        <time>2000-01-01T12:07:26.000Z</time>
      </trkpt>
      <trkpt lat="46.18971" lon="6.69602">
        <ele>939.2</ele>
        <time>2000-01-01T12:07:36.000Z</time>
      </trkpt>
      <trkpt lat="46.18979" lon="6.69597">
        <ele>926</ele>
        <time>2000-01-01T12:07:46.000Z</time>
      </trkpt>
      <trkpt lat="46.18988" lon="6.6959">
        <ele>937.6</ele>
        <time>2000-01-01T12:07:56.000Z</time>
      </trkpt>
      <trkpt lat="46.18998" lon="6.69581">
        <ele>927</ele>
        <time>2000-01-01T12:08:06.000Z</time>
      </trkpt>
      <trkpt lat="46.19009" lon="6.69569">
        <ele>937.7</ele>
        <time>2000-01-01T12:08:16.000Z</time>
      </trkpt>
      <trkpt lat="46.19017" lon="6.69559">
        <ele>928</ele>
        <time>2000-01-01T12:08:26.000Z</time>
      </trkpt>
      <trkpt lat="46.19027" lon="6.69545">
        <ele>939.6</ele>
        <time>2000-01-01T12:08:36.000Z</time>
      </trkpt>
      <trkpt lat="46.19037" lon="6.69533">
        <ele>929</ele>
        <time>2000-01-01T12:08:46.000Z</time>
      </trkpt>
      <trkpt lat="46.19047" lon="6.69523">
        <ele>940.1</ele>
        <time>2000-01-01T12:08:56.000Z</time>
      </trkpt>
      <trkpt lat="46.19079" lon="6.69496">
        <ele>929</ele>
        <time>2000-01-01T12:09:06.000Z</time>
      </trkpt>
      <trkpt lat="46.19088" lon="6.69486">
        <ele>938.4</ele>
        <time>2000-01-01T12:09:16.000Z</time>
      </trkpt>
      <trkpt lat="46.19089" lon="6.69483">
        <ele>938.7</ele>
        <time>2000-01-01T12:09:26.000Z</time>
      </trkpt>
      <trkpt lat="46.19089" lon="6.69473">
        <ele>929</ele>
        <time>2000-01-01T12:09:36.000Z</time>
      </trkpt>
      <trkpt lat="46.19091" lon="6.69468">
        <ele>940.6</ele>
        <time>2000-01-01T12:09:46.000Z</time>
      </trkpt>
      <trkpt lat="46.19108" lon="6.69451">
        <ele>929</ele>
        <time>2000-01-01T12:09:56.000Z</time>
      </trkpt>
      <trkpt lat="46.19114" lon="6.69438">
        <ele>941.7</ele>
        <time>2000-01-01T12:10:06.000Z</time>
      </trkpt>
      <trkpt lat="46.19119" lon="6.69431">
        <ele>941.9</ele>
        <time>2000-01-01T12:10:16.000Z</time>
      </trkpt>
      <trkpt lat="46.1913" lon="6.69418">
        <ele>932</ele>
        <time>2000-01-01T12:10:26.000Z</time>
      </trkpt>
      <trkpt lat="46.19151" lon="6.69395">
        <ele>932</ele>
        <time>2000-01-01T12:10:36.000Z</time>
      </trkpt>
      <trkpt lat="46.19179" lon="6.69365">
        <ele>933</ele>
        <time>2000-01-01T12:10:46.000Z</time>
      </trkpt>
      <trkpt lat="46.19194" lon="6.69346">
        <ele>935</ele>
        <time>2000-01-01T12:10:56.000Z</time>
      </trkpt>
      <trkpt lat="46.192" lon="6.69336">
        <ele>942.6</ele>
        <time>2000-01-01T12:11:06.000Z</time>
      </trkpt>
      <trkpt lat="46.19204" lon="6.69322">
        <ele>938</ele>
        <time>2000-01-01T12:11:16.000Z</time>
      </trkpt>
      <trkpt lat="46.19204" lon="6.69314">
        <ele>944.2</ele>
        <time>2000-01-01T12:11:26.000Z</time>
      </trkpt>
      <trkpt lat="46.19202" lon="6.69306">
        <ele>945</ele>
        <time>2000-01-01T12:11:36.000Z</time>
      </trkpt>
      <trkpt lat="46.192" lon="6.69303">
        <ele>945.5</ele>
        <time>2000-01-01T12:11:46.000Z</time>
      </trkpt>
      <trkpt lat="46.19193" lon="6.69299">
        <ele>943</ele>
        <time>2000-01-01T12:11:56.000Z</time>
      </trkpt>
      <trkpt lat="46.19164" lon="6.69286">
        <ele>944</ele>
        <time>2000-01-01T12:12:06.000Z</time>
      </trkpt>
      <trkpt lat="46.19157" lon="6.69284">
        <ele>950</ele>
        <time>2000-01-01T12:12:16.000Z</time>
      </trkpt>
      <trkpt lat="46.1915" lon="6.69283">
        <ele>950.6</ele>
        <time>2000-01-01T12:12:26.000Z</time>
      </trkpt>
      <trkpt lat="46.19139" lon="6.69285">
        <ele>945</ele>
        <time>2000-01-01T12:12:36.000Z</time>
      </trkpt>
      <trkpt lat="46.19137" lon="6.69284">
        <ele>951.4</ele>
        <time>2000-01-01T12:12:46.000Z</time>
      </trkpt>
      <trkpt lat="46.19135" lon="6.6928">
        <ele>951.7</ele>
        <time>2000-01-01T12:12:56.000Z</time>
      </trkpt>
      <trkpt lat="46.19135" lon="6.69273">
        <ele>952</ele>
        <time>2000-01-01T12:13:06.000Z</time>
      </trkpt>
      <trkpt lat="46.19137" lon="6.69267">
        <ele>952.1</ele>
        <time>2000-01-01T12:13:16.000Z</time>
      </trkpt>
      <trkpt lat="46.19142" lon="6.69257">
        <ele>949</ele>
        <time>2000-01-01T12:13:26.000Z</time>
      </trkpt>
      <trkpt lat="46.1915" lon="6.69246">
        <ele>952.4</ele>
        <time>2000-01-01T12:13:36.000Z</time>
      </trkpt>
      <trkpt lat="46.19153" lon="6.69238">
        <ele>952.9</ele>
        <time>2000-01-01T12:13:46.000Z</time>
      </trkpt>
      <trkpt lat="46.19155" lon="6.6923">
        <ele>950</ele>
        <time>2000-01-01T12:13:56.000Z</time>
      </trkpt>
      <trkpt lat="46.1913" lon="6.6924">
        <ele>951</ele>
        <time>2000-01-01T12:14:06.000Z</time>
      </trkpt>
      <trkpt lat="46.19099" lon="6.69252">
        <ele>952</ele>
        <time>2000-01-01T12:14:16.000Z</time>
      </trkpt>
      <trkpt lat="46.19071" lon="6.69264">
        <ele>953</ele>
        <time>2000-01-01T12:14:26.000Z</time>
      </trkpt>
      <trkpt lat="46.19035" lon="6.69277">
        <ele>953</ele>
        <time>2000-01-01T12:14:36.000Z</time>
      </trkpt>
      <trkpt lat="46.19017" lon="6.69281">
        <ele>958.3</ele>
        <time>2000-01-01T12:14:46.000Z</time>
      </trkpt>
      <trkpt lat="46.18986" lon="6.69283">
        <ele>953</ele>
        <time>2000-01-01T12:14:56.000Z</time>
      </trkpt>
      <trkpt lat="46.18977" lon="6.69285">
        <ele>960.9</ele>
        <time>2000-01-01T12:15:06.000Z</time>
      </trkpt>
      <trkpt lat="46.18969" lon="6.69288">
        <ele>961.4</ele>
        <time>2000-01-01T12:15:16.000Z</time>
      </trkpt>
      <trkpt lat="46.1896" lon="6.69293">
        <ele>954</ele>
        <time>2000-01-01T12:15:26.000Z</time>
      </trkpt>
      <trkpt lat="46.18951" lon="6.693">
        <ele>961.7</ele>
        <time>2000-01-01T12:15:36.000Z</time>
      </trkpt>
      <trkpt lat="46.18905" lon="6.69348">
        <ele>955</ele>
        <time>2000-01-01T12:15:46.000Z</time>
      </trkpt>
      <trkpt lat="46.18873" lon="6.69384">
        <ele>955</ele>
        <time>2000-01-01T12:15:56.000Z</time>
      </trkpt>
      <trkpt lat="46.18869" lon="6.69387">
        <ele>962.3</ele>
        <time>2000-01-01T12:16:06.000Z</time>
      </trkpt>
      <trkpt lat="46.1885" lon="6.69408">
        <ele>956</ele>
        <time>2000-01-01T12:16:16.000Z</time>
      </trkpt>
      <trkpt lat="46.18848" lon="6.69411">
        <ele>961.1</ele>
        <time>2000-01-01T12:16:26.000Z</time>
      </trkpt>
      <trkpt lat="46.18826" lon="6.69436">
        <ele>956</ele>
        <time>2000-01-01T12:16:36.000Z</time>
      </trkpt>
      <trkpt lat="46.18807" lon="6.69459">
        <ele>956</ele>
        <time>2000-01-01T12:16:46.000Z</time>
      </trkpt>
      <trkpt lat="46.18787" lon="6.69487">
        <ele>956</ele>
        <time>2000-01-01T12:16:56.000Z</time>
      </trkpt>
      <trkpt lat="46.18769" lon="6.69515">
        <ele>957</ele>
        <time>2000-01-01T12:17:06.000Z</time>
      </trkpt>
      <trkpt lat="46.18746" lon="6.69551">
        <ele>957</ele>
        <time>2000-01-01T12:17:16.000Z</time>
      </trkpt>
      <trkpt lat="46.18741" lon="6.69557">
        <ele>960.4</ele>
        <time>2000-01-01T12:17:26.000Z</time>
      </trkpt>
      <trkpt lat="46.18729" lon="6.69576">
        <ele>957</ele>
        <time>2000-01-01T12:17:36.000Z</time>
      </trkpt>
      <trkpt lat="46.18712" lon="6.69599">
        <ele>957</ele>
        <time>2000-01-01T12:17:46.000Z</time>
      </trkpt>
      <trkpt lat="46.18694" lon="6.69623">
        <ele>958</ele>
        <time>2000-01-01T12:17:56.000Z</time>
      </trkpt>
      <trkpt lat="46.18668" lon="6.69662">
        <ele>959</ele>
        <time>2000-01-01T12:18:06.000Z</time>
      </trkpt>
      <trkpt lat="46.18661" lon="6.69671">
        <ele>962.2</ele>
        <time>2000-01-01T12:18:16.000Z</time>
      </trkpt>
      <trkpt lat="46.1864" lon="6.69701">
        <ele>959</ele>
        <time>2000-01-01T12:18:26.000Z</time>
      </trkpt>
      <trkpt lat="46.18624" lon="6.69727">
        <ele>960</ele>
        <time>2000-01-01T12:18:36.000Z</time>
      </trkpt>
      <trkpt lat="46.18606" lon="6.69754">
        <ele>960</ele>
        <time>2000-01-01T12:18:46.000Z</time>
      </trkpt>
      <trkpt lat="46.18579" lon="6.69793">
        <ele>961</ele>
        <time>2000-01-01T12:18:56.000Z</time>
      </trkpt>
      <trkpt lat="46.18561" lon="6.69818">
        <ele>961</ele>
        <time>2000-01-01T12:19:06.000Z</time>
      </trkpt>
      <trkpt lat="46.18539" lon="6.69849">
        <ele>961</ele>
        <time>2000-01-01T12:19:16.000Z</time>
      </trkpt>
      <trkpt lat="46.18509" lon="6.69893">
        <ele>962</ele>
        <time>2000-01-01T12:19:26.000Z</time>
      </trkpt>
      <trkpt lat="46.18507" lon="6.69897">
        <ele>966.6</ele>
        <time>2000-01-01T12:19:36.000Z</time>
      </trkpt>
      <trkpt lat="46.185" lon="6.69907">
        <ele>967</ele>
        <time>2000-01-01T12:19:46.000Z</time>
      </trkpt>
      <trkpt lat="46.1849" lon="6.69924">
        <ele>962</ele>
        <time>2000-01-01T12:19:56.000Z</time>
      </trkpt>
      <trkpt lat="46.18488" lon="6.69925">
        <ele>967.2</ele>
        <time>2000-01-01T12:20:06.000Z</time>
      </trkpt>
      <trkpt lat="46.18467" lon="6.69955">
        <ele>963</ele>
        <time>2000-01-01T12:20:16.000Z</time>
      </trkpt>
      <trkpt lat="46.18465" lon="6.69957">
        <ele>967.6</ele>
        <time>2000-01-01T12:20:26.000Z</time>
      </trkpt>
      <trkpt lat="46.18448" lon="6.69981">
        <ele>964</ele>
        <time>2000-01-01T12:20:36.000Z</time>
      </trkpt>
      <trkpt lat="46.18441" lon="6.6999">
        <ele>968.3</ele>
        <time>2000-01-01T12:20:46.000Z</time>
      </trkpt>
      <trkpt lat="46.18421" lon="6.70019">
        <ele>964</ele>
        <time>2000-01-01T12:20:56.000Z</time>
      </trkpt>
      <trkpt lat="46.18403" lon="6.70047">
        <ele>965</ele>
        <time>2000-01-01T12:21:06.000Z</time>
      </trkpt>
      <trkpt lat="46.18378" lon="6.70085">
        <ele>965</ele>
        <time>2000-01-01T12:21:16.000Z</time>
      </trkpt>
      <trkpt lat="46.18367" lon="6.70097">
        <ele>968.8</ele>
        <time>2000-01-01T12:21:26.000Z</time>
      </trkpt>
      <trkpt lat="46.18357" lon="6.70111">
        <ele>967</ele>
        <time>2000-01-01T12:21:36.000Z</time>
      </trkpt>
      <trkpt lat="46.18327" lon="6.70155">
        <ele>967</ele>
        <time>2000-01-01T12:21:46.000Z</time>
      </trkpt>
      <trkpt lat="46.18302" lon="6.70193">
        <ele>968</ele>
        <time>2000-01-01T12:21:56.000Z</time>
      </trkpt>
      <trkpt lat="46.18295" lon="6.70202">
        <ele>970.8</ele>
        <time>2000-01-01T12:22:06.000Z</time>
      </trkpt>
      <trkpt lat="46.1829" lon="6.70206">
        <ele>971</ele>
        <time>2000-01-01T12:22:16.000Z</time>
      </trkpt>
      <trkpt lat="46.18291" lon="6.70209">
        <ele>971</ele>
        <time>2000-01-01T12:22:26.000Z</time>
      </trkpt>
      <trkpt lat="46.18291" lon="6.70212">
        <ele>968</ele>
        <time>2000-01-01T12:22:36.000Z</time>
      </trkpt>
      <trkpt lat="46.1829" lon="6.70215">
        <ele>971.1</ele>
        <time>2000-01-01T12:22:46.000Z</time>
      </trkpt>
      <trkpt lat="46.18288" lon="6.70218">
        <ele>971.2</ele>
        <time>2000-01-01T12:22:56.000Z</time>
      </trkpt>
      <trkpt lat="46.18285" lon="6.7022">
        <ele>971.3</ele>
        <time>2000-01-01T12:23:06.000Z</time>
      </trkpt>
      <trkpt lat="46.1828" lon="6.7022">
        <ele>971.4</ele>
        <time>2000-01-01T12:23:16.000Z</time>
      </trkpt>
      <trkpt lat="46.18275" lon="6.70231">
        <ele>968</ele>
        <time>2000-01-01T12:23:26.000Z</time>
      </trkpt>
      <trkpt lat="46.18266" lon="6.70245">
        <ele>971.8</ele>
        <time>2000-01-01T12:23:36.000Z</time>
      </trkpt>
      <trkpt lat="46.18262" lon="6.70253">
        <ele>969</ele>
        <time>2000-01-01T12:23:46.000Z</time>
      </trkpt>
      <trkpt lat="46.18243" lon="6.7028">
        <ele>969</ele>
        <time>2000-01-01T12:23:56.000Z</time>
      </trkpt>
      <trkpt lat="46.18217" lon="6.70317">
        <ele>971</ele>
        <time>2000-01-01T12:24:06.000Z</time>
      </trkpt>
      <trkpt lat="46.18197" lon="6.70347">
        <ele>971</ele>
        <time>2000-01-01T12:24:16.000Z</time>
      </trkpt>
      <trkpt lat="46.18178" lon="6.70374">
        <ele>972</ele>
        <time>2000-01-01T12:24:26.000Z</time>
      </trkpt>
      <trkpt lat="46.18151" lon="6.70412">
        <ele>972</ele>
        <time>2000-01-01T12:24:36.000Z</time>
      </trkpt>
      <trkpt lat="46.18147" lon="6.70419">
        <ele>977.3</ele>
        <time>2000-01-01T12:24:46.000Z</time>
      </trkpt>
      <trkpt lat="46.18143" lon="6.70418">
        <ele>977.5</ele>
        <time>2000-01-01T12:24:56.000Z</time>
      </trkpt>
      <trkpt lat="46.18138" lon="6.70415">
        <ele>977.7</ele>
        <time>2000-01-01T12:25:06.000Z</time>
      </trkpt>
      <trkpt lat="46.18136" lon="6.70413">
        <ele>977.7</ele>
        <time>2000-01-01T12:25:16.000Z</time>
      </trkpt>
      <trkpt lat="46.18135" lon="6.70434">
        <ele>973</ele>
        <time>2000-01-01T12:25:26.000Z</time>
      </trkpt>
      <trkpt lat="46.18134" lon="6.7044">
        <ele>976</ele>
        <time>2000-01-01T12:25:36.000Z</time>
      </trkpt>
      <trkpt lat="46.18135" lon="6.70434">
        <ele>976.4</ele>
        <time>2000-01-01T12:25:46.000Z</time>
      </trkpt>
      <trkpt lat="46.18136" lon="6.70413">
        <ele>973</ele>
        <time>2000-01-01T12:25:56.000Z</time>
      </trkpt>
      <trkpt lat="46.18135" lon="6.70407">
        <ele>977.6</ele>
        <time>2000-01-01T12:26:06.000Z</time>
      </trkpt>
      <trkpt lat="46.18131" lon="6.704">
        <ele>977.6</ele>
        <time>2000-01-01T12:26:16.000Z</time>
      </trkpt>
      <trkpt lat="46.18124" lon="6.70392">
        <ele>972</ele>
        <time>2000-01-01T12:26:26.000Z</time>
      </trkpt>
      <trkpt lat="46.18121" lon="6.70383">
        <ele>977.5</ele>
        <time>2000-01-01T12:26:36.000Z</time>
      </trkpt>
      <trkpt lat="46.1812" lon="6.70376">
        <ele>977.4</ele>
        <time>2000-01-01T12:26:46.000Z</time>
      </trkpt>
      <trkpt lat="46.1812" lon="6.70368">
        <ele>977.2</ele>
        <time>2000-01-01T12:26:56.000Z</time>
      </trkpt>
      <trkpt lat="46.18122" lon="6.70352">
        <ele>972</ele>
        <time>2000-01-01T12:27:06.000Z</time>
      </trkpt>
      <trkpt lat="46.18127" lon="6.70344">
        <ele>976.7</ele>
        <time>2000-01-01T12:27:16.000Z</time>
      </trkpt>
      <trkpt lat="46.18124" lon="6.70342">
        <ele>976.7</ele>
        <time>2000-01-01T12:27:26.000Z</time>
      </trkpt>
      <trkpt lat="46.18121" lon="6.70337">
        <ele>976.6</ele>
        <time>2000-01-01T12:27:36.000Z</time>
      </trkpt>
      <trkpt lat="46.18108" lon="6.70319">
        <ele>973</ele>
        <time>2000-01-01T12:27:46.000Z</time>
      </trkpt>
      <trkpt lat="46.18091" lon="6.7029">
        <ele>974</ele>
        <time>2000-01-01T12:27:56.000Z</time>
      </trkpt>
      <trkpt lat="46.18074" lon="6.70263">
        <ele>975</ele>
        <time>2000-01-01T12:28:06.000Z</time>
      </trkpt>
      <trkpt lat="46.18055" lon="6.70232">
        <ele>977</ele>
        <time>2000-01-01T12:28:16.000Z</time>
      </trkpt>
      <trkpt lat="46.18046" lon="6.7022">
        <ele>980</ele>
        <time>2000-01-01T12:28:26.000Z</time>
      </trkpt>
      <trkpt lat="46.18019" lon="6.70193">
        <ele>981</ele>
        <time>2000-01-01T12:28:36.000Z</time>
      </trkpt>
      <trkpt lat="46.18018" lon="6.70191">
        <ele>982.3</ele>
        <time>2000-01-01T12:28:46.000Z</time>
      </trkpt>
      <trkpt lat="46.18014" lon="6.70188">
        <ele>982.6</ele>
        <time>2000-01-01T12:28:56.000Z</time>
      </trkpt>
      <trkpt lat="46.18011" lon="6.70188">
        <ele>982.8</ele>
        <time>2000-01-01T12:29:06.000Z</time>
      </trkpt>
      <trkpt lat="46.18009" lon="6.70189">
        <ele>982.9</ele>
        <time>2000-01-01T12:29:16.000Z</time>
      </trkpt>
      <trkpt lat="46.18001" lon="6.70175">
        <ele>983</ele>
        <time>2000-01-01T12:29:26.000Z</time>
      </trkpt>
      <trkpt lat="46.17996" lon="6.70169">
        <ele>984.4</ele>
        <time>2000-01-01T12:29:36.000Z</time>
      </trkpt>
      <trkpt lat="46.17989" lon="6.70143">
        <ele>986</ele>
        <time>2000-01-01T12:29:46.000Z</time>
      </trkpt>
      <trkpt lat="46.17989" lon="6.70138">
        <ele>986.7</ele>
        <time>2000-01-01T12:29:56.000Z</time>
      </trkpt>
      <trkpt lat="46.17992" lon="6.7012">
        <ele>987.1</ele>
        <time>2000-01-01T12:30:06.000Z</time>
      </trkpt>
      <trkpt lat="46.17986" lon="6.70109">
        <ele>988</ele>
        <time>2000-01-01T12:30:16.000Z</time>
      </trkpt>
      <trkpt lat="46.17982" lon="6.70109">
        <ele>989.4</ele>
        <time>2000-01-01T12:30:26.000Z</time>
      </trkpt>
      <trkpt lat="46.17978" lon="6.7011">
        <ele>990.1</ele>
        <time>2000-01-01T12:30:36.000Z</time>
      </trkpt>
      <trkpt lat="46.17964" lon="6.70125">
        <ele>991</ele>
        <time>2000-01-01T12:30:46.000Z</time>
      </trkpt>
      <trkpt lat="46.17962" lon="6.70128">
        <ele>991.6</ele>
        <time>2000-01-01T12:30:56.000Z</time>
      </trkpt>
      <trkpt lat="46.17949" lon="6.7014">
        <ele>992.6</ele>
        <time>2000-01-01T12:31:06.000Z</time>
      </trkpt>
      <trkpt lat="46.17944" lon="6.70146">
        <ele>993</ele>
        <time>2000-01-01T12:31:16.000Z</time>
      </trkpt>
      <trkpt lat="46.17918" lon="6.70123">
        <ele>1003</ele>
        <time>2000-01-01T12:31:26.000Z</time>
      </trkpt>
      <trkpt lat="46.17896" lon="6.70103">
        <ele>1010</ele>
        <time>2000-01-01T12:31:36.000Z</time>
      </trkpt>
      <trkpt lat="46.17868" lon="6.70078">
        <ele>1024</ele>
        <time>2000-01-01T12:31:46.000Z</time>
      </trkpt>
      <trkpt lat="46.1783" lon="6.70043">
        <ele>1040</ele>
        <time>2000-01-01T12:31:56.000Z</time>
      </trkpt>
      <trkpt lat="46.17804" lon="6.7002">
        <ele>1052</ele>
        <time>2000-01-01T12:32:06.000Z</time>
      </trkpt>
      <trkpt lat="46.17782" lon="6.7">
        <ele>1065</ele>
        <time>2000-01-01T12:32:16.000Z</time>
      </trkpt>
      <trkpt lat="46.17754" lon="6.69975">
        <ele>1079</ele>
        <time>2000-01-01T12:32:26.000Z</time>
      </trkpt>
      <trkpt lat="46.17715" lon="6.69941">
        <ele>1103</ele>
        <time>2000-01-01T12:32:36.000Z</time>
      </trkpt>
      <trkpt lat="46.17677" lon="6.69906">
        <ele>1131</ele>
        <time>2000-01-01T12:32:46.000Z</time>
      </trkpt>
      <trkpt lat="46.17642" lon="6.69875">
        <ele>1150</ele>
        <time>2000-01-01T12:32:56.000Z</time>
      </trkpt>
      <trkpt lat="46.17607" lon="6.69843">
        <ele>1182</ele>
        <time>2000-01-01T12:33:06.000Z</time>
      </trkpt>
      <trkpt lat="46.17572" lon="6.69812">
        <ele>1195</ele>
        <time>2000-01-01T12:33:16.000Z</time>
      </trkpt>
      <trkpt lat="46.17537" lon="6.6978">
        <ele>1205</ele>
        <time>2000-01-01T12:33:26.000Z</time>
      </trkpt>
      <trkpt lat="46.17502" lon="6.69749">
        <ele>1218</ele>
        <time>2000-01-01T12:33:36.000Z</time>
      </trkpt>
      <trkpt lat="46.17467" lon="6.69717">
        <ele>1234</ele>
        <time>2000-01-01T12:33:46.000Z</time>
      </trkpt>
      <trkpt lat="46.17432" lon="6.69686">
        <ele>1251</ele>
        <time>2000-01-01T12:33:56.000Z</time>
      </trkpt>
      <trkpt lat="46.17408" lon="6.69664">
        <ele>1267</ele>
        <time>2000-01-01T12:34:06.000Z</time>
      </trkpt>
      <trkpt lat="46.17373" lon="6.69633">
        <ele>1279</ele>
        <time>2000-01-01T12:34:16.000Z</time>
      </trkpt>
      <trkpt lat="46.17335" lon="6.69598">
        <ele>1294</ele>
        <time>2000-01-01T12:34:26.000Z</time>
      </trkpt>
      <trkpt lat="46.17303" lon="6.6957">
        <ele>1310</ele>
        <time>2000-01-01T12:34:36.000Z</time>
      </trkpt>
      <trkpt lat="46.17272" lon="6.69542">
        <ele>1322</ele>
        <time>2000-01-01T12:34:46.000Z</time>
      </trkpt>
      <trkpt lat="46.1724" lon="6.69514">
        <ele>1334</ele>
        <time>2000-01-01T12:34:56.000Z</time>
      </trkpt>
      <trkpt lat="46.17217" lon="6.69493">
        <ele>1341</ele>
        <time>2000-01-01T12:35:06.000Z</time>
      </trkpt>
      <trkpt lat="46.17182" lon="6.69462">
        <ele>1357</ele>
        <time>2000-01-01T12:35:16.000Z</time>
      </trkpt>
      <trkpt lat="46.17144" lon="6.69427">
        <ele>1396</ele>
        <time>2000-01-01T12:35:26.000Z</time>
      </trkpt>
      <trkpt lat="46.17113" lon="6.69399">
        <ele>1416</ele>
        <time>2000-01-01T12:35:36.000Z</time>
      </trkpt>
      <trkpt lat="46.17082" lon="6.69372">
        <ele>1433</ele>
        <time>2000-01-01T12:35:46.000Z</time>
      </trkpt>
      <trkpt lat="46.17051" lon="6.69344">
        <ele>1441</ele>
        <time>2000-01-01T12:35:56.000Z</time>
      </trkpt>
      <trkpt lat="46.1703" lon="6.69325">
        <ele>1458</ele>
        <time>2000-01-01T12:36:06.000Z</time>
      </trkpt>
      <trkpt lat="46.17004" lon="6.69302">
        <ele>1470</ele>
        <time>2000-01-01T12:36:16.000Z</time>
      </trkpt>
      <trkpt lat="46.16983" lon="6.69282">
        <ele>1485</ele>
        <time>2000-01-01T12:36:26.000Z</time>
      </trkpt>
      <trkpt lat="46.16958" lon="6.6926">
        <ele>1496</ele>
        <time>2000-01-01T12:36:36.000Z</time>
      </trkpt>
      <trkpt lat="46.16952" lon="6.69213">
        <ele>1496</ele>
        <time>2000-01-01T12:36:46.000Z</time>
      </trkpt>
      <trkpt lat="46.16954" lon="6.69213">
        <ele>1497</ele>
        <time>2000-01-01T12:36:56.000Z</time>
      </trkpt>
      <trkpt lat="46.16967" lon="6.69204">
        <ele>1495.4</ele>
        <time>2000-01-01T12:37:06.000Z</time>
      </trkpt>
      <trkpt lat="46.16967" lon="6.69203">
        <ele>1495.4</ele>
        <time>2000-01-01T12:37:16.000Z</time>
      </trkpt>
      <trkpt lat="46.17013" lon="6.69164">
        <ele>1490</ele>
        <time>2000-01-01T12:37:26.000Z</time>
      </trkpt>
      <trkpt lat="46.17022" lon="6.69157">
        <ele>1488.7</ele>
        <time>2000-01-01T12:37:36.000Z</time>
      </trkpt>
      <trkpt lat="46.17041" lon="6.69133">
        <ele>1485</ele>
        <time>2000-01-01T12:37:46.000Z</time>
      </trkpt>
      <trkpt lat="46.17051" lon="6.69119">
        <ele>1482.4</ele>
        <time>2000-01-01T12:37:56.000Z</time>
      </trkpt>
      <trkpt lat="46.17067" lon="6.69102">
        <ele>1481</ele>
        <time>2000-01-01T12:38:06.000Z</time>
      </trkpt>
      <trkpt lat="46.17074" lon="6.69097">
        <ele>1480</ele>
        <time>2000-01-01T12:38:16.000Z</time>
      </trkpt>
      <trkpt lat="46.17084" lon="6.69093">
        <ele>1479</ele>
        <time>2000-01-01T12:38:26.000Z</time>
      </trkpt>
      <trkpt lat="46.17094" lon="6.6909">
        <ele>1477</ele>
        <time>2000-01-01T12:38:36.000Z</time>
      </trkpt>
      <trkpt lat="46.17113" lon="6.69086">
        <ele>1475</ele>
        <time>2000-01-01T12:38:46.000Z</time>
      </trkpt>
      <trkpt lat="46.17131" lon="6.69086">
        <ele>1474.6</ele>
        <time>2000-01-01T12:38:56.000Z</time>
      </trkpt>
      <trkpt lat="46.1714" lon="6.69088">
        <ele>1473</ele>
        <time>2000-01-01T12:39:06.000Z</time>
      </trkpt>
      <trkpt lat="46.17175" lon="6.69108">
        <ele>1468</ele>
        <time>2000-01-01T12:39:16.000Z</time>
      </trkpt>
      <trkpt lat="46.17181" lon="6.6911">
        <ele>1464.7</ele>
        <time>2000-01-01T12:39:26.000Z</time>
      </trkpt>
      <trkpt lat="46.17191" lon="6.69107">
        <ele>1462.8</ele>
        <time>2000-01-01T12:39:36.000Z</time>
      </trkpt>
      <trkpt lat="46.17201" lon="6.69102">
        <ele>1461</ele>
        <time>2000-01-01T12:39:46.000Z</time>
      </trkpt>
      <trkpt lat="46.17207" lon="6.69094">
        <ele>1460.8</ele>
        <time>2000-01-01T12:39:56.000Z</time>
      </trkpt>
      <trkpt lat="46.17212" lon="6.69083">
        <ele>1461.2</ele>
        <time>2000-01-01T12:40:06.000Z</time>
      </trkpt>
      <trkpt lat="46.17213" lon="6.69071">
        <ele>1458</ele>
        <time>2000-01-01T12:40:16.000Z</time>
      </trkpt>
      <trkpt lat="46.17211" lon="6.69027">
        <ele>1449</ele>
        <time>2000-01-01T12:40:26.000Z</time>
      </trkpt>
      <trkpt lat="46.17211" lon="6.69011">
        <ele>1452.6</ele>
        <time>2000-01-01T12:40:36.000Z</time>
      </trkpt>
      <trkpt lat="46.1721" lon="6.69001">
        <ele>1451.7</ele>
        <time>2000-01-01T12:40:46.000Z</time>
      </trkpt>
      <trkpt lat="46.17211" lon="6.69">
        <ele>1444</ele>
        <time>2000-01-01T12:40:56.000Z</time>
      </trkpt>
      <trkpt lat="46.17213" lon="6.68989">
        <ele>1449.6</ele>
        <time>2000-01-01T12:41:06.000Z</time>
      </trkpt>
      <trkpt lat="46.17223" lon="6.68964">
        <ele>1439</ele>
        <time>2000-01-01T12:41:16.000Z</time>
      </trkpt>
      <trkpt lat="46.17226" lon="6.68953">
        <ele>1443.2</ele>
        <time>2000-01-01T12:41:26.000Z</time>
      </trkpt>
      <trkpt lat="46.17226" lon="6.68943">
        <ele>1442.3</ele>
        <time>2000-01-01T12:41:36.000Z</time>
      </trkpt>
      <trkpt lat="46.17223" lon="6.68932">
        <ele>1437</ele>
        <time>2000-01-01T12:41:46.000Z</time>
      </trkpt>
      <trkpt lat="46.17218" lon="6.68923">
        <ele>1442</ele>
        <time>2000-01-01T12:41:56.000Z</time>
      </trkpt>
      <trkpt lat="46.17192" lon="6.68888">
        <ele>1437</ele>
        <time>2000-01-01T12:42:06.000Z</time>
      </trkpt>
      <trkpt lat="46.17187" lon="6.68877">
        <ele>1443.1</ele>
        <time>2000-01-01T12:42:16.000Z</time>
      </trkpt>
      <trkpt lat="46.17176" lon="6.68802">
        <ele>1436</ele>
        <time>2000-01-01T12:42:26.000Z</time>
      </trkpt>
      <trkpt lat="46.17171" lon="6.68786">
        <ele>1436.8</ele>
        <time>2000-01-01T12:42:36.000Z</time>
      </trkpt>
      <trkpt lat="46.17167" lon="6.68778">
        <ele>1435</ele>
        <time>2000-01-01T12:42:46.000Z</time>
      </trkpt>
      <trkpt lat="46.17148" lon="6.68758">
        <ele>1434</ele>
        <time>2000-01-01T12:42:56.000Z</time>
      </trkpt>
      <trkpt lat="46.17139" lon="6.6875">
        <ele>1437.6</ele>
        <time>2000-01-01T12:43:06.000Z</time>
      </trkpt>
      <trkpt lat="46.17121" lon="6.68737">
        <ele>1435</ele>
        <time>2000-01-01T12:43:16.000Z</time>
      </trkpt>
      <trkpt lat="46.17079" lon="6.68729">
        <ele>1436</ele>
        <time>2000-01-01T12:43:26.000Z</time>
      </trkpt>
      <trkpt lat="46.17067" lon="6.68724">
        <ele>1444</ele>
        <time>2000-01-01T12:43:36.000Z</time>
      </trkpt>
      <trkpt lat="46.17035" lon="6.68718">
        <ele>1442</ele>
        <time>2000-01-01T12:43:46.000Z</time>
      </trkpt>
      <trkpt lat="46.17019" lon="6.68716">
        <ele>1450.5</ele>
        <time>2000-01-01T12:43:56.000Z</time>
      </trkpt>
      <trkpt lat="46.17006" lon="6.68713">
        <ele>1452</ele>
        <time>2000-01-01T12:44:06.000Z</time>
      </trkpt>
      <trkpt lat="46.16994" lon="6.68708">
        <ele>1452.7</ele>
        <time>2000-01-01T12:44:16.000Z</time>
      </trkpt>
      <trkpt lat="46.16985" lon="6.68703">
        <ele>1451</ele>
        <time>2000-01-01T12:44:26.000Z</time>
      </trkpt>
      <trkpt lat="46.16979" lon="6.68698">
        <ele>1451.8</ele>
        <time>2000-01-01T12:44:36.000Z</time>
      </trkpt>
      <trkpt lat="46.16979" lon="6.68693">
        <ele>1451.1</ele>
        <time>2000-01-01T12:44:46.000Z</time>
      </trkpt>
      <trkpt lat="46.16968" lon="6.68673">
        <ele>1451</ele>
        <time>2000-01-01T12:44:56.000Z</time>
      </trkpt>
      <trkpt lat="46.16962" lon="6.68667">
        <ele>1448.8</ele>
        <time>2000-01-01T12:45:06.000Z</time>
      </trkpt>
      <trkpt lat="46.16941" lon="6.68654">
        <ele>1448</ele>
        <time>2000-01-01T12:45:16.000Z</time>
      </trkpt>
      <trkpt lat="46.16931" lon="6.68649">
        <ele>1447.9</ele>
        <time>2000-01-01T12:45:26.000Z</time>
      </trkpt>
      <trkpt lat="46.16923" lon="6.68647">
        <ele>1447</ele>
        <time>2000-01-01T12:45:36.000Z</time>
      </trkpt>
      <trkpt lat="46.16917" lon="6.68643">
        <ele>1448.3</ele>
        <time>2000-01-01T12:45:46.000Z</time>
      </trkpt>
      <trkpt lat="46.16902" lon="6.68636">
        <ele>1444</ele>
        <time>2000-01-01T12:45:56.000Z</time>
      </trkpt>
      <trkpt lat="46.16893" lon="6.6863">
        <ele>1445.7</ele>
        <time>2000-01-01T12:46:06.000Z</time>
      </trkpt>
      <trkpt lat="46.16876" lon="6.68616">
        <ele>1439</ele>
        <time>2000-01-01T12:46:16.000Z</time>
      </trkpt>
      <trkpt lat="46.16848" lon="6.68586">
        <ele>1432</ele>
        <time>2000-01-01T12:46:26.000Z</time>
      </trkpt>
      <trkpt lat="46.1684" lon="6.6858">
        <ele>1436.4</ele>
        <time>2000-01-01T12:46:36.000Z</time>
      </trkpt>
      <trkpt lat="46.16833" lon="6.6858">
        <ele>1436.3</ele>
        <time>2000-01-01T12:46:46.000Z</time>
      </trkpt>
      <trkpt lat="46.16826" lon="6.68581">
        <ele>1430</ele>
        <time>2000-01-01T12:46:56.000Z</time>
      </trkpt>
      <trkpt lat="46.16819" lon="6.68583">
        <ele>1437.8</ele>
        <time>2000-01-01T12:47:06.000Z</time>
      </trkpt>
      <trkpt lat="46.16812" lon="6.68581">
        <ele>1437.8</ele>
        <time>2000-01-01T12:47:16.000Z</time>
      </trkpt>
      <trkpt lat="46.16806" lon="6.68576">
        <ele>1429</ele>
        <time>2000-01-01T12:47:26.000Z</time>
      </trkpt>
      <trkpt lat="46.16799" lon="6.68568">
        <ele>1435.7</ele>
        <time>2000-01-01T12:47:36.000Z</time>
      </trkpt>
      <trkpt lat="46.16792" lon="6.68563">
        <ele>1435.1</ele>
        <time>2000-01-01T12:47:46.000Z</time>
      </trkpt>
      <trkpt lat="46.16725" lon="6.68538">
        <ele>1419</ele>
        <time>2000-01-01T12:47:56.000Z</time>
      </trkpt>
      <trkpt lat="46.16683" lon="6.68516">
        <ele>1417</ele>
        <time>2000-01-01T12:48:06.000Z</time>
      </trkpt>
      <trkpt lat="46.16674" lon="6.68513">
        <ele>1422.7</ele>
        <time>2000-01-01T12:48:16.000Z</time>
      </trkpt>
      <trkpt lat="46.16666" lon="6.68511">
        <ele>1421.7</ele>
        <time>2000-01-01T12:48:26.000Z</time>
      </trkpt>
      <trkpt lat="46.16656" lon="6.68511">
        <ele>1415</ele>
        <time>2000-01-01T12:48:36.000Z</time>
      </trkpt>
      <trkpt lat="46.16616" lon="6.68515">
        <ele>1411</ele>
        <time>2000-01-01T12:48:46.000Z</time>
      </trkpt>
      <trkpt lat="46.16608" lon="6.68515">
        <ele>1418.3</ele>
        <time>2000-01-01T12:48:56.000Z</time>
      </trkpt>
      <trkpt lat="46.166" lon="6.68513">
        <ele>1417.2</ele>
        <time>2000-01-01T12:49:06.000Z</time>
      </trkpt>
      <trkpt lat="46.16585" lon="6.68507">
        <ele>1406</ele>
        <time>2000-01-01T12:49:16.000Z</time>
      </trkpt>
      <trkpt lat="46.16577" lon="6.68506">
        <ele>1414.6</ele>
        <time>2000-01-01T12:49:26.000Z</time>
      </trkpt>
      <trkpt lat="46.16568" lon="6.68508">
        <ele>1415.5</ele>
        <time>2000-01-01T12:49:36.000Z</time>
      </trkpt>
      <trkpt lat="46.16557" lon="6.68509">
        <ele>1402</ele>
        <time>2000-01-01T12:49:46.000Z</time>
      </trkpt>
      <trkpt lat="46.16553" lon="6.68508">
        <ele>1416.2</ele>
        <time>2000-01-01T12:49:56.000Z</time>
      </trkpt>
      <trkpt lat="46.16543" lon="6.68494">
        <ele>1413.5</ele>
        <time>2000-01-01T12:50:06.000Z</time>
      </trkpt>
      <trkpt lat="46.16529" lon="6.68478">
        <ele>1395</ele>
        <time>2000-01-01T12:50:16.000Z</time>
      </trkpt>
      <trkpt lat="46.16524" lon="6.6847">
        <ele>1409.6</ele>
        <time>2000-01-01T12:50:26.000Z</time>
      </trkpt>
      <trkpt lat="46.16516" lon="6.68452">
        <ele>1397</ele>
        <time>2000-01-01T12:50:36.000Z</time>
      </trkpt>
      <trkpt lat="46.16499" lon="6.68462">
        <ele>1407.9</ele>
        <time>2000-01-01T12:50:46.000Z</time>
      </trkpt>
      <trkpt lat="46.16486" lon="6.68471">
        <ele>1399</ele>
        <time>2000-01-01T12:50:56.000Z</time>
      </trkpt>
      <trkpt lat="46.16476" lon="6.68479">
        <ele>1414.1</ele>
        <time>2000-01-01T12:51:06.000Z</time>
      </trkpt>
      <trkpt lat="46.16469" lon="6.68483">
        <ele>1400</ele>
        <time>2000-01-01T12:51:16.000Z</time>
      </trkpt>
      <trkpt lat="46.16464" lon="6.68483">
        <ele>1416.2</ele>
        <time>2000-01-01T12:51:26.000Z</time>
      </trkpt>
      <trkpt lat="46.16459" lon="6.68481">
        <ele>1416.3</ele>
        <time>2000-01-01T12:51:36.000Z</time>
      </trkpt>
      <trkpt lat="46.16456" lon="6.68478">
        <ele>1416</ele>
        <time>2000-01-01T12:51:46.000Z</time>
      </trkpt>
      <trkpt lat="46.16447" lon="6.68473">
        <ele>1399</ele>
        <time>2000-01-01T12:51:56.000Z</time>
      </trkpt>
      <trkpt lat="46.16439" lon="6.68467">
        <ele>1415.5</ele>
        <time>2000-01-01T12:52:06.000Z</time>
      </trkpt>
      <trkpt lat="46.16405" lon="6.68447">
        <ele>1399</ele>
        <time>2000-01-01T12:52:16.000Z</time>
      </trkpt>
      <trkpt lat="46.16383" lon="6.68437">
        <ele>1399</ele>
        <time>2000-01-01T12:52:26.000Z</time>
      </trkpt>
      <trkpt lat="46.16363" lon="6.68426">
        <ele>1399</ele>
        <time>2000-01-01T12:52:36.000Z</time>
      </trkpt>
      <trkpt lat="46.16359" lon="6.6842">
        <ele>1413.9</ele>
        <time>2000-01-01T12:52:46.000Z</time>
      </trkpt>
      <trkpt lat="46.16354" lon="6.68415">
        <ele>1413.3</ele>
        <time>2000-01-01T12:52:56.000Z</time>
      </trkpt>
      <trkpt lat="46.16345" lon="6.68404">
        <ele>1395</ele>
        <time>2000-01-01T12:53:06.000Z</time>
      </trkpt>
      <trkpt lat="46.16339" lon="6.68395">
        <ele>1409.1</ele>
        <time>2000-01-01T12:53:16.000Z</time>
      </trkpt>
      <trkpt lat="46.16332" lon="6.68391">
        <ele>1408.5</ele>
        <time>2000-01-01T12:53:26.000Z</time>
      </trkpt>
      <trkpt lat="46.16324" lon="6.68389">
        <ele>1392</ele>
        <time>2000-01-01T12:53:36.000Z</time>
      </trkpt>
      <trkpt lat="46.16293" lon="6.68382">
        <ele>1390</ele>
        <time>2000-01-01T12:53:46.000Z</time>
      </trkpt>
      <trkpt lat="46.16282" lon="6.68382">
        <ele>1402.1</ele>
        <time>2000-01-01T12:53:56.000Z</time>
      </trkpt>
      <trkpt lat="46.16274" lon="6.68383">
        <ele>1390</ele>
        <time>2000-01-01T12:54:06.000Z</time>
      </trkpt>
      <trkpt lat="46.16243" lon="6.68394">
        <ele>1390</ele>
        <time>2000-01-01T12:54:16.000Z</time>
      </trkpt>
      <trkpt lat="46.16213" lon="6.68408">
        <ele>1390</ele>
        <time>2000-01-01T12:54:26.000Z</time>
      </trkpt>
      <trkpt lat="46.16196" lon="6.68412">
        <ele>1401.4</ele>
        <time>2000-01-01T12:54:36.000Z</time>
      </trkpt>
      <trkpt lat="46.16178" lon="6.68418">
        <ele>1387</ele>
        <time>2000-01-01T12:54:46.000Z</time>
      </trkpt>
      <trkpt lat="46.16141" lon="6.68432">
        <ele>1387</ele>
        <time>2000-01-01T12:54:56.000Z</time>
      </trkpt>
      <trkpt lat="46.16133" lon="6.68436">
        <ele>1396.6</ele>
        <time>2000-01-01T12:55:06.000Z</time>
      </trkpt>
      <trkpt lat="46.16118" lon="6.68447">
        <ele>1382</ele>
        <time>2000-01-01T12:55:16.000Z</time>
      </trkpt>
      <trkpt lat="46.16105" lon="6.68458">
        <ele>1397.2</ele>
        <time>2000-01-01T12:55:26.000Z</time>
      </trkpt>
      <trkpt lat="46.16079" lon="6.68478">
        <ele>1379</ele>
        <time>2000-01-01T12:55:36.000Z</time>
      </trkpt>
      <trkpt lat="46.16055" lon="6.68495">
        <ele>1379</ele>
        <time>2000-01-01T12:55:46.000Z</time>
      </trkpt>
      <trkpt lat="46.16049" lon="6.685">
        <ele>1400</ele>
        <time>2000-01-01T12:55:56.000Z</time>
      </trkpt>
      <trkpt lat="46.16042" lon="6.68513">
        <ele>1401.3</ele>
        <time>2000-01-01T12:56:06.000Z</time>
      </trkpt>
      <trkpt lat="46.16041" lon="6.68516">
        <ele>1384</ele>
        <time>2000-01-01T12:56:16.000Z</time>
      </trkpt>
      <trkpt lat="46.16039" lon="6.68518">
        <ele>1401.8</ele>
        <time>2000-01-01T12:56:26.000Z</time>
      </trkpt>
      <trkpt lat="46.16036" lon="6.68519">
        <ele>1401.4</ele>
        <time>2000-01-01T12:56:36.000Z</time>
      </trkpt>
      <trkpt lat="46.16031" lon="6.68517">
        <ele>1400</ele>
        <time>2000-01-01T12:56:46.000Z</time>
      </trkpt>
      <trkpt lat="46.16024" lon="6.68511">
        <ele>1384</ele>
        <time>2000-01-01T12:56:56.000Z</time>
      </trkpt>
      <trkpt lat="46.16008" lon="6.68499">
        <ele>1391.3</ele>
        <time>2000-01-01T12:57:06.000Z</time>
      </trkpt>
      <trkpt lat="46.16002" lon="6.68497">
        <ele>1378</ele>
        <time>2000-01-01T12:57:16.000Z</time>
      </trkpt>
      <trkpt lat="46.15994" lon="6.68496">
        <ele>1388.3</ele>
        <time>2000-01-01T12:57:26.000Z</time>
      </trkpt>
      <trkpt lat="46.15987" lon="6.68498">
        <ele>1388.2</ele>
        <time>2000-01-01T12:57:36.000Z</time>
      </trkpt>
      <trkpt lat="46.15971" lon="6.685">
        <ele>1377</ele>
        <time>2000-01-01T12:57:46.000Z</time>
      </trkpt>
      <trkpt lat="46.15965" lon="6.685">
        <ele>1386.6</ele>
        <time>2000-01-01T12:57:56.000Z</time>
      </trkpt>
      <trkpt lat="46.15959" lon="6.68501">
        <ele>1386.3</ele>
        <time>2000-01-01T12:58:06.000Z</time>
      </trkpt>
      <trkpt lat="46.15952" lon="6.685">
        <ele>1376</ele>
        <time>2000-01-01T12:58:16.000Z</time>
      </trkpt>
      <trkpt lat="46.15945" lon="6.68496">
        <ele>1383.8</ele>
        <time>2000-01-01T12:58:26.000Z</time>
      </trkpt>
      <trkpt lat="46.15937" lon="6.68488">
        <ele>1381.3</ele>
        <time>2000-01-01T12:58:36.000Z</time>
      </trkpt>
      <trkpt lat="46.15931" lon="6.68481">
        <ele>1374</ele>
        <time>2000-01-01T12:58:46.000Z</time>
      </trkpt>
      <trkpt lat="46.15922" lon="6.68468">
        <ele>1375.8</ele>
        <time>2000-01-01T12:58:56.000Z</time>
      </trkpt>
      <trkpt lat="46.15917" lon="6.68465">
        <ele>1374.9</ele>
        <time>2000-01-01T12:59:06.000Z</time>
      </trkpt>
      <trkpt lat="46.15911" lon="6.6846">
        <ele>1368</ele>
        <time>2000-01-01T12:59:16.000Z</time>
      </trkpt>
      <trkpt lat="46.15904" lon="6.68453">
        <ele>1373.2</ele>
        <time>2000-01-01T12:59:26.000Z</time>
      </trkpt>
      <trkpt lat="46.15898" lon="6.68449">
        <ele>1372.7</ele>
        <time>2000-01-01T12:59:36.000Z</time>
      </trkpt>
      <trkpt lat="46.15892" lon="6.68446">
        <ele>1367</ele>
        <time>2000-01-01T12:59:46.000Z</time>
      </trkpt>
      <trkpt lat="46.1588" lon="6.68443">
        <ele>1372.6</ele>
        <time>2000-01-01T12:59:56.000Z</time>
      </trkpt>
      <trkpt lat="46.15865" lon="6.68441">
        <ele>1367</ele>
        <time>2000-01-01T13:00:06.000Z</time>
      </trkpt>
      <trkpt lat="46.15856" lon="6.68438">
        <ele>1373</ele>
        <time>2000-01-01T13:00:16.000Z</time>
      </trkpt>
      <trkpt lat="46.1585" lon="6.68435">
        <ele>1372.7</ele>
        <time>2000-01-01T13:00:26.000Z</time>
      </trkpt>
      <trkpt lat="46.15844" lon="6.68427">
        <ele>1367</ele>
        <time>2000-01-01T13:00:36.000Z</time>
      </trkpt>
      <trkpt lat="46.15842" lon="6.68423">
        <ele>1370.8</ele>
        <time>2000-01-01T13:00:46.000Z</time>
      </trkpt>
      <trkpt lat="46.1584" lon="6.68412">
        <ele>1368.9</ele>
        <time>2000-01-01T13:00:56.000Z</time>
      </trkpt>
      <trkpt lat="46.15836" lon="6.68401">
        <ele>1364</ele>
        <time>2000-01-01T13:01:06.000Z</time>
      </trkpt>
      <trkpt lat="46.15835" lon="6.68392">
        <ele>1366.1</ele>
        <time>2000-01-01T13:01:16.000Z</time>
      </trkpt>
      <trkpt lat="46.15832" lon="6.68378">
        <ele>1364</ele>
        <time>2000-01-01T13:01:26.000Z</time>
      </trkpt>
      <trkpt lat="46.15828" lon="6.68367">
        <ele>1359</ele>
        <time>2000-01-01T13:01:36.000Z</time>
      </trkpt>
      <trkpt lat="46.15824" lon="6.68358">
        <ele>1360.8</ele>
        <time>2000-01-01T13:01:46.000Z</time>
      </trkpt>
      <trkpt lat="46.1582" lon="6.68351">
        <ele>1359.6</ele>
        <time>2000-01-01T13:01:56.000Z</time>
      </trkpt>
      <trkpt lat="46.15803" lon="6.68316">
        <ele>1349</ele>
        <time>2000-01-01T13:02:06.000Z</time>
      </trkpt>
      <trkpt lat="46.15775" lon="6.68276">
        <ele>1338</ele>
        <time>2000-01-01T13:02:16.000Z</time>
      </trkpt>
      <trkpt lat="46.15759" lon="6.68256">
        <ele>1332</ele>
        <time>2000-01-01T13:02:26.000Z</time>
      </trkpt>
      <trkpt lat="46.1574" lon="6.68234">
        <ele>1327</ele>
        <time>2000-01-01T13:02:36.000Z</time>
      </trkpt>
      <trkpt lat="46.15718" lon="6.6821">
        <ele>1321</ele>
        <time>2000-01-01T13:02:46.000Z</time>
      </trkpt>
      <trkpt lat="46.15698" lon="6.68185">
        <ele>1318</ele>
        <time>2000-01-01T13:02:56.000Z</time>
      </trkpt>
      <trkpt lat="46.15685" lon="6.68167">
        <ele>1322.7</ele>
        <time>2000-01-01T13:03:06.000Z</time>
      </trkpt>
      <trkpt lat="46.15672" lon="6.68147">
        <ele>1313</ele>
        <time>2000-01-01T13:03:16.000Z</time>
      </trkpt>
      <trkpt lat="46.15663" lon="6.68138">
        <ele>1319.2</ele>
        <time>2000-01-01T13:03:26.000Z</time>
      </trkpt>
      <trkpt lat="46.15654" lon="6.68133">
        <ele>1309</ele>
        <time>2000-01-01T13:03:36.000Z</time>
      </trkpt>
      <trkpt lat="46.15631" lon="6.68112">
        <ele>1304</ele>
        <time>2000-01-01T13:03:46.000Z</time>
      </trkpt>
      <trkpt lat="46.15627" lon="6.68105">
        <ele>1320.9</ele>
        <time>2000-01-01T13:03:56.000Z</time>
      </trkpt>
      <trkpt lat="46.15622" lon="6.68098">
        <ele>1320.8</ele>
        <time>2000-01-01T13:04:06.000Z</time>
      </trkpt>
      <trkpt lat="46.15609" lon="6.6807">
        <ele>1304</ele>
        <time>2000-01-01T13:04:16.000Z</time>
      </trkpt>
      <trkpt lat="46.15602" lon="6.68053">
        <ele>1318.8</ele>
        <time>2000-01-01T13:04:26.000Z</time>
      </trkpt>
      <trkpt lat="46.15599" lon="6.68034">
        <ele>1303</ele>
        <time>2000-01-01T13:04:36.000Z</time>
      </trkpt>
      <trkpt lat="46.15594" lon="6.68012">
        <ele>1315.4</ele>
        <time>2000-01-01T13:04:46.000Z</time>
      </trkpt>
      <trkpt lat="46.15592" lon="6.68">
        <ele>1300</ele>
        <time>2000-01-01T13:04:56.000Z</time>
      </trkpt>
      <trkpt lat="46.1559" lon="6.6797">
        <ele>1300</ele>
        <time>2000-01-01T13:05:06.000Z</time>
      </trkpt>
      <trkpt lat="46.15589" lon="6.67946">
        <ele>1307.9</ele>
        <time>2000-01-01T13:05:16.000Z</time>
      </trkpt>
      <trkpt lat="46.15578" lon="6.67888">
        <ele>1296</ele>
        <time>2000-01-01T13:05:26.000Z</time>
      </trkpt>
      <trkpt lat="46.15572" lon="6.67862">
        <ele>1293</ele>
        <time>2000-01-01T13:05:36.000Z</time>
      </trkpt>
      <trkpt lat="46.15561" lon="6.6782">
        <ele>1289</ele>
        <time>2000-01-01T13:05:46.000Z</time>
      </trkpt>
      <trkpt lat="46.1555" lon="6.67789">
        <ele>1289</ele>
        <time>2000-01-01T13:05:56.000Z</time>
      </trkpt>
      <trkpt lat="46.15532" lon="6.67768">
        <ele>1287</ele>
        <time>2000-01-01T13:06:06.000Z</time>
      </trkpt>
      <trkpt lat="46.15512" lon="6.67751">
        <ele>1287</ele>
        <time>2000-01-01T13:06:16.000Z</time>
      </trkpt>
      <trkpt lat="46.15489" lon="6.67727">
        <ele>1284</ele>
        <time>2000-01-01T13:06:26.000Z</time>
      </trkpt>
      <trkpt lat="46.15456" lon="6.67692">
        <ele>1281</ele>
        <time>2000-01-01T13:06:36.000Z</time>
      </trkpt>
      <trkpt lat="46.15454" lon="6.67681">
        <ele>1280.5</ele>
        <time>2000-01-01T13:06:46.000Z</time>
      </trkpt>
      <trkpt lat="46.15443" lon="6.6766">
        <ele>1275</ele>
        <time>2000-01-01T13:06:56.000Z</time>
      </trkpt>
      <trkpt lat="46.15407" lon="6.67651">
        <ele>1274</ele>
        <time>2000-01-01T13:07:06.000Z</time>
      </trkpt>
      <trkpt lat="46.154" lon="6.67642">
        <ele>1276.5</ele>
        <time>2000-01-01T13:07:16.000Z</time>
      </trkpt>
      <trkpt lat="46.154" lon="6.67632">
        <ele>1275</ele>
        <time>2000-01-01T13:07:26.000Z</time>
      </trkpt>
      <trkpt lat="46.15406" lon="6.6762">
        <ele>1266</ele>
        <time>2000-01-01T13:07:36.000Z</time>
      </trkpt>
      <trkpt lat="46.15416" lon="6.67614">
        <ele>1270.8</ele>
        <time>2000-01-01T13:07:46.000Z</time>
      </trkpt>
      <trkpt lat="46.15421" lon="6.67609">
        <ele>1269.8</ele>
        <time>2000-01-01T13:07:56.000Z</time>
      </trkpt>
      <trkpt lat="46.15423" lon="6.67599">
        <ele>1262</ele>
        <time>2000-01-01T13:08:06.000Z</time>
      </trkpt>
      <trkpt lat="46.15422" lon="6.67591">
        <ele>1267</ele>
        <time>2000-01-01T13:08:16.000Z</time>
      </trkpt>
      <trkpt lat="46.15399" lon="6.6757">
        <ele>1257</ele>
        <time>2000-01-01T13:08:26.000Z</time>
      </trkpt>
      <trkpt lat="46.15376" lon="6.6754">
        <ele>1255</ele>
        <time>2000-01-01T13:08:36.000Z</time>
      </trkpt>
      <trkpt lat="46.15391" lon="6.67491">
        <ele>1251</ele>
        <time>2000-01-01T13:08:46.000Z</time>
      </trkpt>
      <trkpt lat="46.15399" lon="6.67479">
        <ele>1255</ele>
        <time>2000-01-01T13:08:56.000Z</time>
      </trkpt>
      <trkpt lat="46.15403" lon="6.67441">
        <ele>1246</ele>
        <time>2000-01-01T13:09:06.000Z</time>
      </trkpt>
      <trkpt lat="46.15418" lon="6.67395">
        <ele>1243</ele>
        <time>2000-01-01T13:09:16.000Z</time>
      </trkpt>
      <trkpt lat="46.15444" lon="6.67373">
        <ele>1240</ele>
        <time>2000-01-01T13:09:26.000Z</time>
      </trkpt>
      <trkpt lat="46.15459" lon="6.67338">
        <ele>1238</ele>
        <time>2000-01-01T13:09:36.000Z</time>
      </trkpt>
      <trkpt lat="46.15482" lon="6.67285">
        <ele>1236</ele>
        <time>2000-01-01T13:09:46.000Z</time>
      </trkpt>
      <trkpt lat="46.15498" lon="6.67249">
        <ele>1233</ele>
        <time>2000-01-01T13:09:56.000Z</time>
      </trkpt>
      <trkpt lat="46.15511" lon="6.67219">
        <ele>1231</ele>
        <time>2000-01-01T13:10:06.000Z</time>
      </trkpt>
      <trkpt lat="46.15526" lon="6.67185">
        <ele>1229</ele>
        <time>2000-01-01T13:10:16.000Z</time>
      </trkpt>
      <trkpt lat="46.15534" lon="6.67156">
        <ele>1227</ele>
        <time>2000-01-01T13:10:26.000Z</time>
      </trkpt>
      <trkpt lat="46.15517" lon="6.6712">
        <ele>1226</ele>
        <time>2000-01-01T13:10:36.000Z</time>
      </trkpt>
      <trkpt lat="46.15496" lon="6.67092">
        <ele>1226</ele>
        <time>2000-01-01T13:10:46.000Z</time>
      </trkpt>
      <trkpt lat="46.15465" lon="6.6705">
        <ele>1223</ele>
        <time>2000-01-01T13:10:56.000Z</time>
      </trkpt>
      <trkpt lat="46.15448" lon="6.66989">
        <ele>1217</ele>
        <time>2000-01-01T13:11:06.000Z</time>
      </trkpt>
      <trkpt lat="46.15429" lon="6.66961">
        <ele>1215</ele>
        <time>2000-01-01T13:11:16.000Z</time>
      </trkpt>
      <trkpt lat="46.15405" lon="6.66925">
        <ele>1209</ele>
        <time>2000-01-01T13:11:26.000Z</time>
      </trkpt>
      <trkpt lat="46.15438" lon="6.66923">
        <ele>1207</ele>
        <time>2000-01-01T13:11:36.000Z</time>
      </trkpt>
      <trkpt lat="46.15467" lon="6.66922">
        <ele>1203</ele>
        <time>2000-01-01T13:11:46.000Z</time>
      </trkpt>
      <trkpt lat="46.1549" lon="6.66921">
        <ele>1198</ele>
        <time>2000-01-01T13:11:56.000Z</time>
      </trkpt>
      <trkpt lat="46.15514" lon="6.6692">
        <ele>1194</ele>
        <time>2000-01-01T13:12:06.000Z</time>
      </trkpt>
      <trkpt lat="46.15538" lon="6.66912">
        <ele>1191</ele>
        <time>2000-01-01T13:12:16.000Z</time>
      </trkpt>
      <trkpt lat="46.15564" lon="6.66904">
        <ele>1186</ele>
        <time>2000-01-01T13:12:26.000Z</time>
      </trkpt>
      <trkpt lat="46.15589" lon="6.66901">
        <ele>1184</ele>
        <time>2000-01-01T13:12:36.000Z</time>
      </trkpt>
      <trkpt lat="46.15613" lon="6.66897">
        <ele>1180</ele>
        <time>2000-01-01T13:12:46.000Z</time>
      </trkpt>
      <trkpt lat="46.1564" lon="6.66893">
        <ele>1177</ele>
        <time>2000-01-01T13:12:56.000Z</time>
      </trkpt>
      <trkpt lat="46.15654" lon="6.66865">
        <ele>1172</ele>
        <time>2000-01-01T13:13:06.000Z</time>
      </trkpt>
      <trkpt lat="46.15671" lon="6.66833">
        <ele>1167</ele>
        <time>2000-01-01T13:13:16.000Z</time>
      </trkpt>
      <trkpt lat="46.15671" lon="6.66833">
        <ele>1167</ele>
        <time>2000-01-01T00:07:06.000Z</time>
      </trkpt>
      <trkpt lat="46.15671" lon="6.66833">
        <ele>1167</ele>
        <time>2000-01-01T00:07:06.000Z</time>
      </trkpt>
      <trkpt lat="46.15657" lon="6.66863">
        <ele>1172</ele>
        <time>2000-01-01T00:07:16.000Z</time>
      </trkpt>
      <trkpt lat="46.1564" lon="6.669">
        <ele>1177</ele>
        <time>2000-01-01T00:07:26.000Z</time>
      </trkpt>
      <trkpt lat="46.15625" lon="6.66935">
        <ele>1181</ele>
        <time>2000-01-01T00:07:36.000Z</time>
      </trkpt>
      <trkpt lat="46.156" lon="6.66991">
        <ele>1199</ele>
        <time>2000-01-01T00:07:46.000Z</time>
      </trkpt>
      <trkpt lat="46.15586" lon="6.67021">
        <ele>1208</ele>
        <time>2000-01-01T00:07:56.000Z</time>
      </trkpt>
      <trkpt lat="46.15569" lon="6.67058">
        <ele>1216</ele>
        <time>2000-01-01T00:08:06.000Z</time>
      </trkpt>
      <trkpt lat="46.15554" lon="6.67093">
        <ele>1222</ele>
        <time>2000-01-01T00:08:16.000Z</time>
      </trkpt>
      <trkpt lat="46.15529" lon="6.67149">
        <ele>1227</ele>
        <time>2000-01-01T00:08:26.000Z</time>
      </trkpt>
      <trkpt lat="46.15515" lon="6.67179">
        <ele>1229</ele>
        <time>2000-01-01T00:08:36.000Z</time>
      </trkpt>
      <trkpt lat="46.15498" lon="6.67216">
        <ele>1232</ele>
        <time>2000-01-01T00:08:46.000Z</time>
      </trkpt>
      <trkpt lat="46.15483" lon="6.67251">
        <ele>1234</ele>
        <time>2000-01-01T00:08:56.000Z</time>
      </trkpt>
      <trkpt lat="46.15458" lon="6.67307">
        <ele>1237</ele>
        <time>2000-01-01T00:09:06.000Z</time>
      </trkpt>
      <trkpt lat="46.15444" lon="6.67337">
        <ele>1238</ele>
        <time>2000-01-01T00:09:16.000Z</time>
      </trkpt>
      <trkpt lat="46.15427" lon="6.67374">
        <ele>1241</ele>
        <time>2000-01-01T00:09:26.000Z</time>
      </trkpt>
      <trkpt lat="46.15412" lon="6.67409">
        <ele>1243</ele>
        <time>2000-01-01T00:09:36.000Z</time>
      </trkpt>
      <trkpt lat="46.15387" lon="6.67465">
        <ele>1249</ele>
        <time>2000-01-01T00:09:46.000Z</time>
      </trkpt>
      <trkpt lat="46.15371" lon="6.67499">
        <ele>1252</ele>
        <time>2000-01-01T00:09:56.000Z</time>
      </trkpt>
      <trkpt lat="46.15355" lon="6.67535">
        <ele>1256</ele>
        <time>2000-01-01T00:10:06.000Z</time>
      </trkpt>
      <trkpt lat="46.15342" lon="6.67565">
        <ele>1260</ele>
        <time>2000-01-01T00:10:16.000Z</time>
      </trkpt>
      <trkpt lat="46.15327" lon="6.67598">
        <ele>1265</ele>
        <time>2000-01-01T00:10:26.000Z</time>
      </trkpt>
      <trkpt lat="46.15307" lon="6.67641">
        <ele>1273</ele>
        <time>2000-01-01T00:10:36.000Z</time>
      </trkpt>
      <trkpt lat="46.15287" lon="6.67685">
        <ele>1280</ele>
        <time>2000-01-01T00:10:46.000Z</time>
      </trkpt>
      <trkpt lat="46.15266" lon="6.67728">
        <ele>1288</ele>
        <time>2000-01-01T00:10:56.000Z</time>
      </trkpt>
      <trkpt lat="46.15253" lon="6.67758">
        <ele>1294</ele>
        <time>2000-01-01T00:11:06.000Z</time>
      </trkpt>
      <trkpt lat="46.15237" lon="6.67792">
        <ele>1302</ele>
        <time>2000-01-01T00:11:16.000Z</time>
      </trkpt>
      <trkpt lat="46.15213" lon="6.67847">
        <ele>1315</ele>
        <time>2000-01-01T00:11:26.000Z</time>
      </trkpt>
      <trkpt lat="46.15192" lon="6.67891">
        <ele>1326</ele>
        <time>2000-01-01T00:11:36.000Z</time>
      </trkpt>
      <trkpt lat="46.15172" lon="6.67936">
        <ele>1339</ele>
        <time>2000-01-01T00:11:46.000Z</time>
      </trkpt>
      <trkpt lat="46.15151" lon="6.6798">
        <ele>1356</ele>
        <time>2000-01-01T00:11:56.000Z</time>
      </trkpt>
      <trkpt lat="46.15136" lon="6.68014">
        <ele>1366</ele>
        <time>2000-01-01T00:12:06.000Z</time>
      </trkpt>
      <trkpt lat="46.15113" lon="6.68063">
        <ele>1379</ele>
        <time>2000-01-01T00:12:16.000Z</time>
      </trkpt>
      <trkpt lat="46.15096" lon="6.681">
        <ele>1391</ele>
        <time>2000-01-01T00:12:26.000Z</time>
      </trkpt>
      <trkpt lat="46.15082" lon="6.68132">
        <ele>1401</ele>
        <time>2000-01-01T00:12:36.000Z</time>
      </trkpt>
      <trkpt lat="46.15064" lon="6.68172">
        <ele>1417</ele>
        <time>2000-01-01T00:12:46.000Z</time>
      </trkpt>
      <trkpt lat="46.15043" lon="6.68216">
        <ele>1430</ele>
        <time>2000-01-01T00:12:56.000Z</time>
      </trkpt>
      <trkpt lat="46.15023" lon="6.68261">
        <ele>1442</ele>
        <time>2000-01-01T00:13:06.000Z</time>
      </trkpt>
      <trkpt lat="46.15002" lon="6.68306">
        <ele>1449</ele>
        <time>2000-01-01T00:13:16.000Z</time>
      </trkpt>
      <trkpt lat="46.14987" lon="6.68339">
        <ele>1454</ele>
        <time>2000-01-01T00:13:26.000Z</time>
      </trkpt>
      <trkpt lat="46.14964" lon="6.68389">
        <ele>1461</ele>
        <time>2000-01-01T00:13:36.000Z</time>
      </trkpt>
      <trkpt lat="46.1494" lon="6.68443">
        <ele>1470</ele>
        <time>2000-01-01T00:13:46.000Z</time>
      </trkpt>
      <trkpt lat="46.14919" lon="6.68489">
        <ele>1477</ele>
        <time>2000-01-01T00:13:56.000Z</time>
      </trkpt>
      <trkpt lat="46.14897" lon="6.68536">
        <ele>1483</ele>
        <time>2000-01-01T00:14:06.000Z</time>
      </trkpt>
      <trkpt lat="46.14876" lon="6.68582">
        <ele>1489</ele>
        <time>2000-01-01T00:14:16.000Z</time>
      </trkpt>
      <trkpt lat="46.14854" lon="6.68629">
        <ele>1497</ele>
        <time>2000-01-01T00:14:26.000Z</time>
      </trkpt>
      <trkpt lat="46.14839" lon="6.68663">
        <ele>1508</ele>
        <time>2000-01-01T00:14:36.000Z</time>
      </trkpt>
      <trkpt lat="46.14815" lon="6.68714">
        <ele>1518</ele>
        <time>2000-01-01T00:14:46.000Z</time>
      </trkpt>
      <trkpt lat="46.14791" lon="6.68768">
        <ele>1528</ele>
        <time>2000-01-01T00:14:56.000Z</time>
      </trkpt>
      <trkpt lat="46.14774" lon="6.68805">
        <ele>1536</ele>
        <time>2000-01-01T00:15:06.000Z</time>
      </trkpt>
      <trkpt lat="46.14759" lon="6.68837">
        <ele>1542</ele>
        <time>2000-01-01T00:15:16.000Z</time>
      </trkpt>
      <trkpt lat="46.14741" lon="6.68877">
        <ele>1548</ele>
        <time>2000-01-01T00:15:26.000Z</time>
      </trkpt>
      <trkpt lat="46.14722" lon="6.68919">
        <ele>1552</ele>
        <time>2000-01-01T00:15:36.000Z</time>
      </trkpt>
      <trkpt lat="46.14702" lon="6.6896">
        <ele>1554</ele>
        <time>2000-01-01T00:15:46.000Z</time>
      </trkpt>
      <trkpt lat="46.14687" lon="6.68993">
        <ele>1555</ele>
        <time>2000-01-01T00:15:56.000Z</time>
      </trkpt>
      <trkpt lat="46.14666" lon="6.69039">
        <ele>1560</ele>
        <time>2000-01-01T00:16:06.000Z</time>
      </trkpt>
      <trkpt lat="46.14642" lon="6.69094">
        <ele>1569</ele>
        <time>2000-01-01T00:16:16.000Z</time>
      </trkpt>
      <trkpt lat="46.14623" lon="6.69136">
        <ele>1574</ele>
        <time>2000-01-01T00:16:26.000Z</time>
      </trkpt>
      <trkpt lat="46.14604" lon="6.69177">
        <ele>1580</ele>
        <time>2000-01-01T00:16:36.000Z</time>
      </trkpt>
      <trkpt lat="46.14588" lon="6.6921">
        <ele>1587</ele>
        <time>2000-01-01T00:16:46.000Z</time>
      </trkpt>
      <trkpt lat="46.14567" lon="6.69257">
        <ele>1595</ele>
        <time>2000-01-01T00:16:56.000Z</time>
      </trkpt>
      <trkpt lat="46.14546" lon="6.69301">
        <ele>1604</ele>
        <time>2000-01-01T00:17:06.000Z</time>
      </trkpt>
      <trkpt lat="46.14526" lon="6.69346">
        <ele>1609</ele>
        <time>2000-01-01T00:17:16.000Z</time>
      </trkpt>
      <trkpt lat="46.14511" lon="6.69378">
        <ele>1611</ele>
        <time>2000-01-01T00:17:26.000Z</time>
      </trkpt>
      <trkpt lat="46.1449" lon="6.69423">
        <ele>1610</ele>
        <time>2000-01-01T00:17:36.000Z</time>
      </trkpt>
      <trkpt lat="46.14491" lon="6.69423">
        <ele>1612.2</ele>
        <time>2000-01-01T00:17:46.000Z</time>
      </trkpt>
      <trkpt lat="46.14482" lon="6.69412">
        <ele>1612.4</ele>
        <time>2000-01-01T00:17:56.000Z</time>
      </trkpt>
      <trkpt lat="46.14485" lon="6.69392">
        <ele>1609</ele>
        <time>2000-01-01T00:18:06.000Z</time>
      </trkpt>
      <trkpt lat="46.14491" lon="6.69382">
        <ele>1610.1</ele>
        <time>2000-01-01T00:18:16.000Z</time>
      </trkpt>
      <trkpt lat="46.145" lon="6.69374">
        <ele>1609</ele>
        <time>2000-01-01T00:18:26.000Z</time>
      </trkpt>
      <trkpt lat="46.14501" lon="6.69366">
        <ele>1609.3</ele>
        <time>2000-01-01T00:18:36.000Z</time>
      </trkpt>
      <trkpt lat="46.14497" lon="6.69362">
        <ele>1608.9</ele>
        <time>2000-01-01T00:18:46.000Z</time>
      </trkpt>
      <trkpt lat="46.14491" lon="6.69365">
        <ele>1608.8</ele>
        <time>2000-01-01T00:18:56.000Z</time>
      </trkpt>
      <trkpt lat="46.14481" lon="6.69373">
        <ele>1607</ele>
        <time>2000-01-01T00:19:06.000Z</time>
      </trkpt>
      <trkpt lat="46.14472" lon="6.69376">
        <ele>1608.8</ele>
        <time>2000-01-01T00:19:16.000Z</time>
      </trkpt>
      <trkpt lat="46.14462" lon="6.69377">
        <ele>1605</ele>
        <time>2000-01-01T00:19:26.000Z</time>
      </trkpt>
      <trkpt lat="46.1446" lon="6.69373">
        <ele>1607.9</ele>
        <time>2000-01-01T00:19:36.000Z</time>
      </trkpt>
      <trkpt lat="46.14466" lon="6.69362">
        <ele>1607.1</ele>
        <time>2000-01-01T00:19:46.000Z</time>
      </trkpt>
      <trkpt lat="46.14475" lon="6.69338">
        <ele>1603</ele>
        <time>2000-01-01T00:19:56.000Z</time>
      </trkpt>
      <trkpt lat="46.14472" lon="6.69327">
        <ele>1603.6</ele>
        <time>2000-01-01T00:20:06.000Z</time>
      </trkpt>
      <trkpt lat="46.14474" lon="6.69317">
        <ele>1602.1</ele>
        <time>2000-01-01T00:20:16.000Z</time>
      </trkpt>
      <trkpt lat="46.14496" lon="6.69285">
        <ele>1596</ele>
        <time>2000-01-01T00:20:26.000Z</time>
      </trkpt>
      <trkpt lat="46.14511" lon="6.69255">
        <ele>1595</ele>
        <time>2000-01-01T00:20:36.000Z</time>
      </trkpt>
      <trkpt lat="46.14528" lon="6.69227">
        <ele>1594</ele>
        <time>2000-01-01T00:20:46.000Z</time>
      </trkpt>
      <trkpt lat="46.14525" lon="6.6921">
        <ele>1589.2</ele>
        <time>2000-01-01T00:20:56.000Z</time>
      </trkpt>
      <trkpt lat="46.14519" lon="6.69202">
        <ele>1590</ele>
        <time>2000-01-01T00:21:06.000Z</time>
      </trkpt>
      <trkpt lat="46.14485" lon="6.69235">
        <ele>1587</ele>
        <time>2000-01-01T00:21:16.000Z</time>
      </trkpt>
      <trkpt lat="46.14479" lon="6.69237">
        <ele>1589.6</ele>
        <time>2000-01-01T00:21:26.000Z</time>
      </trkpt>
      <trkpt lat="46.14471" lon="6.69246">
        <ele>1589.9</ele>
        <time>2000-01-01T00:21:36.000Z</time>
      </trkpt>
      <trkpt lat="46.14465" lon="6.69244">
        <ele>1585</ele>
        <time>2000-01-01T00:21:46.000Z</time>
      </trkpt>
      <trkpt lat="46.14468" lon="6.69232">
        <ele>1587.4</ele>
        <time>2000-01-01T00:21:56.000Z</time>
      </trkpt>
      <trkpt lat="46.14475" lon="6.69221">
        <ele>1584</ele>
        <time>2000-01-01T00:22:06.000Z</time>
      </trkpt>
      <trkpt lat="46.14475" lon="6.69215">
        <ele>1585.9</ele>
        <time>2000-01-01T00:22:16.000Z</time>
      </trkpt>
      <trkpt lat="46.14472" lon="6.69214">
        <ele>1585.3</ele>
        <time>2000-01-01T00:22:26.000Z</time>
      </trkpt>
      <trkpt lat="46.14462" lon="6.69227">
        <ele>1582</ele>
        <time>2000-01-01T00:22:36.000Z</time>
      </trkpt>
      <trkpt lat="46.14458" lon="6.69231">
        <ele>1585.9</ele>
        <time>2000-01-01T00:22:46.000Z</time>
      </trkpt>
      <trkpt lat="46.14456" lon="6.69228">
        <ele>1585.1</ele>
        <time>2000-01-01T00:22:56.000Z</time>
      </trkpt>
      <trkpt lat="46.14456" lon="6.6922">
        <ele>1583.8</ele>
        <time>2000-01-01T00:23:06.000Z</time>
      </trkpt>
      <trkpt lat="46.14463" lon="6.69203">
        <ele>1579</ele>
        <time>2000-01-01T00:23:16.000Z</time>
      </trkpt>
      <trkpt lat="46.14465" lon="6.692">
        <ele>1582</ele>
        <time>2000-01-01T00:23:26.000Z</time>
      </trkpt>
      <trkpt lat="46.14467" lon="6.69195">
        <ele>1581.6</ele>
        <time>2000-01-01T00:23:36.000Z</time>
      </trkpt>
      <trkpt lat="46.14465" lon="6.69191">
        <ele>1580.6</ele>
        <time>2000-01-01T00:23:46.000Z</time>
      </trkpt>
      <trkpt lat="46.14457" lon="6.69188">
        <ele>1578.7</ele>
        <time>2000-01-01T00:23:56.000Z</time>
      </trkpt>
      <trkpt lat="46.14437" lon="6.69196">
        <ele>1572</ele>
        <time>2000-01-01T00:24:06.000Z</time>
      </trkpt>
      <trkpt lat="46.14427" lon="6.69196">
        <ele>1574.8</ele>
        <time>2000-01-01T00:24:16.000Z</time>
      </trkpt>
      <trkpt lat="46.14419" lon="6.69198">
        <ele>1573.8</ele>
        <time>2000-01-01T00:24:26.000Z</time>
      </trkpt>
      <trkpt lat="46.14417" lon="6.69195">
        <ele>1569</ele>
        <time>2000-01-01T00:24:36.000Z</time>
      </trkpt>
      <trkpt lat="46.14419" lon="6.69183">
        <ele>1570.8</ele>
        <time>2000-01-01T00:24:46.000Z</time>
      </trkpt>
      <trkpt lat="46.14432" lon="6.69166">
        <ele>1566</ele>
        <time>2000-01-01T00:24:56.000Z</time>
      </trkpt>
      <trkpt lat="46.14434" lon="6.69157">
        <ele>1568.9</ele>
        <time>2000-01-01T00:25:06.000Z</time>
      </trkpt>
      <trkpt lat="46.14432" lon="6.6915">
        <ele>1567.3</ele>
        <time>2000-01-01T00:25:16.000Z</time>
      </trkpt>
      <trkpt lat="46.1443" lon="6.69148">
        <ele>1566.5</ele>
        <time>2000-01-01T00:25:26.000Z</time>
      </trkpt>
      <trkpt lat="46.14426" lon="6.69149">
        <ele>1565.9</ele>
        <time>2000-01-01T00:25:36.000Z</time>
      </trkpt>
      <trkpt lat="46.14415" lon="6.69162">
        <ele>1562</ele>
        <time>2000-01-01T00:25:46.000Z</time>
      </trkpt>
      <trkpt lat="46.14394" lon="6.69176">
        <ele>1561</ele>
        <time>2000-01-01T00:25:56.000Z</time>
      </trkpt>
      <trkpt lat="46.14377" lon="6.69176">
        <ele>1564.3</ele>
        <time>2000-01-01T00:26:06.000Z</time>
      </trkpt>
      <trkpt lat="46.14357" lon="6.6917">
        <ele>1556</ele>
        <time>2000-01-01T00:26:16.000Z</time>
      </trkpt>
      <trkpt lat="46.14351" lon="6.69163">
        <ele>1558.6</ele>
        <time>2000-01-01T00:26:26.000Z</time>
      </trkpt>
      <trkpt lat="46.14348" lon="6.69153">
        <ele>1557</ele>
        <time>2000-01-01T00:26:36.000Z</time>
      </trkpt>
      <trkpt lat="46.14349" lon="6.69137">
        <ele>1550</ele>
        <time>2000-01-01T00:26:46.000Z</time>
      </trkpt>
      <trkpt lat="46.14352" lon="6.69131">
        <ele>1554.6</ele>
        <time>2000-01-01T00:26:56.000Z</time>
      </trkpt>
      <trkpt lat="46.14352" lon="6.69126">
        <ele>1553.9</ele>
        <time>2000-01-01T00:27:06.000Z</time>
      </trkpt>
      <trkpt lat="46.1435" lon="6.69124">
        <ele>1553.5</ele>
        <time>2000-01-01T00:27:16.000Z</time>
      </trkpt>
      <trkpt lat="46.14345" lon="6.69126">
        <ele>1553.2</ele>
        <time>2000-01-01T00:27:26.000Z</time>
      </trkpt>
      <trkpt lat="46.14341" lon="6.6913">
        <ele>1549</ele>
        <time>2000-01-01T00:27:36.000Z</time>
      </trkpt>
      <trkpt lat="46.14339" lon="6.69128">
        <ele>1552.9</ele>
        <time>2000-01-01T00:27:46.000Z</time>
      </trkpt>
      <trkpt lat="46.14338" lon="6.69126">
        <ele>1552.6</ele>
        <time>2000-01-01T00:27:56.000Z</time>
      </trkpt>
      <trkpt lat="46.14339" lon="6.6912">
        <ele>1551.9</ele>
        <time>2000-01-01T00:28:06.000Z</time>
      </trkpt>
      <trkpt lat="46.14346" lon="6.69111">
        <ele>1551.4</ele>
        <time>2000-01-01T00:28:16.000Z</time>
      </trkpt>
      <trkpt lat="46.14353" lon="6.69092">
        <ele>1546</ele>
        <time>2000-01-01T00:28:26.000Z</time>
      </trkpt>
      <trkpt lat="46.14354" lon="6.69082">
        <ele>1548.3</ele>
        <time>2000-01-01T00:28:36.000Z</time>
      </trkpt>
      <trkpt lat="46.14352" lon="6.69072">
        <ele>1546.9</ele>
        <time>2000-01-01T00:28:46.000Z</time>
      </trkpt>
      <trkpt lat="46.14354" lon="6.69063">
        <ele>1542</ele>
        <time>2000-01-01T00:28:56.000Z</time>
      </trkpt>
      <trkpt lat="46.1436" lon="6.69056">
        <ele>1545.4</ele>
        <time>2000-01-01T00:29:06.000Z</time>
      </trkpt>
      <trkpt lat="46.14362" lon="6.6905">
        <ele>1544.8</ele>
        <time>2000-01-01T00:29:16.000Z</time>
      </trkpt>
      <trkpt lat="46.14364" lon="6.69031">
        <ele>1540</ele>
        <time>2000-01-01T00:29:26.000Z</time>
      </trkpt>
      <trkpt lat="46.14369" lon="6.69013">
        <ele>1540.4</ele>
        <time>2000-01-01T00:29:36.000Z</time>
      </trkpt>
      <trkpt lat="46.14375" lon="6.68999">
        <ele>1538</ele>
        <time>2000-01-01T00:29:46.000Z</time>
      </trkpt>
      <trkpt lat="46.14373" lon="6.68991">
        <ele>1537.9</ele>
        <time>2000-01-01T00:29:56.000Z</time>
      </trkpt>
      <trkpt lat="46.1437" lon="6.68989">
        <ele>1537.5</ele>
        <time>2000-01-01T00:30:06.000Z</time>
      </trkpt>
      <trkpt lat="46.14367" lon="6.68992">
        <ele>1537.7</ele>
        <time>2000-01-01T00:30:16.000Z</time>
      </trkpt>
      <trkpt lat="46.14363" lon="6.69002">
        <ele>1537</ele>
        <time>2000-01-01T00:30:26.000Z</time>
      </trkpt>
      <trkpt lat="46.14359" lon="6.69003">
        <ele>1538.6</ele>
        <time>2000-01-01T00:30:36.000Z</time>
      </trkpt>
      <trkpt lat="46.14357" lon="6.68999">
        <ele>1538</ele>
        <time>2000-01-01T00:30:46.000Z</time>
      </trkpt>
      <trkpt lat="46.14359" lon="6.68983">
        <ele>1533</ele>
        <time>2000-01-01T00:30:56.000Z</time>
      </trkpt>
      <trkpt lat="46.1436" lon="6.68969">
        <ele>1534.7</ele>
        <time>2000-01-01T00:31:06.000Z</time>
      </trkpt>
      <trkpt lat="46.14362" lon="6.68958">
        <ele>1533.5</ele>
        <time>2000-01-01T00:31:16.000Z</time>
      </trkpt>
      <trkpt lat="46.14369" lon="6.6893">
        <ele>1523</ele>
        <time>2000-01-01T00:31:26.000Z</time>
      </trkpt>
      <trkpt lat="46.14379" lon="6.68914">
        <ele>1530.1</ele>
        <time>2000-01-01T00:31:36.000Z</time>
      </trkpt>
      <trkpt lat="46.14382" lon="6.68899">
        <ele>1522</ele>
        <time>2000-01-01T00:31:46.000Z</time>
      </trkpt>
      <trkpt lat="46.14381" lon="6.68891">
        <ele>1527.6</ele>
        <time>2000-01-01T00:31:56.000Z</time>
      </trkpt>
      <trkpt lat="46.14387" lon="6.68878">
        <ele>1526.8</ele>
        <time>2000-01-01T00:32:06.000Z</time>
      </trkpt>
      <trkpt lat="46.14393" lon="6.68869">
        <ele>1520</ele>
        <time>2000-01-01T00:32:16.000Z</time>
      </trkpt>
      <trkpt lat="46.14397" lon="6.6886">
        <ele>1526</ele>
        <time>2000-01-01T00:32:26.000Z</time>
      </trkpt>
      <trkpt lat="46.14398" lon="6.68846">
        <ele>1524.7</ele>
        <time>2000-01-01T00:32:36.000Z</time>
      </trkpt>
      <trkpt lat="46.14393" lon="6.68841">
        <ele>1517</ele>
        <time>2000-01-01T00:32:46.000Z</time>
      </trkpt>
      <trkpt lat="46.1438" lon="6.68841">
        <ele>1521.6</ele>
        <time>2000-01-01T00:32:56.000Z</time>
      </trkpt>
      <trkpt lat="46.14367" lon="6.68854">
        <ele>1513</ele>
        <time>2000-01-01T00:33:06.000Z</time>
      </trkpt>
      <trkpt lat="46.14359" lon="6.68868">
        <ele>1522.2</ele>
        <time>2000-01-01T00:33:16.000Z</time>
      </trkpt>
      <trkpt lat="46.14357" lon="6.68869">
        <ele>1522.1</ele>
        <time>2000-01-01T00:33:26.000Z</time>
      </trkpt>
      <trkpt lat="46.14354" lon="6.68868">
        <ele>1521.6</ele>
        <time>2000-01-01T00:33:36.000Z</time>
      </trkpt>
      <trkpt lat="46.14355" lon="6.68865">
        <ele>1512</ele>
        <time>2000-01-01T00:33:46.000Z</time>
      </trkpt>
      <trkpt lat="46.1436" lon="6.68858">
        <ele>1521</ele>
        <time>2000-01-01T00:33:56.000Z</time>
      </trkpt>
      <trkpt lat="46.14361" lon="6.68852">
        <ele>1520.4</ele>
        <time>2000-01-01T00:34:06.000Z</time>
      </trkpt>
      <trkpt lat="46.14361" lon="6.68816">
        <ele>1506</ele>
        <time>2000-01-01T00:34:16.000Z</time>
      </trkpt>
      <trkpt lat="46.14363" lon="6.68815">
        <ele>1515</ele>
        <time>2000-01-01T00:34:26.000Z</time>
      </trkpt>
      <trkpt lat="46.14364" lon="6.68812">
        <ele>1514.6</ele>
        <time>2000-01-01T00:34:36.000Z</time>
      </trkpt>
      <trkpt lat="46.14361" lon="6.68809">
        <ele>1513.6</ele>
        <time>2000-01-01T00:34:46.000Z</time>
      </trkpt>
      <trkpt lat="46.14351" lon="6.68819">
        <ele>1505</ele>
        <time>2000-01-01T00:34:56.000Z</time>
      </trkpt>
      <trkpt lat="46.14349" lon="6.6882">
        <ele>1513.8</ele>
        <time>2000-01-01T00:35:06.000Z</time>
      </trkpt>
      <trkpt lat="46.14346" lon="6.68814">
        <ele>1512.2</ele>
        <time>2000-01-01T00:35:16.000Z</time>
      </trkpt>
      <trkpt lat="46.1435" lon="6.68803">
        <ele>1510.8</ele>
        <time>2000-01-01T00:35:26.000Z</time>
      </trkpt>
      <trkpt lat="46.14349" lon="6.68797">
        <ele>1500</ele>
        <time>2000-01-01T00:35:36.000Z</time>
      </trkpt>
      <trkpt lat="46.14346" lon="6.68794">
        <ele>1508.5</ele>
        <time>2000-01-01T00:35:46.000Z</time>
      </trkpt>
      <trkpt lat="46.14339" lon="6.68801">
        <ele>1508.7</ele>
        <time>2000-01-01T00:35:56.000Z</time>
      </trkpt>
      <trkpt lat="46.14335" lon="6.688">
        <ele>1507.9</ele>
        <time>2000-01-01T00:36:06.000Z</time>
      </trkpt>
      <trkpt lat="46.14334" lon="6.68793">
        <ele>1499</ele>
        <time>2000-01-01T00:36:16.000Z</time>
      </trkpt>
      <trkpt lat="46.14334" lon="6.68784">
        <ele>1504.6</ele>
        <time>2000-01-01T00:36:26.000Z</time>
      </trkpt>
      <trkpt lat="46.14329" lon="6.68782">
        <ele>1503.8</ele>
        <time>2000-01-01T00:36:36.000Z</time>
      </trkpt>
      <trkpt lat="46.14325" lon="6.68785">
        <ele>1504</ele>
        <time>2000-01-01T00:36:46.000Z</time>
      </trkpt>
      <trkpt lat="46.14321" lon="6.68785">
        <ele>1497</ele>
        <time>2000-01-01T00:36:56.000Z</time>
      </trkpt>
      <trkpt lat="46.14319" lon="6.68779">
        <ele>1502.3</ele>
        <time>2000-01-01T00:37:06.000Z</time>
      </trkpt>
      <trkpt lat="46.14322" lon="6.68766">
        <ele>1500.2</ele>
        <time>2000-01-01T00:37:16.000Z</time>
      </trkpt>
      <trkpt lat="46.14306" lon="6.68755">
        <ele>1493</ele>
        <time>2000-01-01T00:37:26.000Z</time>
      </trkpt>
      <trkpt lat="46.14294" lon="6.68748">
        <ele>1495.4</ele>
        <time>2000-01-01T00:37:36.000Z</time>
      </trkpt>
      <trkpt lat="46.14277" lon="6.68746">
        <ele>1492</ele>
        <time>2000-01-01T00:37:46.000Z</time>
      </trkpt>
      <trkpt lat="46.14253" lon="6.68742">
        <ele>1491</ele>
        <time>2000-01-01T00:37:56.000Z</time>
      </trkpt>
      <trkpt lat="46.14226" lon="6.68737">
        <ele>1490</ele>
        <time>2000-01-01T00:38:06.000Z</time>
      </trkpt>
      <trkpt lat="46.14218" lon="6.68734">
        <ele>1489.3</ele>
        <time>2000-01-01T00:38:16.000Z</time>
      </trkpt>
      <trkpt lat="46.14215" lon="6.68731">
        <ele>1488.8</ele>
        <time>2000-01-01T00:38:26.000Z</time>
      </trkpt>
      <trkpt lat="46.14219" lon="6.68715">
        <ele>1488</ele>
        <time>2000-01-01T00:38:36.000Z</time>
      </trkpt>
      <trkpt lat="46.14225" lon="6.68702">
        <ele>1487.2</ele>
        <time>2000-01-01T00:38:46.000Z</time>
      </trkpt>
      <trkpt lat="46.14236" lon="6.68689">
        <ele>1486</ele>
        <time>2000-01-01T00:38:56.000Z</time>
      </trkpt>
      <trkpt lat="46.14236" lon="6.68687">
        <ele>1487.1</ele>
        <time>2000-01-01T00:39:06.000Z</time>
      </trkpt>
      <trkpt lat="46.14231" lon="6.68683">
        <ele>1486.3</ele>
        <time>2000-01-01T00:39:16.000Z</time>
      </trkpt>
      <trkpt lat="46.14229" lon="6.68683">
        <ele>1486.1</ele>
        <time>2000-01-01T00:39:26.000Z</time>
      </trkpt>
      <trkpt lat="46.14228" lon="6.68677">
        <ele>1485.5</ele>
        <time>2000-01-01T00:39:36.000Z</time>
      </trkpt>
      <trkpt lat="46.14231" lon="6.68672">
        <ele>1485.4</ele>
        <time>2000-01-01T00:39:46.000Z</time>
      </trkpt>
      <trkpt lat="46.14233" lon="6.68667">
        <ele>1482</ele>
        <time>2000-01-01T00:39:56.000Z</time>
      </trkpt>
      <trkpt lat="46.14231" lon="6.68664">
        <ele>1484.6</ele>
        <time>2000-01-01T00:40:06.000Z</time>
      </trkpt>
      <trkpt lat="46.14219" lon="6.68666">
        <ele>1483.6</ele>
        <time>2000-01-01T00:40:16.000Z</time>
      </trkpt>
      <trkpt lat="46.14216" lon="6.68664">
        <ele>1483</ele>
        <time>2000-01-01T00:40:26.000Z</time>
      </trkpt>
      <trkpt lat="46.1421" lon="6.68643">
        <ele>1473</ele>
        <time>2000-01-01T00:40:36.000Z</time>
      </trkpt>
      <trkpt lat="46.14208" lon="6.68623">
        <ele>1477.2</ele>
        <time>2000-01-01T00:40:46.000Z</time>
      </trkpt>
      <trkpt lat="46.14213" lon="6.6861">
        <ele>1472</ele>
        <time>2000-01-01T00:40:56.000Z</time>
      </trkpt>
      <trkpt lat="46.14216" lon="6.686">
        <ele>1475.5</ele>
        <time>2000-01-01T00:41:06.000Z</time>
      </trkpt>
      <trkpt lat="46.14215" lon="6.68593">
        <ele>1474.5</ele>
        <time>2000-01-01T00:41:16.000Z</time>
      </trkpt>
      <trkpt lat="46.14216" lon="6.68586">
        <ele>1473.8</ele>
        <time>2000-01-01T00:41:26.000Z</time>
      </trkpt>
      <trkpt lat="46.14227" lon="6.68583">
        <ele>1472</ele>
        <time>2000-01-01T00:41:36.000Z</time>
      </trkpt>
      <trkpt lat="46.14232" lon="6.68579">
        <ele>1474.8</ele>
        <time>2000-01-01T00:41:46.000Z</time>
      </trkpt>
      <trkpt lat="46.14234" lon="6.68564">
        <ele>1472.3</ele>
        <time>2000-01-01T00:41:56.000Z</time>
      </trkpt>
      <trkpt lat="46.1424" lon="6.68558">
        <ele>1470</ele>
        <time>2000-01-01T00:42:06.000Z</time>
      </trkpt>
      <trkpt lat="46.14248" lon="6.68558">
        <ele>1473.2</ele>
        <time>2000-01-01T00:42:16.000Z</time>
      </trkpt>
      <trkpt lat="46.14252" lon="6.68554">
        <ele>1472.8</ele>
        <time>2000-01-01T00:42:26.000Z</time>
      </trkpt>
      <trkpt lat="46.14255" lon="6.68543">
        <ele>1470</ele>
        <time>2000-01-01T00:42:36.000Z</time>
      </trkpt>
      <trkpt lat="46.14268" lon="6.68531">
        <ele>1469.6</ele>
        <time>2000-01-01T00:42:46.000Z</time>
      </trkpt>
      <trkpt lat="46.1428" lon="6.68524">
        <ele>1468</ele>
        <time>2000-01-01T00:42:56.000Z</time>
      </trkpt>
      <trkpt lat="46.14281" lon="6.6852">
        <ele>1468.7</ele>
        <time>2000-01-01T00:43:06.000Z</time>
      </trkpt>
      <trkpt lat="46.14279" lon="6.68516">
        <ele>1467.9</ele>
        <time>2000-01-01T00:43:16.000Z</time>
      </trkpt>
      <trkpt lat="46.14272" lon="6.6852">
        <ele>1468.1</ele>
        <time>2000-01-01T00:43:26.000Z</time>
      </trkpt>
      <trkpt lat="46.14268" lon="6.68521">
        <ele>1468</ele>
        <time>2000-01-01T00:43:36.000Z</time>
      </trkpt>
      <trkpt lat="46.14266" lon="6.6852">
        <ele>1466</ele>
        <time>2000-01-01T00:43:46.000Z</time>
      </trkpt>
      <trkpt lat="46.14265" lon="6.68517">
        <ele>1467.1</ele>
        <time>2000-01-01T00:43:56.000Z</time>
      </trkpt>
      <trkpt lat="46.14266" lon="6.68511">
        <ele>1466.2</ele>
        <time>2000-01-01T00:44:06.000Z</time>
      </trkpt>
      <trkpt lat="46.14277" lon="6.68506">
        <ele>1466.2</ele>
        <time>2000-01-01T00:44:16.000Z</time>
      </trkpt>
      <trkpt lat="46.14278" lon="6.68501">
        <ele>1463</ele>
        <time>2000-01-01T00:44:26.000Z</time>
      </trkpt>
      <trkpt lat="46.14275" lon="6.68498">
        <ele>1464.7</ele>
        <time>2000-01-01T00:44:36.000Z</time>
      </trkpt>
      <trkpt lat="46.14265" lon="6.68497">
        <ele>1463.6</ele>
        <time>2000-01-01T00:44:46.000Z</time>
      </trkpt>
      <trkpt lat="46.14258" lon="6.68502">
        <ele>1463</ele>
        <time>2000-01-01T00:44:56.000Z</time>
      </trkpt>
      <trkpt lat="46.14251" lon="6.68517">
        <ele>1466.1</ele>
        <time>2000-01-01T00:45:06.000Z</time>
      </trkpt>
      <trkpt lat="46.14235" lon="6.68526">
        <ele>1463</ele>
        <time>2000-01-01T00:45:16.000Z</time>
      </trkpt>
      <trkpt lat="46.14232" lon="6.68527">
        <ele>1465</ele>
        <time>2000-01-01T00:45:26.000Z</time>
      </trkpt>
      <trkpt lat="46.14231" lon="6.68523">
        <ele>1464.1</ele>
        <time>2000-01-01T00:45:36.000Z</time>
      </trkpt>
      <trkpt lat="46.14234" lon="6.68517">
        <ele>1463.5</ele>
        <time>2000-01-01T00:45:46.000Z</time>
      </trkpt>
      <trkpt lat="46.14242" lon="6.68508">
        <ele>1459</ele>
        <time>2000-01-01T00:45:56.000Z</time>
      </trkpt>
      <trkpt lat="46.14244" lon="6.68503">
        <ele>1462.5</ele>
        <time>2000-01-01T00:46:06.000Z</time>
      </trkpt>
      <trkpt lat="46.14242" lon="6.68493">
        <ele>1460.1</ele>
        <time>2000-01-01T00:46:16.000Z</time>
      </trkpt>
      <trkpt lat="46.14237" lon="6.68497">
        <ele>1460.2</ele>
        <time>2000-01-01T00:46:26.000Z</time>
      </trkpt>
      <trkpt lat="46.1423" lon="6.68507">
        <ele>1455</ele>
        <time>2000-01-01T00:46:36.000Z</time>
      </trkpt>
      <trkpt lat="46.14224" lon="6.68507">
        <ele>1460</ele>
        <time>2000-01-01T00:46:46.000Z</time>
      </trkpt>
      <trkpt lat="46.14222" lon="6.68504">
        <ele>1459.1</ele>
        <time>2000-01-01T00:46:56.000Z</time>
      </trkpt>
      <trkpt lat="46.14222" lon="6.68498">
        <ele>1457.9</ele>
        <time>2000-01-01T00:47:06.000Z</time>
      </trkpt>
      <trkpt lat="46.14233" lon="6.68485">
        <ele>1453</ele>
        <time>2000-01-01T00:47:16.000Z</time>
      </trkpt>
      <trkpt lat="46.14234" lon="6.68472">
        <ele>1454.4</ele>
        <time>2000-01-01T00:47:26.000Z</time>
      </trkpt>
      <trkpt lat="46.14235" lon="6.68467">
        <ele>1453.5</ele>
        <time>2000-01-01T00:47:36.000Z</time>
      </trkpt>
      <trkpt lat="46.14243" lon="6.68452">
        <ele>1448</ele>
        <time>2000-01-01T00:47:46.000Z</time>
      </trkpt>
      <trkpt lat="46.14253" lon="6.68448">
        <ele>1451.4</ele>
        <time>2000-01-01T00:47:56.000Z</time>
      </trkpt>
      <trkpt lat="46.1426" lon="6.68449">
        <ele>1452.4</ele>
        <time>2000-01-01T00:48:06.000Z</time>
      </trkpt>
      <trkpt lat="46.14264" lon="6.68444">
        <ele>1445</ele>
        <time>2000-01-01T00:48:16.000Z</time>
      </trkpt>
      <trkpt lat="46.14261" lon="6.68434">
        <ele>1449.1</ele>
        <time>2000-01-01T00:48:26.000Z</time>
      </trkpt>
      <trkpt lat="46.14228" lon="6.68412">
        <ele>1437</ele>
        <time>2000-01-01T00:48:36.000Z</time>
      </trkpt>
      <trkpt lat="46.14226" lon="6.68408">
        <ele>1440</ele>
        <time>2000-01-01T00:48:46.000Z</time>
      </trkpt>
      <trkpt lat="46.14252" lon="6.68372">
        <ele>1433</ele>
        <time>2000-01-01T00:48:56.000Z</time>
      </trkpt>
      <trkpt lat="46.14257" lon="6.6837">
        <ele>1433.7</ele>
        <time>2000-01-01T00:49:06.000Z</time>
      </trkpt>
      <trkpt lat="46.14262" lon="6.68383">
        <ele>1437.4</ele>
        <time>2000-01-01T00:49:16.000Z</time>
      </trkpt>
      <trkpt lat="46.14264" lon="6.68385">
        <ele>1438.2</ele>
        <time>2000-01-01T00:49:26.000Z</time>
      </trkpt>
      <trkpt lat="46.14266" lon="6.68382">
        <ele>1429</ele>
        <time>2000-01-01T00:49:36.000Z</time>
      </trkpt>
      <trkpt lat="46.14265" lon="6.68362">
        <ele>1433</ele>
        <time>2000-01-01T00:49:46.000Z</time>
      </trkpt>
      <trkpt lat="46.14257" lon="6.68352">
        <ele>1422</ele>
        <time>2000-01-01T00:49:56.000Z</time>
      </trkpt>
      <trkpt lat="46.14242" lon="6.68349">
        <ele>1427.2</ele>
        <time>2000-01-01T00:50:06.000Z</time>
      </trkpt>
      <trkpt lat="46.14222" lon="6.6835">
        <ele>1419</ele>
        <time>2000-01-01T00:50:16.000Z</time>
      </trkpt>
      <trkpt lat="46.14189" lon="6.68347">
        <ele>1416</ele>
        <time>2000-01-01T00:50:26.000Z</time>
      </trkpt>
      <trkpt lat="46.14168" lon="6.68344">
        <ele>1415</ele>
        <time>2000-01-01T00:50:36.000Z</time>
      </trkpt>
      <trkpt lat="46.14144" lon="6.68325">
        <ele>1406</ele>
        <time>2000-01-01T00:50:46.000Z</time>
      </trkpt>
      <trkpt lat="46.14115" lon="6.68319">
        <ele>1399</ele>
        <time>2000-01-01T00:50:56.000Z</time>
      </trkpt>
      <trkpt lat="46.14089" lon="6.6833">
        <ele>1400</ele>
        <time>2000-01-01T00:51:06.000Z</time>
      </trkpt>
      <trkpt lat="46.14072" lon="6.68347">
        <ele>1399</ele>
        <time>2000-01-01T00:51:16.000Z</time>
      </trkpt>
      <trkpt lat="46.14064" lon="6.68354">
        <ele>1413.2</ele>
        <time>2000-01-01T00:51:26.000Z</time>
      </trkpt>
      <trkpt lat="46.14054" lon="6.6835">
        <ele>1398</ele>
        <time>2000-01-01T00:51:36.000Z</time>
      </trkpt>
      <trkpt lat="46.14029" lon="6.68298">
        <ele>1382</ele>
        <time>2000-01-01T00:51:46.000Z</time>
      </trkpt>
      <trkpt lat="46.14019" lon="6.68292">
        <ele>1393.4</ele>
        <time>2000-01-01T00:51:56.000Z</time>
      </trkpt>
      <trkpt lat="46.13995" lon="6.68297">
        <ele>1380</ele>
        <time>2000-01-01T00:52:06.000Z</time>
      </trkpt>
      <trkpt lat="46.13972" lon="6.68303">
        <ele>1379</ele>
        <time>2000-01-01T00:52:16.000Z</time>
      </trkpt>
      <trkpt lat="46.13947" lon="6.68326">
        <ele>1380</ele>
        <time>2000-01-01T00:52:26.000Z</time>
      </trkpt>
      <trkpt lat="46.13938" lon="6.68333">
        <ele>1390.8</ele>
        <time>2000-01-01T00:52:36.000Z</time>
      </trkpt>
      <trkpt lat="46.13906" lon="6.68322">
        <ele>1382</ele>
        <time>2000-01-01T00:52:46.000Z</time>
      </trkpt>
      <trkpt lat="46.13881" lon="6.68326">
        <ele>1383</ele>
        <time>2000-01-01T00:52:56.000Z</time>
      </trkpt>
      <trkpt lat="46.13853" lon="6.68324">
        <ele>1386</ele>
        <time>2000-01-01T00:53:06.000Z</time>
      </trkpt>
      <trkpt lat="46.13823" lon="6.68299">
        <ele>1386</ele>
        <time>2000-01-01T00:53:16.000Z</time>
      </trkpt>
      <trkpt lat="46.13805" lon="6.68295">
        <ele>1386.9</ele>
        <time>2000-01-01T00:53:26.000Z</time>
      </trkpt>
      <trkpt lat="46.13792" lon="6.68304">
        <ele>1386</ele>
        <time>2000-01-01T00:53:36.000Z</time>
      </trkpt>
      <trkpt lat="46.13805" lon="6.68342">
        <ele>1391</ele>
        <time>2000-01-01T00:53:46.000Z</time>
      </trkpt>
      <trkpt lat="46.13812" lon="6.6838">
        <ele>1396</ele>
        <time>2000-01-01T00:53:56.000Z</time>
      </trkpt>
      <trkpt lat="46.13823" lon="6.68436">
        <ele>1404</ele>
        <time>2000-01-01T00:54:06.000Z</time>
      </trkpt>
      <trkpt lat="46.13829" lon="6.6847">
        <ele>1408</ele>
        <time>2000-01-01T00:54:16.000Z</time>
      </trkpt>
      <trkpt lat="46.13837" lon="6.68509">
        <ele>1416</ele>
        <time>2000-01-01T00:54:26.000Z</time>
      </trkpt>
      <trkpt lat="46.13848" lon="6.68568">
        <ele>1429</ele>
        <time>2000-01-01T00:54:36.000Z</time>
      </trkpt>
      <trkpt lat="46.13858" lon="6.68625">
        <ele>1443</ele>
        <time>2000-01-01T00:54:46.000Z</time>
      </trkpt>
      <trkpt lat="46.13869" lon="6.68682">
        <ele>1456</ele>
        <time>2000-01-01T00:54:56.000Z</time>
      </trkpt>
      <trkpt lat="46.13879" lon="6.6874">
        <ele>1465</ele>
        <time>2000-01-01T00:55:06.000Z</time>
      </trkpt>
      <trkpt lat="46.1389" lon="6.68797">
        <ele>1472</ele>
        <time>2000-01-01T00:55:16.000Z</time>
      </trkpt>
      <trkpt lat="46.139" lon="6.68854">
        <ele>1482</ele>
        <time>2000-01-01T00:55:26.000Z</time>
      </trkpt>
      <trkpt lat="46.1391" lon="6.68909">
        <ele>1494</ele>
        <time>2000-01-01T00:55:36.000Z</time>
      </trkpt>
      <trkpt lat="46.13921" lon="6.68964">
        <ele>1508</ele>
        <time>2000-01-01T00:55:46.000Z</time>
      </trkpt>
      <trkpt lat="46.13931" lon="6.69019">
        <ele>1521</ele>
        <time>2000-01-01T00:55:56.000Z</time>
      </trkpt>
      <trkpt lat="46.13941" lon="6.69074">
        <ele>1537</ele>
        <time>2000-01-01T00:56:06.000Z</time>
      </trkpt>
      <trkpt lat="46.13952" lon="6.69129">
        <ele>1547</ele>
        <time>2000-01-01T00:56:16.000Z</time>
      </trkpt>
      <trkpt lat="46.13959" lon="6.69165">
        <ele>1553</ele>
        <time>2000-01-01T00:56:26.000Z</time>
      </trkpt>
      <trkpt lat="46.13967" lon="6.69209">
        <ele>1563</ele>
        <time>2000-01-01T00:56:36.000Z</time>
      </trkpt>
      <trkpt lat="46.13976" lon="6.69256">
        <ele>1581</ele>
        <time>2000-01-01T00:56:46.000Z</time>
      </trkpt>
      <trkpt lat="46.13985" lon="6.69304">
        <ele>1600</ele>
        <time>2000-01-01T00:56:56.000Z</time>
      </trkpt>
      <trkpt lat="46.13992" lon="6.69339">
        <ele>1612</ele>
        <time>2000-01-01T00:57:06.000Z</time>
      </trkpt>
      <trkpt lat="46.14" lon="6.69383">
        <ele>1624</ele>
        <time>2000-01-01T00:57:16.000Z</time>
      </trkpt>
      <trkpt lat="46.14012" lon="6.69441">
        <ele>1645</ele>
        <time>2000-01-01T00:57:26.000Z</time>
      </trkpt>
      <trkpt lat="46.14018" lon="6.69477">
        <ele>1652</ele>
        <time>2000-01-01T00:57:36.000Z</time>
      </trkpt>
      <trkpt lat="46.14027" lon="6.69521">
        <ele>1654</ele>
        <time>2000-01-01T00:57:46.000Z</time>
      </trkpt>
      <trkpt lat="46.14031" lon="6.69536">
        <ele>1650.5</ele>
        <time>2000-01-01T00:57:56.000Z</time>
      </trkpt>
      <trkpt lat="46.14068" lon="6.69536">
        <ele>1653</ele>
        <time>2000-01-01T00:58:06.000Z</time>
      </trkpt>
      <trkpt lat="46.14091" lon="6.69531">
        <ele>1653</ele>
        <time>2000-01-01T00:58:16.000Z</time>
      </trkpt>
      <trkpt lat="46.14118" lon="6.69537">
        <ele>1650</ele>
        <time>2000-01-01T00:58:26.000Z</time>
      </trkpt>
      <trkpt lat="46.14155" lon="6.69545">
        <ele>1641</ele>
        <time>2000-01-01T00:58:36.000Z</time>
      </trkpt>
      <trkpt lat="46.14188" lon="6.69545">
        <ele>1635</ele>
        <time>2000-01-01T00:58:46.000Z</time>
      </trkpt>
      <trkpt lat="46.1423" lon="6.69534">
        <ele>1631</ele>
        <time>2000-01-01T00:58:56.000Z</time>
      </trkpt>
      <trkpt lat="46.14255" lon="6.69529">
        <ele>1627</ele>
        <time>2000-01-01T00:59:06.000Z</time>
      </trkpt>
      <trkpt lat="46.14281" lon="6.69524">
        <ele>1625</ele>
        <time>2000-01-01T00:59:16.000Z</time>
      </trkpt>
      <trkpt lat="46.14315" lon="6.69518">
        <ele>1621</ele>
        <time>2000-01-01T00:59:26.000Z</time>
      </trkpt>
      <trkpt lat="46.14342" lon="6.69513">
        <ele>1620</ele>
        <time>2000-01-01T00:59:36.000Z</time>
      </trkpt>
      <trkpt lat="46.14382" lon="6.69507">
        <ele>1618</ele>
        <time>2000-01-01T00:59:46.000Z</time>
      </trkpt>
      <trkpt lat="46.14405" lon="6.69502">
        <ele>1618</ele>
        <time>2000-01-01T00:59:56.000Z</time>
      </trkpt>
      <trkpt lat="46.1443" lon="6.69498">
        <ele>1618</ele>
        <time>2000-01-01T01:00:06.000Z</time>
      </trkpt>
      <trkpt lat="46.14454" lon="6.69482">
        <ele>1616</ele>
        <time>2000-01-01T01:00:16.000Z</time>
      </trkpt>
      <trkpt lat="46.14484" lon="6.69461">
        <ele>1614</ele>
        <time>2000-01-01T01:00:26.000Z</time>
      </trkpt>
      <trkpt lat="46.14523" lon="6.69439">
        <ele>1610</ele>
        <time>2000-01-01T01:00:36.000Z</time>
      </trkpt>
      <trkpt lat="46.14538" lon="6.69434">
        <ele>1607.6</ele>
        <time>2000-01-01T01:00:46.000Z</time>
      </trkpt>
      <trkpt lat="46.14559" lon="6.69424">
        <ele>1610</ele>
        <time>2000-01-01T01:00:56.000Z</time>
      </trkpt>
      <trkpt lat="46.14572" lon="6.69419">
        <ele>1606.6</ele>
        <time>2000-01-01T01:01:06.000Z</time>
      </trkpt>
      <trkpt lat="46.14581" lon="6.69413">
        <ele>1608</ele>
        <time>2000-01-01T01:01:16.000Z</time>
      </trkpt>
      <trkpt lat="46.14588" lon="6.69405">
        <ele>1605.2</ele>
        <time>2000-01-01T01:01:26.000Z</time>
      </trkpt>
      <trkpt lat="46.14602" lon="6.69381">
        <ele>1606</ele>
        <time>2000-01-01T01:01:36.000Z</time>
      </trkpt>
      <trkpt lat="46.14606" lon="6.69371">
        <ele>1603.4</ele>
        <time>2000-01-01T01:01:46.000Z</time>
      </trkpt>
      <trkpt lat="46.14614" lon="6.69363">
        <ele>1602.8</ele>
        <time>2000-01-01T01:01:56.000Z</time>
      </trkpt>
      <trkpt lat="46.14631" lon="6.6934">
        <ele>1601</ele>
        <time>2000-01-01T01:02:06.000Z</time>
      </trkpt>
      <trkpt lat="46.14637" lon="6.69331">
        <ele>1602.5</ele>
        <time>2000-01-01T01:02:16.000Z</time>
      </trkpt>
      <trkpt lat="46.14643" lon="6.69324">
        <ele>1601.3</ele>
        <time>2000-01-01T01:02:26.000Z</time>
      </trkpt>
      <trkpt lat="46.14647" lon="6.69321">
        <ele>1600</ele>
        <time>2000-01-01T01:02:36.000Z</time>
      </trkpt>
      <trkpt lat="46.14654" lon="6.69319">
        <ele>1600.1</ele>
        <time>2000-01-01T01:02:46.000Z</time>
      </trkpt>
      <trkpt lat="46.14697" lon="6.69312">
        <ele>1600</ele>
        <time>2000-01-01T01:02:56.000Z</time>
      </trkpt>
      <trkpt lat="46.14711" lon="6.69314">
        <ele>1594.7</ele>
        <time>2000-01-01T01:03:06.000Z</time>
      </trkpt>
      <trkpt lat="46.14729" lon="6.69314">
        <ele>1599</ele>
        <time>2000-01-01T01:03:16.000Z</time>
      </trkpt>
      <trkpt lat="46.14746" lon="6.69315">
        <ele>1591.5</ele>
        <time>2000-01-01T01:03:26.000Z</time>
      </trkpt>
      <trkpt lat="46.14758" lon="6.69314">
        <ele>1598</ele>
        <time>2000-01-01T01:03:36.000Z</time>
      </trkpt>
      <trkpt lat="46.14767" lon="6.69311">
        <ele>1588</ele>
        <time>2000-01-01T01:03:46.000Z</time>
      </trkpt>
      <trkpt lat="46.14781" lon="6.69304">
        <ele>1593</ele>
        <time>2000-01-01T01:03:56.000Z</time>
      </trkpt>
      <trkpt lat="46.14787" lon="6.69302">
        <ele>1584.4</ele>
        <time>2000-01-01T01:04:06.000Z</time>
      </trkpt>
      <trkpt lat="46.14796" lon="6.69301">
        <ele>1582.9</ele>
        <time>2000-01-01T01:04:16.000Z</time>
      </trkpt>
      <trkpt lat="46.14803" lon="6.69299">
        <ele>1591</ele>
        <time>2000-01-01T01:04:26.000Z</time>
      </trkpt>
      <trkpt lat="46.1481" lon="6.69296">
        <ele>1580.6</ele>
        <time>2000-01-01T01:04:36.000Z</time>
      </trkpt>
      <trkpt lat="46.14817" lon="6.69295">
        <ele>1579.5</ele>
        <time>2000-01-01T01:04:46.000Z</time>
      </trkpt>
      <trkpt lat="46.14826" lon="6.69296">
        <ele>1589</ele>
        <time>2000-01-01T01:04:56.000Z</time>
      </trkpt>
      <trkpt lat="46.14832" lon="6.69298">
        <ele>1577.1</ele>
        <time>2000-01-01T01:05:06.000Z</time>
      </trkpt>
      <trkpt lat="46.14839" lon="6.69304">
        <ele>1575.9</ele>
        <time>2000-01-01T01:05:16.000Z</time>
      </trkpt>
      <trkpt lat="46.1485" lon="6.69312">
        <ele>1585</ele>
        <time>2000-01-01T01:05:26.000Z</time>
      </trkpt>
      <trkpt lat="46.14859" lon="6.69321">
        <ele>1573</ele>
        <time>2000-01-01T01:05:36.000Z</time>
      </trkpt>
      <trkpt lat="46.14902" lon="6.69358">
        <ele>1571</ele>
        <time>2000-01-01T01:05:46.000Z</time>
      </trkpt>
      <trkpt lat="46.14911" lon="6.69368">
        <ele>1564.8</ele>
        <time>2000-01-01T01:05:56.000Z</time>
      </trkpt>
      <trkpt lat="46.14928" lon="6.69383">
        <ele>1564</ele>
        <time>2000-01-01T01:06:06.000Z</time>
      </trkpt>
      <trkpt lat="46.14939" lon="6.69394">
        <ele>1560.7</ele>
        <time>2000-01-01T01:06:16.000Z</time>
      </trkpt>
      <trkpt lat="46.14946" lon="6.69399">
        <ele>1560</ele>
        <time>2000-01-01T01:06:26.000Z</time>
      </trkpt>
      <trkpt lat="46.14957" lon="6.69411">
        <ele>1559.4</ele>
        <time>2000-01-01T01:06:36.000Z</time>
      </trkpt>
      <trkpt lat="46.14973" lon="6.69421">
        <ele>1554</ele>
        <time>2000-01-01T01:06:46.000Z</time>
      </trkpt>
      <trkpt lat="46.14984" lon="6.69431">
        <ele>1555.9</ele>
        <time>2000-01-01T01:06:56.000Z</time>
      </trkpt>
      <trkpt lat="46.15004" lon="6.69444">
        <ele>1550</ele>
        <time>2000-01-01T01:07:06.000Z</time>
      </trkpt>
      <trkpt lat="46.15022" lon="6.69452">
        <ele>1548</ele>
        <time>2000-01-01T01:07:16.000Z</time>
      </trkpt>
      <trkpt lat="46.15045" lon="6.69459">
        <ele>1548</ele>
        <time>2000-01-01T01:07:26.000Z</time>
      </trkpt>
      <trkpt lat="46.1506" lon="6.69459">
        <ele>1549.4</ele>
        <time>2000-01-01T01:07:36.000Z</time>
      </trkpt>
      <trkpt lat="46.15078" lon="6.69458">
        <ele>1546</ele>
        <time>2000-01-01T01:07:46.000Z</time>
      </trkpt>
      <trkpt lat="46.15087" lon="6.69457">
        <ele>1548.2</ele>
        <time>2000-01-01T01:07:56.000Z</time>
      </trkpt>
      <trkpt lat="46.15095" lon="6.69455">
        <ele>1547.4</ele>
        <time>2000-01-01T01:08:06.000Z</time>
      </trkpt>
      <trkpt lat="46.15102" lon="6.69451">
        <ele>1544</ele>
        <time>2000-01-01T01:08:16.000Z</time>
      </trkpt>
      <trkpt lat="46.15111" lon="6.69443">
        <ele>1546.2</ele>
        <time>2000-01-01T01:08:26.000Z</time>
      </trkpt>
      <trkpt lat="46.15116" lon="6.69436">
        <ele>1545.9</ele>
        <time>2000-01-01T01:08:36.000Z</time>
      </trkpt>
      <trkpt lat="46.15118" lon="6.69435">
        <ele>1542</ele>
        <time>2000-01-01T01:08:46.000Z</time>
      </trkpt>
      <trkpt lat="46.15121" lon="6.69429">
        <ele>1545.6</ele>
        <time>2000-01-01T01:08:56.000Z</time>
      </trkpt>
      <trkpt lat="46.15136" lon="6.69412">
        <ele>1537</ele>
        <time>2000-01-01T01:09:06.000Z</time>
      </trkpt>
      <trkpt lat="46.15152" lon="6.69399">
        <ele>1540</ele>
        <time>2000-01-01T01:09:16.000Z</time>
      </trkpt>
      <trkpt lat="46.15185" lon="6.69385">
        <ele>1527</ele>
        <time>2000-01-01T01:09:26.000Z</time>
      </trkpt>
      <trkpt lat="46.15202" lon="6.69376">
        <ele>1529.4</ele>
        <time>2000-01-01T01:09:36.000Z</time>
      </trkpt>
      <trkpt lat="46.15208" lon="6.69375">
        <ele>1522</ele>
        <time>2000-01-01T01:09:46.000Z</time>
      </trkpt>
      <trkpt lat="46.15217" lon="6.69377">
        <ele>1527.1</ele>
        <time>2000-01-01T01:09:56.000Z</time>
      </trkpt>
      <trkpt lat="46.15224" lon="6.6938">
        <ele>1526.2</ele>
        <time>2000-01-01T01:10:06.000Z</time>
      </trkpt>
      <trkpt lat="46.15232" lon="6.69386">
        <ele>1520</ele>
        <time>2000-01-01T01:10:16.000Z</time>
      </trkpt>
      <trkpt lat="46.15244" lon="6.69402">
        <ele>1524.9</ele>
        <time>2000-01-01T01:10:26.000Z</time>
      </trkpt>
      <trkpt lat="46.15257" lon="6.69412">
        <ele>1520</ele>
        <time>2000-01-01T01:10:36.000Z</time>
      </trkpt>
      <trkpt lat="46.15265" lon="6.69413">
        <ele>1523.7</ele>
        <time>2000-01-01T01:10:46.000Z</time>
      </trkpt>
      <trkpt lat="46.15291" lon="6.69414">
        <ele>1514</ele>
        <time>2000-01-01T01:10:56.000Z</time>
      </trkpt>
      <trkpt lat="46.153" lon="6.69421">
        <ele>1520.7</ele>
        <time>2000-01-01T01:11:06.000Z</time>
      </trkpt>
      <trkpt lat="46.1531" lon="6.69424">
        <ele>1511</ele>
        <time>2000-01-01T01:11:16.000Z</time>
      </trkpt>
      <trkpt lat="46.15311" lon="6.69439">
        <ele>1516.9</ele>
        <time>2000-01-01T01:11:26.000Z</time>
      </trkpt>
      <trkpt lat="46.15329" lon="6.69453">
        <ele>1505</ele>
        <time>2000-01-01T01:11:36.000Z</time>
      </trkpt>
      <trkpt lat="46.15331" lon="6.69462">
        <ele>1510.6</ele>
        <time>2000-01-01T01:11:46.000Z</time>
      </trkpt>
      <trkpt lat="46.15336" lon="6.6947">
        <ele>1509.1</ele>
        <time>2000-01-01T01:11:56.000Z</time>
      </trkpt>
      <trkpt lat="46.15353" lon="6.69486">
        <ele>1501</ele>
        <time>2000-01-01T01:12:06.000Z</time>
      </trkpt>
      <trkpt lat="46.15358" lon="6.69488">
        <ele>1509</ele>
        <time>2000-01-01T01:12:16.000Z</time>
      </trkpt>
      <trkpt lat="46.15369" lon="6.69498">
        <ele>1508.9</ele>
        <time>2000-01-01T01:12:26.000Z</time>
      </trkpt>
      <trkpt lat="46.15401" lon="6.69512">
        <ele>1500</ele>
        <time>2000-01-01T01:12:36.000Z</time>
      </trkpt>
      <trkpt lat="46.15396" lon="6.69516">
        <ele>1506.7</ele>
        <time>2000-01-01T01:12:46.000Z</time>
      </trkpt>
      <trkpt lat="46.1539" lon="6.69518">
        <ele>1505.1</ele>
        <time>2000-01-01T01:12:56.000Z</time>
      </trkpt>
      <trkpt lat="46.15387" lon="6.69527">
        <ele>1493</ele>
        <time>2000-01-01T01:13:06.000Z</time>
      </trkpt>
      <trkpt lat="46.15393" lon="6.69528">
        <ele>1501.7</ele>
        <time>2000-01-01T01:13:16.000Z</time>
      </trkpt>
      <trkpt lat="46.15399" lon="6.69536">
        <ele>1499.4</ele>
        <time>2000-01-01T01:13:26.000Z</time>
      </trkpt>
      <trkpt lat="46.15389" lon="6.69547">
        <ele>1486</ele>
        <time>2000-01-01T01:13:36.000Z</time>
      </trkpt>
      <trkpt lat="46.15374" lon="6.69547">
        <ele>1492.8</ele>
        <time>2000-01-01T01:13:46.000Z</time>
      </trkpt>
      <trkpt lat="46.15369" lon="6.69541">
        <ele>1485</ele>
        <time>2000-01-01T01:13:56.000Z</time>
      </trkpt>
      <trkpt lat="46.15363" lon="6.69536">
        <ele>1495.4</ele>
        <time>2000-01-01T01:14:06.000Z</time>
      </trkpt>
      <trkpt lat="46.15349" lon="6.69537">
        <ele>1485</ele>
        <time>2000-01-01T01:14:16.000Z</time>
      </trkpt>
      <trkpt lat="46.15325" lon="6.69526">
        <ele>1485</ele>
        <time>2000-01-01T01:14:26.000Z</time>
      </trkpt>
      <trkpt lat="46.15321" lon="6.69532">
        <ele>1495</ele>
        <time>2000-01-01T01:14:36.000Z</time>
      </trkpt>
      <trkpt lat="46.15328" lon="6.69539">
        <ele>1492</ele>
        <time>2000-01-01T01:14:46.000Z</time>
      </trkpt>
      <trkpt lat="46.15331" lon="6.69546">
        <ele>1480</ele>
        <time>2000-01-01T01:14:56.000Z</time>
      </trkpt>
      <trkpt lat="46.1534" lon="6.6956">
        <ele>1485.5</ele>
        <time>2000-01-01T01:15:06.000Z</time>
      </trkpt>
      <trkpt lat="46.15346" lon="6.69565">
        <ele>1477</ele>
        <time>2000-01-01T01:15:16.000Z</time>
      </trkpt>
      <trkpt lat="46.15349" lon="6.69575">
        <ele>1481.4</ele>
        <time>2000-01-01T01:15:26.000Z</time>
      </trkpt>
      <trkpt lat="46.1534" lon="6.69573">
        <ele>1481.5</ele>
        <time>2000-01-01T01:15:36.000Z</time>
      </trkpt>
      <trkpt lat="46.1534" lon="6.69584">
        <ele>1469</ele>
        <time>2000-01-01T01:15:46.000Z</time>
      </trkpt>
      <trkpt lat="46.15348" lon="6.69587">
        <ele>1477.5</ele>
        <time>2000-01-01T01:15:56.000Z</time>
      </trkpt>
      <trkpt lat="46.15353" lon="6.696">
        <ele>1473.1</ele>
        <time>2000-01-01T01:16:06.000Z</time>
      </trkpt>
      <trkpt lat="46.15353" lon="6.69613">
        <ele>1459</ele>
        <time>2000-01-01T01:16:16.000Z</time>
      </trkpt>
      <trkpt lat="46.15345" lon="6.69625">
        <ele>1464.7</ele>
        <time>2000-01-01T01:16:26.000Z</time>
      </trkpt>
      <trkpt lat="46.15335" lon="6.69621">
        <ele>1455</ele>
        <time>2000-01-01T01:16:36.000Z</time>
      </trkpt>
      <trkpt lat="46.15329" lon="6.69626">
        <ele>1465.2</ele>
        <time>2000-01-01T01:16:46.000Z</time>
      </trkpt>
      <trkpt lat="46.15324" lon="6.69622">
        <ele>1467.1</ele>
        <time>2000-01-01T01:16:56.000Z</time>
      </trkpt>
      <trkpt lat="46.15317" lon="6.69622">
        <ele>1454</ele>
        <time>2000-01-01T01:17:06.000Z</time>
      </trkpt>
      <trkpt lat="46.15326" lon="6.69638">
        <ele>1462</ele>
        <time>2000-01-01T01:17:16.000Z</time>
      </trkpt>
      <trkpt lat="46.15326" lon="6.69656">
        <ele>1450</ele>
        <time>2000-01-01T01:17:26.000Z</time>
      </trkpt>
      <trkpt lat="46.15332" lon="6.69652">
        <ele>1456.8</ele>
        <time>2000-01-01T01:17:36.000Z</time>
      </trkpt>
      <trkpt lat="46.15346" lon="6.69646">
        <ele>1447</ele>
        <time>2000-01-01T01:17:46.000Z</time>
      </trkpt>
      <trkpt lat="46.15364" lon="6.69647">
        <ele>1456</ele>
        <time>2000-01-01T01:17:56.000Z</time>
      </trkpt>
      <trkpt lat="46.15374" lon="6.69644">
        <ele>1445</ele>
        <time>2000-01-01T01:18:06.000Z</time>
      </trkpt>
      <trkpt lat="46.15391" lon="6.69651">
        <ele>1452.4</ele>
        <time>2000-01-01T01:18:16.000Z</time>
      </trkpt>
      <trkpt lat="46.15415" lon="6.69647">
        <ele>1439</ele>
        <time>2000-01-01T01:18:26.000Z</time>
      </trkpt>
      <trkpt lat="46.15422" lon="6.69641">
        <ele>1453.5</ele>
        <time>2000-01-01T01:18:36.000Z</time>
      </trkpt>
      <trkpt lat="46.15429" lon="6.69639">
        <ele>1452.4</ele>
        <time>2000-01-01T01:18:46.000Z</time>
      </trkpt>
      <trkpt lat="46.15436" lon="6.69646">
        <ele>1434</ele>
        <time>2000-01-01T01:18:56.000Z</time>
      </trkpt>
      <trkpt lat="46.15421" lon="6.69655">
        <ele>1447.2</ele>
        <time>2000-01-01T01:19:06.000Z</time>
      </trkpt>
      <trkpt lat="46.15402" lon="6.69684">
        <ele>1423</ele>
        <time>2000-01-01T01:19:16.000Z</time>
      </trkpt>
      <trkpt lat="46.15386" lon="6.69694">
        <ele>1435.5</ele>
        <time>2000-01-01T01:19:26.000Z</time>
      </trkpt>
      <trkpt lat="46.1538" lon="6.69696">
        <ele>1423</ele>
        <time>2000-01-01T01:19:36.000Z</time>
      </trkpt>
      <trkpt lat="46.15364" lon="6.69706">
        <ele>1434.1</ele>
        <time>2000-01-01T01:19:46.000Z</time>
      </trkpt>
      <trkpt lat="46.15349" lon="6.69714">
        <ele>1421</ele>
        <time>2000-01-01T01:19:56.000Z</time>
      </trkpt>
      <trkpt lat="46.15329" lon="6.69716">
        <ele>1420</ele>
        <time>2000-01-01T01:20:06.000Z</time>
      </trkpt>
      <trkpt lat="46.15322" lon="6.69713">
        <ele>1438.6</ele>
        <time>2000-01-01T01:20:16.000Z</time>
      </trkpt>
      <trkpt lat="46.15316" lon="6.69716">
        <ele>1438.8</ele>
        <time>2000-01-01T01:20:26.000Z</time>
      </trkpt>
      <trkpt lat="46.15315" lon="6.69727">
        <ele>1416</ele>
        <time>2000-01-01T01:20:36.000Z</time>
      </trkpt>
      <trkpt lat="46.15322" lon="6.6974">
        <ele>1429.6</ele>
        <time>2000-01-01T01:20:46.000Z</time>
      </trkpt>
      <trkpt lat="46.15328" lon="6.69741">
        <ele>1428.1</ele>
        <time>2000-01-01T01:20:56.000Z</time>
      </trkpt>
      <trkpt lat="46.15335" lon="6.69739">
        <ele>1411</ele>
        <time>2000-01-01T01:21:06.000Z</time>
      </trkpt>
      <trkpt lat="46.15349" lon="6.69742">
        <ele>1423.6</ele>
        <time>2000-01-01T01:21:16.000Z</time>
      </trkpt>
      <trkpt lat="46.15354" lon="6.69749">
        <ele>1407</ele>
        <time>2000-01-01T01:21:26.000Z</time>
      </trkpt>
      <trkpt lat="46.15366" lon="6.6975">
        <ele>1417.3</ele>
        <time>2000-01-01T01:21:36.000Z</time>
      </trkpt>
      <trkpt lat="46.15364" lon="6.69761">
        <ele>1397</ele>
        <time>2000-01-01T01:21:46.000Z</time>
      </trkpt>
      <trkpt lat="46.1537" lon="6.69769">
        <ele>1409.3</ele>
        <time>2000-01-01T01:21:56.000Z</time>
      </trkpt>
      <trkpt lat="46.15384" lon="6.6977">
        <ele>1394</ele>
        <time>2000-01-01T01:22:06.000Z</time>
      </trkpt>
      <trkpt lat="46.1537" lon="6.69783">
        <ele>1404</ele>
        <time>2000-01-01T01:22:16.000Z</time>
      </trkpt>
      <trkpt lat="46.15358" lon="6.69796">
        <ele>1390</ele>
        <time>2000-01-01T01:22:26.000Z</time>
      </trkpt>
      <trkpt lat="46.15367" lon="6.69797">
        <ele>1399.5</ele>
        <time>2000-01-01T01:22:36.000Z</time>
      </trkpt>
      <trkpt lat="46.15374" lon="6.69795">
        <ele>1398.5</ele>
        <time>2000-01-01T01:22:46.000Z</time>
      </trkpt>
      <trkpt lat="46.15378" lon="6.69789">
        <ele>1387</ele>
        <time>2000-01-01T01:22:56.000Z</time>
      </trkpt>
      <trkpt lat="46.15385" lon="6.69785">
        <ele>1399.6</ele>
        <time>2000-01-01T01:23:06.000Z</time>
      </trkpt>
      <trkpt lat="46.15388" lon="6.69789">
        <ele>1397.3</ele>
        <time>2000-01-01T01:23:16.000Z</time>
      </trkpt>
      <trkpt lat="46.15385" lon="6.69799">
        <ele>1383</ele>
        <time>2000-01-01T01:23:26.000Z</time>
      </trkpt>
      <trkpt lat="46.1538" lon="6.69806">
        <ele>1392.7</ele>
        <time>2000-01-01T01:23:36.000Z</time>
      </trkpt>
      <trkpt lat="46.1537" lon="6.69806">
        <ele>1395.3</ele>
        <time>2000-01-01T01:23:46.000Z</time>
      </trkpt>
      <trkpt lat="46.15358" lon="6.69816">
        <ele>1378</ele>
        <time>2000-01-01T01:23:56.000Z</time>
      </trkpt>
      <trkpt lat="46.15364" lon="6.69819">
        <ele>1392.1</ele>
        <time>2000-01-01T01:24:06.000Z</time>
      </trkpt>
      <trkpt lat="46.15381" lon="6.69812">
        <ele>1376</ele>
        <time>2000-01-01T01:24:16.000Z</time>
      </trkpt>
      <trkpt lat="46.15389" lon="6.69815">
        <ele>1386.6</ele>
        <time>2000-01-01T01:24:26.000Z</time>
      </trkpt>
      <trkpt lat="46.15411" lon="6.69809">
        <ele>1374</ele>
        <time>2000-01-01T01:24:36.000Z</time>
      </trkpt>
      <trkpt lat="46.15409" lon="6.69818">
        <ele>1379.8</ele>
        <time>2000-01-01T01:24:46.000Z</time>
      </trkpt>
      <trkpt lat="46.15396" lon="6.69841">
        <ele>1371</ele>
        <time>2000-01-01T01:24:56.000Z</time>
      </trkpt>
      <trkpt lat="46.15387" lon="6.69846">
        <ele>1375.3</ele>
        <time>2000-01-01T01:25:06.000Z</time>
      </trkpt>
      <trkpt lat="46.15375" lon="6.69845">
        <ele>1369</ele>
        <time>2000-01-01T01:25:16.000Z</time>
      </trkpt>
      <trkpt lat="46.15361" lon="6.69858">
        <ele>1378.6</ele>
        <time>2000-01-01T01:25:26.000Z</time>
      </trkpt>
      <trkpt lat="46.15363" lon="6.69869">
        <ele>1365</ele>
        <time>2000-01-01T01:25:36.000Z</time>
      </trkpt>
      <trkpt lat="46.15376" lon="6.69869">
        <ele>1370.2</ele>
        <time>2000-01-01T01:25:46.000Z</time>
      </trkpt>
      <trkpt lat="46.1538" lon="6.6987">
        <ele>1368.6</ele>
        <time>2000-01-01T01:25:56.000Z</time>
      </trkpt>
      <trkpt lat="46.15396" lon="6.69867">
        <ele>1361</ele>
        <time>2000-01-01T01:26:06.000Z</time>
      </trkpt>
      <trkpt lat="46.15405" lon="6.69863">
        <ele>1363.8</ele>
        <time>2000-01-01T01:26:16.000Z</time>
      </trkpt>
      <trkpt lat="46.15406" lon="6.6987">
        <ele>1360.9</ele>
        <time>2000-01-01T01:26:26.000Z</time>
      </trkpt>
      <trkpt lat="46.1537" lon="6.69902">
        <ele>1351</ele>
        <time>2000-01-01T01:26:36.000Z</time>
      </trkpt>
      <trkpt lat="46.15335" lon="6.69926">
        <ele>1349</ele>
        <time>2000-01-01T01:26:46.000Z</time>
      </trkpt>
      <trkpt lat="46.1531" lon="6.69948">
        <ele>1348</ele>
        <time>2000-01-01T01:26:56.000Z</time>
      </trkpt>
      <trkpt lat="46.15299" lon="6.6996">
        <ele>1357.1</ele>
        <time>2000-01-01T01:27:06.000Z</time>
      </trkpt>
      <trkpt lat="46.15288" lon="6.69968">
        <ele>1346</ele>
        <time>2000-01-01T01:27:16.000Z</time>
      </trkpt>
      <trkpt lat="46.15276" lon="6.69973">
        <ele>1358</ele>
        <time>2000-01-01T01:27:26.000Z</time>
      </trkpt>
      <trkpt lat="46.15265" lon="6.69987">
        <ele>1345</ele>
        <time>2000-01-01T01:27:36.000Z</time>
      </trkpt>
      <trkpt lat="46.15245" lon="6.70017">
        <ele>1343</ele>
        <time>2000-01-01T01:27:46.000Z</time>
      </trkpt>
      <trkpt lat="46.15235" lon="6.70029">
        <ele>1350.9</ele>
        <time>2000-01-01T01:27:56.000Z</time>
      </trkpt>
      <trkpt lat="46.15231" lon="6.70039">
        <ele>1339</ele>
        <time>2000-01-01T01:28:06.000Z</time>
      </trkpt>
      <trkpt lat="46.1522" lon="6.7006">
        <ele>1346.1</ele>
        <time>2000-01-01T01:28:16.000Z</time>
      </trkpt>
      <trkpt lat="46.15204" lon="6.7008">
        <ele>1337</ele>
        <time>2000-01-01T01:28:26.000Z</time>
      </trkpt>
      <trkpt lat="46.15197" lon="6.70091">
        <ele>1343.8</ele>
        <time>2000-01-01T01:28:36.000Z</time>
      </trkpt>
      <trkpt lat="46.15195" lon="6.70096">
        <ele>1343.7</ele>
        <time>2000-01-01T01:28:46.000Z</time>
      </trkpt>
      <trkpt lat="46.15191" lon="6.7011">
        <ele>1332</ele>
        <time>2000-01-01T01:28:56.000Z</time>
      </trkpt>
      <trkpt lat="46.15191" lon="6.70126">
        <ele>1341.5</ele>
        <time>2000-01-01T01:29:06.000Z</time>
      </trkpt>
      <trkpt lat="46.15195" lon="6.7015">
        <ele>1332</ele>
        <time>2000-01-01T01:29:16.000Z</time>
      </trkpt>
      <trkpt lat="46.15205" lon="6.70196">
        <ele>1330</ele>
        <time>2000-01-01T01:29:26.000Z</time>
      </trkpt>
      <trkpt lat="46.15209" lon="6.70234">
        <ele>1329</ele>
        <time>2000-01-01T01:29:36.000Z</time>
      </trkpt>
      <trkpt lat="46.15215" lon="6.70281">
        <ele>1326</ele>
        <time>2000-01-01T01:29:46.000Z</time>
      </trkpt>
      <trkpt lat="46.15217" lon="6.70307">
        <ele>1328.1</ele>
        <time>2000-01-01T01:29:56.000Z</time>
      </trkpt>
      <trkpt lat="46.15222" lon="6.70329">
        <ele>1324</ele>
        <time>2000-01-01T01:30:06.000Z</time>
      </trkpt>
      <trkpt lat="46.15222" lon="6.70335">
        <ele>1328</ele>
        <time>2000-01-01T01:30:16.000Z</time>
      </trkpt>
      <trkpt lat="46.15226" lon="6.70356">
        <ele>1322</ele>
        <time>2000-01-01T01:30:26.000Z</time>
      </trkpt>
      <trkpt lat="46.15227" lon="6.70377">
        <ele>1327.7</ele>
        <time>2000-01-01T01:30:36.000Z</time>
      </trkpt>
      <trkpt lat="46.15226" lon="6.70381">
        <ele>1327.8</ele>
        <time>2000-01-01T01:30:46.000Z</time>
      </trkpt>
      <trkpt lat="46.15234" lon="6.70379">
        <ele>1321</ele>
        <time>2000-01-01T01:30:56.000Z</time>
      </trkpt>
      <trkpt lat="46.15226" lon="6.70381">
        <ele>1327.8</ele>
        <time>2000-01-01T01:31:06.000Z</time>
      </trkpt>
      <trkpt lat="46.15224" lon="6.70391">
        <ele>1327.9</ele>
        <time>2000-01-01T01:31:16.000Z</time>
      </trkpt>
      <trkpt lat="46.15209" lon="6.70425">
        <ele>1320</ele>
        <time>2000-01-01T01:31:26.000Z</time>
      </trkpt>
      <trkpt lat="46.15208" lon="6.70426">
        <ele>1329.2</ele>
        <time>2000-01-01T01:31:36.000Z</time>
      </trkpt>
      <trkpt lat="46.15206" lon="6.70435">
        <ele>1330</ele>
        <time>2000-01-01T01:31:46.000Z</time>
      </trkpt>
      <trkpt lat="46.15208" lon="6.70446">
        <ele>1330.8</ele>
        <time>2000-01-01T01:31:56.000Z</time>
      </trkpt>
      <trkpt lat="46.15211" lon="6.70454">
        <ele>1321</ele>
        <time>2000-01-01T01:32:06.000Z</time>
      </trkpt>
      <trkpt lat="46.15217" lon="6.70463">
        <ele>1332.2</ele>
        <time>2000-01-01T01:32:16.000Z</time>
      </trkpt>
      <trkpt lat="46.15223" lon="6.70468">
        <ele>1332.7</ele>
        <time>2000-01-01T01:32:26.000Z</time>
      </trkpt>
      <trkpt lat="46.15231" lon="6.70473">
        <ele>1323</ele>
        <time>2000-01-01T01:32:36.000Z</time>
      </trkpt>
      <trkpt lat="46.15239" lon="6.70475">
        <ele>1333.7</ele>
        <time>2000-01-01T01:32:46.000Z</time>
      </trkpt>
      <trkpt lat="46.15253" lon="6.70476">
        <ele>1323</ele>
        <time>2000-01-01T01:32:56.000Z</time>
      </trkpt>
      <trkpt lat="46.1528" lon="6.70473">
        <ele>1326</ele>
        <time>2000-01-01T01:33:06.000Z</time>
      </trkpt>
      <trkpt lat="46.15306" lon="6.70473">
        <ele>1332</ele>
        <time>2000-01-01T01:33:16.000Z</time>
      </trkpt>
      <trkpt lat="46.1531" lon="6.70475">
        <ele>1337.5</ele>
        <time>2000-01-01T01:33:26.000Z</time>
      </trkpt>
      <trkpt lat="46.15318" lon="6.70482">
        <ele>1339.3</ele>
        <time>2000-01-01T01:33:36.000Z</time>
      </trkpt>
      <trkpt lat="46.15362" lon="6.70466">
        <ele>1332</ele>
        <time>2000-01-01T01:33:46.000Z</time>
      </trkpt>
      <trkpt lat="46.15391" lon="6.70458">
        <ele>1331</ele>
        <time>2000-01-01T01:33:56.000Z</time>
      </trkpt>
      <trkpt lat="46.15406" lon="6.70453">
        <ele>1338.7</ele>
        <time>2000-01-01T01:34:06.000Z</time>
      </trkpt>
      <trkpt lat="46.15448" lon="6.70449">
        <ele>1326</ele>
        <time>2000-01-01T01:34:16.000Z</time>
      </trkpt>
      <trkpt lat="46.15461" lon="6.70447">
        <ele>1335.8</ele>
        <time>2000-01-01T01:34:26.000Z</time>
      </trkpt>
      <trkpt lat="46.15467" lon="6.70444">
        <ele>1324</ele>
        <time>2000-01-01T01:34:36.000Z</time>
      </trkpt>
      <trkpt lat="46.15476" lon="6.70436">
        <ele>1332.6</ele>
        <time>2000-01-01T01:34:46.000Z</time>
      </trkpt>
      <trkpt lat="46.15484" lon="6.70426">
        <ele>1321</ele>
        <time>2000-01-01T01:34:56.000Z</time>
      </trkpt>
      <trkpt lat="46.15495" lon="6.70415">
        <ele>1326.9</ele>
        <time>2000-01-01T01:35:06.000Z</time>
      </trkpt>
      <trkpt lat="46.15541" lon="6.70386">
        <ele>1314</ele>
        <time>2000-01-01T01:35:16.000Z</time>
      </trkpt>
      <trkpt lat="46.15556" lon="6.7038">
        <ele>1319.2</ele>
        <time>2000-01-01T01:35:26.000Z</time>
      </trkpt>
      <trkpt lat="46.1558" lon="6.70374">
        <ele>1311</ele>
        <time>2000-01-01T01:35:36.000Z</time>
      </trkpt>
      <trkpt lat="46.15604" lon="6.70369">
        <ele>1307</ele>
        <time>2000-01-01T01:35:46.000Z</time>
      </trkpt>
      <trkpt lat="46.15614" lon="6.70369">
        <ele>1310.4</ele>
        <time>2000-01-01T01:35:56.000Z</time>
      </trkpt>
      <trkpt lat="46.15616" lon="6.70368">
        <ele>1309.8</ele>
        <time>2000-01-01T01:36:06.000Z</time>
      </trkpt>
      <trkpt lat="46.15628" lon="6.70371">
        <ele>1307</ele>
        <time>2000-01-01T01:36:16.000Z</time>
      </trkpt>
      <trkpt lat="46.15651" lon="6.70381">
        <ele>1303</ele>
        <time>2000-01-01T01:36:26.000Z</time>
      </trkpt>
      <trkpt lat="46.1566" lon="6.70382">
        <ele>1304.8</ele>
        <time>2000-01-01T01:36:36.000Z</time>
      </trkpt>
      <trkpt lat="46.15668" lon="6.7038">
        <ele>1302.9</ele>
        <time>2000-01-01T01:36:46.000Z</time>
      </trkpt>
      <trkpt lat="46.15687" lon="6.70377">
        <ele>1299</ele>
        <time>2000-01-01T01:36:56.000Z</time>
      </trkpt>
      <trkpt lat="46.15696" lon="6.70378">
        <ele>1298</ele>
        <time>2000-01-01T01:37:06.000Z</time>
      </trkpt>
      <trkpt lat="46.15713" lon="6.70388">
        <ele>1297</ele>
        <time>2000-01-01T01:37:16.000Z</time>
      </trkpt>
      <trkpt lat="46.1572" lon="6.70389">
        <ele>1296.3</ele>
        <time>2000-01-01T01:37:26.000Z</time>
      </trkpt>
      <trkpt lat="46.15725" lon="6.70387">
        <ele>1295.1</ele>
        <time>2000-01-01T01:37:36.000Z</time>
      </trkpt>
      <trkpt lat="46.15729" lon="6.7038">
        <ele>1293.2</ele>
        <time>2000-01-01T01:37:46.000Z</time>
      </trkpt>
      <trkpt lat="46.15728" lon="6.70372">
        <ele>1295</ele>
        <time>2000-01-01T01:37:56.000Z</time>
      </trkpt>
      <trkpt lat="46.15724" lon="6.70363">
        <ele>1290.9</ele>
        <time>2000-01-01T01:38:06.000Z</time>
      </trkpt>
      <trkpt lat="46.15697" lon="6.7034">
        <ele>1291</ele>
        <time>2000-01-01T01:38:16.000Z</time>
      </trkpt>
      <trkpt lat="46.15687" lon="6.70326">
        <ele>1289.2</ele>
        <time>2000-01-01T01:38:26.000Z</time>
      </trkpt>
      <trkpt lat="46.15678" lon="6.7031">
        <ele>1288</ele>
        <time>2000-01-01T01:38:36.000Z</time>
      </trkpt>
      <trkpt lat="46.15669" lon="6.70291">
        <ele>1286.6</ele>
        <time>2000-01-01T01:38:46.000Z</time>
      </trkpt>
      <trkpt lat="46.15661" lon="6.70278">
        <ele>1286</ele>
        <time>2000-01-01T01:38:56.000Z</time>
      </trkpt>
      <trkpt lat="46.15655" lon="6.70272">
        <ele>1285.5</ele>
        <time>2000-01-01T01:39:06.000Z</time>
      </trkpt>
      <trkpt lat="46.15647" lon="6.70268">
        <ele>1285.8</ele>
        <time>2000-01-01T01:39:16.000Z</time>
      </trkpt>
      <trkpt lat="46.15639" lon="6.70266">
        <ele>1283</ele>
        <time>2000-01-01T01:39:26.000Z</time>
      </trkpt>
      <trkpt lat="46.15634" lon="6.70261">
        <ele>1286</ele>
        <time>2000-01-01T01:39:36.000Z</time>
      </trkpt>
      <trkpt lat="46.15631" lon="6.7025">
        <ele>1284.4</ele>
        <time>2000-01-01T01:39:46.000Z</time>
      </trkpt>
      <trkpt lat="46.15633" lon="6.70242">
        <ele>1283</ele>
        <time>2000-01-01T01:39:56.000Z</time>
      </trkpt>
      <trkpt lat="46.15638" lon="6.70238">
        <ele>1282.4</ele>
        <time>2000-01-01T01:40:06.000Z</time>
      </trkpt>
      <trkpt lat="46.15646" lon="6.70236">
        <ele>1281.4</ele>
        <time>2000-01-01T01:40:16.000Z</time>
      </trkpt>
      <trkpt lat="46.15662" lon="6.70243">
        <ele>1280</ele>
        <time>2000-01-01T01:40:26.000Z</time>
      </trkpt>
      <trkpt lat="46.15685" lon="6.70251">
        <ele>1278</ele>
        <time>2000-01-01T01:40:36.000Z</time>
      </trkpt>
      <trkpt lat="46.15691" lon="6.70252">
        <ele>1277.8</ele>
        <time>2000-01-01T01:40:46.000Z</time>
      </trkpt>
      <trkpt lat="46.15699" lon="6.70252">
        <ele>1276.6</ele>
        <time>2000-01-01T01:40:56.000Z</time>
      </trkpt>
      <trkpt lat="46.15708" lon="6.7025">
        <ele>1275</ele>
        <time>2000-01-01T01:41:06.000Z</time>
      </trkpt>
      <trkpt lat="46.15724" lon="6.70244">
        <ele>1272.2</ele>
        <time>2000-01-01T01:41:16.000Z</time>
      </trkpt>
      <trkpt lat="46.15734" lon="6.70239">
        <ele>1269</ele>
        <time>2000-01-01T01:41:26.000Z</time>
      </trkpt>
      <trkpt lat="46.1574" lon="6.70239">
        <ele>1269.5</ele>
        <time>2000-01-01T01:41:36.000Z</time>
      </trkpt>
      <trkpt lat="46.15752" lon="6.7024">
        <ele>1268</ele>
        <time>2000-01-01T01:41:46.000Z</time>
      </trkpt>
      <trkpt lat="46.15784" lon="6.70245">
        <ele>1267</ele>
        <time>2000-01-01T01:41:56.000Z</time>
      </trkpt>
      <trkpt lat="46.15811" lon="6.70248">
        <ele>1262</ele>
        <time>2000-01-01T01:42:06.000Z</time>
      </trkpt>
      <trkpt lat="46.15832" lon="6.70252">
        <ele>1262</ele>
        <time>2000-01-01T01:42:16.000Z</time>
      </trkpt>
      <trkpt lat="46.15839" lon="6.70254">
        <ele>1261.2</ele>
        <time>2000-01-01T01:42:26.000Z</time>
      </trkpt>
      <trkpt lat="46.15853" lon="6.70262">
        <ele>1259</ele>
        <time>2000-01-01T01:42:36.000Z</time>
      </trkpt>
      <trkpt lat="46.15873" lon="6.70276">
        <ele>1257</ele>
        <time>2000-01-01T01:42:46.000Z</time>
      </trkpt>
      <trkpt lat="46.15881" lon="6.7028">
        <ele>1256.4</ele>
        <time>2000-01-01T01:42:56.000Z</time>
      </trkpt>
      <trkpt lat="46.15894" lon="6.70288">
        <ele>1255</ele>
        <time>2000-01-01T01:43:06.000Z</time>
      </trkpt>
      <trkpt lat="46.15905" lon="6.70296">
        <ele>1255</ele>
        <time>2000-01-01T01:43:16.000Z</time>
      </trkpt>
      <trkpt lat="46.15926" lon="6.70316">
        <ele>1251</ele>
        <time>2000-01-01T01:43:26.000Z</time>
      </trkpt>
      <trkpt lat="46.15931" lon="6.70316">
        <ele>1254.2</ele>
        <time>2000-01-01T01:43:36.000Z</time>
      </trkpt>
      <trkpt lat="46.15936" lon="6.70314">
        <ele>1252.9</ele>
        <time>2000-01-01T01:43:46.000Z</time>
      </trkpt>
      <trkpt lat="46.15953" lon="6.70401">
        <ele>1251</ele>
        <time>2000-01-01T01:43:56.000Z</time>
      </trkpt>
      <trkpt lat="46.15953" lon="6.70403">
        <ele>1261.2</ele>
        <time>2000-01-01T01:44:06.000Z</time>
      </trkpt>
      <trkpt lat="46.15955" lon="6.70403">
        <ele>1260.9</ele>
        <time>2000-01-01T01:44:16.000Z</time>
      </trkpt>
      <trkpt lat="46.15969" lon="6.70407">
        <ele>1259.2</ele>
        <time>2000-01-01T01:44:26.000Z</time>
      </trkpt>
      <trkpt lat="46.15981" lon="6.70412">
        <ele>1247</ele>
        <time>2000-01-01T01:44:36.000Z</time>
      </trkpt>
      <trkpt lat="46.15995" lon="6.70423">
        <ele>1257.7</ele>
        <time>2000-01-01T01:44:46.000Z</time>
      </trkpt>
      <trkpt lat="46.16028" lon="6.70438">
        <ele>1243</ele>
        <time>2000-01-01T01:44:56.000Z</time>
      </trkpt>
      <trkpt lat="46.16035" lon="6.70442">
        <ele>1253.1</ele>
        <time>2000-01-01T01:45:06.000Z</time>
      </trkpt>
      <trkpt lat="46.16072" lon="6.7047">
        <ele>1238</ele>
        <time>2000-01-01T01:45:16.000Z</time>
      </trkpt>
      <trkpt lat="46.16084" lon="6.70476">
        <ele>1248.3</ele>
        <time>2000-01-01T01:45:26.000Z</time>
      </trkpt>
      <trkpt lat="46.16099" lon="6.70481">
        <ele>1236</ele>
        <time>2000-01-01T01:45:36.000Z</time>
      </trkpt>
      <trkpt lat="46.16115" lon="6.70483">
        <ele>1240.3</ele>
        <time>2000-01-01T01:45:46.000Z</time>
      </trkpt>
      <trkpt lat="46.16136" lon="6.70488">
        <ele>1229</ele>
        <time>2000-01-01T01:45:56.000Z</time>
      </trkpt>
      <trkpt lat="46.16151" lon="6.70497">
        <ele>1232.7</ele>
        <time>2000-01-01T01:46:06.000Z</time>
      </trkpt>
      <trkpt lat="46.16159" lon="6.705">
        <ele>1224</ele>
        <time>2000-01-01T01:46:16.000Z</time>
      </trkpt>
      <trkpt lat="46.16175" lon="6.70514">
        <ele>1219</ele>
        <time>2000-01-01T01:46:26.000Z</time>
      </trkpt>
      <trkpt lat="46.16194" lon="6.70552">
        <ele>1215</ele>
        <time>2000-01-01T01:46:36.000Z</time>
      </trkpt>
      <trkpt lat="46.16213" lon="6.70588">
        <ele>1211</ele>
        <time>2000-01-01T01:46:46.000Z</time>
      </trkpt>
      <trkpt lat="46.16234" lon="6.70636">
        <ele>1207</ele>
        <time>2000-01-01T01:46:56.000Z</time>
      </trkpt>
      <trkpt lat="46.16243" lon="6.70658">
        <ele>1217.8</ele>
        <time>2000-01-01T01:47:06.000Z</time>
      </trkpt>
      <trkpt lat="46.16251" lon="6.70668">
        <ele>1203</ele>
        <time>2000-01-01T01:47:16.000Z</time>
      </trkpt>
      <trkpt lat="46.16253" lon="6.70672">
        <ele>1215.6</ele>
        <time>2000-01-01T01:47:26.000Z</time>
      </trkpt>
      <trkpt lat="46.16274" lon="6.70704">
        <ele>1199</ele>
        <time>2000-01-01T01:47:36.000Z</time>
      </trkpt>
      <trkpt lat="46.16292" lon="6.70724">
        <ele>1195</ele>
        <time>2000-01-01T01:47:46.000Z</time>
      </trkpt>
      <trkpt lat="46.16316" lon="6.70758">
        <ele>1190</ele>
        <time>2000-01-01T01:47:56.000Z</time>
      </trkpt>
      <trkpt lat="46.16332" lon="6.70774">
        <ele>1185</ele>
        <time>2000-01-01T01:48:06.000Z</time>
      </trkpt>
      <trkpt lat="46.16364" lon="6.70777">
        <ele>1178</ele>
        <time>2000-01-01T01:48:16.000Z</time>
      </trkpt>
      <trkpt lat="46.16378" lon="6.70783">
        <ele>1178.9</ele>
        <time>2000-01-01T01:48:26.000Z</time>
      </trkpt>
      <trkpt lat="46.16386" lon="6.70795">
        <ele>1171</ele>
        <time>2000-01-01T01:48:36.000Z</time>
      </trkpt>
      <trkpt lat="46.16393" lon="6.70799">
        <ele>1175.3</ele>
        <time>2000-01-01T01:48:46.000Z</time>
      </trkpt>
      <trkpt lat="46.16399" lon="6.7081">
        <ele>1174.2</ele>
        <time>2000-01-01T01:48:56.000Z</time>
      </trkpt>
      <trkpt lat="46.16406" lon="6.70817">
        <ele>1165</ele>
        <time>2000-01-01T01:49:06.000Z</time>
      </trkpt>
      <trkpt lat="46.16407" lon="6.70815">
        <ele>1171.9</ele>
        <time>2000-01-01T01:49:16.000Z</time>
      </trkpt>
      <trkpt lat="46.16411" lon="6.70813">
        <ele>1170.3</ele>
        <time>2000-01-01T01:49:26.000Z</time>
      </trkpt>
      <trkpt lat="46.16445" lon="6.70808">
        <ele>1154</ele>
        <time>2000-01-01T01:49:36.000Z</time>
      </trkpt>
      <trkpt lat="46.16452" lon="6.70806">
        <ele>1165</ele>
        <time>2000-01-01T01:49:46.000Z</time>
      </trkpt>
      <trkpt lat="46.16477" lon="6.70802">
        <ele>1160</ele>
        <time>2000-01-01T01:49:56.000Z</time>
      </trkpt>
      <trkpt lat="46.16511" lon="6.70795">
        <ele>1161</ele>
        <time>2000-01-01T01:50:06.000Z</time>
      </trkpt>
      <trkpt lat="46.16525" lon="6.70798">
        <ele>1162</ele>
        <time>2000-01-01T01:50:16.000Z</time>
      </trkpt>
      <trkpt lat="46.1654" lon="6.70788">
        <ele>1161</ele>
        <time>2000-01-01T01:50:26.000Z</time>
      </trkpt>
      <trkpt lat="46.1655" lon="6.70785">
        <ele>1163.1</ele>
        <time>2000-01-01T01:50:36.000Z</time>
      </trkpt>
      <trkpt lat="46.16563" lon="6.70783">
        <ele>1160</ele>
        <time>2000-01-01T01:50:46.000Z</time>
      </trkpt>
      <trkpt lat="46.16582" lon="6.70783">
        <ele>1160</ele>
        <time>2000-01-01T01:50:56.000Z</time>
      </trkpt>
      <trkpt lat="46.16596" lon="6.70789">
        <ele>1160.4</ele>
        <time>2000-01-01T01:51:06.000Z</time>
      </trkpt>
      <trkpt lat="46.16604" lon="6.70791">
        <ele>1157</ele>
        <time>2000-01-01T01:51:16.000Z</time>
      </trkpt>
      <trkpt lat="46.16623" lon="6.7079">
        <ele>1154</ele>
        <time>2000-01-01T01:51:26.000Z</time>
      </trkpt>
      <trkpt lat="46.16628" lon="6.70789">
        <ele>1154.6</ele>
        <time>2000-01-01T01:51:36.000Z</time>
      </trkpt>
      <trkpt lat="46.16637" lon="6.70786">
        <ele>1153.6</ele>
        <time>2000-01-01T01:51:46.000Z</time>
      </trkpt>
      <trkpt lat="46.16665" lon="6.70779">
        <ele>1148</ele>
        <time>2000-01-01T01:51:56.000Z</time>
      </trkpt>
      <trkpt lat="46.16687" lon="6.70775">
        <ele>1144</ele>
        <time>2000-01-01T01:52:06.000Z</time>
      </trkpt>
      <trkpt lat="46.16694" lon="6.70772">
        <ele>1144.3</ele>
        <time>2000-01-01T01:52:16.000Z</time>
      </trkpt>
      <trkpt lat="46.16699" lon="6.70768">
        <ele>1143.9</ele>
        <time>2000-01-01T01:52:26.000Z</time>
      </trkpt>
      <trkpt lat="46.16707" lon="6.70758">
        <ele>1142</ele>
        <time>2000-01-01T01:52:36.000Z</time>
      </trkpt>
      <trkpt lat="46.1672" lon="6.70748">
        <ele>1142.9</ele>
        <time>2000-01-01T01:52:46.000Z</time>
      </trkpt>
      <trkpt lat="46.16728" lon="6.70743">
        <ele>1141</ele>
        <time>2000-01-01T01:52:56.000Z</time>
      </trkpt>
      <trkpt lat="46.16738" lon="6.70734">
        <ele>1142.2</ele>
        <time>2000-01-01T01:53:06.000Z</time>
      </trkpt>
      <trkpt lat="46.16746" lon="6.70725">
        <ele>1137</ele>
        <time>2000-01-01T01:53:16.000Z</time>
      </trkpt>
      <trkpt lat="46.16751" lon="6.70718">
        <ele>1143.8</ele>
        <time>2000-01-01T01:53:26.000Z</time>
      </trkpt>
      <trkpt lat="46.16754" lon="6.70706">
        <ele>1146.9</ele>
        <time>2000-01-01T01:53:36.000Z</time>
      </trkpt>
      <trkpt lat="46.16762" lon="6.70695">
        <ele>1131</ele>
        <time>2000-01-01T01:53:46.000Z</time>
      </trkpt>
      <trkpt lat="46.16769" lon="6.70688">
        <ele>1150</ele>
        <time>2000-01-01T01:53:56.000Z</time>
      </trkpt>
      <trkpt lat="46.16782" lon="6.70689">
        <ele>1130</ele>
        <time>2000-01-01T01:54:06.000Z</time>
      </trkpt>
      <trkpt lat="46.16803" lon="6.70692">
        <ele>1129</ele>
        <time>2000-01-01T01:54:16.000Z</time>
      </trkpt>
      <trkpt lat="46.16826" lon="6.70692">
        <ele>1129</ele>
        <time>2000-01-01T01:54:26.000Z</time>
      </trkpt>
      <trkpt lat="46.16835" lon="6.7069">
        <ele>1137.2</ele>
        <time>2000-01-01T01:54:36.000Z</time>
      </trkpt>
      <trkpt lat="46.16841" lon="6.70687">
        <ele>1137.1</ele>
        <time>2000-01-01T01:54:46.000Z</time>
      </trkpt>
      <trkpt lat="46.16852" lon="6.7068">
        <ele>1126</ele>
        <time>2000-01-01T01:54:56.000Z</time>
      </trkpt>
      <trkpt lat="46.16873" lon="6.70663">
        <ele>1124</ele>
        <time>2000-01-01T01:55:06.000Z</time>
      </trkpt>
      <trkpt lat="46.16878" lon="6.7066">
        <ele>1140</ele>
        <time>2000-01-01T01:55:16.000Z</time>
      </trkpt>
      <trkpt lat="46.16883" lon="6.70658">
        <ele>1139.9</ele>
        <time>2000-01-01T01:55:26.000Z</time>
      </trkpt>
      <trkpt lat="46.16896" lon="6.70655">
        <ele>1124</ele>
        <time>2000-01-01T01:55:36.000Z</time>
      </trkpt>
      <trkpt lat="46.16928" lon="6.70657">
        <ele>1121</ele>
        <time>2000-01-01T01:55:46.000Z</time>
      </trkpt>
      <trkpt lat="46.16936" lon="6.70657">
        <ele>1130.5</ele>
        <time>2000-01-01T01:55:56.000Z</time>
      </trkpt>
      <trkpt lat="46.16958" lon="6.70655">
        <ele>1117</ele>
        <time>2000-01-01T01:56:06.000Z</time>
      </trkpt>
      <trkpt lat="46.1697" lon="6.70656">
        <ele>1128.2</ele>
        <time>2000-01-01T01:56:16.000Z</time>
      </trkpt>
      <trkpt lat="46.16984" lon="6.70656">
        <ele>1115</ele>
        <time>2000-01-01T01:56:26.000Z</time>
      </trkpt>
      <trkpt lat="46.17" lon="6.70655">
        <ele>1126.2</ele>
        <time>2000-01-01T01:56:36.000Z</time>
      </trkpt>
      <trkpt lat="46.17016" lon="6.70651">
        <ele>1111</ele>
        <time>2000-01-01T01:56:46.000Z</time>
      </trkpt>
      <trkpt lat="46.17034" lon="6.70648">
        <ele>1127.4</ele>
        <time>2000-01-01T01:56:56.000Z</time>
      </trkpt>
      <trkpt lat="46.17047" lon="6.70645">
        <ele>1110</ele>
        <time>2000-01-01T01:57:06.000Z</time>
      </trkpt>
      <trkpt lat="46.17057" lon="6.70644">
        <ele>1127.6</ele>
        <time>2000-01-01T01:57:16.000Z</time>
      </trkpt>
      <trkpt lat="46.17067" lon="6.70644">
        <ele>1106</ele>
        <time>2000-01-01T01:57:26.000Z</time>
      </trkpt>
      <trkpt lat="46.17084" lon="6.70646">
        <ele>1124.5</ele>
        <time>2000-01-01T01:57:36.000Z</time>
      </trkpt>
      <trkpt lat="46.17094" lon="6.70646">
        <ele>1105</ele>
        <time>2000-01-01T01:57:46.000Z</time>
      </trkpt>
      <trkpt lat="46.17104" lon="6.70644">
        <ele>1118.7</ele>
        <time>2000-01-01T01:57:56.000Z</time>
      </trkpt>
      <trkpt lat="46.17108" lon="6.70642">
        <ele>1118.2</ele>
        <time>2000-01-01T01:58:06.000Z</time>
      </trkpt>
      <trkpt lat="46.17124" lon="6.70638">
        <ele>1098</ele>
        <time>2000-01-01T01:58:16.000Z</time>
      </trkpt>
      <trkpt lat="46.17133" lon="6.70634">
        <ele>1113.1</ele>
        <time>2000-01-01T01:58:26.000Z</time>
      </trkpt>
      <trkpt lat="46.17172" lon="6.70613">
        <ele>1093</ele>
        <time>2000-01-01T01:58:36.000Z</time>
      </trkpt>
      <trkpt lat="46.17189" lon="6.70605">
        <ele>1103.5</ele>
        <time>2000-01-01T01:58:46.000Z</time>
      </trkpt>
      <trkpt lat="46.17195" lon="6.70601">
        <ele>1092</ele>
        <time>2000-01-01T01:58:56.000Z</time>
      </trkpt>
      <trkpt lat="46.17208" lon="6.70597">
        <ele>1098.4</ele>
        <time>2000-01-01T01:59:06.000Z</time>
      </trkpt>
      <trkpt lat="46.1722" lon="6.70589">
        <ele>1092</ele>
        <time>2000-01-01T01:59:16.000Z</time>
      </trkpt>
      <trkpt lat="46.17224" lon="6.70588">
        <ele>1094.1</ele>
        <time>2000-01-01T01:59:26.000Z</time>
      </trkpt>
      <trkpt lat="46.17228" lon="6.70588">
        <ele>1092.4</ele>
        <time>2000-01-01T01:59:36.000Z</time>
      </trkpt>
      <trkpt lat="46.17233" lon="6.70585">
        <ele>1091</ele>
        <time>2000-01-01T01:59:46.000Z</time>
      </trkpt>
      <trkpt lat="46.17248" lon="6.70573">
        <ele>1087</ele>
        <time>2000-01-01T01:59:56.000Z</time>
      </trkpt>
      <trkpt lat="46.17252" lon="6.70568">
        <ele>1091.2</ele>
        <time>2000-01-01T02:00:06.000Z</time>
      </trkpt>
      <trkpt lat="46.17259" lon="6.70562">
        <ele>1093.1</ele>
        <time>2000-01-01T02:00:16.000Z</time>
      </trkpt>
      <trkpt lat="46.1729" lon="6.70545">
        <ele>1087</ele>
        <time>2000-01-01T02:00:26.000Z</time>
      </trkpt>
      <trkpt lat="46.17295" lon="6.70544">
        <ele>1095.4</ele>
        <time>2000-01-01T02:00:36.000Z</time>
      </trkpt>
      <trkpt lat="46.17309" lon="6.70538">
        <ele>1087</ele>
        <time>2000-01-01T02:00:46.000Z</time>
      </trkpt>
      <trkpt lat="46.17317" lon="6.70531">
        <ele>1096.9</ele>
        <time>2000-01-01T02:00:56.000Z</time>
      </trkpt>
      <trkpt lat="46.17327" lon="6.70524">
        <ele>1087</ele>
        <time>2000-01-01T02:01:06.000Z</time>
      </trkpt>
      <trkpt lat="46.17332" lon="6.70517">
        <ele>1099.5</ele>
        <time>2000-01-01T02:01:16.000Z</time>
      </trkpt>
      <trkpt lat="46.17347" lon="6.70505">
        <ele>1086</ele>
        <time>2000-01-01T02:01:26.000Z</time>
      </trkpt>
      <trkpt lat="46.17353" lon="6.70499">
        <ele>1099.8</ele>
        <time>2000-01-01T02:01:36.000Z</time>
      </trkpt>
      <trkpt lat="46.17371" lon="6.70486">
        <ele>1082</ele>
        <time>2000-01-01T02:01:46.000Z</time>
      </trkpt>
      <trkpt lat="46.17394" lon="6.70471">
        <ele>1081</ele>
        <time>2000-01-01T02:01:56.000Z</time>
      </trkpt>
      <trkpt lat="46.17411" lon="6.70458">
        <ele>1080</ele>
        <time>2000-01-01T02:02:06.000Z</time>
      </trkpt>
      <trkpt lat="46.17415" lon="6.70454">
        <ele>1102.8</ele>
        <time>2000-01-01T02:02:16.000Z</time>
      </trkpt>
      <trkpt lat="46.17433" lon="6.70441">
        <ele>1081</ele>
        <time>2000-01-01T02:02:26.000Z</time>
      </trkpt>
      <trkpt lat="46.17459" lon="6.70411">
        <ele>1081</ele>
        <time>2000-01-01T02:02:36.000Z</time>
      </trkpt>
      <trkpt lat="46.1747" lon="6.70406">
        <ele>1101.3</ele>
        <time>2000-01-01T02:02:46.000Z</time>
      </trkpt>
      <trkpt lat="46.17477" lon="6.70391">
        <ele>1081</ele>
        <time>2000-01-01T02:02:56.000Z</time>
      </trkpt>
      <trkpt lat="46.17488" lon="6.70387">
        <ele>1098.8</ele>
        <time>2000-01-01T02:03:06.000Z</time>
      </trkpt>
      <trkpt lat="46.175" lon="6.70374">
        <ele>1080</ele>
        <time>2000-01-01T02:03:16.000Z</time>
      </trkpt>
      <trkpt lat="46.17513" lon="6.70351">
        <ele>1079</ele>
        <time>2000-01-01T02:03:26.000Z</time>
      </trkpt>
      <trkpt lat="46.17526" lon="6.70353">
        <ele>1092.1</ele>
        <time>2000-01-01T02:03:36.000Z</time>
      </trkpt>
      <trkpt lat="46.17546" lon="6.70321">
        <ele>1075</ele>
        <time>2000-01-01T02:03:46.000Z</time>
      </trkpt>
      <trkpt lat="46.1756" lon="6.70305">
        <ele>1090.5</ele>
        <time>2000-01-01T02:03:56.000Z</time>
      </trkpt>
      <trkpt lat="46.1758" lon="6.70292">
        <ele>1071</ele>
        <time>2000-01-01T02:04:06.000Z</time>
      </trkpt>
      <trkpt lat="46.17595" lon="6.70289">
        <ele>1079</ele>
        <time>2000-01-01T02:04:16.000Z</time>
      </trkpt>
      <trkpt lat="46.17605" lon="6.70281">
        <ele>1071</ele>
        <time>2000-01-01T02:04:26.000Z</time>
      </trkpt>
      <trkpt lat="46.17611" lon="6.70272">
        <ele>1076.6</ele>
        <time>2000-01-01T02:04:36.000Z</time>
      </trkpt>
      <trkpt lat="46.17615" lon="6.70258">
        <ele>1067</ele>
        <time>2000-01-01T02:04:46.000Z</time>
      </trkpt>
      <trkpt lat="46.17624" lon="6.70237">
        <ele>1081.8</ele>
        <time>2000-01-01T02:04:56.000Z</time>
      </trkpt>
      <trkpt lat="46.17632" lon="6.70229">
        <ele>1064</ele>
        <time>2000-01-01T02:05:06.000Z</time>
      </trkpt>
      <trkpt lat="46.17642" lon="6.70231">
        <ele>1076.7</ele>
        <time>2000-01-01T02:05:16.000Z</time>
      </trkpt>
      <trkpt lat="46.17642" lon="6.7022">
        <ele>1080.6</ele>
        <time>2000-01-01T02:05:26.000Z</time>
      </trkpt>
      <trkpt lat="46.17649" lon="6.70222">
        <ele>1066</ele>
        <time>2000-01-01T02:05:36.000Z</time>
      </trkpt>
      <trkpt lat="46.1765" lon="6.702">
        <ele>1084.7</ele>
        <time>2000-01-01T02:05:46.000Z</time>
      </trkpt>
      <trkpt lat="46.17668" lon="6.70195">
        <ele>1068</ele>
        <time>2000-01-01T02:05:56.000Z</time>
      </trkpt>
      <trkpt lat="46.17678" lon="6.70191">
        <ele>1077.1</ele>
        <time>2000-01-01T02:06:06.000Z</time>
      </trkpt>
      <trkpt lat="46.17682" lon="6.70186">
        <ele>1077.1</ele>
        <time>2000-01-01T02:06:16.000Z</time>
      </trkpt>
      <trkpt lat="46.17687" lon="6.70172">
        <ele>1070</ele>
        <time>2000-01-01T02:06:26.000Z</time>
      </trkpt>
      <trkpt lat="46.17708" lon="6.70147">
        <ele>1070</ele>
        <time>2000-01-01T02:06:36.000Z</time>
      </trkpt>
      <trkpt lat="46.17714" lon="6.70145">
        <ele>1076.8</ele>
        <time>2000-01-01T02:06:46.000Z</time>
      </trkpt>
      <trkpt lat="46.17734" lon="6.70142">
        <ele>1065</ele>
        <time>2000-01-01T02:06:56.000Z</time>
      </trkpt>
      <trkpt lat="46.17738" lon="6.70127">
        <ele>1070.9</ele>
        <time>2000-01-01T02:07:06.000Z</time>
      </trkpt>
      <trkpt lat="46.17743" lon="6.70112">
        <ele>1064</ele>
        <time>2000-01-01T02:07:16.000Z</time>
      </trkpt>
      <trkpt lat="46.17752" lon="6.70092">
        <ele>1074.3</ele>
        <time>2000-01-01T02:07:26.000Z</time>
      </trkpt>
      <trkpt lat="46.17754" lon="6.70078">
        <ele>1063</ele>
        <time>2000-01-01T02:07:36.000Z</time>
      </trkpt>
      <trkpt lat="46.17772" lon="6.70083">
        <ele>1065.9</ele>
        <time>2000-01-01T02:07:46.000Z</time>
      </trkpt>
      <trkpt lat="46.17783" lon="6.70092">
        <ele>1048</ele>
        <time>2000-01-01T02:07:56.000Z</time>
      </trkpt>
      <trkpt lat="46.17793" lon="6.70095">
        <ele>1051.6</ele>
        <time>2000-01-01T02:08:06.000Z</time>
      </trkpt>
      <trkpt lat="46.17802" lon="6.70099">
        <ele>1038</ele>
        <time>2000-01-01T02:08:16.000Z</time>
      </trkpt>
      <trkpt lat="46.17807" lon="6.70115">
        <ele>1039.9</ele>
        <time>2000-01-01T02:08:26.000Z</time>
      </trkpt>
      <trkpt lat="46.17813" lon="6.70128">
        <ele>1029</ele>
        <time>2000-01-01T02:08:36.000Z</time>
      </trkpt>
      <trkpt lat="46.17823" lon="6.70142">
        <ele>1026.9</ele>
        <time>2000-01-01T02:08:46.000Z</time>
      </trkpt>
      <trkpt lat="46.17833" lon="6.70154">
        <ele>1018</ele>
        <time>2000-01-01T02:08:56.000Z</time>
      </trkpt>
      <trkpt lat="46.17838" lon="6.70165">
        <ele>1016.9</ele>
        <time>2000-01-01T02:09:06.000Z</time>
      </trkpt>
      <trkpt lat="46.17841" lon="6.70179">
        <ele>1012</ele>
        <time>2000-01-01T02:09:16.000Z</time>
      </trkpt>
      <trkpt lat="46.1785" lon="6.70173">
        <ele>1011.9</ele>
        <time>2000-01-01T02:09:26.000Z</time>
      </trkpt>
      <trkpt lat="46.17863" lon="6.70163">
        <ele>1009</ele>
        <time>2000-01-01T02:09:36.000Z</time>
      </trkpt>
      <trkpt lat="46.17874" lon="6.70153">
        <ele>1008.3</ele>
        <time>2000-01-01T02:09:46.000Z</time>
      </trkpt>
      <trkpt lat="46.17879" lon="6.70152">
        <ele>1007</ele>
        <time>2000-01-01T02:09:56.000Z</time>
      </trkpt>
      <trkpt lat="46.17884" lon="6.70155">
        <ele>1005</ele>
        <time>2000-01-01T02:10:06.000Z</time>
      </trkpt>
      <trkpt lat="46.17897" lon="6.70159">
        <ele>1000.7</ele>
        <time>2000-01-01T02:10:16.000Z</time>
      </trkpt>
      <trkpt lat="46.17915" lon="6.70161">
        <ele>997</ele>
        <time>2000-01-01T02:10:26.000Z</time>
      </trkpt>
      <trkpt lat="46.1793" lon="6.70157">
        <ele>993.5</ele>
        <time>2000-01-01T02:10:36.000Z</time>
      </trkpt>
      <trkpt lat="46.17939" lon="6.70152">
        <ele>995</ele>
        <time>2000-01-01T02:10:46.000Z</time>
      </trkpt>
      <trkpt lat="46.17949" lon="6.7014">
        <ele>992.6</ele>
        <time>2000-01-01T02:10:56.000Z</time>
      </trkpt>
      <trkpt lat="46.17962" lon="6.70128">
        <ele>991</ele>
        <time>2000-01-01T02:11:06.000Z</time>
      </trkpt>
      <trkpt lat="46.17964" lon="6.70125">
        <ele>991.5</ele>
        <time>2000-01-01T02:11:16.000Z</time>
      </trkpt>
      <trkpt lat="46.17978" lon="6.7011">
        <ele>990</ele>
        <time>2000-01-01T02:11:26.000Z</time>
      </trkpt>
      <trkpt lat="46.17982" lon="6.70109">
        <ele>989.4</ele>
        <time>2000-01-01T02:11:36.000Z</time>
      </trkpt>
      <trkpt lat="46.17986" lon="6.70109">
        <ele>988.7</ele>
        <time>2000-01-01T02:11:46.000Z</time>
      </trkpt>
      <trkpt lat="46.17992" lon="6.7012">
        <ele>987.1</ele>
        <time>2000-01-01T02:11:56.000Z</time>
      </trkpt>
      <trkpt lat="46.17998" lon="6.70095">
        <ele>987</ele>
        <time>2000-01-01T02:12:06.000Z</time>
      </trkpt>
      <trkpt lat="46.18011" lon="6.70078">
        <ele>986.7</ele>
        <time>2000-01-01T02:12:16.000Z</time>
      </trkpt>
      <trkpt lat="46.18012" lon="6.70076">
        <ele>987</ele>
        <time>2000-01-01T02:12:26.000Z</time>
      </trkpt>
      <trkpt lat="46.18016" lon="6.70072">
        <ele>986.8</ele>
        <time>2000-01-01T02:12:36.000Z</time>
      </trkpt>
      <trkpt lat="46.18017" lon="6.7007">
        <ele>986.9</ele>
        <time>2000-01-01T02:12:46.000Z</time>
      </trkpt>
      <trkpt lat="46.18018" lon="6.7007">
        <ele>986.8</ele>
        <time>2000-01-01T02:12:56.000Z</time>
      </trkpt>
      <trkpt lat="46.18022" lon="6.70065">
        <ele>986.9</ele>
        <time>2000-01-01T02:13:06.000Z</time>
      </trkpt>
      <trkpt lat="46.18024" lon="6.70061">
        <ele>987.1</ele>
        <time>2000-01-01T02:13:16.000Z</time>
      </trkpt>
      <trkpt lat="46.18028" lon="6.70045">
        <ele>988</ele>
        <time>2000-01-01T02:13:26.000Z</time>
      </trkpt>
      <trkpt lat="46.18029" lon="6.70035">
        <ele>988.7</ele>
        <time>2000-01-01T02:13:36.000Z</time>
      </trkpt>
      <trkpt lat="46.18029" lon="6.70026">
        <ele>989.5</ele>
        <time>2000-01-01T02:13:46.000Z</time>
      </trkpt>
      <trkpt lat="46.18032" lon="6.70013">
        <ele>990</ele>
        <time>2000-01-01T02:13:56.000Z</time>
      </trkpt>
      <trkpt lat="46.18036" lon="6.7">
        <ele>990.7</ele>
        <time>2000-01-01T02:14:06.000Z</time>
      </trkpt>
      <trkpt lat="46.18039" lon="6.69987">
        <ele>992</ele>
        <time>2000-01-01T02:14:16.000Z</time>
      </trkpt>
      <trkpt lat="46.18039" lon="6.69972">
        <ele>993.4</ele>
        <time>2000-01-01T02:14:26.000Z</time>
      </trkpt>
      <trkpt lat="46.18038" lon="6.69961">
        <ele>994.7</ele>
        <time>2000-01-01T02:14:36.000Z</time>
      </trkpt>
      <trkpt lat="46.18035" lon="6.69954">
        <ele>997</ele>
        <time>2000-01-01T02:14:46.000Z</time>
      </trkpt>
      <trkpt lat="46.18021" lon="6.69939">
        <ele>999.4</ele>
        <time>2000-01-01T02:14:56.000Z</time>
      </trkpt>
      <trkpt lat="46.18018" lon="6.69933">
        <ele>1003</ele>
        <time>2000-01-01T02:15:06.000Z</time>
      </trkpt>
      <trkpt lat="46.18017" lon="6.69926">
        <ele>1001.5</ele>
        <time>2000-01-01T02:15:16.000Z</time>
      </trkpt>
      <trkpt lat="46.18017" lon="6.69919">
        <ele>1002.3</ele>
        <time>2000-01-01T02:15:26.000Z</time>
      </trkpt>
      <trkpt lat="46.18019" lon="6.69913">
        <ele>1003.4</ele>
        <time>2000-01-01T02:15:36.000Z</time>
      </trkpt>
      <trkpt lat="46.1802" lon="6.69904">
        <ele>1008</ele>
        <time>2000-01-01T02:15:46.000Z</time>
      </trkpt>
      <trkpt lat="46.18024" lon="6.6989">
        <ele>1009.7</ele>
        <time>2000-01-01T02:15:56.000Z</time>
      </trkpt>
      <trkpt lat="46.18034" lon="6.69865">
        <ele>1010</ele>
        <time>2000-01-01T02:16:06.000Z</time>
      </trkpt>
      <trkpt lat="46.18041" lon="6.69843">
        <ele>1019.5</ele>
        <time>2000-01-01T02:16:16.000Z</time>
      </trkpt>
      <trkpt lat="46.18049" lon="6.69826">
        <ele>1010</ele>
        <time>2000-01-01T02:16:26.000Z</time>
      </trkpt>
      <trkpt lat="46.18049" lon="6.69832">
        <ele>1020.3</ele>
        <time>2000-01-01T02:16:36.000Z</time>
      </trkpt>
      <trkpt lat="46.18061" lon="6.6985">
        <ele>1010</ele>
        <time>2000-01-01T02:16:46.000Z</time>
      </trkpt>
      <trkpt lat="46.18067" lon="6.69868">
        <ele>1006.7</ele>
        <time>2000-01-01T02:16:56.000Z</time>
      </trkpt>
      <trkpt lat="46.18077" lon="6.69889">
        <ele>1001</ele>
        <time>2000-01-01T02:17:06.000Z</time>
      </trkpt>
      <trkpt lat="46.18099" lon="6.69921">
        <ele>992</ele>
        <time>2000-01-01T02:17:16.000Z</time>
      </trkpt>
      <trkpt lat="46.1811" lon="6.69941">
        <ele>988.5</ele>
        <time>2000-01-01T02:17:26.000Z</time>
      </trkpt>
      <trkpt lat="46.18114" lon="6.6995">
        <ele>987</ele>
        <time>2000-01-01T02:17:36.000Z</time>
      </trkpt>
      <trkpt lat="46.18131" lon="6.69977">
        <ele>981</ele>
        <time>2000-01-01T02:17:46.000Z</time>
      </trkpt>
      <trkpt lat="46.1815" lon="6.70008">
        <ele>978</ele>
        <time>2000-01-01T02:17:56.000Z</time>
      </trkpt>
      <trkpt lat="46.18153" lon="6.70012">
        <ele>981.2</ele>
        <time>2000-01-01T02:18:06.000Z</time>
      </trkpt>
      <trkpt lat="46.18158" lon="6.70022">
        <ele>980.6</ele>
        <time>2000-01-01T02:18:16.000Z</time>
      </trkpt>
      <trkpt lat="46.18173" lon="6.70045">
        <ele>974</ele>
        <time>2000-01-01T02:18:26.000Z</time>
      </trkpt>
      <trkpt lat="46.18185" lon="6.70068">
        <ele>973</ele>
        <time>2000-01-01T02:18:36.000Z</time>
      </trkpt>
      <trkpt lat="46.18198" lon="6.7009">
        <ele>971</ele>
        <time>2000-01-01T02:18:46.000Z</time>
      </trkpt>
      <trkpt lat="46.1822" lon="6.7013">
        <ele>970</ele>
        <time>2000-01-01T02:18:56.000Z</time>
      </trkpt>
      <trkpt lat="46.18238" lon="6.70159">
        <ele>969</ele>
        <time>2000-01-01T02:19:06.000Z</time>
      </trkpt>
      <trkpt lat="46.18261" lon="6.70197">
        <ele>968</ele>
        <time>2000-01-01T02:19:16.000Z</time>
      </trkpt>
      <trkpt lat="46.18265" lon="6.70202">
        <ele>971.6</ele>
        <time>2000-01-01T02:19:26.000Z</time>
      </trkpt>
      <trkpt lat="46.18269" lon="6.70205">
        <ele>971.5</ele>
        <time>2000-01-01T02:19:36.000Z</time>
      </trkpt>
      <trkpt lat="46.18275" lon="6.70207">
        <ele>971.4</ele>
        <time>2000-01-01T02:19:46.000Z</time>
      </trkpt>
      <trkpt lat="46.18275" lon="6.7021">
        <ele>971.4</ele>
        <time>2000-01-01T02:19:56.000Z</time>
      </trkpt>
      <trkpt lat="46.18276" lon="6.70214">
        <ele>968</ele>
        <time>2000-01-01T02:20:06.000Z</time>
      </trkpt>
      <trkpt lat="46.1828" lon="6.7022">
        <ele>971.4</ele>
        <time>2000-01-01T02:20:16.000Z</time>
      </trkpt>
      <trkpt lat="46.18285" lon="6.7022">
        <ele>971.3</ele>
        <time>2000-01-01T02:20:26.000Z</time>
      </trkpt>
      <trkpt lat="46.18286" lon="6.70228">
        <ele>971.3</ele>
        <time>2000-01-01T02:20:36.000Z</time>
      </trkpt>
      <trkpt lat="46.18303" lon="6.7026">
        <ele>968</ele>
        <time>2000-01-01T02:20:46.000Z</time>
      </trkpt>
      <trkpt lat="46.18319" lon="6.70287">
        <ele>968</ele>
        <time>2000-01-01T02:20:56.000Z</time>
      </trkpt>
      <trkpt lat="46.18331" lon="6.70309">
        <ele>968</ele>
        <time>2000-01-01T02:21:06.000Z</time>
      </trkpt>
      <trkpt lat="46.18338" lon="6.70303">
        <ele>968.4</ele>
        <time>2000-01-01T02:21:16.000Z</time>
      </trkpt>
      <trkpt lat="46.18375" lon="6.70372">
        <ele>956</ele>
        <time>2000-01-01T02:21:26.000Z</time>
      </trkpt>
      <trkpt lat="46.18391" lon="6.70404">
        <ele>937</ele>
        <time>2000-01-01T02:21:36.000Z</time>
      </trkpt>
      <trkpt lat="46.18415" lon="6.7045">
        <ele>937</ele>
        <time>2000-01-01T02:21:46.000Z</time>
      </trkpt>
      <trkpt lat="46.18435" lon="6.70486">
        <ele>940</ele>
        <time>2000-01-01T02:21:56.000Z</time>
      </trkpt>
      <trkpt lat="46.18454" lon="6.70524">
        <ele>957</ele>
        <time>2000-01-01T02:22:06.000Z</time>
      </trkpt>
      <trkpt lat="46.18474" lon="6.70561">
        <ele>979</ele>
        <time>2000-01-01T02:22:16.000Z</time>
      </trkpt>
      <trkpt lat="46.18499" lon="6.7061">
        <ele>983</ele>
        <time>2000-01-01T02:22:26.000Z</time>
      </trkpt>
      <trkpt lat="46.18517" lon="6.70643">
        <ele>993</ele>
        <time>2000-01-01T02:22:36.000Z</time>
      </trkpt>
      <trkpt lat="46.18535" lon="6.70678">
        <ele>1005</ele>
        <time>2000-01-01T02:22:46.000Z</time>
      </trkpt>
      <trkpt lat="46.18551" lon="6.70708">
        <ele>1018</ele>
        <time>2000-01-01T02:22:56.000Z</time>
      </trkpt>
      <trkpt lat="46.1857" lon="6.70744">
        <ele>1033</ele>
        <time>2000-01-01T02:23:06.000Z</time>
      </trkpt>
      <trkpt lat="46.18586" lon="6.70776">
        <ele>1048</ele>
        <time>2000-01-01T02:23:16.000Z</time>
      </trkpt>
      <trkpt lat="46.18604" lon="6.70809">
        <ele>1065</ele>
        <time>2000-01-01T02:23:26.000Z</time>
      </trkpt>
      <trkpt lat="46.18618" lon="6.70837">
        <ele>1081</ele>
        <time>2000-01-01T02:23:36.000Z</time>
      </trkpt>
      <trkpt lat="46.18634" lon="6.70866">
        <ele>1099</ele>
        <time>2000-01-01T02:23:46.000Z</time>
      </trkpt>
      <trkpt lat="46.18644" lon="6.70886">
        <ele>1132.9</ele>
        <time>2000-01-01T02:23:56.000Z</time>
      </trkpt>
      <trkpt lat="46.18703" lon="6.70997">
        <ele>1168</ele>
        <time>2000-01-01T02:24:06.000Z</time>
      </trkpt>
      <trkpt lat="46.18719" lon="6.71028">
        <ele>1185</ele>
        <time>2000-01-01T02:24:16.000Z</time>
      </trkpt>
      <trkpt lat="46.18741" lon="6.71071">
        <ele>1217</ele>
        <time>2000-01-01T02:24:26.000Z</time>
      </trkpt>
      <trkpt lat="46.1876" lon="6.71106">
        <ele>1230</ele>
        <time>2000-01-01T02:24:36.000Z</time>
      </trkpt>
      <trkpt lat="46.18784" lon="6.71153">
        <ele>1262</ele>
        <time>2000-01-01T02:24:46.000Z</time>
      </trkpt>
      <trkpt lat="46.18799" lon="6.7118">
        <ele>1271</ele>
        <time>2000-01-01T02:24:56.000Z</time>
      </trkpt>
      <trkpt lat="46.18814" lon="6.71209">
        <ele>1286</ele>
        <time>2000-01-01T02:25:06.000Z</time>
      </trkpt>
      <trkpt lat="46.1883" lon="6.71241">
        <ele>1300</ele>
        <time>2000-01-01T02:25:16.000Z</time>
      </trkpt>
      <trkpt lat="46.18847" lon="6.71274">
        <ele>1310</ele>
        <time>2000-01-01T02:25:26.000Z</time>
      </trkpt>
      <trkpt lat="46.18862" lon="6.71301">
        <ele>1322</ele>
        <time>2000-01-01T02:25:36.000Z</time>
      </trkpt>
      <trkpt lat="46.18876" lon="6.71329">
        <ele>1327</ele>
        <time>2000-01-01T02:25:46.000Z</time>
      </trkpt>
      <trkpt lat="46.189" lon="6.71372">
        <ele>1342</ele>
        <time>2000-01-01T02:25:56.000Z</time>
      </trkpt>
      <trkpt lat="46.18923" lon="6.71416">
        <ele>1352</ele>
        <time>2000-01-01T02:26:06.000Z</time>
      </trkpt>
      <trkpt lat="46.18938" lon="6.71446">
        <ele>1361</ele>
        <time>2000-01-01T02:26:16.000Z</time>
      </trkpt>
      <trkpt lat="46.18958" lon="6.71483">
        <ele>1375</ele>
        <time>2000-01-01T02:26:26.000Z</time>
      </trkpt>
      <trkpt lat="46.18976" lon="6.71519">
        <ele>1382</ele>
        <time>2000-01-01T02:26:36.000Z</time>
      </trkpt>
      <trkpt lat="46.18992" lon="6.71549">
        <ele>1393</ele>
        <time>2000-01-01T02:26:46.000Z</time>
      </trkpt>
      <trkpt lat="46.19005" lon="6.71575">
        <ele>1403</ele>
        <time>2000-01-01T02:26:56.000Z</time>
      </trkpt>
      <trkpt lat="46.1902" lon="6.71603">
        <ele>1411</ele>
        <time>2000-01-01T02:27:06.000Z</time>
      </trkpt>
      <trkpt lat="46.19037" lon="6.71634">
        <ele>1416</ele>
        <time>2000-01-01T02:27:16.000Z</time>
      </trkpt>
      <trkpt lat="46.19056" lon="6.7167">
        <ele>1423</ele>
        <time>2000-01-01T02:27:26.000Z</time>
      </trkpt>
      <trkpt lat="46.19074" lon="6.71706">
        <ele>1431</ele>
        <time>2000-01-01T02:27:36.000Z</time>
      </trkpt>
      <trkpt lat="46.19094" lon="6.71744">
        <ele>1442</ele>
        <time>2000-01-01T02:27:46.000Z</time>
      </trkpt>
      <trkpt lat="46.19105" lon="6.71764">
        <ele>1455.8</ele>
        <time>2000-01-01T02:27:56.000Z</time>
      </trkpt>
      <trkpt lat="46.19133" lon="6.71818">
        <ele>1456</ele>
        <time>2000-01-01T02:28:06.000Z</time>
      </trkpt>
      <trkpt lat="46.19102" lon="6.71822">
        <ele>1456</ele>
        <time>2000-01-01T02:28:16.000Z</time>
      </trkpt>
      <trkpt lat="46.19076" lon="6.71826">
        <ele>1453</ele>
        <time>2000-01-01T02:28:26.000Z</time>
      </trkpt>
      <trkpt lat="46.19045" lon="6.71831">
        <ele>1455</ele>
        <time>2000-01-01T02:28:36.000Z</time>
      </trkpt>
      <trkpt lat="46.19064" lon="6.71875">
        <ele>1458</ele>
        <time>2000-01-01T02:28:46.000Z</time>
      </trkpt>
      <trkpt lat="46.19082" lon="6.71919">
        <ele>1471</ele>
        <time>2000-01-01T02:28:56.000Z</time>
      </trkpt>
      <trkpt lat="46.19101" lon="6.71963">
        <ele>1483</ele>
        <time>2000-01-01T02:29:06.000Z</time>
      </trkpt>
      <trkpt lat="46.19125" lon="6.72019">
        <ele>1494</ele>
        <time>2000-01-01T02:29:16.000Z</time>
      </trkpt>
      <trkpt lat="46.19143" lon="6.72062">
        <ele>1506</ele>
        <time>2000-01-01T02:29:26.000Z</time>
      </trkpt>
      <trkpt lat="46.19161" lon="6.72105">
        <ele>1514</ele>
        <time>2000-01-01T02:29:36.000Z</time>
      </trkpt>
      <trkpt lat="46.19175" lon="6.72139">
        <ele>1521</ele>
        <time>2000-01-01T02:29:46.000Z</time>
      </trkpt>
      <trkpt lat="46.19195" lon="6.72187">
        <ele>1542</ele>
        <time>2000-01-01T02:29:56.000Z</time>
      </trkpt>
      <trkpt lat="46.19216" lon="6.72235">
        <ele>1559</ele>
        <time>2000-01-01T02:30:06.000Z</time>
      </trkpt>
      <trkpt lat="46.19231" lon="6.72271">
        <ele>1573</ele>
        <time>2000-01-01T02:30:16.000Z</time>
      </trkpt>
      <trkpt lat="46.19243" lon="6.72301">
        <ele>1579</ele>
        <time>2000-01-01T02:30:26.000Z</time>
      </trkpt>
      <trkpt lat="46.19256" lon="6.72332">
        <ele>1586</ele>
        <time>2000-01-01T02:30:36.000Z</time>
      </trkpt>
      <trkpt lat="46.19271" lon="6.72367">
        <ele>1594</ele>
        <time>2000-01-01T02:30:46.000Z</time>
      </trkpt>
      <trkpt lat="46.19294" lon="6.72421">
        <ele>1608</ele>
        <time>2000-01-01T02:30:56.000Z</time>
      </trkpt>
      <trkpt lat="46.19307" lon="6.72453">
        <ele>1614</ele>
        <time>2000-01-01T02:31:06.000Z</time>
      </trkpt>
      <trkpt lat="46.19324" lon="6.72492">
        <ele>1621</ele>
        <time>2000-01-01T02:31:16.000Z</time>
      </trkpt>
      <trkpt lat="46.19346" lon="6.72546">
        <ele>1629</ele>
        <time>2000-01-01T02:31:26.000Z</time>
      </trkpt>
      <trkpt lat="46.19364" lon="6.72588">
        <ele>1634</ele>
        <time>2000-01-01T02:31:36.000Z</time>
      </trkpt>
      <trkpt lat="46.19382" lon="6.7263">
        <ele>1641</ele>
        <time>2000-01-01T02:31:46.000Z</time>
      </trkpt>
      <trkpt lat="46.19396" lon="6.72663">
        <ele>1645</ele>
        <time>2000-01-01T02:31:56.000Z</time>
      </trkpt>
      <trkpt lat="46.19415" lon="6.72707">
        <ele>1650</ele>
        <time>2000-01-01T02:32:06.000Z</time>
      </trkpt>
      <trkpt lat="46.19437" lon="6.72761">
        <ele>1657</ele>
        <time>2000-01-01T02:32:16.000Z</time>
      </trkpt>
      <trkpt lat="46.19453" lon="6.72798">
        <ele>1662</ele>
        <time>2000-01-01T02:32:26.000Z</time>
      </trkpt>
      <trkpt lat="46.19466" lon="6.7283">
        <ele>1669</ele>
        <time>2000-01-01T02:32:36.000Z</time>
      </trkpt>
      <trkpt lat="46.19483" lon="6.72869">
        <ele>1677</ele>
        <time>2000-01-01T02:32:46.000Z</time>
      </trkpt>
      <trkpt lat="46.19505" lon="6.72923">
        <ele>1687</ele>
        <time>2000-01-01T02:32:56.000Z</time>
      </trkpt>
      <trkpt lat="46.19523" lon="6.72965">
        <ele>1696</ele>
        <time>2000-01-01T02:33:06.000Z</time>
      </trkpt>
      <trkpt lat="46.19541" lon="6.73007">
        <ele>1704</ele>
        <time>2000-01-01T02:33:16.000Z</time>
      </trkpt>
      <trkpt lat="46.19555" lon="6.7304">
        <ele>1711</ele>
        <time>2000-01-01T02:33:26.000Z</time>
      </trkpt>
      <trkpt lat="46.19574" lon="6.73084">
        <ele>1719</ele>
        <time>2000-01-01T02:33:36.000Z</time>
      </trkpt>
      <trkpt lat="46.19588" lon="6.73119">
        <ele>1724</ele>
        <time>2000-01-01T02:33:46.000Z</time>
      </trkpt>
      <trkpt lat="46.19603" lon="6.73156">
        <ele>1734</ele>
        <time>2000-01-01T02:33:56.000Z</time>
      </trkpt>
      <trkpt lat="46.19616" lon="6.73186">
        <ele>1744</ele>
        <time>2000-01-01T02:34:06.000Z</time>
      </trkpt>
      <trkpt lat="46.1963" lon="6.73219">
        <ele>1748</ele>
        <time>2000-01-01T02:34:16.000Z</time>
      </trkpt>
      <trkpt lat="46.19633" lon="6.73273">
        <ele>1749</ele>
        <time>2000-01-01T02:34:26.000Z</time>
      </trkpt>
      <trkpt lat="46.19621" lon="6.73303">
        <ele>1747</ele>
        <time>2000-01-01T02:34:36.000Z</time>
      </trkpt>
      <trkpt lat="46.19608" lon="6.73334">
        <ele>1745</ele>
        <time>2000-01-01T02:34:46.000Z</time>
      </trkpt>
      <trkpt lat="46.19603" lon="6.7338">
        <ele>1745</ele>
        <time>2000-01-01T02:34:56.000Z</time>
      </trkpt>
      <trkpt lat="46.19606" lon="6.73419">
        <ele>1743</ele>
        <time>2000-01-01T02:35:06.000Z</time>
      </trkpt>
      <trkpt lat="46.19612" lon="6.73475">
        <ele>1743</ele>
        <time>2000-01-01T02:35:16.000Z</time>
      </trkpt>
      <trkpt lat="46.19622" lon="6.73526">
        <ele>1743</ele>
        <time>2000-01-01T02:35:26.000Z</time>
      </trkpt>
      <trkpt lat="46.19637" lon="6.73567">
        <ele>1743</ele>
        <time>2000-01-01T02:35:36.000Z</time>
      </trkpt>
      <trkpt lat="46.1964" lon="6.73587">
        <ele>1738.9</ele>
        <time>2000-01-01T02:35:46.000Z</time>
      </trkpt>
      <trkpt lat="46.19649" lon="6.73607">
        <ele>1740</ele>
        <time>2000-01-01T02:35:56.000Z</time>
      </trkpt>
      <trkpt lat="46.19647" lon="6.73633">
        <ele>1735.3</ele>
        <time>2000-01-01T02:36:06.000Z</time>
      </trkpt>
      <trkpt lat="46.19657" lon="6.73671">
        <ele>1737</ele>
        <time>2000-01-01T02:36:16.000Z</time>
      </trkpt>
      <trkpt lat="46.19672" lon="6.73699">
        <ele>1735</ele>
        <time>2000-01-01T02:36:26.000Z</time>
      </trkpt>
      <trkpt lat="46.1969" lon="6.73724">
        <ele>1731</ele>
        <time>2000-01-01T02:36:36.000Z</time>
      </trkpt>
      <trkpt lat="46.19705" lon="6.73771">
        <ele>1727</ele>
        <time>2000-01-01T02:36:46.000Z</time>
      </trkpt>
      <trkpt lat="46.19711" lon="6.7381">
        <ele>1726</ele>
        <time>2000-01-01T02:36:56.000Z</time>
      </trkpt>
      <trkpt lat="46.19718" lon="6.73823">
        <ele>1732.5</ele>
        <time>2000-01-01T02:37:06.000Z</time>
      </trkpt>
      <trkpt lat="46.19723" lon="6.7386">
        <ele>1724</ele>
        <time>2000-01-01T02:37:16.000Z</time>
      </trkpt>
      <trkpt lat="46.19724" lon="6.73874">
        <ele>1726.3</ele>
        <time>2000-01-01T02:37:26.000Z</time>
      </trkpt>
      <trkpt lat="46.19739" lon="6.73908">
        <ele>1721</ele>
        <time>2000-01-01T02:37:36.000Z</time>
      </trkpt>
      <trkpt lat="46.19741" lon="6.7393">
        <ele>1723.8</ele>
        <time>2000-01-01T02:37:46.000Z</time>
      </trkpt>
      <trkpt lat="46.19738" lon="6.73944">
        <ele>1717</ele>
        <time>2000-01-01T02:37:56.000Z</time>
      </trkpt>
      <trkpt lat="46.1974" lon="6.73961">
        <ele>1720.9</ele>
        <time>2000-01-01T02:38:06.000Z</time>
      </trkpt>
      <trkpt lat="46.19749" lon="6.73981">
        <ele>1718</ele>
        <time>2000-01-01T02:38:16.000Z</time>
      </trkpt>
      <trkpt lat="46.19756" lon="6.74009">
        <ele>1717</ele>
        <time>2000-01-01T02:38:26.000Z</time>
      </trkpt>
      <trkpt lat="46.19785" lon="6.74048">
        <ele>1717</ele>
        <time>2000-01-01T02:38:36.000Z</time>
      </trkpt>
      <trkpt lat="46.1979" lon="6.74058">
        <ele>1724.2</ele>
        <time>2000-01-01T02:38:46.000Z</time>
      </trkpt>
      <trkpt lat="46.19795" lon="6.74084">
        <ele>1714</ele>
        <time>2000-01-01T02:38:56.000Z</time>
      </trkpt>
      <trkpt lat="46.19804" lon="6.74118">
        <ele>1714</ele>
        <time>2000-01-01T02:39:06.000Z</time>
      </trkpt>
      <trkpt lat="46.19807" lon="6.74145">
        <ele>1712</ele>
        <time>2000-01-01T02:39:16.000Z</time>
      </trkpt>
      <trkpt lat="46.19813" lon="6.74172">
        <ele>1712</ele>
        <time>2000-01-01T02:39:26.000Z</time>
      </trkpt>
      <trkpt lat="46.19813" lon="6.74201">
        <ele>1711</ele>
        <time>2000-01-01T02:39:36.000Z</time>
      </trkpt>
      <trkpt lat="46.1982" lon="6.74214">
        <ele>1712.5</ele>
        <time>2000-01-01T02:39:46.000Z</time>
      </trkpt>
      <trkpt lat="46.19821" lon="6.7423">
        <ele>1710</ele>
        <time>2000-01-01T02:39:56.000Z</time>
      </trkpt>
      <trkpt lat="46.19829" lon="6.74245">
        <ele>1711.1</ele>
        <time>2000-01-01T02:40:06.000Z</time>
      </trkpt>
      <trkpt lat="46.19831" lon="6.74266">
        <ele>1708</ele>
        <time>2000-01-01T02:40:16.000Z</time>
      </trkpt>
      <trkpt lat="46.19838" lon="6.74281">
        <ele>1709.3</ele>
        <time>2000-01-01T02:40:26.000Z</time>
      </trkpt>
      <trkpt lat="46.19849" lon="6.74293">
        <ele>1706</ele>
        <time>2000-01-01T02:40:36.000Z</time>
      </trkpt>
      <trkpt lat="46.19846" lon="6.74298">
        <ele>1709.3</ele>
        <time>2000-01-01T02:40:46.000Z</time>
      </trkpt>
      <trkpt lat="46.19834" lon="6.74295">
        <ele>1706.3</ele>
        <time>2000-01-01T02:40:56.000Z</time>
      </trkpt>
      <trkpt lat="46.19831" lon="6.74298">
        <ele>1704</ele>
        <time>2000-01-01T02:41:06.000Z</time>
      </trkpt>
      <trkpt lat="46.19832" lon="6.74309">
        <ele>1703.7</ele>
        <time>2000-01-01T02:41:16.000Z</time>
      </trkpt>
      <trkpt lat="46.19839" lon="6.74323">
        <ele>1700</ele>
        <time>2000-01-01T02:41:26.000Z</time>
      </trkpt>
      <trkpt lat="46.19849" lon="6.74341">
        <ele>1705.1</ele>
        <time>2000-01-01T02:41:36.000Z</time>
      </trkpt>
      <trkpt lat="46.19853" lon="6.74357">
        <ele>1698</ele>
        <time>2000-01-01T02:41:46.000Z</time>
      </trkpt>
      <trkpt lat="46.19854" lon="6.74381">
        <ele>1704.7</ele>
        <time>2000-01-01T02:41:56.000Z</time>
      </trkpt>
      <trkpt lat="46.19854" lon="6.74405">
        <ele>1697</ele>
        <time>2000-01-01T02:42:06.000Z</time>
      </trkpt>
      <trkpt lat="46.19851" lon="6.74422">
        <ele>1701.5</ele>
        <time>2000-01-01T02:42:16.000Z</time>
      </trkpt>
      <trkpt lat="46.19861" lon="6.74489">
        <ele>1694</ele>
        <time>2000-01-01T02:42:26.000Z</time>
      </trkpt>
      <trkpt lat="46.19871" lon="6.7452">
        <ele>1693</ele>
        <time>2000-01-01T02:42:36.000Z</time>
      </trkpt>
      <trkpt lat="46.19881" lon="6.74551">
        <ele>1690</ele>
        <time>2000-01-01T02:42:46.000Z</time>
      </trkpt>
      <trkpt lat="46.19882" lon="6.74571">
        <ele>1697.3</ele>
        <time>2000-01-01T02:42:56.000Z</time>
      </trkpt>
      <trkpt lat="46.19884" lon="6.74586">
        <ele>1687</ele>
        <time>2000-01-01T02:43:06.000Z</time>
      </trkpt>
      <trkpt lat="46.19888" lon="6.74599">
        <ele>1696.6</ele>
        <time>2000-01-01T02:43:16.000Z</time>
      </trkpt>
      <trkpt lat="46.19887" lon="6.74604">
        <ele>1696.1</ele>
        <time>2000-01-01T02:43:26.000Z</time>
      </trkpt>
      <trkpt lat="46.19884" lon="6.74604">
        <ele>1695.4</ele>
        <time>2000-01-01T02:43:36.000Z</time>
      </trkpt>
      <trkpt lat="46.19882" lon="6.74603">
        <ele>1695</ele>
        <time>2000-01-01T02:43:46.000Z</time>
      </trkpt>
      <trkpt lat="46.1988" lon="6.74587">
        <ele>1684</ele>
        <time>2000-01-01T02:43:56.000Z</time>
      </trkpt>
      <trkpt lat="46.19876" lon="6.74574">
        <ele>1695.6</ele>
        <time>2000-01-01T02:44:06.000Z</time>
      </trkpt>
      <trkpt lat="46.1987" lon="6.7456">
        <ele>1681</ele>
        <time>2000-01-01T02:44:16.000Z</time>
      </trkpt>
      <trkpt lat="46.19861" lon="6.74547">
        <ele>1694.2</ele>
        <time>2000-01-01T02:44:26.000Z</time>
      </trkpt>
      <trkpt lat="46.19857" lon="6.74545">
        <ele>1693.3</ele>
        <time>2000-01-01T02:44:36.000Z</time>
      </trkpt>
      <trkpt lat="46.19856" lon="6.74549">
        <ele>1681</ele>
        <time>2000-01-01T02:44:46.000Z</time>
      </trkpt>
      <trkpt lat="46.19862" lon="6.74572">
        <ele>1692.4</ele>
        <time>2000-01-01T02:44:56.000Z</time>
      </trkpt>
      <trkpt lat="46.19865" lon="6.74591">
        <ele>1679</ele>
        <time>2000-01-01T02:45:06.000Z</time>
      </trkpt>
      <trkpt lat="46.19862" lon="6.74625">
        <ele>1677</ele>
        <time>2000-01-01T02:45:16.000Z</time>
      </trkpt>
      <trkpt lat="46.19862" lon="6.74645">
        <ele>1688.3</ele>
        <time>2000-01-01T02:45:26.000Z</time>
      </trkpt>
      <trkpt lat="46.1986" lon="6.74657">
        <ele>1675</ele>
        <time>2000-01-01T02:45:36.000Z</time>
      </trkpt>
      <trkpt lat="46.1984" lon="6.74682">
        <ele>1673</ele>
        <time>2000-01-01T02:45:46.000Z</time>
      </trkpt>
      <trkpt lat="46.19814" lon="6.74716">
        <ele>1671</ele>
        <time>2000-01-01T02:45:56.000Z</time>
      </trkpt>
      <trkpt lat="46.19805" lon="6.74738">
        <ele>1676.4</ele>
        <time>2000-01-01T02:46:06.000Z</time>
      </trkpt>
      <trkpt lat="46.19802" lon="6.74749">
        <ele>1670</ele>
        <time>2000-01-01T02:46:16.000Z</time>
      </trkpt>
      <trkpt lat="46.19803" lon="6.74762">
        <ele>1676.4</ele>
        <time>2000-01-01T02:46:26.000Z</time>
      </trkpt>
      <trkpt lat="46.19798" lon="6.74772">
        <ele>1676.1</ele>
        <time>2000-01-01T02:46:36.000Z</time>
      </trkpt>
      <trkpt lat="46.19787" lon="6.74772">
        <ele>1667</ele>
        <time>2000-01-01T02:46:46.000Z</time>
      </trkpt>
      <trkpt lat="46.19781" lon="6.74793">
        <ele>1674.4</ele>
        <time>2000-01-01T02:46:56.000Z</time>
      </trkpt>
      <trkpt lat="46.19776" lon="6.74826">
        <ele>1663</ele>
        <time>2000-01-01T02:47:06.000Z</time>
      </trkpt>
      <trkpt lat="46.19774" lon="6.74827">
        <ele>1673.7</ele>
        <time>2000-01-01T02:47:16.000Z</time>
      </trkpt>
      <trkpt lat="46.19775" lon="6.74847">
        <ele>1673.8</ele>
        <time>2000-01-01T02:47:26.000Z</time>
      </trkpt>
      <trkpt lat="46.19767" lon="6.74862">
        <ele>1661</ele>
        <time>2000-01-01T02:47:36.000Z</time>
      </trkpt>
      <trkpt lat="46.19766" lon="6.74882">
        <ele>1671.8</ele>
        <time>2000-01-01T02:47:46.000Z</time>
      </trkpt>
      <trkpt lat="46.19763" lon="6.74887">
        <ele>1671.1</ele>
        <time>2000-01-01T02:47:56.000Z</time>
      </trkpt>
      <trkpt lat="46.1976" lon="6.74907">
        <ele>1659</ele>
        <time>2000-01-01T02:48:06.000Z</time>
      </trkpt>
      <trkpt lat="46.19746" lon="6.74944">
        <ele>1658</ele>
        <time>2000-01-01T02:48:16.000Z</time>
      </trkpt>
      <trkpt lat="46.19738" lon="6.74955">
        <ele>1666</ele>
        <time>2000-01-01T02:48:26.000Z</time>
      </trkpt>
      <trkpt lat="46.19732" lon="6.74959">
        <ele>1665.1</ele>
        <time>2000-01-01T02:48:36.000Z</time>
      </trkpt>
      <trkpt lat="46.1973" lon="6.74966">
        <ele>1656</ele>
        <time>2000-01-01T02:48:46.000Z</time>
      </trkpt>
      <trkpt lat="46.19727" lon="6.7501">
        <ele>1654</ele>
        <time>2000-01-01T02:48:56.000Z</time>
      </trkpt>
      <trkpt lat="46.19723" lon="6.75004">
        <ele>1663.4</ele>
        <time>2000-01-01T02:49:06.000Z</time>
      </trkpt>
      <trkpt lat="46.19719" lon="6.74991">
        <ele>1663</ele>
        <time>2000-01-01T02:49:16.000Z</time>
      </trkpt>
      <trkpt lat="46.19714" lon="6.7502">
        <ele>1653</ele>
        <time>2000-01-01T02:49:26.000Z</time>
      </trkpt>
      <trkpt lat="46.19709" lon="6.75031">
        <ele>1661.4</ele>
        <time>2000-01-01T02:49:36.000Z</time>
      </trkpt>
      <trkpt lat="46.19707" lon="6.75028">
        <ele>1661.2</ele>
        <time>2000-01-01T02:49:46.000Z</time>
      </trkpt>
      <trkpt lat="46.19702" lon="6.75015">
        <ele>1652</ele>
        <time>2000-01-01T02:49:56.000Z</time>
      </trkpt>
      <trkpt lat="46.19698" lon="6.75015">
        <ele>1660.1</ele>
        <time>2000-01-01T02:50:06.000Z</time>
      </trkpt>
      <trkpt lat="46.19694" lon="6.75022">
        <ele>1659.5</ele>
        <time>2000-01-01T02:50:16.000Z</time>
      </trkpt>
      <trkpt lat="46.19689" lon="6.75021">
        <ele>1658.9</ele>
        <time>2000-01-01T02:50:26.000Z</time>
      </trkpt>
      <trkpt lat="46.19683" lon="6.75005">
        <ele>1649</ele>
        <time>2000-01-01T02:50:36.000Z</time>
      </trkpt>
      <trkpt lat="46.19676" lon="6.74981">
        <ele>1657.5</ele>
        <time>2000-01-01T02:50:46.000Z</time>
      </trkpt>
      <trkpt lat="46.19674" lon="6.74976">
        <ele>1646</ele>
        <time>2000-01-01T02:50:56.000Z</time>
      </trkpt>
      <trkpt lat="46.19671" lon="6.74975">
        <ele>1656.9</ele>
        <time>2000-01-01T02:51:06.000Z</time>
      </trkpt>
      <trkpt lat="46.1966" lon="6.74998">
        <ele>1644</ele>
        <time>2000-01-01T02:51:16.000Z</time>
      </trkpt>
      <trkpt lat="46.19653" lon="6.74985">
        <ele>1655</ele>
        <time>2000-01-01T02:51:26.000Z</time>
      </trkpt>
      <trkpt lat="46.19634" lon="6.75016">
        <ele>1641</ele>
        <time>2000-01-01T02:51:36.000Z</time>
      </trkpt>
      <trkpt lat="46.19625" lon="6.75024">
        <ele>1652.4</ele>
        <time>2000-01-01T02:51:46.000Z</time>
      </trkpt>
      <trkpt lat="46.19616" lon="6.75028">
        <ele>1638</ele>
        <time>2000-01-01T02:51:56.000Z</time>
      </trkpt>
      <trkpt lat="46.19614" lon="6.75043">
        <ele>1650.9</ele>
        <time>2000-01-01T02:52:06.000Z</time>
      </trkpt>
      <trkpt lat="46.19606" lon="6.7504">
        <ele>1637</ele>
        <time>2000-01-01T02:52:16.000Z</time>
      </trkpt>
      <trkpt lat="46.19599" lon="6.75044">
        <ele>1649.4</ele>
        <time>2000-01-01T02:52:26.000Z</time>
      </trkpt>
      <trkpt lat="46.19586" lon="6.75082">
        <ele>1636</ele>
        <time>2000-01-01T02:52:36.000Z</time>
      </trkpt>
      <trkpt lat="46.19573" lon="6.75118">
        <ele>1636</ele>
        <time>2000-01-01T02:52:46.000Z</time>
      </trkpt>
      <trkpt lat="46.19554" lon="6.75171">
        <ele>1636</ele>
        <time>2000-01-01T02:52:56.000Z</time>
      </trkpt>
      <trkpt lat="46.19564" lon="6.75123">
        <ele>1636</ele>
        <time>2000-01-01T02:53:06.000Z</time>
      </trkpt>
      <trkpt lat="46.19574" lon="6.75082">
        <ele>1635</ele>
        <time>2000-01-01T02:53:16.000Z</time>
      </trkpt>
      <trkpt lat="46.19584" lon="6.75047">
        <ele>1635</ele>
        <time>2000-01-01T02:53:26.000Z</time>
      </trkpt>
      <trkpt lat="46.19597" lon="6.74998">
        <ele>1633</ele>
        <time>2000-01-01T02:53:36.000Z</time>
      </trkpt>
      <trkpt lat="46.19609" lon="6.74949">
        <ele>1635</ele>
        <time>2000-01-01T02:53:46.000Z</time>
      </trkpt>
      <trkpt lat="46.19622" lon="6.749">
        <ele>1637</ele>
        <time>2000-01-01T02:53:56.000Z</time>
      </trkpt>
      <trkpt lat="46.1963" lon="6.74866">
        <ele>1637</ele>
        <time>2000-01-01T02:54:06.000Z</time>
      </trkpt>
      <trkpt lat="46.1964" lon="6.74828">
        <ele>1639</ele>
        <time>2000-01-01T02:54:16.000Z</time>
      </trkpt>
      <trkpt lat="46.1965" lon="6.7479">
        <ele>1645</ele>
        <time>2000-01-01T02:54:26.000Z</time>
      </trkpt>
      <trkpt lat="46.19666" lon="6.74734">
        <ele>1653</ele>
        <time>2000-01-01T02:54:36.000Z</time>
      </trkpt>
      <trkpt lat="46.19679" lon="6.74684">
        <ele>1659</ele>
        <time>2000-01-01T02:54:46.000Z</time>
      </trkpt>
      <trkpt lat="46.19693" lon="6.74635">
        <ele>1665</ele>
        <time>2000-01-01T02:54:56.000Z</time>
      </trkpt>
      <trkpt lat="46.19706" lon="6.74585">
        <ele>1668</ele>
        <time>2000-01-01T02:55:06.000Z</time>
      </trkpt>
      <trkpt lat="46.19716" lon="6.74549">
        <ele>1670</ele>
        <time>2000-01-01T02:55:16.000Z</time>
      </trkpt>
      <trkpt lat="46.19729" lon="6.74499">
        <ele>1670</ele>
        <time>2000-01-01T02:55:26.000Z</time>
      </trkpt>
      <trkpt lat="46.19744" lon="6.74446">
        <ele>1670</ele>
        <time>2000-01-01T02:55:36.000Z</time>
      </trkpt>
      <trkpt lat="46.19755" lon="6.74399">
        <ele>1670</ele>
        <time>2000-01-01T02:55:46.000Z</time>
      </trkpt>
      <trkpt lat="46.19764" lon="6.74363">
        <ele>1675</ele>
        <time>2000-01-01T02:55:56.000Z</time>
      </trkpt>
      <trkpt lat="46.19777" lon="6.74315">
        <ele>1679</ele>
        <time>2000-01-01T02:56:06.000Z</time>
      </trkpt>
      <trkpt lat="46.19788" lon="6.74271">
        <ele>1689</ele>
        <time>2000-01-01T02:56:16.000Z</time>
      </trkpt>
      <trkpt lat="46.19799" lon="6.74226">
        <ele>1698</ele>
        <time>2000-01-01T02:56:26.000Z</time>
      </trkpt>
      <trkpt lat="46.19814" lon="6.74166">
        <ele>1713</ele>
        <time>2000-01-01T02:56:36.000Z</time>
      </trkpt>
      <trkpt lat="46.19827" lon="6.74119">
        <ele>1721</ele>
        <time>2000-01-01T02:56:46.000Z</time>
      </trkpt>
      <trkpt lat="46.19837" lon="6.74081">
        <ele>1728</ele>
        <time>2000-01-01T02:56:56.000Z</time>
      </trkpt>
      <trkpt lat="46.19852" lon="6.74022">
        <ele>1743</ele>
        <time>2000-01-01T02:57:06.000Z</time>
      </trkpt>
      <trkpt lat="46.19865" lon="6.73976">
        <ele>1756</ele>
        <time>2000-01-01T02:57:16.000Z</time>
      </trkpt>
      <trkpt lat="46.19874" lon="6.73941">
        <ele>1762</ele>
        <time>2000-01-01T02:57:26.000Z</time>
      </trkpt>
      <trkpt lat="46.19886" lon="6.73897">
        <ele>1770</ele>
        <time>2000-01-01T02:57:36.000Z</time>
      </trkpt>
      <trkpt lat="46.19891" lon="6.73884">
        <ele>1758.7</ele>
        <time>2000-01-01T02:57:46.000Z</time>
      </trkpt>
      <trkpt lat="46.19905" lon="6.73903">
        <ele>1769</ele>
        <time>2000-01-01T02:57:56.000Z</time>
      </trkpt>
      <trkpt lat="46.19905" lon="6.73939">
        <ele>1769</ele>
        <time>2000-01-01T02:58:06.000Z</time>
      </trkpt>
      <trkpt lat="46.19905" lon="6.73981">
        <ele>1766</ele>
        <time>2000-01-01T02:58:16.000Z</time>
      </trkpt>
      <trkpt lat="46.19923" lon="6.74038">
        <ele>1765</ele>
        <time>2000-01-01T02:58:26.000Z</time>
      </trkpt>
      <trkpt lat="46.1994" lon="6.74064">
        <ele>1764</ele>
        <time>2000-01-01T02:58:36.000Z</time>
      </trkpt>
      <trkpt lat="46.19958" lon="6.74082">
        <ele>1764</ele>
        <time>2000-01-01T02:58:46.000Z</time>
      </trkpt>
      <trkpt lat="46.19978" lon="6.74107">
        <ele>1763</ele>
        <time>2000-01-01T02:58:56.000Z</time>
      </trkpt>
      <trkpt lat="46.19995" lon="6.74145">
        <ele>1762</ele>
        <time>2000-01-01T02:59:06.000Z</time>
      </trkpt>
      <trkpt lat="46.20006" lon="6.74178">
        <ele>1759</ele>
        <time>2000-01-01T02:59:16.000Z</time>
      </trkpt>
      <trkpt lat="46.2001" lon="6.74204">
        <ele>1756</ele>
        <time>2000-01-01T02:59:26.000Z</time>
      </trkpt>
      <trkpt lat="46.2002" lon="6.74202">
        <ele>1757</ele>
        <time>2000-01-01T02:59:36.000Z</time>
      </trkpt>
      <trkpt lat="46.20028" lon="6.74226">
        <ele>1754.5</ele>
        <time>2000-01-01T02:59:46.000Z</time>
      </trkpt>
      <trkpt lat="46.20029" lon="6.74211">
        <ele>1757</ele>
        <time>2000-01-01T02:59:56.000Z</time>
      </trkpt>
      <trkpt lat="46.20032" lon="6.74205">
        <ele>1754.4</ele>
        <time>2000-01-01T03:00:06.000Z</time>
      </trkpt>
      <trkpt lat="46.20037" lon="6.74204">
        <ele>1754</ele>
        <time>2000-01-01T03:00:16.000Z</time>
      </trkpt>
      <trkpt lat="46.20042" lon="6.74205">
        <ele>1753.7</ele>
        <time>2000-01-01T03:00:26.000Z</time>
      </trkpt>
      <trkpt lat="46.20052" lon="6.74211">
        <ele>1750</ele>
        <time>2000-01-01T03:00:36.000Z</time>
      </trkpt>
      <trkpt lat="46.20078" lon="6.74241">
        <ele>1748</ele>
        <time>2000-01-01T03:00:46.000Z</time>
      </trkpt>
      <trkpt lat="46.20084" lon="6.74244">
        <ele>1754.3</ele>
        <time>2000-01-01T03:00:56.000Z</time>
      </trkpt>
      <trkpt lat="46.20104" lon="6.74244">
        <ele>1741</ele>
        <time>2000-01-01T03:01:06.000Z</time>
      </trkpt>
      <trkpt lat="46.20112" lon="6.7424">
        <ele>1746.8</ele>
        <time>2000-01-01T03:01:16.000Z</time>
      </trkpt>
      <trkpt lat="46.20126" lon="6.74228">
        <ele>1736</ele>
        <time>2000-01-01T03:01:26.000Z</time>
      </trkpt>
      <trkpt lat="46.2013" lon="6.74226">
        <ele>1741.8</ele>
        <time>2000-01-01T03:01:36.000Z</time>
      </trkpt>
      <trkpt lat="46.20138" lon="6.74224">
        <ele>1739.9</ele>
        <time>2000-01-01T03:01:46.000Z</time>
      </trkpt>
      <trkpt lat="46.20146" lon="6.74223">
        <ele>1736</ele>
        <time>2000-01-01T03:01:56.000Z</time>
      </trkpt>
      <trkpt lat="46.20155" lon="6.74222">
        <ele>1736</ele>
        <time>2000-01-01T03:02:06.000Z</time>
      </trkpt>
      <trkpt lat="46.20161" lon="6.74228">
        <ele>1734.6</ele>
        <time>2000-01-01T03:02:16.000Z</time>
      </trkpt>
      <trkpt lat="46.20164" lon="6.74235">
        <ele>1736</ele>
        <time>2000-01-01T03:02:26.000Z</time>
      </trkpt>
      <trkpt lat="46.20161" lon="6.74249">
        <ele>1734.5</ele>
        <time>2000-01-01T03:02:36.000Z</time>
      </trkpt>
      <trkpt lat="46.20157" lon="6.74262">
        <ele>1732</ele>
        <time>2000-01-01T03:02:46.000Z</time>
      </trkpt>
      <trkpt lat="46.20152" lon="6.74284">
        <ele>1734</ele>
        <time>2000-01-01T03:02:56.000Z</time>
      </trkpt>
      <trkpt lat="46.20146" lon="6.74321">
        <ele>1728</ele>
        <time>2000-01-01T03:03:06.000Z</time>
      </trkpt>
      <trkpt lat="46.20148" lon="6.74344">
        <ele>1730</ele>
        <time>2000-01-01T03:03:16.000Z</time>
      </trkpt>
      <trkpt lat="46.20145" lon="6.74381">
        <ele>1721</ele>
        <time>2000-01-01T03:03:26.000Z</time>
      </trkpt>
      <trkpt lat="46.20147" lon="6.74431">
        <ele>1717</ele>
        <time>2000-01-01T03:03:36.000Z</time>
      </trkpt>
      <trkpt lat="46.20147" lon="6.74451">
        <ele>1719.1</ele>
        <time>2000-01-01T03:03:46.000Z</time>
      </trkpt>
      <trkpt lat="46.20154" lon="6.74493">
        <ele>1710</ele>
        <time>2000-01-01T03:03:56.000Z</time>
      </trkpt>
      <trkpt lat="46.20157" lon="6.74515">
        <ele>1711.3</ele>
        <time>2000-01-01T03:04:06.000Z</time>
      </trkpt>
      <trkpt lat="46.20161" lon="6.74527">
        <ele>1705</ele>
        <time>2000-01-01T03:04:16.000Z</time>
      </trkpt>
      <trkpt lat="46.20163" lon="6.74546">
        <ele>1707.6</ele>
        <time>2000-01-01T03:04:26.000Z</time>
      </trkpt>
      <trkpt lat="46.20172" lon="6.74591">
        <ele>1702</ele>
        <time>2000-01-01T03:04:36.000Z</time>
      </trkpt>
      <trkpt lat="46.20179" lon="6.74643">
        <ele>1700</ele>
        <time>2000-01-01T03:04:46.000Z</time>
      </trkpt>
      <trkpt lat="46.20187" lon="6.74679">
        <ele>1699</ele>
        <time>2000-01-01T03:04:56.000Z</time>
      </trkpt>
      <trkpt lat="46.20195" lon="6.747">
        <ele>1704.1</ele>
        <time>2000-01-01T03:05:06.000Z</time>
      </trkpt>
      <trkpt lat="46.20202" lon="6.7471">
        <ele>1694</ele>
        <time>2000-01-01T03:05:16.000Z</time>
      </trkpt>
      <trkpt lat="46.20208" lon="6.74715">
        <ele>1699.6</ele>
        <time>2000-01-01T03:05:26.000Z</time>
      </trkpt>
      <trkpt lat="46.20222" lon="6.74715">
        <ele>1689</ele>
        <time>2000-01-01T03:05:36.000Z</time>
      </trkpt>
      <trkpt lat="46.20229" lon="6.74722">
        <ele>1691.7</ele>
        <time>2000-01-01T03:05:46.000Z</time>
      </trkpt>
      <trkpt lat="46.20233" lon="6.74729">
        <ele>1689.9</ele>
        <time>2000-01-01T03:05:56.000Z</time>
      </trkpt>
      <trkpt lat="46.20237" lon="6.74733">
        <ele>1686</ele>
        <time>2000-01-01T03:06:06.000Z</time>
      </trkpt>
      <trkpt lat="46.20238" lon="6.74741">
        <ele>1687.4</ele>
        <time>2000-01-01T03:06:16.000Z</time>
      </trkpt>
      <trkpt lat="46.20234" lon="6.74755">
        <ele>1688.4</ele>
        <time>2000-01-01T03:06:26.000Z</time>
      </trkpt>
      <trkpt lat="46.20231" lon="6.74773">
        <ele>1681</ele>
        <time>2000-01-01T03:06:36.000Z</time>
      </trkpt>
      <trkpt lat="46.20232" lon="6.74783">
        <ele>1687.6</ele>
        <time>2000-01-01T03:06:46.000Z</time>
      </trkpt>
      <trkpt lat="46.20236" lon="6.74798">
        <ele>1684.7</ele>
        <time>2000-01-01T03:06:56.000Z</time>
      </trkpt>
      <trkpt lat="46.2024" lon="6.74821">
        <ele>1676</ele>
        <time>2000-01-01T03:07:06.000Z</time>
      </trkpt>
      <trkpt lat="46.2025" lon="6.74844">
        <ele>1673</ele>
        <time>2000-01-01T03:07:16.000Z</time>
      </trkpt>
      <trkpt lat="46.20259" lon="6.74863">
        <ele>1672.4</ele>
        <time>2000-01-01T03:07:26.000Z</time>
      </trkpt>
      <trkpt lat="46.20267" lon="6.7494">
        <ele>1672</ele>
        <time>2000-01-01T03:07:36.000Z</time>
      </trkpt>
      <trkpt lat="46.20288" lon="6.74926">
        <ele>1659</ele>
        <time>2000-01-01T03:07:46.000Z</time>
      </trkpt>
      <trkpt lat="46.20307" lon="6.74936">
        <ele>1653</ele>
        <time>2000-01-01T03:07:56.000Z</time>
      </trkpt>
      <trkpt lat="46.20335" lon="6.74922">
        <ele>1639</ele>
        <time>2000-01-01T03:08:06.000Z</time>
      </trkpt>
      <trkpt lat="46.2035" lon="6.74889">
        <ele>1635</ele>
        <time>2000-01-01T03:08:16.000Z</time>
      </trkpt>
      <trkpt lat="46.20384" lon="6.74859">
        <ele>1620</ele>
        <time>2000-01-01T03:08:26.000Z</time>
      </trkpt>
      <trkpt lat="46.20411" lon="6.7487">
        <ele>1616</ele>
        <time>2000-01-01T03:08:36.000Z</time>
      </trkpt>
      <trkpt lat="46.20454" lon="6.74888">
        <ele>1610</ele>
        <time>2000-01-01T03:08:46.000Z</time>
      </trkpt>
      <trkpt lat="46.20476" lon="6.74872">
        <ele>1607</ele>
        <time>2000-01-01T03:08:56.000Z</time>
      </trkpt>
      <trkpt lat="46.20485" lon="6.74911">
        <ele>1610</ele>
        <time>2000-01-01T03:09:06.000Z</time>
      </trkpt>
      <trkpt lat="46.2049" lon="6.7497">
        <ele>1614</ele>
        <time>2000-01-01T03:09:16.000Z</time>
      </trkpt>
      <trkpt lat="46.2049" lon="6.75007">
        <ele>1627</ele>
        <time>2000-01-01T03:09:26.000Z</time>
      </trkpt>
      <trkpt lat="46.2049" lon="6.75051">
        <ele>1643</ele>
        <time>2000-01-01T03:09:36.000Z</time>
      </trkpt>
      <trkpt lat="46.20493" lon="6.75079">
        <ele>1641</ele>
        <time>2000-01-01T03:09:46.000Z</time>
      </trkpt>
      <trkpt lat="46.20499" lon="6.7509">
        <ele>1651.9</ele>
        <time>2000-01-01T03:09:56.000Z</time>
      </trkpt>
      <trkpt lat="46.20502" lon="6.75134">
        <ele>1639</ele>
        <time>2000-01-01T03:10:06.000Z</time>
      </trkpt>
      <trkpt lat="46.20494" lon="6.75161">
        <ele>1635</ele>
        <time>2000-01-01T03:10:16.000Z</time>
      </trkpt>
      <trkpt lat="46.20494" lon="6.75194">
        <ele>1628</ele>
        <time>2000-01-01T03:10:26.000Z</time>
      </trkpt>
      <trkpt lat="46.20504" lon="6.75227">
        <ele>1623</ele>
        <time>2000-01-01T03:10:36.000Z</time>
      </trkpt>
      <trkpt lat="46.20514" lon="6.75265">
        <ele>1621</ele>
        <time>2000-01-01T03:10:46.000Z</time>
      </trkpt>
      <trkpt lat="46.20528" lon="6.75289">
        <ele>1619</ele>
        <time>2000-01-01T03:10:56.000Z</time>
      </trkpt>
      <trkpt lat="46.20553" lon="6.75305">
        <ele>1616</ele>
        <time>2000-01-01T03:11:06.000Z</time>
      </trkpt>
      <trkpt lat="46.20576" lon="6.75299">
        <ele>1614</ele>
        <time>2000-01-01T03:11:16.000Z</time>
      </trkpt>
      <trkpt lat="46.20601" lon="6.75294">
        <ele>1609</ele>
        <time>2000-01-01T03:11:26.000Z</time>
      </trkpt>
      <trkpt lat="46.20607" lon="6.75301">
        <ele>1609</ele>
        <time>2000-01-01T03:11:36.000Z</time>
      </trkpt>
      <trkpt lat="46.20597" lon="6.75338">
        <ele>1604</ele>
        <time>2000-01-01T03:11:46.000Z</time>
      </trkpt>
      <trkpt lat="46.2059" lon="6.75358">
        <ele>1604.5</ele>
        <time>2000-01-01T03:11:56.000Z</time>
      </trkpt>
      <trkpt lat="46.20591" lon="6.75376">
        <ele>1593</ele>
        <time>2000-01-01T03:12:06.000Z</time>
      </trkpt>
      <trkpt lat="46.20601" lon="6.75401">
        <ele>1590</ele>
        <time>2000-01-01T03:12:16.000Z</time>
      </trkpt>
      <trkpt lat="46.20609" lon="6.75443">
        <ele>1590</ele>
        <time>2000-01-01T03:12:26.000Z</time>
      </trkpt>
      <trkpt lat="46.20613" lon="6.75495">
        <ele>1588</ele>
        <time>2000-01-01T03:12:36.000Z</time>
      </trkpt>
      <trkpt lat="46.20619" lon="6.75546">
        <ele>1586</ele>
        <time>2000-01-01T03:12:46.000Z</time>
      </trkpt>
      <trkpt lat="46.20621" lon="6.7559">
        <ele>1581</ele>
        <time>2000-01-01T03:12:56.000Z</time>
      </trkpt>
      <trkpt lat="46.20615" lon="6.75652">
        <ele>1580</ele>
        <time>2000-01-01T03:13:06.000Z</time>
      </trkpt>
      <trkpt lat="46.20612" lon="6.75691">
        <ele>1580</ele>
        <time>2000-01-01T03:13:16.000Z</time>
      </trkpt>
      <trkpt lat="46.20607" lon="6.75745">
        <ele>1581</ele>
        <time>2000-01-01T03:13:26.000Z</time>
      </trkpt>
      <trkpt lat="46.20594" lon="6.75789">
        <ele>1583</ele>
        <time>2000-01-01T03:13:36.000Z</time>
      </trkpt>
      <trkpt lat="46.20594" lon="6.75797">
        <ele>1591.6</ele>
        <time>2000-01-01T03:13:46.000Z</time>
      </trkpt>
      <trkpt lat="46.20597" lon="6.75807">
        <ele>1590.6</ele>
        <time>2000-01-01T03:13:56.000Z</time>
      </trkpt>
      <trkpt lat="46.20604" lon="6.75821">
        <ele>1583</ele>
        <time>2000-01-01T03:14:06.000Z</time>
      </trkpt>
      <trkpt lat="46.20609" lon="6.7584">
        <ele>1586.6</ele>
        <time>2000-01-01T03:14:16.000Z</time>
      </trkpt>
      <trkpt lat="46.20611" lon="6.75857">
        <ele>1576</ele>
        <time>2000-01-01T03:14:26.000Z</time>
      </trkpt>
      <trkpt lat="46.20611" lon="6.75887">
        <ele>1574</ele>
        <time>2000-01-01T03:14:36.000Z</time>
      </trkpt>
      <trkpt lat="46.20623" lon="6.75921">
        <ele>1571</ele>
        <time>2000-01-01T03:14:46.000Z</time>
      </trkpt>
      <trkpt lat="46.20631" lon="6.75953">
        <ele>1568</ele>
        <time>2000-01-01T03:14:56.000Z</time>
      </trkpt>
      <trkpt lat="46.20633" lon="6.75972">
        <ele>1574</ele>
        <time>2000-01-01T03:15:06.000Z</time>
      </trkpt>
      <trkpt lat="46.20633" lon="6.75988">
        <ele>1567</ele>
        <time>2000-01-01T03:15:16.000Z</time>
      </trkpt>
      <trkpt lat="46.2063" lon="6.76006">
        <ele>1573.2</ele>
        <time>2000-01-01T03:15:26.000Z</time>
      </trkpt>
      <trkpt lat="46.20623" lon="6.76027">
        <ele>1566</ele>
        <time>2000-01-01T03:15:36.000Z</time>
      </trkpt>
      <trkpt lat="46.20612" lon="6.76071">
        <ele>1566</ele>
        <time>2000-01-01T03:15:46.000Z</time>
      </trkpt>
      <trkpt lat="46.20615" lon="6.76091">
        <ele>1578.8</ele>
        <time>2000-01-01T03:15:56.000Z</time>
      </trkpt>
      <trkpt lat="46.20624" lon="6.76109">
        <ele>1567</ele>
        <time>2000-01-01T03:16:06.000Z</time>
      </trkpt>
      <trkpt lat="46.20637" lon="6.76128">
        <ele>1579.1</ele>
        <time>2000-01-01T03:16:16.000Z</time>
      </trkpt>
      <trkpt lat="46.20642" lon="6.76141">
        <ele>1573</ele>
        <time>2000-01-01T03:16:26.000Z</time>
      </trkpt>
      <trkpt lat="46.20641" lon="6.7616">
        <ele>1581.2</ele>
        <time>2000-01-01T03:16:36.000Z</time>
      </trkpt>
      <trkpt lat="46.20638" lon="6.76195">
        <ele>1577</ele>
        <time>2000-01-01T03:16:46.000Z</time>
      </trkpt>
      <trkpt lat="46.20635" lon="6.76206">
        <ele>1583.2</ele>
        <time>2000-01-01T03:16:56.000Z</time>
      </trkpt>
      <trkpt lat="46.20629" lon="6.76216">
        <ele>1584</ele>
        <time>2000-01-01T03:17:06.000Z</time>
      </trkpt>
      <trkpt lat="46.20625" lon="6.76229">
        <ele>1577</ele>
        <time>2000-01-01T03:17:16.000Z</time>
      </trkpt>
      <trkpt lat="46.20628" lon="6.76251">
        <ele>1584.8</ele>
        <time>2000-01-01T03:17:26.000Z</time>
      </trkpt>
      <trkpt lat="46.20634" lon="6.76266">
        <ele>1577</ele>
        <time>2000-01-01T03:17:36.000Z</time>
      </trkpt>
      <trkpt lat="46.20639" lon="6.76275">
        <ele>1584.6</ele>
        <time>2000-01-01T03:17:46.000Z</time>
      </trkpt>
      <trkpt lat="46.2064" lon="6.76286">
        <ele>1584.8</ele>
        <time>2000-01-01T03:17:56.000Z</time>
      </trkpt>
      <trkpt lat="46.2064" lon="6.76297">
        <ele>1577</ele>
        <time>2000-01-01T03:18:06.000Z</time>
      </trkpt>
      <trkpt lat="46.20633" lon="6.76312">
        <ele>1586.6</ele>
        <time>2000-01-01T03:18:16.000Z</time>
      </trkpt>
      <trkpt lat="46.20625" lon="6.76336">
        <ele>1577</ele>
        <time>2000-01-01T03:18:26.000Z</time>
      </trkpt>
      <trkpt lat="46.20625" lon="6.76349">
        <ele>1588.8</ele>
        <time>2000-01-01T03:18:36.000Z</time>
      </trkpt>
      <trkpt lat="46.20627" lon="6.7636">
        <ele>1588.7</ele>
        <time>2000-01-01T03:18:46.000Z</time>
      </trkpt>
      <trkpt lat="46.20634" lon="6.76372">
        <ele>1577</ele>
        <time>2000-01-01T03:18:56.000Z</time>
      </trkpt>
      <trkpt lat="46.20646" lon="6.76385">
        <ele>1587.1</ele>
        <time>2000-01-01T03:19:06.000Z</time>
      </trkpt>
      <trkpt lat="46.20658" lon="6.7639">
        <ele>1576</ele>
        <time>2000-01-01T03:19:16.000Z</time>
      </trkpt>
      <trkpt lat="46.20684" lon="6.76395">
        <ele>1576</ele>
        <time>2000-01-01T03:19:26.000Z</time>
      </trkpt>
      <trkpt lat="46.20708" lon="6.76398">
        <ele>1575</ele>
        <time>2000-01-01T03:19:36.000Z</time>
      </trkpt>
      <trkpt lat="46.20736" lon="6.76404">
        <ele>1573</ele>
        <time>2000-01-01T03:19:46.000Z</time>
      </trkpt>
      <trkpt lat="46.20763" lon="6.76413">
        <ele>1573</ele>
        <time>2000-01-01T03:19:56.000Z</time>
      </trkpt>
      <trkpt lat="46.20766" lon="6.76422">
        <ele>1567.7</ele>
        <time>2000-01-01T03:20:06.000Z</time>
      </trkpt>
      <trkpt lat="46.20767" lon="6.76443">
        <ele>1572</ele>
        <time>2000-01-01T03:20:16.000Z</time>
      </trkpt>
      <trkpt lat="46.20766" lon="6.76472">
        <ele>1572</ele>
        <time>2000-01-01T03:20:26.000Z</time>
      </trkpt>
      <trkpt lat="46.20764" lon="6.76482">
        <ele>1563.7</ele>
        <time>2000-01-01T03:20:36.000Z</time>
      </trkpt>
      <trkpt lat="46.20752" lon="6.76524">
        <ele>1571</ele>
        <time>2000-01-01T03:20:46.000Z</time>
      </trkpt>
      <trkpt lat="46.20739" lon="6.76564">
        <ele>1571</ele>
        <time>2000-01-01T03:20:56.000Z</time>
      </trkpt>
      <trkpt lat="46.20723" lon="6.76598">
        <ele>1571</ele>
        <time>2000-01-01T03:21:06.000Z</time>
      </trkpt>
      <trkpt lat="46.20698" lon="6.76642">
        <ele>1566</ele>
        <time>2000-01-01T03:21:16.000Z</time>
      </trkpt>
      <trkpt lat="46.20694" lon="6.76652">
        <ele>1572.2</ele>
        <time>2000-01-01T03:21:26.000Z</time>
      </trkpt>
      <trkpt lat="46.20687" lon="6.76674">
        <ele>1565</ele>
        <time>2000-01-01T03:21:36.000Z</time>
      </trkpt>
      <trkpt lat="46.20678" lon="6.76694">
        <ele>1573.3</ele>
        <time>2000-01-01T03:21:46.000Z</time>
      </trkpt>
      <trkpt lat="46.20674" lon="6.76716">
        <ele>1558</ele>
        <time>2000-01-01T03:21:56.000Z</time>
      </trkpt>
      <trkpt lat="46.20673" lon="6.76745">
        <ele>1557</ele>
        <time>2000-01-01T03:22:06.000Z</time>
      </trkpt>
      <trkpt lat="46.20676" lon="6.76775">
        <ele>1557</ele>
        <time>2000-01-01T03:22:16.000Z</time>
      </trkpt>
      <trkpt lat="46.20685" lon="6.7679">
        <ele>1569.8</ele>
        <time>2000-01-01T03:22:26.000Z</time>
      </trkpt>
      <trkpt lat="46.20712" lon="6.76817">
        <ele>1553</ele>
        <time>2000-01-01T03:22:36.000Z</time>
      </trkpt>
      <trkpt lat="46.20724" lon="6.76859">
        <ele>1552</ele>
        <time>2000-01-01T03:22:46.000Z</time>
      </trkpt>
      <trkpt lat="46.20734" lon="6.76905">
        <ele>1550</ele>
        <time>2000-01-01T03:22:56.000Z</time>
      </trkpt>
      <trkpt lat="46.20734" lon="6.76922">
        <ele>1560.1</ele>
        <time>2000-01-01T03:23:06.000Z</time>
      </trkpt>
      <trkpt lat="46.20731" lon="6.76947">
        <ele>1548</ele>
        <time>2000-01-01T03:23:16.000Z</time>
      </trkpt>
      <trkpt lat="46.20733" lon="6.76984">
        <ele>1547</ele>
        <time>2000-01-01T03:23:26.000Z</time>
      </trkpt>
      <trkpt lat="46.20734" lon="6.77035">
        <ele>1549</ele>
        <time>2000-01-01T03:23:36.000Z</time>
      </trkpt>
      <trkpt lat="46.20732" lon="6.77045">
        <ele>1552.8</ele>
        <time>2000-01-01T03:23:46.000Z</time>
      </trkpt>
      <trkpt lat="46.20719" lon="6.77069">
        <ele>1546</ele>
        <time>2000-01-01T03:23:56.000Z</time>
      </trkpt>
      <trkpt lat="46.20697" lon="6.77125">
        <ele>1543</ele>
        <time>2000-01-01T03:24:06.000Z</time>
      </trkpt>
      <trkpt lat="46.20699" lon="6.7714">
        <ele>1560.9</ele>
        <time>2000-01-01T03:24:16.000Z</time>
      </trkpt>
      <trkpt lat="46.20719" lon="6.7717">
        <ele>1538</ele>
        <time>2000-01-01T03:24:26.000Z</time>
      </trkpt>
      <trkpt lat="46.2074" lon="6.77198">
        <ele>1536</ele>
        <time>2000-01-01T03:24:36.000Z</time>
      </trkpt>
      <trkpt lat="46.20755" lon="6.7721">
        <ele>1549.1</ele>
        <time>2000-01-01T03:24:46.000Z</time>
      </trkpt>
      <trkpt lat="46.20765" lon="6.77211">
        <ele>1534</ele>
        <time>2000-01-01T03:24:56.000Z</time>
      </trkpt>
      <trkpt lat="46.20783" lon="6.77206">
        <ele>1545.6</ele>
        <time>2000-01-01T03:25:06.000Z</time>
      </trkpt>
      <trkpt lat="46.20794" lon="6.77209">
        <ele>1534</ele>
        <time>2000-01-01T03:25:16.000Z</time>
      </trkpt>
      <trkpt lat="46.20804" lon="6.77218">
        <ele>1543.6</ele>
        <time>2000-01-01T03:25:26.000Z</time>
      </trkpt>
      <trkpt lat="46.20807" lon="6.77232">
        <ele>1534</ele>
        <time>2000-01-01T03:25:36.000Z</time>
      </trkpt>
      <trkpt lat="46.20804" lon="6.77267">
        <ele>1534</ele>
        <time>2000-01-01T03:25:46.000Z</time>
      </trkpt>
      <trkpt lat="46.208" lon="6.77308">
        <ele>1531</ele>
        <time>2000-01-01T03:25:56.000Z</time>
      </trkpt>
      <trkpt lat="46.20801" lon="6.77316">
        <ele>1543</ele>
        <time>2000-01-01T03:26:06.000Z</time>
      </trkpt>
      <trkpt lat="46.20804" lon="6.77325">
        <ele>1542.2</ele>
        <time>2000-01-01T03:26:16.000Z</time>
      </trkpt>
      <trkpt lat="46.20812" lon="6.77329">
        <ele>1528</ele>
        <time>2000-01-01T03:26:26.000Z</time>
      </trkpt>
      <trkpt lat="46.20821" lon="6.77327">
        <ele>1539.3</ele>
        <time>2000-01-01T03:26:36.000Z</time>
      </trkpt>
      <trkpt lat="46.20839" lon="6.77314">
        <ele>1527</ele>
        <time>2000-01-01T03:26:46.000Z</time>
      </trkpt>
      <trkpt lat="46.20848" lon="6.77316">
        <ele>1529.8</ele>
        <time>2000-01-01T03:26:56.000Z</time>
      </trkpt>
      <trkpt lat="46.20849" lon="6.77319">
        <ele>1529.2</ele>
        <time>2000-01-01T03:27:06.000Z</time>
      </trkpt>
      <trkpt lat="46.20853" lon="6.77324">
        <ele>1526.9</ele>
        <time>2000-01-01T03:27:16.000Z</time>
      </trkpt>
      <trkpt lat="46.20855" lon="6.77334">
        <ele>1527</ele>
        <time>2000-01-01T03:27:26.000Z</time>
      </trkpt>
      <trkpt lat="46.20853" lon="6.77353">
        <ele>1525.5</ele>
        <time>2000-01-01T03:27:36.000Z</time>
      </trkpt>
      <trkpt lat="46.20854" lon="6.77377">
        <ele>1528</ele>
        <time>2000-01-01T03:27:46.000Z</time>
      </trkpt>
      <trkpt lat="46.20849" lon="6.77405">
        <ele>1527</ele>
        <time>2000-01-01T03:27:56.000Z</time>
      </trkpt>
      <trkpt lat="46.20844" lon="6.77428">
        <ele>1524.2</ele>
        <time>2000-01-01T03:28:06.000Z</time>
      </trkpt>
      <trkpt lat="46.2084" lon="6.77437">
        <ele>1527</ele>
        <time>2000-01-01T03:28:16.000Z</time>
      </trkpt>
      <trkpt lat="46.20829" lon="6.77452">
        <ele>1524</ele>
        <time>2000-01-01T03:28:26.000Z</time>
      </trkpt>
      <trkpt lat="46.20809" lon="6.77472">
        <ele>1524</ele>
        <time>2000-01-01T03:28:36.000Z</time>
      </trkpt>
      <trkpt lat="46.20793" lon="6.77489">
        <ele>1522</ele>
        <time>2000-01-01T03:28:46.000Z</time>
      </trkpt>
      <trkpt lat="46.20776" lon="6.775">
        <ele>1525.4</ele>
        <time>2000-01-01T03:28:56.000Z</time>
      </trkpt>
      <trkpt lat="46.20762" lon="6.77516">
        <ele>1520</ele>
        <time>2000-01-01T03:29:06.000Z</time>
      </trkpt>
      <trkpt lat="46.20735" lon="6.77539">
        <ele>1519</ele>
        <time>2000-01-01T03:29:16.000Z</time>
      </trkpt>
      <trkpt lat="46.20713" lon="6.77556">
        <ele>1516</ele>
        <time>2000-01-01T03:29:26.000Z</time>
      </trkpt>
      <trkpt lat="46.20687" lon="6.77566">
        <ele>1515</ele>
        <time>2000-01-01T03:29:36.000Z</time>
      </trkpt>
      <trkpt lat="46.20679" lon="6.77572">
        <ele>1519.6</ele>
        <time>2000-01-01T03:29:46.000Z</time>
      </trkpt>
      <trkpt lat="46.20676" lon="6.77575">
        <ele>1519.2</ele>
        <time>2000-01-01T03:29:56.000Z</time>
      </trkpt>
      <trkpt lat="46.2065" lon="6.77608">
        <ele>1515</ele>
        <time>2000-01-01T03:30:06.000Z</time>
      </trkpt>
      <trkpt lat="46.2063" lon="6.77621">
        <ele>1515</ele>
        <time>2000-01-01T03:30:16.000Z</time>
      </trkpt>
      <trkpt lat="46.20627" lon="6.77625">
        <ele>1518.4</ele>
        <time>2000-01-01T03:30:26.000Z</time>
      </trkpt>
      <trkpt lat="46.20627" lon="6.77633">
        <ele>1516.7</ele>
        <time>2000-01-01T03:30:36.000Z</time>
      </trkpt>
      <trkpt lat="46.2064" lon="6.77678">
        <ele>1503</ele>
        <time>2000-01-01T03:30:46.000Z</time>
      </trkpt>
      <trkpt lat="46.20665" lon="6.77702">
        <ele>1495</ele>
        <time>2000-01-01T03:30:56.000Z</time>
      </trkpt>
      <trkpt lat="46.20674" lon="6.77719">
        <ele>1500.5</ele>
        <time>2000-01-01T03:31:06.000Z</time>
      </trkpt>
      <trkpt lat="46.20698" lon="6.77738">
        <ele>1495</ele>
        <time>2000-01-01T03:31:16.000Z</time>
      </trkpt>
      <trkpt lat="46.20706" lon="6.77736">
        <ele>1500.1</ele>
        <time>2000-01-01T03:31:26.000Z</time>
      </trkpt>
      <trkpt lat="46.20715" lon="6.77724">
        <ele>1495</ele>
        <time>2000-01-01T03:31:36.000Z</time>
      </trkpt>
      <trkpt lat="46.20721" lon="6.77686">
        <ele>1494</ele>
        <time>2000-01-01T03:31:46.000Z</time>
      </trkpt>
      <trkpt lat="46.20708" lon="6.77665">
        <ele>1494</ele>
        <time>2000-01-01T03:31:56.000Z</time>
      </trkpt>
      <trkpt lat="46.20678" lon="6.77655">
        <ele>1499</ele>
        <time>2000-01-01T03:32:06.000Z</time>
      </trkpt>
      <trkpt lat="46.20654" lon="6.77646">
        <ele>1505</ele>
        <time>2000-01-01T03:32:16.000Z</time>
      </trkpt>
      <trkpt lat="46.20624" lon="6.77636">
        <ele>1512</ele>
        <time>2000-01-01T03:32:26.000Z</time>
      </trkpt>
      <trkpt lat="46.20596" lon="6.77625">
        <ele>1521</ele>
        <time>2000-01-01T03:32:36.000Z</time>
      </trkpt>
      <trkpt lat="46.20568" lon="6.77615">
        <ele>1526</ele>
        <time>2000-01-01T03:32:46.000Z</time>
      </trkpt>
      <trkpt lat="46.20545" lon="6.77608">
        <ele>1532</ele>
        <time>2000-01-01T03:32:56.000Z</time>
      </trkpt>
      <trkpt lat="46.20522" lon="6.776">
        <ele>1536</ele>
        <time>2000-01-01T03:33:06.000Z</time>
      </trkpt>
      <trkpt lat="46.20497" lon="6.77592">
        <ele>1548</ele>
        <time>2000-01-01T03:33:16.000Z</time>
      </trkpt>
      <trkpt lat="46.20467" lon="6.77583">
        <ele>1556</ele>
        <time>2000-01-01T03:33:26.000Z</time>
      </trkpt>
      <trkpt lat="46.20434" lon="6.77571">
        <ele>1567</ele>
        <time>2000-01-01T03:33:36.000Z</time>
      </trkpt>
      <trkpt lat="46.20401" lon="6.7756">
        <ele>1582</ele>
        <time>2000-01-01T03:33:46.000Z</time>
      </trkpt>
      <trkpt lat="46.20371" lon="6.77549">
        <ele>1593</ele>
        <time>2000-01-01T03:33:56.000Z</time>
      </trkpt>
      <trkpt lat="46.20345" lon="6.7754">
        <ele>1606</ele>
        <time>2000-01-01T03:34:06.000Z</time>
      </trkpt>
      <trkpt lat="46.20312" lon="6.77528">
        <ele>1619</ele>
        <time>2000-01-01T03:34:16.000Z</time>
      </trkpt>
      <trkpt lat="46.20285" lon="6.77518">
        <ele>1634</ele>
        <time>2000-01-01T03:34:26.000Z</time>
      </trkpt>
      <trkpt lat="46.20243" lon="6.77502">
        <ele>1651</ele>
        <time>2000-01-01T03:34:36.000Z</time>
      </trkpt>
      <trkpt lat="46.20211" lon="6.77491">
        <ele>1662</ele>
        <time>2000-01-01T03:34:46.000Z</time>
      </trkpt>
      <trkpt lat="46.20179" lon="6.77481">
        <ele>1675</ele>
        <time>2000-01-01T03:34:56.000Z</time>
      </trkpt>
      <trkpt lat="46.20136" lon="6.77466">
        <ele>1685</ele>
        <time>2000-01-01T03:35:06.000Z</time>
      </trkpt>
      <trkpt lat="46.20109" lon="6.77456">
        <ele>1692</ele>
        <time>2000-01-01T03:35:16.000Z</time>
      </trkpt>
      <trkpt lat="46.20072" lon="6.77442">
        <ele>1700</ele>
        <time>2000-01-01T03:35:26.000Z</time>
      </trkpt>
      <trkpt lat="46.20049" lon="6.77433">
        <ele>1710</ele>
        <time>2000-01-01T03:35:36.000Z</time>
      </trkpt>
      <trkpt lat="46.20027" lon="6.77424">
        <ele>1717</ele>
        <time>2000-01-01T03:35:46.000Z</time>
      </trkpt>
      <trkpt lat="46.2" lon="6.77416">
        <ele>1723</ele>
        <time>2000-01-01T03:35:56.000Z</time>
      </trkpt>
      <trkpt lat="46.19961" lon="6.77404">
        <ele>1736</ele>
        <time>2000-01-01T03:36:06.000Z</time>
      </trkpt>
      <trkpt lat="46.19937" lon="6.77396">
        <ele>1746</ele>
        <time>2000-01-01T03:36:16.000Z</time>
      </trkpt>
      <trkpt lat="46.19909" lon="6.77387">
        <ele>1759</ele>
        <time>2000-01-01T03:36:26.000Z</time>
      </trkpt>
      <trkpt lat="46.19877" lon="6.77375">
        <ele>1771</ele>
        <time>2000-01-01T03:36:36.000Z</time>
      </trkpt>
      <trkpt lat="46.19845" lon="6.77363">
        <ele>1784</ele>
        <time>2000-01-01T03:36:46.000Z</time>
      </trkpt>
      <trkpt lat="46.19801" lon="6.77347">
        <ele>1808</ele>
        <time>2000-01-01T03:36:56.000Z</time>
      </trkpt>
      <trkpt lat="46.19771" lon="6.77337">
        <ele>1827</ele>
        <time>2000-01-01T03:37:06.000Z</time>
      </trkpt>
      <trkpt lat="46.19746" lon="6.77329">
        <ele>1850</ele>
        <time>2000-01-01T03:37:16.000Z</time>
      </trkpt>
      <trkpt lat="46.19713" lon="6.77318">
        <ele>1869</ele>
        <time>2000-01-01T03:37:26.000Z</time>
      </trkpt>
      <trkpt lat="46.19713" lon="6.77297">
        <ele>1854.7</ele>
        <time>2000-01-01T03:37:36.000Z</time>
      </trkpt>
      <trkpt lat="46.19701" lon="6.77293">
        <ele>1869</ele>
        <time>2000-01-01T03:37:46.000Z</time>
      </trkpt>
      <trkpt lat="46.19693" lon="6.77295">
        <ele>1858.9</ele>
        <time>2000-01-01T03:37:56.000Z</time>
      </trkpt>
      <trkpt lat="46.19671" lon="6.77313">
        <ele>1870</ele>
        <time>2000-01-01T03:38:06.000Z</time>
      </trkpt>
      <trkpt lat="46.1965" lon="6.77327">
        <ele>1869</ele>
        <time>2000-01-01T03:38:16.000Z</time>
      </trkpt>
      <trkpt lat="46.19628" lon="6.77341">
        <ele>1869</ele>
        <time>2000-01-01T03:38:26.000Z</time>
      </trkpt>
      <trkpt lat="46.19626" lon="6.77331">
        <ele>1866.8</ele>
        <time>2000-01-01T03:38:36.000Z</time>
      </trkpt>
      <trkpt lat="46.19623" lon="6.77325">
        <ele>1866.1</ele>
        <time>2000-01-01T03:38:46.000Z</time>
      </trkpt>
      <trkpt lat="46.19608" lon="6.77316">
        <ele>1864</ele>
        <time>2000-01-01T03:38:56.000Z</time>
      </trkpt>
      <trkpt lat="46.19563" lon="6.77321">
        <ele>1859</ele>
        <time>2000-01-01T03:39:06.000Z</time>
      </trkpt>
      <trkpt lat="46.19528" lon="6.77312">
        <ele>1849</ele>
        <time>2000-01-01T03:39:16.000Z</time>
      </trkpt>
      <trkpt lat="46.19483" lon="6.77306">
        <ele>1840</ele>
        <time>2000-01-01T03:39:26.000Z</time>
      </trkpt>
      <trkpt lat="46.19453" lon="6.77309">
        <ele>1837</ele>
        <time>2000-01-01T03:39:36.000Z</time>
      </trkpt>
      <trkpt lat="46.19417" lon="6.77308">
        <ele>1832</ele>
        <time>2000-01-01T03:39:46.000Z</time>
      </trkpt>
      <trkpt lat="46.19391" lon="6.77313">
        <ele>1830</ele>
        <time>2000-01-01T03:39:56.000Z</time>
      </trkpt>
      <trkpt lat="46.19407" lon="6.77271">
        <ele>1830</ele>
        <time>2000-01-01T03:40:06.000Z</time>
      </trkpt>
      <trkpt lat="46.19414" lon="6.77251">
        <ele>1834</ele>
        <time>2000-01-01T03:40:16.000Z</time>
      </trkpt>
      <trkpt lat="46.1943" lon="6.77221">
        <ele>1828</ele>
        <time>2000-01-01T03:40:26.000Z</time>
      </trkpt>
      <trkpt lat="46.19444" lon="6.77193">
        <ele>1827</ele>
        <time>2000-01-01T03:40:36.000Z</time>
      </trkpt>
      <trkpt lat="46.19459" lon="6.77166">
        <ele>1825</ele>
        <time>2000-01-01T03:40:46.000Z</time>
      </trkpt>
      <trkpt lat="46.19476" lon="6.77136">
        <ele>1825</ele>
        <time>2000-01-01T03:40:56.000Z</time>
      </trkpt>
      <trkpt lat="46.19497" lon="6.77093">
        <ele>1825</ele>
        <time>2000-01-01T03:41:06.000Z</time>
      </trkpt>
      <trkpt lat="46.19506" lon="6.77061">
        <ele>1824</ele>
        <time>2000-01-01T03:41:16.000Z</time>
      </trkpt>
      <trkpt lat="46.19515" lon="6.77026">
        <ele>1823</ele>
        <time>2000-01-01T03:41:26.000Z</time>
      </trkpt>
      <trkpt lat="46.19525" lon="6.76991">
        <ele>1822</ele>
        <time>2000-01-01T03:41:36.000Z</time>
      </trkpt>
      <trkpt lat="46.19537" lon="6.76944">
        <ele>1820</ele>
        <time>2000-01-01T03:41:46.000Z</time>
      </trkpt>
      <trkpt lat="46.19541" lon="6.76908">
        <ele>1820</ele>
        <time>2000-01-01T03:41:56.000Z</time>
      </trkpt>
      <trkpt lat="46.19545" lon="6.76864">
        <ele>1819</ele>
        <time>2000-01-01T03:42:06.000Z</time>
      </trkpt>
      <trkpt lat="46.19553" lon="6.76844">
        <ele>1820</ele>
        <time>2000-01-01T03:42:16.000Z</time>
      </trkpt>
      <trkpt lat="46.19571" lon="6.76825">
        <ele>1816</ele>
        <time>2000-01-01T03:42:26.000Z</time>
      </trkpt>
      <trkpt lat="46.19594" lon="6.76812">
        <ele>1815</ele>
        <time>2000-01-01T03:42:36.000Z</time>
      </trkpt>
      <trkpt lat="46.19618" lon="6.76798">
        <ele>1813</ele>
        <time>2000-01-01T03:42:46.000Z</time>
      </trkpt>
      <trkpt lat="46.19624" lon="6.76754">
        <ele>1811</ele>
        <time>2000-01-01T03:42:56.000Z</time>
      </trkpt>
      <trkpt lat="46.19625" lon="6.76729">
        <ele>1809.3</ele>
        <time>2000-01-01T03:43:06.000Z</time>
      </trkpt>
      <trkpt lat="46.19638" lon="6.76699">
        <ele>1803</ele>
        <time>2000-01-01T03:43:16.000Z</time>
      </trkpt>
      <trkpt lat="46.19666" lon="6.76681">
        <ele>1803</ele>
        <time>2000-01-01T03:43:26.000Z</time>
      </trkpt>
      <trkpt lat="46.19677" lon="6.7667">
        <ele>1801.2</ele>
        <time>2000-01-01T03:43:36.000Z</time>
      </trkpt>
      <trkpt lat="46.19719" lon="6.76658">
        <ele>1794</ele>
        <time>2000-01-01T03:43:46.000Z</time>
      </trkpt>
      <trkpt lat="46.1974" lon="6.76643">
        <ele>1792</ele>
        <time>2000-01-01T03:43:56.000Z</time>
      </trkpt>
      <trkpt lat="46.19762" lon="6.76626">
        <ele>1787</ele>
        <time>2000-01-01T03:44:06.000Z</time>
      </trkpt>
      <trkpt lat="46.19787" lon="6.76605">
        <ele>1783</ele>
        <time>2000-01-01T03:44:16.000Z</time>
      </trkpt>
      <trkpt lat="46.19809" lon="6.76591">
        <ele>1782</ele>
        <time>2000-01-01T03:44:26.000Z</time>
      </trkpt>
      <trkpt lat="46.19834" lon="6.76574">
        <ele>1781</ele>
        <time>2000-01-01T03:44:36.000Z</time>
      </trkpt>
      <trkpt lat="46.19844" lon="6.76565">
        <ele>1784.8</ele>
        <time>2000-01-01T03:44:46.000Z</time>
      </trkpt>
      <trkpt lat="46.19862" lon="6.76524">
        <ele>1780</ele>
        <time>2000-01-01T03:44:56.000Z</time>
      </trkpt>
      <trkpt lat="46.19867" lon="6.76499">
        <ele>1776.4</ele>
        <time>2000-01-01T03:45:06.000Z</time>
      </trkpt>
      <trkpt lat="46.19874" lon="6.76443">
        <ele>1777</ele>
        <time>2000-01-01T03:45:16.000Z</time>
      </trkpt>
      <trkpt lat="46.19878" lon="6.76404">
        <ele>1775</ele>
        <time>2000-01-01T03:45:26.000Z</time>
      </trkpt>
      <trkpt lat="46.19884" lon="6.76348">
        <ele>1774</ele>
        <time>2000-01-01T03:45:36.000Z</time>
      </trkpt>
      <trkpt lat="46.19887" lon="6.76313">
        <ele>1773</ele>
        <time>2000-01-01T03:45:46.000Z</time>
      </trkpt>
      <trkpt lat="46.19891" lon="6.76274">
        <ele>1773</ele>
        <time>2000-01-01T03:45:56.000Z</time>
      </trkpt>
      <trkpt lat="46.19893" lon="6.76236">
        <ele>1768</ele>
        <time>2000-01-01T03:46:06.000Z</time>
      </trkpt>
      <trkpt lat="46.19895" lon="6.76185">
        <ele>1762</ele>
        <time>2000-01-01T03:46:16.000Z</time>
      </trkpt>
      <trkpt lat="46.19905" lon="6.76148">
        <ele>1760</ele>
        <time>2000-01-01T03:46:26.000Z</time>
      </trkpt>
      <trkpt lat="46.1992" lon="6.76096">
        <ele>1759</ele>
        <time>2000-01-01T03:46:36.000Z</time>
      </trkpt>
      <trkpt lat="46.19931" lon="6.7605">
        <ele>1759</ele>
        <time>2000-01-01T03:46:46.000Z</time>
      </trkpt>
      <trkpt lat="46.19942" lon="6.76005">
        <ele>1758</ele>
        <time>2000-01-01T03:46:56.000Z</time>
      </trkpt>
      <trkpt lat="46.19949" lon="6.75972">
        <ele>1754</ele>
        <time>2000-01-01T03:47:06.000Z</time>
      </trkpt>
      <trkpt lat="46.19958" lon="6.75936">
        <ele>1753</ele>
        <time>2000-01-01T03:47:16.000Z</time>
      </trkpt>
      <trkpt lat="46.19971" lon="6.75905">
        <ele>1753</ele>
        <time>2000-01-01T03:47:26.000Z</time>
      </trkpt>
      <trkpt lat="46.19987" lon="6.75869">
        <ele>1753</ele>
        <time>2000-01-01T03:47:36.000Z</time>
      </trkpt>
      <trkpt lat="46.20005" lon="6.75837">
        <ele>1753</ele>
        <time>2000-01-01T03:47:46.000Z</time>
      </trkpt>
      <trkpt lat="46.20024" lon="6.7583">
        <ele>1754</ele>
        <time>2000-01-01T03:47:56.000Z</time>
      </trkpt>
      <trkpt lat="46.20015" lon="6.75877">
        <ele>1758</ele>
        <time>2000-01-01T03:48:06.000Z</time>
      </trkpt>
      <trkpt lat="46.20013" lon="6.75917">
        <ele>1758</ele>
        <time>2000-01-01T03:48:16.000Z</time>
      </trkpt>
      <trkpt lat="46.20016" lon="6.75923">
        <ele>1755.5</ele>
        <time>2000-01-01T03:48:26.000Z</time>
      </trkpt>
      <trkpt lat="46.20026" lon="6.75923">
        <ele>1754.2</ele>
        <time>2000-01-01T03:48:36.000Z</time>
      </trkpt>
      <trkpt lat="46.20032" lon="6.75918">
        <ele>1758</ele>
        <time>2000-01-01T03:48:46.000Z</time>
      </trkpt>
      <trkpt lat="46.20035" lon="6.75919">
        <ele>1753.5</ele>
        <time>2000-01-01T03:48:56.000Z</time>
      </trkpt>
      <trkpt lat="46.20036" lon="6.75921">
        <ele>1753.1</ele>
        <time>2000-01-01T03:49:06.000Z</time>
      </trkpt>
      <trkpt lat="46.20037" lon="6.75931">
        <ele>1751.7</ele>
        <time>2000-01-01T03:49:16.000Z</time>
      </trkpt>
      <trkpt lat="46.20033" lon="6.75941">
        <ele>1753</ele>
        <time>2000-01-01T03:49:26.000Z</time>
      </trkpt>
      <trkpt lat="46.20033" lon="6.75948">
        <ele>1750.2</ele>
        <time>2000-01-01T03:49:36.000Z</time>
      </trkpt>
      <trkpt lat="46.2003" lon="6.75959">
        <ele>1749.4</ele>
        <time>2000-01-01T03:49:46.000Z</time>
      </trkpt>
      <trkpt lat="46.20024" lon="6.75967">
        <ele>1752</ele>
        <time>2000-01-01T03:49:56.000Z</time>
      </trkpt>
      <trkpt lat="46.20011" lon="6.75979">
        <ele>1752.1</ele>
        <time>2000-01-01T03:50:06.000Z</time>
      </trkpt>
      <trkpt lat="46.20007" lon="6.75984">
        <ele>1751</ele>
        <time>2000-01-01T03:50:16.000Z</time>
      </trkpt>
      <trkpt lat="46.20007" lon="6.75991">
        <ele>1752.4</ele>
        <time>2000-01-01T03:50:26.000Z</time>
      </trkpt>
      <trkpt lat="46.2001" lon="6.75997">
        <ele>1751.1</ele>
        <time>2000-01-01T03:50:36.000Z</time>
      </trkpt>
      <trkpt lat="46.20019" lon="6.75995">
        <ele>1746</ele>
        <time>2000-01-01T03:50:46.000Z</time>
      </trkpt>
      <trkpt lat="46.20026" lon="6.75992">
        <ele>1746.8</ele>
        <time>2000-01-01T03:50:56.000Z</time>
      </trkpt>
      <trkpt lat="46.20031" lon="6.75988">
        <ele>1745.8</ele>
        <time>2000-01-01T03:51:06.000Z</time>
      </trkpt>
      <trkpt lat="46.20041" lon="6.75969">
        <ele>1746</ele>
        <time>2000-01-01T03:51:16.000Z</time>
      </trkpt>
      <trkpt lat="46.20043" lon="6.7597">
        <ele>1745</ele>
        <time>2000-01-01T03:51:26.000Z</time>
      </trkpt>
      <trkpt lat="46.20044" lon="6.75977">
        <ele>1743.7</ele>
        <time>2000-01-01T03:51:36.000Z</time>
      </trkpt>
      <trkpt lat="46.20022" lon="6.7604">
        <ele>1737</ele>
        <time>2000-01-01T03:51:46.000Z</time>
      </trkpt>
      <trkpt lat="46.20021" lon="6.76054">
        <ele>1744.4</ele>
        <time>2000-01-01T03:51:56.000Z</time>
      </trkpt>
      <trkpt lat="46.20024" lon="6.76062">
        <ele>1742.7</ele>
        <time>2000-01-01T03:52:06.000Z</time>
      </trkpt>
      <trkpt lat="46.20028" lon="6.76065">
        <ele>1735</ele>
        <time>2000-01-01T03:52:16.000Z</time>
      </trkpt>
      <trkpt lat="46.20034" lon="6.76061">
        <ele>1738.6</ele>
        <time>2000-01-01T03:52:26.000Z</time>
      </trkpt>
      <trkpt lat="46.20039" lon="6.76053">
        <ele>1737.3</ele>
        <time>2000-01-01T03:52:36.000Z</time>
      </trkpt>
      <trkpt lat="46.20043" lon="6.76042">
        <ele>1730</ele>
        <time>2000-01-01T03:52:46.000Z</time>
      </trkpt>
      <trkpt lat="46.20046" lon="6.76039">
        <ele>1735.9</ele>
        <time>2000-01-01T03:52:56.000Z</time>
      </trkpt>
      <trkpt lat="46.2005" lon="6.76038">
        <ele>1734.5</ele>
        <time>2000-01-01T03:53:06.000Z</time>
      </trkpt>
      <trkpt lat="46.2006" lon="6.76044">
        <ele>1730</ele>
        <time>2000-01-01T03:53:16.000Z</time>
      </trkpt>
      <trkpt lat="46.20063" lon="6.76051">
        <ele>1728</ele>
        <time>2000-01-01T03:53:26.000Z</time>
      </trkpt>
      <trkpt lat="46.20065" lon="6.7606">
        <ele>1726.1</ele>
        <time>2000-01-01T03:53:36.000Z</time>
      </trkpt>
      <trkpt lat="46.20068" lon="6.76069">
        <ele>1723.7</ele>
        <time>2000-01-01T03:53:46.000Z</time>
      </trkpt>
      <trkpt lat="46.20068" lon="6.76077">
        <ele>1726</ele>
        <time>2000-01-01T03:53:56.000Z</time>
      </trkpt>
      <trkpt lat="46.20063" lon="6.76098">
        <ele>1722.3</ele>
        <time>2000-01-01T03:54:06.000Z</time>
      </trkpt>
      <trkpt lat="46.20063" lon="6.76105">
        <ele>1720</ele>
        <time>2000-01-01T03:54:16.000Z</time>
      </trkpt>
      <trkpt lat="46.20064" lon="6.76108">
        <ele>1720.7</ele>
        <time>2000-01-01T03:54:26.000Z</time>
      </trkpt>
      <trkpt lat="46.20068" lon="6.76115">
        <ele>1717.9</ele>
        <time>2000-01-01T03:54:36.000Z</time>
      </trkpt>
      <trkpt lat="46.20068" lon="6.76121">
        <ele>1717.2</ele>
        <time>2000-01-01T03:54:46.000Z</time>
      </trkpt>
      <trkpt lat="46.20067" lon="6.76131">
        <ele>1717</ele>
        <time>2000-01-01T03:54:56.000Z</time>
      </trkpt>
      <trkpt lat="46.20059" lon="6.76153">
        <ele>1718.2</ele>
        <time>2000-01-01T03:55:06.000Z</time>
      </trkpt>
      <trkpt lat="46.2005" lon="6.76188">
        <ele>1716</ele>
        <time>2000-01-01T03:55:16.000Z</time>
      </trkpt>
      <trkpt lat="46.20048" lon="6.76216">
        <ele>1710</ele>
        <time>2000-01-01T03:55:26.000Z</time>
      </trkpt>
      <trkpt lat="46.20049" lon="6.76236">
        <ele>1713.4</ele>
        <time>2000-01-01T03:55:36.000Z</time>
      </trkpt>
      <trkpt lat="46.20053" lon="6.76261">
        <ele>1702</ele>
        <time>2000-01-01T03:55:46.000Z</time>
      </trkpt>
      <trkpt lat="46.20054" lon="6.7629">
        <ele>1701</ele>
        <time>2000-01-01T03:55:56.000Z</time>
      </trkpt>
      <trkpt lat="46.20052" lon="6.76316">
        <ele>1707.2</ele>
        <time>2000-01-01T03:56:06.000Z</time>
      </trkpt>
      <trkpt lat="46.20056" lon="6.76368">
        <ele>1702</ele>
        <time>2000-01-01T03:56:16.000Z</time>
      </trkpt>
      <trkpt lat="46.2006" lon="6.76401">
        <ele>1697</ele>
        <time>2000-01-01T03:56:26.000Z</time>
      </trkpt>
      <trkpt lat="46.20074" lon="6.76428">
        <ele>1696</ele>
        <time>2000-01-01T03:56:36.000Z</time>
      </trkpt>
      <trkpt lat="46.20072" lon="6.7645">
        <ele>1697.1</ele>
        <time>2000-01-01T03:56:46.000Z</time>
      </trkpt>
      <trkpt lat="46.2007" lon="6.76489">
        <ele>1696</ele>
        <time>2000-01-01T03:56:56.000Z</time>
      </trkpt>
      <trkpt lat="46.20078" lon="6.76502">
        <ele>1695</ele>
        <time>2000-01-01T03:57:06.000Z</time>
      </trkpt>
      <trkpt lat="46.20087" lon="6.76503">
        <ele>1687</ele>
        <time>2000-01-01T03:57:16.000Z</time>
      </trkpt>
      <trkpt lat="46.20097" lon="6.76492">
        <ele>1687.6</ele>
        <time>2000-01-01T03:57:26.000Z</time>
      </trkpt>
      <trkpt lat="46.201" lon="6.76499">
        <ele>1686.8</ele>
        <time>2000-01-01T03:57:36.000Z</time>
      </trkpt>
      <trkpt lat="46.20091" lon="6.76513">
        <ele>1685</ele>
        <time>2000-01-01T03:57:46.000Z</time>
      </trkpt>
      <trkpt lat="46.20106" lon="6.76541">
        <ele>1683</ele>
        <time>2000-01-01T03:57:56.000Z</time>
      </trkpt>
      <trkpt lat="46.20127" lon="6.76574">
        <ele>1677</ele>
        <time>2000-01-01T03:58:06.000Z</time>
      </trkpt>
      <trkpt lat="46.20123" lon="6.76596">
        <ele>1680.8</ele>
        <time>2000-01-01T03:58:16.000Z</time>
      </trkpt>
      <trkpt lat="46.20116" lon="6.76627">
        <ele>1676</ele>
        <time>2000-01-01T03:58:26.000Z</time>
      </trkpt>
      <trkpt lat="46.2011" lon="6.76667">
        <ele>1672</ele>
        <time>2000-01-01T03:58:36.000Z</time>
      </trkpt>
      <trkpt lat="46.20099" lon="6.76732">
        <ele>1669</ele>
        <time>2000-01-01T03:58:46.000Z</time>
      </trkpt>
      <trkpt lat="46.20099" lon="6.7676">
        <ele>1668</ele>
        <time>2000-01-01T03:58:56.000Z</time>
      </trkpt>
      <trkpt lat="46.20101" lon="6.76785">
        <ele>1665.7</ele>
        <time>2000-01-01T03:59:06.000Z</time>
      </trkpt>
      <trkpt lat="46.20096" lon="6.76814">
        <ele>1662</ele>
        <time>2000-01-01T03:59:16.000Z</time>
      </trkpt>
      <trkpt lat="46.20095" lon="6.76825">
        <ele>1665.3</ele>
        <time>2000-01-01T03:59:26.000Z</time>
      </trkpt>
      <trkpt lat="46.20097" lon="6.76832">
        <ele>1664.6</ele>
        <time>2000-01-01T03:59:36.000Z</time>
      </trkpt>
      <trkpt lat="46.20134" lon="6.76826">
        <ele>1650</ele>
        <time>2000-01-01T03:59:46.000Z</time>
      </trkpt>
      <trkpt lat="46.20162" lon="6.76848">
        <ele>1643</ele>
        <time>2000-01-01T03:59:56.000Z</time>
      </trkpt>
      <trkpt lat="46.20187" lon="6.76867">
        <ele>1643</ele>
        <time>2000-01-01T04:00:06.000Z</time>
      </trkpt>
      <trkpt lat="46.20223" lon="6.76894">
        <ele>1641</ele>
        <time>2000-01-01T04:00:16.000Z</time>
      </trkpt>
      <trkpt lat="46.20259" lon="6.7689">
        <ele>1641</ele>
        <time>2000-01-01T04:00:26.000Z</time>
      </trkpt>
      <trkpt lat="46.20294" lon="6.76886">
        <ele>1641</ele>
        <time>2000-01-01T04:00:36.000Z</time>
      </trkpt>
      <trkpt lat="46.2033" lon="6.76882">
        <ele>1642</ele>
        <time>2000-01-01T04:00:46.000Z</time>
      </trkpt>
      <trkpt lat="46.20374" lon="6.76877">
        <ele>1642</ele>
        <time>2000-01-01T04:00:56.000Z</time>
      </trkpt>
      <trkpt lat="46.20396" lon="6.76859">
        <ele>1638</ele>
        <time>2000-01-01T04:01:06.000Z</time>
      </trkpt>
      <trkpt lat="46.20419" lon="6.76839">
        <ele>1636</ele>
        <time>2000-01-01T04:01:16.000Z</time>
      </trkpt>
      <trkpt lat="46.20449" lon="6.76869">
        <ele>1635</ele>
        <time>2000-01-01T04:01:26.000Z</time>
      </trkpt>
      <trkpt lat="46.20481" lon="6.76864">
        <ele>1631</ele>
        <time>2000-01-01T04:01:36.000Z</time>
      </trkpt>
      <trkpt lat="46.20487" lon="6.76904">
        <ele>1628</ele>
        <time>2000-01-01T04:01:46.000Z</time>
      </trkpt>
      <trkpt lat="46.20496" lon="6.76967">
        <ele>1624</ele>
        <time>2000-01-01T04:01:56.000Z</time>
      </trkpt>
      <trkpt lat="46.20493" lon="6.77019">
        <ele>1622</ele>
        <time>2000-01-01T04:02:06.000Z</time>
      </trkpt>
      <trkpt lat="46.20499" lon="6.77083">
        <ele>1618</ele>
        <time>2000-01-01T04:02:16.000Z</time>
      </trkpt>
      <trkpt lat="46.20499" lon="6.77126">
        <ele>1616</ele>
        <time>2000-01-01T04:02:26.000Z</time>
      </trkpt>
      <trkpt lat="46.20494" lon="6.77164">
        <ele>1617</ele>
        <time>2000-01-01T04:02:36.000Z</time>
      </trkpt>
      <trkpt lat="46.20487" lon="6.77216">
        <ele>1618</ele>
        <time>2000-01-01T04:02:46.000Z</time>
      </trkpt>
      <trkpt lat="46.2048" lon="6.77252">
        <ele>1618</ele>
        <time>2000-01-01T04:02:56.000Z</time>
      </trkpt>
      <trkpt lat="46.20472" lon="6.77295">
        <ele>1616</ele>
        <time>2000-01-01T04:03:06.000Z</time>
      </trkpt>
      <trkpt lat="46.20464" lon="6.77341">
        <ele>1610</ele>
        <time>2000-01-01T04:03:16.000Z</time>
      </trkpt>
      <trkpt lat="46.2044" lon="6.77371">
        <ele>1609</ele>
        <time>2000-01-01T04:03:26.000Z</time>
      </trkpt>
      <trkpt lat="46.20417" lon="6.77401">
        <ele>1606</ele>
        <time>2000-01-01T04:03:36.000Z</time>
      </trkpt>
      <trkpt lat="46.20391" lon="6.77433">
        <ele>1606</ele>
        <time>2000-01-01T04:03:46.000Z</time>
      </trkpt>
      <trkpt lat="46.20366" lon="6.77474">
        <ele>1606</ele>
        <time>2000-01-01T04:03:56.000Z</time>
      </trkpt>
      <trkpt lat="46.20358" lon="6.77506">
        <ele>1605</ele>
        <time>2000-01-01T04:04:06.000Z</time>
      </trkpt>
      <trkpt lat="46.20362" lon="6.77528">
        <ele>1611.8</ele>
        <time>2000-01-01T04:04:16.000Z</time>
      </trkpt>
      <trkpt lat="46.20364" lon="6.7755">
        <ele>1598</ele>
        <time>2000-01-01T04:04:26.000Z</time>
      </trkpt>
      <trkpt lat="46.20364" lon="6.77565">
        <ele>1607.7</ele>
        <time>2000-01-01T04:04:36.000Z</time>
      </trkpt>
      <trkpt lat="46.20362" lon="6.77587">
        <ele>1598</ele>
        <time>2000-01-01T04:04:46.000Z</time>
      </trkpt>
      <trkpt lat="46.20365" lon="6.7761">
        <ele>1605.5</ele>
        <time>2000-01-01T04:04:56.000Z</time>
      </trkpt>
      <trkpt lat="46.2037" lon="6.77626">
        <ele>1597</ele>
        <time>2000-01-01T04:05:06.000Z</time>
      </trkpt>
      <trkpt lat="46.20379" lon="6.7764">
        <ele>1600.5</ele>
        <time>2000-01-01T04:05:16.000Z</time>
      </trkpt>
      <trkpt lat="46.20389" lon="6.7765">
        <ele>1597</ele>
        <time>2000-01-01T04:05:26.000Z</time>
      </trkpt>
      <trkpt lat="46.20391" lon="6.77665">
        <ele>1597</ele>
        <time>2000-01-01T04:05:36.000Z</time>
      </trkpt>
      <trkpt lat="46.20389" lon="6.77676">
        <ele>1597</ele>
        <time>2000-01-01T04:05:46.000Z</time>
      </trkpt>
      <trkpt lat="46.2038" lon="6.77697">
        <ele>1599</ele>
        <time>2000-01-01T04:05:56.000Z</time>
      </trkpt>
      <trkpt lat="46.20376" lon="6.77708">
        <ele>1598.7</ele>
        <time>2000-01-01T04:06:06.000Z</time>
      </trkpt>
      <trkpt lat="46.20371" lon="6.77717">
        <ele>1599.6</ele>
        <time>2000-01-01T04:06:16.000Z</time>
      </trkpt>
      <trkpt lat="46.20361" lon="6.7773">
        <ele>1599</ele>
        <time>2000-01-01T04:06:26.000Z</time>
      </trkpt>
      <trkpt lat="46.20346" lon="6.77753">
        <ele>1599</ele>
        <time>2000-01-01T04:06:36.000Z</time>
      </trkpt>
      <trkpt lat="46.20334" lon="6.77782">
        <ele>1599</ele>
        <time>2000-01-01T04:06:46.000Z</time>
      </trkpt>
      <trkpt lat="46.20327" lon="6.77808">
        <ele>1599</ele>
        <time>2000-01-01T04:06:56.000Z</time>
      </trkpt>
      <trkpt lat="46.20328" lon="6.77825">
        <ele>1610.1</ele>
        <time>2000-01-01T04:07:06.000Z</time>
      </trkpt>
      <trkpt lat="46.20336" lon="6.7785">
        <ele>1601</ele>
        <time>2000-01-01T04:07:16.000Z</time>
      </trkpt>
      <trkpt lat="46.20346" lon="6.77897">
        <ele>1601</ele>
        <time>2000-01-01T04:07:26.000Z</time>
      </trkpt>
      <trkpt lat="46.20341" lon="6.77916">
        <ele>1606.1</ele>
        <time>2000-01-01T04:07:36.000Z</time>
      </trkpt>
      <trkpt lat="46.20337" lon="6.77926">
        <ele>1602</ele>
        <time>2000-01-01T04:07:46.000Z</time>
      </trkpt>
      <trkpt lat="46.2032" lon="6.77931">
        <ele>1608.7</ele>
        <time>2000-01-01T04:07:56.000Z</time>
      </trkpt>
      <trkpt lat="46.20313" lon="6.77937">
        <ele>1603</ele>
        <time>2000-01-01T04:08:06.000Z</time>
      </trkpt>
      <trkpt lat="46.20305" lon="6.77948">
        <ele>1609.3</ele>
        <time>2000-01-01T04:08:16.000Z</time>
      </trkpt>
      <trkpt lat="46.20299" lon="6.7796">
        <ele>1600</ele>
        <time>2000-01-01T04:08:26.000Z</time>
      </trkpt>
      <trkpt lat="46.20293" lon="6.77975">
        <ele>1607.5</ele>
        <time>2000-01-01T04:08:36.000Z</time>
      </trkpt>
      <trkpt lat="46.20291" lon="6.78011">
        <ele>1597</ele>
        <time>2000-01-01T04:08:46.000Z</time>
      </trkpt>
      <trkpt lat="46.20292" lon="6.7802">
        <ele>1601.9</ele>
        <time>2000-01-01T04:08:56.000Z</time>
      </trkpt>
      <trkpt lat="46.20295" lon="6.78032">
        <ele>1600.3</ele>
        <time>2000-01-01T04:09:06.000Z</time>
      </trkpt>
      <trkpt lat="46.20275" lon="6.78047">
        <ele>1597</ele>
        <time>2000-01-01T04:09:16.000Z</time>
      </trkpt>
      <trkpt lat="46.20255" lon="6.78072">
        <ele>1597</ele>
        <time>2000-01-01T04:09:26.000Z</time>
      </trkpt>
      <trkpt lat="46.20242" lon="6.78086">
        <ele>1600.6</ele>
        <time>2000-01-01T04:09:36.000Z</time>
      </trkpt>
      <trkpt lat="46.20231" lon="6.78115">
        <ele>1598</ele>
        <time>2000-01-01T04:09:46.000Z</time>
      </trkpt>
      <trkpt lat="46.20218" lon="6.78155">
        <ele>1602</ele>
        <time>2000-01-01T04:09:56.000Z</time>
      </trkpt>
      <trkpt lat="46.20211" lon="6.78174">
        <ele>1602.1</ele>
        <time>2000-01-01T04:10:06.000Z</time>
      </trkpt>
      <trkpt lat="46.20179" lon="6.78223">
        <ele>1602</ele>
        <time>2000-01-01T04:10:16.000Z</time>
      </trkpt>
      <trkpt lat="46.20175" lon="6.78228">
        <ele>1607.5</ele>
        <time>2000-01-01T04:10:26.000Z</time>
      </trkpt>
      <trkpt lat="46.20163" lon="6.7825">
        <ele>1601</ele>
        <time>2000-01-01T04:10:36.000Z</time>
      </trkpt>
      <trkpt lat="46.20155" lon="6.7826">
        <ele>1608</ele>
        <time>2000-01-01T04:10:46.000Z</time>
      </trkpt>
      <trkpt lat="46.20147" lon="6.78276">
        <ele>1602</ele>
        <time>2000-01-01T04:10:56.000Z</time>
      </trkpt>
      <trkpt lat="46.20134" lon="6.78282">
        <ele>1608.8</ele>
        <time>2000-01-01T04:11:06.000Z</time>
      </trkpt>
      <trkpt lat="46.20126" lon="6.78293">
        <ele>1601</ele>
        <time>2000-01-01T04:11:16.000Z</time>
      </trkpt>
      <trkpt lat="46.20121" lon="6.78305">
        <ele>1606.9</ele>
        <time>2000-01-01T04:11:26.000Z</time>
      </trkpt>
      <trkpt lat="46.20116" lon="6.78325">
        <ele>1600</ele>
        <time>2000-01-01T04:11:36.000Z</time>
      </trkpt>
      <trkpt lat="46.20093" lon="6.78375">
        <ele>1599</ele>
        <time>2000-01-01T04:11:46.000Z</time>
      </trkpt>
      <trkpt lat="46.20087" lon="6.78388">
        <ele>1603.1</ele>
        <time>2000-01-01T04:11:56.000Z</time>
      </trkpt>
      <trkpt lat="46.20083" lon="6.7841">
        <ele>1598</ele>
        <time>2000-01-01T04:12:06.000Z</time>
      </trkpt>
      <trkpt lat="46.20081" lon="6.78419">
        <ele>1600.4</ele>
        <time>2000-01-01T04:12:16.000Z</time>
      </trkpt>
      <trkpt lat="46.20071" lon="6.78443">
        <ele>1599</ele>
        <time>2000-01-01T04:12:26.000Z</time>
      </trkpt>
      <trkpt lat="46.20066" lon="6.78461">
        <ele>1599.3</ele>
        <time>2000-01-01T04:12:36.000Z</time>
      </trkpt>
      <trkpt lat="46.2006" lon="6.78473">
        <ele>1598</ele>
        <time>2000-01-01T04:12:46.000Z</time>
      </trkpt>
      <trkpt lat="46.20051" lon="6.78503">
        <ele>1597</ele>
        <time>2000-01-01T04:12:56.000Z</time>
      </trkpt>
      <trkpt lat="46.2004" lon="6.78521">
        <ele>1597.5</ele>
        <time>2000-01-01T04:13:06.000Z</time>
      </trkpt>
      <trkpt lat="46.20035" lon="6.78544">
        <ele>1597</ele>
        <time>2000-01-01T04:13:16.000Z</time>
      </trkpt>
      <trkpt lat="46.20025" lon="6.78568">
        <ele>1597</ele>
        <time>2000-01-01T04:13:26.000Z</time>
      </trkpt>
      <trkpt lat="46.20019" lon="6.7858">
        <ele>1591.9</ele>
        <time>2000-01-01T04:13:36.000Z</time>
      </trkpt>
      <trkpt lat="46.20002" lon="6.78591">
        <ele>1595</ele>
        <time>2000-01-01T04:13:46.000Z</time>
      </trkpt>
      <trkpt lat="46.19986" lon="6.78581">
        <ele>1596.1</ele>
        <time>2000-01-01T04:13:56.000Z</time>
      </trkpt>
      <trkpt lat="46.19956" lon="6.78584">
        <ele>1593</ele>
        <time>2000-01-01T04:14:06.000Z</time>
      </trkpt>
      <trkpt lat="46.19934" lon="6.78586">
        <ele>1592</ele>
        <time>2000-01-01T04:14:16.000Z</time>
      </trkpt>
      <trkpt lat="46.19924" lon="6.78588">
        <ele>1597.9</ele>
        <time>2000-01-01T04:14:26.000Z</time>
      </trkpt>
      <trkpt lat="46.19913" lon="6.78595">
        <ele>1591</ele>
        <time>2000-01-01T04:14:36.000Z</time>
      </trkpt>
      <trkpt lat="46.19903" lon="6.78613">
        <ele>1595.5</ele>
        <time>2000-01-01T04:14:46.000Z</time>
      </trkpt>
      <trkpt lat="46.19894" lon="6.78645">
        <ele>1587</ele>
        <time>2000-01-01T04:14:56.000Z</time>
      </trkpt>
      <trkpt lat="46.19887" lon="6.78669">
        <ele>1588.8</ele>
        <time>2000-01-01T04:15:06.000Z</time>
      </trkpt>
      <trkpt lat="46.1988" lon="6.78708">
        <ele>1583</ele>
        <time>2000-01-01T04:15:16.000Z</time>
      </trkpt>
      <trkpt lat="46.19877" lon="6.78747">
        <ele>1582</ele>
        <time>2000-01-01T04:15:26.000Z</time>
      </trkpt>
      <trkpt lat="46.19883" lon="6.78763">
        <ele>1587.5</ele>
        <time>2000-01-01T04:15:36.000Z</time>
      </trkpt>
      <trkpt lat="46.19869" lon="6.78836">
        <ele>1589</ele>
        <time>2000-01-01T04:15:46.000Z</time>
      </trkpt>
      <trkpt lat="46.19859" lon="6.78875">
        <ele>1597</ele>
        <time>2000-01-01T04:15:56.000Z</time>
      </trkpt>
      <trkpt lat="46.19845" lon="6.78927">
        <ele>1622</ele>
        <time>2000-01-01T04:16:06.000Z</time>
      </trkpt>
      <trkpt lat="46.19832" lon="6.78978">
        <ele>1646</ele>
        <time>2000-01-01T04:16:16.000Z</time>
      </trkpt>
      <trkpt lat="46.19818" lon="6.7903">
        <ele>1655</ele>
        <time>2000-01-01T04:16:26.000Z</time>
      </trkpt>
      <trkpt lat="46.19804" lon="6.79082">
        <ele>1665</ele>
        <time>2000-01-01T04:16:36.000Z</time>
      </trkpt>
      <trkpt lat="46.19795" lon="6.79117">
        <ele>1670</ele>
        <time>2000-01-01T04:16:46.000Z</time>
      </trkpt>
      <trkpt lat="46.19782" lon="6.79164">
        <ele>1678</ele>
        <time>2000-01-01T04:16:56.000Z</time>
      </trkpt>
      <trkpt lat="46.19769" lon="6.79214">
        <ele>1686</ele>
        <time>2000-01-01T04:17:06.000Z</time>
      </trkpt>
      <trkpt lat="46.19755" lon="6.79264">
        <ele>1696</ele>
        <time>2000-01-01T04:17:16.000Z</time>
      </trkpt>
      <trkpt lat="46.19742" lon="6.79314">
        <ele>1709</ele>
        <time>2000-01-01T04:17:26.000Z</time>
      </trkpt>
      <trkpt lat="46.19731" lon="6.79352">
        <ele>1721</ele>
        <time>2000-01-01T04:17:36.000Z</time>
      </trkpt>
      <trkpt lat="46.19716" lon="6.7941">
        <ele>1732</ele>
        <time>2000-01-01T04:17:46.000Z</time>
      </trkpt>
      <trkpt lat="46.19702" lon="6.79462">
        <ele>1744</ele>
        <time>2000-01-01T04:17:56.000Z</time>
      </trkpt>
      <trkpt lat="46.19688" lon="6.79514">
        <ele>1752</ele>
        <time>2000-01-01T04:18:06.000Z</time>
      </trkpt>
      <trkpt lat="46.19675" lon="6.79566">
        <ele>1766</ele>
        <time>2000-01-01T04:18:16.000Z</time>
      </trkpt>
      <trkpt lat="46.19661" lon="6.79618">
        <ele>1776</ele>
        <time>2000-01-01T04:18:26.000Z</time>
      </trkpt>
      <trkpt lat="46.19651" lon="6.79656">
        <ele>1781</ele>
        <time>2000-01-01T04:18:36.000Z</time>
      </trkpt>
      <trkpt lat="46.19637" lon="6.7971">
        <ele>1782</ele>
        <time>2000-01-01T04:18:46.000Z</time>
      </trkpt>
      <trkpt lat="46.19623" lon="6.79762">
        <ele>1788</ele>
        <time>2000-01-01T04:18:56.000Z</time>
      </trkpt>
      <trkpt lat="46.19609" lon="6.79814">
        <ele>1795</ele>
        <time>2000-01-01T04:19:06.000Z</time>
      </trkpt>
      <trkpt lat="46.19595" lon="6.79866">
        <ele>1799</ele>
        <time>2000-01-01T04:19:16.000Z</time>
      </trkpt>
      <trkpt lat="46.19581" lon="6.79919">
        <ele>1799</ele>
        <time>2000-01-01T04:19:26.000Z</time>
      </trkpt>
      <trkpt lat="46.19571" lon="6.79957">
        <ele>1800</ele>
        <time>2000-01-01T04:19:36.000Z</time>
      </trkpt>
      <trkpt lat="46.19554" lon="6.80018">
        <ele>1804</ele>
        <time>2000-01-01T04:19:46.000Z</time>
      </trkpt>
      <trkpt lat="46.19541" lon="6.8007">
        <ele>1808</ele>
        <time>2000-01-01T04:19:56.000Z</time>
      </trkpt>
      <trkpt lat="46.19527" lon="6.80122">
        <ele>1811</ele>
        <time>2000-01-01T04:20:06.000Z</time>
      </trkpt>
      <trkpt lat="46.19513" lon="6.80174">
        <ele>1814</ele>
        <time>2000-01-01T04:20:16.000Z</time>
      </trkpt>
      <trkpt lat="46.195" lon="6.80225">
        <ele>1827</ele>
        <time>2000-01-01T04:20:26.000Z</time>
      </trkpt>
      <trkpt lat="46.1949" lon="6.80262">
        <ele>1837</ele>
        <time>2000-01-01T04:20:36.000Z</time>
      </trkpt>
      <trkpt lat="46.19476" lon="6.80314">
        <ele>1851</ele>
        <time>2000-01-01T04:20:46.000Z</time>
      </trkpt>
      <trkpt lat="46.19463" lon="6.80365">
        <ele>1871</ele>
        <time>2000-01-01T04:20:56.000Z</time>
      </trkpt>
      <trkpt lat="46.1945" lon="6.80416">
        <ele>1889</ele>
        <time>2000-01-01T04:21:06.000Z</time>
      </trkpt>
      <trkpt lat="46.19437" lon="6.80468">
        <ele>1907</ele>
        <time>2000-01-01T04:21:16.000Z</time>
      </trkpt>
      <trkpt lat="46.19424" lon="6.80519">
        <ele>1921</ele>
        <time>2000-01-01T04:21:26.000Z</time>
      </trkpt>
      <trkpt lat="46.19415" lon="6.80551">
        <ele>1935</ele>
        <time>2000-01-01T04:21:36.000Z</time>
      </trkpt>
      <trkpt lat="46.19407" lon="6.80585">
        <ele>1953</ele>
        <time>2000-01-01T04:21:46.000Z</time>
      </trkpt>
      <trkpt lat="46.19393" lon="6.80637">
        <ele>1989</ele>
        <time>2000-01-01T04:21:56.000Z</time>
      </trkpt>
      <trkpt lat="46.19379" lon="6.80688">
        <ele>2009</ele>
        <time>2000-01-01T04:22:06.000Z</time>
      </trkpt>
      <trkpt lat="46.19365" lon="6.8074">
        <ele>2022</ele>
        <time>2000-01-01T04:22:16.000Z</time>
      </trkpt>
      <trkpt lat="46.19351" lon="6.80791">
        <ele>2024</ele>
        <time>2000-01-01T04:22:26.000Z</time>
      </trkpt>
      <trkpt lat="46.19342" lon="6.80826">
        <ele>2026</ele>
        <time>2000-01-01T04:22:36.000Z</time>
      </trkpt>
      <trkpt lat="46.19331" lon="6.80868">
        <ele>2030</ele>
        <time>2000-01-01T04:22:46.000Z</time>
      </trkpt>
      <trkpt lat="46.19317" lon="6.80921">
        <ele>2043</ele>
        <time>2000-01-01T04:22:56.000Z</time>
      </trkpt>
      <trkpt lat="46.19303" lon="6.80975">
        <ele>2059</ele>
        <time>2000-01-01T04:23:06.000Z</time>
      </trkpt>
      <trkpt lat="46.19288" lon="6.81028">
        <ele>2078</ele>
        <time>2000-01-01T04:23:16.000Z</time>
      </trkpt>
      <trkpt lat="46.19274" lon="6.81081">
        <ele>2101</ele>
        <time>2000-01-01T04:23:26.000Z</time>
      </trkpt>
      <trkpt lat="46.1926" lon="6.81135">
        <ele>2119</ele>
        <time>2000-01-01T04:23:36.000Z</time>
      </trkpt>
      <trkpt lat="46.19251" lon="6.8117">
        <ele>2137</ele>
        <time>2000-01-01T04:23:46.000Z</time>
      </trkpt>
      <trkpt lat="46.19239" lon="6.81217">
        <ele>2153</ele>
        <time>2000-01-01T04:23:56.000Z</time>
      </trkpt>
      <trkpt lat="46.19225" lon="6.81268">
        <ele>2175</ele>
        <time>2000-01-01T04:24:06.000Z</time>
      </trkpt>
      <trkpt lat="46.19212" lon="6.8132">
        <ele>2193</ele>
        <time>2000-01-01T04:24:16.000Z</time>
      </trkpt>
      <trkpt lat="46.19199" lon="6.81371">
        <ele>2213</ele>
        <time>2000-01-01T04:24:26.000Z</time>
      </trkpt>
      <trkpt lat="46.19185" lon="6.81422">
        <ele>2225</ele>
        <time>2000-01-01T04:24:36.000Z</time>
      </trkpt>
      <trkpt lat="46.19177" lon="6.81456">
        <ele>2233</ele>
        <time>2000-01-01T04:24:46.000Z</time>
      </trkpt>
      <trkpt lat="46.19166" lon="6.81495">
        <ele>2230</ele>
        <time>2000-01-01T04:24:56.000Z</time>
      </trkpt>
      <trkpt lat="46.19204" lon="6.81458">
        <ele>2227</ele>
        <time>2000-01-01T04:25:06.000Z</time>
      </trkpt>
      <trkpt lat="46.19237" lon="6.81484">
        <ele>2224</ele>
        <time>2000-01-01T04:25:16.000Z</time>
      </trkpt>
      <trkpt lat="46.19246" lon="6.81504">
        <ele>2221.1</ele>
        <time>2000-01-01T04:25:26.000Z</time>
      </trkpt>
      <trkpt lat="46.19248" lon="6.81533">
        <ele>2222</ele>
        <time>2000-01-01T04:25:36.000Z</time>
      </trkpt>
      <trkpt lat="46.19238" lon="6.81594">
        <ele>2221</ele>
        <time>2000-01-01T04:25:46.000Z</time>
      </trkpt>
      <trkpt lat="46.19241" lon="6.81623">
        <ele>2206</ele>
        <time>2000-01-01T04:25:56.000Z</time>
      </trkpt>
      <trkpt lat="46.19241" lon="6.81623">
        <ele>2204.6</ele>
        <time>2000-01-01T04:26:06.000Z</time>
      </trkpt>
      <trkpt lat="46.19258" lon="6.8165">
        <ele>2190</ele>
        <time>2000-01-01T04:26:16.000Z</time>
      </trkpt>
      <trkpt lat="46.19275" lon="6.81663">
        <ele>2176</ele>
        <time>2000-01-01T04:26:26.000Z</time>
      </trkpt>
      <trkpt lat="46.19281" lon="6.81679">
        <ele>2164</ele>
        <time>2000-01-01T04:26:36.000Z</time>
      </trkpt>
      <trkpt lat="46.19273" lon="6.81698">
        <ele>2178</ele>
        <time>2000-01-01T04:26:46.000Z</time>
      </trkpt>
      <trkpt lat="46.19234" lon="6.81717">
        <ele>2180</ele>
        <time>2000-01-01T04:26:56.000Z</time>
      </trkpt>
      <trkpt lat="46.19211" lon="6.81729">
        <ele>2180</ele>
        <time>2000-01-01T04:27:06.000Z</time>
      </trkpt>
      <trkpt lat="46.19193" lon="6.81747">
        <ele>2179</ele>
        <time>2000-01-01T04:27:16.000Z</time>
      </trkpt>
      <trkpt lat="46.19179" lon="6.81765">
        <ele>2178</ele>
        <time>2000-01-01T04:27:26.000Z</time>
      </trkpt>
      <trkpt lat="46.19155" lon="6.81821">
        <ele>2152</ele>
        <time>2000-01-01T04:27:36.000Z</time>
      </trkpt>
      <trkpt lat="46.19145" lon="6.81865">
        <ele>2139</ele>
        <time>2000-01-01T04:27:46.000Z</time>
      </trkpt>
      <trkpt lat="46.1914" lon="6.81921">
        <ele>2123</ele>
        <time>2000-01-01T04:27:56.000Z</time>
      </trkpt>
      <trkpt lat="46.19139" lon="6.81932">
        <ele>2120.3</ele>
        <time>2000-01-01T04:28:06.000Z</time>
      </trkpt>
      <trkpt lat="46.19151" lon="6.81934">
        <ele>2121</ele>
        <time>2000-01-01T04:28:16.000Z</time>
      </trkpt>
      <trkpt lat="46.19158" lon="6.81947">
        <ele>2120.1</ele>
        <time>2000-01-01T04:28:26.000Z</time>
      </trkpt>
      <trkpt lat="46.19161" lon="6.81958">
        <ele>2120</ele>
        <time>2000-01-01T04:28:36.000Z</time>
      </trkpt>
      <trkpt lat="46.19161" lon="6.81989">
        <ele>2117</ele>
        <time>2000-01-01T04:28:46.000Z</time>
      </trkpt>
      <trkpt lat="46.19169" lon="6.81988">
        <ele>2117.3</ele>
        <time>2000-01-01T04:28:56.000Z</time>
      </trkpt>
      <trkpt lat="46.19175" lon="6.8198">
        <ele>2114.1</ele>
        <time>2000-01-01T04:29:06.000Z</time>
      </trkpt>
      <trkpt lat="46.19188" lon="6.81964">
        <ele>2112</ele>
        <time>2000-01-01T04:29:16.000Z</time>
      </trkpt>
      <trkpt lat="46.19191" lon="6.81954">
        <ele>2106.4</ele>
        <time>2000-01-01T04:29:26.000Z</time>
      </trkpt>
      <trkpt lat="46.19194" lon="6.81956">
        <ele>2104.5</ele>
        <time>2000-01-01T04:29:36.000Z</time>
      </trkpt>
      <trkpt lat="46.19192" lon="6.8197">
        <ele>2110</ele>
        <time>2000-01-01T04:29:46.000Z</time>
      </trkpt>
      <trkpt lat="46.19188" lon="6.81981">
        <ele>2106</ele>
        <time>2000-01-01T04:29:56.000Z</time>
      </trkpt>
      <trkpt lat="46.19185" lon="6.82">
        <ele>2109</ele>
        <time>2000-01-01T04:30:06.000Z</time>
      </trkpt>
      <trkpt lat="46.19176" lon="6.82016">
        <ele>2108.2</ele>
        <time>2000-01-01T04:30:16.000Z</time>
      </trkpt>
      <trkpt lat="46.19173" lon="6.82027">
        <ele>2106</ele>
        <time>2000-01-01T04:30:26.000Z</time>
      </trkpt>
      <trkpt lat="46.19178" lon="6.82058">
        <ele>2099</ele>
        <time>2000-01-01T04:30:36.000Z</time>
      </trkpt>
      <trkpt lat="46.19177" lon="6.82073">
        <ele>2094.1</ele>
        <time>2000-01-01T04:30:46.000Z</time>
      </trkpt>
      <trkpt lat="46.19179" lon="6.82089">
        <ele>2092</ele>
        <time>2000-01-01T04:30:56.000Z</time>
      </trkpt>
      <trkpt lat="46.19186" lon="6.82116">
        <ele>2088</ele>
        <time>2000-01-01T04:31:06.000Z</time>
      </trkpt>
      <trkpt lat="46.1921" lon="6.8212">
        <ele>2083</ele>
        <time>2000-01-01T04:31:16.000Z</time>
      </trkpt>
      <trkpt lat="46.19222" lon="6.82127">
        <ele>2083.7</ele>
        <time>2000-01-01T04:31:26.000Z</time>
      </trkpt>
      <trkpt lat="46.19226" lon="6.82125">
        <ele>2083</ele>
        <time>2000-01-01T04:31:36.000Z</time>
      </trkpt>
      <trkpt lat="46.19228" lon="6.82116">
        <ele>2081</ele>
        <time>2000-01-01T04:31:46.000Z</time>
      </trkpt>
      <trkpt lat="46.19224" lon="6.82104">
        <ele>2079.8</ele>
        <time>2000-01-01T04:31:56.000Z</time>
      </trkpt>
      <trkpt lat="46.19222" lon="6.82066">
        <ele>2079</ele>
        <time>2000-01-01T04:32:06.000Z</time>
      </trkpt>
      <trkpt lat="46.19225" lon="6.82062">
        <ele>2077.3</ele>
        <time>2000-01-01T04:32:16.000Z</time>
      </trkpt>
      <trkpt lat="46.1923" lon="6.82063">
        <ele>2075.3</ele>
        <time>2000-01-01T04:32:26.000Z</time>
      </trkpt>
      <trkpt lat="46.19255" lon="6.82093">
        <ele>2071</ele>
        <time>2000-01-01T04:32:36.000Z</time>
      </trkpt>
      <trkpt lat="46.19272" lon="6.82103">
        <ele>2071.7</ele>
        <time>2000-01-01T04:32:46.000Z</time>
      </trkpt>
      <trkpt lat="46.1929" lon="6.82104">
        <ele>2068</ele>
        <time>2000-01-01T04:32:56.000Z</time>
      </trkpt>
      <trkpt lat="46.19312" lon="6.82093">
        <ele>2064</ele>
        <time>2000-01-01T04:33:06.000Z</time>
      </trkpt>
      <trkpt lat="46.19344" lon="6.82095">
        <ele>2058</ele>
        <time>2000-01-01T04:33:16.000Z</time>
      </trkpt>
      <trkpt lat="46.19357" lon="6.82089">
        <ele>2057.3</ele>
        <time>2000-01-01T04:33:26.000Z</time>
      </trkpt>
      <trkpt lat="46.19394" lon="6.82074">
        <ele>2046</ele>
        <time>2000-01-01T04:33:36.000Z</time>
      </trkpt>
      <trkpt lat="46.19418" lon="6.82066">
        <ele>2042</ele>
        <time>2000-01-01T04:33:46.000Z</time>
      </trkpt>
      <trkpt lat="46.19444" lon="6.82058">
        <ele>2035</ele>
        <time>2000-01-01T04:33:56.000Z</time>
      </trkpt>
      <trkpt lat="46.19487" lon="6.82044">
        <ele>2028</ele>
        <time>2000-01-01T04:34:06.000Z</time>
      </trkpt>
      <trkpt lat="46.19513" lon="6.82028">
        <ele>2019</ele>
        <time>2000-01-01T04:34:16.000Z</time>
      </trkpt>
      <trkpt lat="46.19535" lon="6.82012">
        <ele>2016</ele>
        <time>2000-01-01T04:34:26.000Z</time>
      </trkpt>
      <trkpt lat="46.1956" lon="6.81994">
        <ele>2012</ele>
        <time>2000-01-01T04:34:36.000Z</time>
      </trkpt>
      <trkpt lat="46.19582" lon="6.8198">
        <ele>2010</ele>
        <time>2000-01-01T04:34:46.000Z</time>
      </trkpt>
      <trkpt lat="46.19604" lon="6.81966">
        <ele>2006</ele>
        <time>2000-01-01T04:34:56.000Z</time>
      </trkpt>
      <trkpt lat="46.19615" lon="6.81955">
        <ele>2009.3</ele>
        <time>2000-01-01T04:35:06.000Z</time>
      </trkpt>
      <trkpt lat="46.19634" lon="6.81929">
        <ele>2001</ele>
        <time>2000-01-01T04:35:16.000Z</time>
      </trkpt>
      <trkpt lat="46.1964" lon="6.81912">
        <ele>2001.9</ele>
        <time>2000-01-01T04:35:26.000Z</time>
      </trkpt>
      <trkpt lat="46.19646" lon="6.81892">
        <ele>1997</ele>
        <time>2000-01-01T04:35:36.000Z</time>
      </trkpt>
      <trkpt lat="46.19657" lon="6.81865">
        <ele>1995</ele>
        <time>2000-01-01T04:35:46.000Z</time>
      </trkpt>
      <trkpt lat="46.19664" lon="6.81842">
        <ele>1995.3</ele>
        <time>2000-01-01T04:35:56.000Z</time>
      </trkpt>
      <trkpt lat="46.19679" lon="6.81813">
        <ele>1993</ele>
        <time>2000-01-01T04:36:06.000Z</time>
      </trkpt>
      <trkpt lat="46.19689" lon="6.81774">
        <ele>1990</ele>
        <time>2000-01-01T04:36:16.000Z</time>
      </trkpt>
      <trkpt lat="46.19699" lon="6.81735">
        <ele>1987</ele>
        <time>2000-01-01T04:36:26.000Z</time>
      </trkpt>
      <trkpt lat="46.19705" lon="6.81709">
        <ele>1989.1</ele>
        <time>2000-01-01T04:36:36.000Z</time>
      </trkpt>
      <trkpt lat="46.19702" lon="6.81686">
        <ele>1985</ele>
        <time>2000-01-01T04:36:46.000Z</time>
      </trkpt>
      <trkpt lat="46.19702" lon="6.81643">
        <ele>1982</ele>
        <time>2000-01-01T04:36:56.000Z</time>
      </trkpt>
      <trkpt lat="46.19704" lon="6.81598">
        <ele>1978</ele>
        <time>2000-01-01T04:37:06.000Z</time>
      </trkpt>
      <trkpt lat="46.19711" lon="6.81571">
        <ele>1978</ele>
        <time>2000-01-01T04:37:16.000Z</time>
      </trkpt>
      <trkpt lat="46.1971" lon="6.81558">
        <ele>1977.8</ele>
        <time>2000-01-01T04:37:26.000Z</time>
      </trkpt>
      <trkpt lat="46.19707" lon="6.81548">
        <ele>1977.8</ele>
        <time>2000-01-01T04:37:36.000Z</time>
      </trkpt>
      <trkpt lat="46.19697" lon="6.81536">
        <ele>1978</ele>
        <time>2000-01-01T04:37:46.000Z</time>
      </trkpt>
      <trkpt lat="46.19691" lon="6.81516">
        <ele>1977.8</ele>
        <time>2000-01-01T04:37:56.000Z</time>
      </trkpt>
      <trkpt lat="46.19688" lon="6.81492">
        <ele>1978</ele>
        <time>2000-01-01T04:38:06.000Z</time>
      </trkpt>
      <trkpt lat="46.19682" lon="6.81474">
        <ele>1978.7</ele>
        <time>2000-01-01T04:38:16.000Z</time>
      </trkpt>
      <trkpt lat="46.19676" lon="6.81459">
        <ele>1979</ele>
        <time>2000-01-01T04:38:26.000Z</time>
      </trkpt>
      <trkpt lat="46.1968" lon="6.8144">
        <ele>1979.7</ele>
        <time>2000-01-01T04:38:36.000Z</time>
      </trkpt>
      <trkpt lat="46.19681" lon="6.81419">
        <ele>1980</ele>
        <time>2000-01-01T04:38:46.000Z</time>
      </trkpt>
      <trkpt lat="46.19668" lon="6.8138">
        <ele>1982</ele>
        <time>2000-01-01T04:38:56.000Z</time>
      </trkpt>
      <trkpt lat="46.1965" lon="6.81328">
        <ele>1981</ele>
        <time>2000-01-01T04:39:06.000Z</time>
      </trkpt>
      <trkpt lat="46.19652" lon="6.81313">
        <ele>1983.6</ele>
        <time>2000-01-01T04:39:16.000Z</time>
      </trkpt>
      <trkpt lat="46.19662" lon="6.81305">
        <ele>1981</ele>
        <time>2000-01-01T04:39:26.000Z</time>
      </trkpt>
      <trkpt lat="46.19667" lon="6.81294">
        <ele>1979.2</ele>
        <time>2000-01-01T04:39:36.000Z</time>
      </trkpt>
      <trkpt lat="46.19681" lon="6.81289">
        <ele>1977</ele>
        <time>2000-01-01T04:39:46.000Z</time>
      </trkpt>
      <trkpt lat="46.19699" lon="6.8129">
        <ele>1976</ele>
        <time>2000-01-01T04:39:56.000Z</time>
      </trkpt>
      <trkpt lat="46.19711" lon="6.81294">
        <ele>1975</ele>
        <time>2000-01-01T04:40:06.000Z</time>
      </trkpt>
      <trkpt lat="46.19722" lon="6.8129">
        <ele>1973.9</ele>
        <time>2000-01-01T04:40:16.000Z</time>
      </trkpt>
      <trkpt lat="46.19738" lon="6.81291">
        <ele>1973</ele>
        <time>2000-01-01T04:40:26.000Z</time>
      </trkpt>
      <trkpt lat="46.19751" lon="6.81286">
        <ele>1971</ele>
        <time>2000-01-01T04:40:36.000Z</time>
      </trkpt>
      <trkpt lat="46.1977" lon="6.81256">
        <ele>1968</ele>
        <time>2000-01-01T04:40:46.000Z</time>
      </trkpt>
      <trkpt lat="46.19799" lon="6.81205">
        <ele>1966</ele>
        <time>2000-01-01T04:40:56.000Z</time>
      </trkpt>
      <trkpt lat="46.19817" lon="6.81174">
        <ele>1966</ele>
        <time>2000-01-01T04:41:06.000Z</time>
      </trkpt>
      <trkpt lat="46.19813" lon="6.81161">
        <ele>1964.7</ele>
        <time>2000-01-01T04:41:16.000Z</time>
      </trkpt>
      <trkpt lat="46.19802" lon="6.81139">
        <ele>1968</ele>
        <time>2000-01-01T04:41:26.000Z</time>
      </trkpt>
      <trkpt lat="46.19788" lon="6.81122">
        <ele>1967.5</ele>
        <time>2000-01-01T04:41:36.000Z</time>
      </trkpt>
      <trkpt lat="46.19785" lon="6.81112">
        <ele>1970</ele>
        <time>2000-01-01T04:41:46.000Z</time>
      </trkpt>
      <trkpt lat="46.19784" lon="6.81098">
        <ele>1968.4</ele>
        <time>2000-01-01T04:41:56.000Z</time>
      </trkpt>
      <trkpt lat="46.19775" lon="6.81085">
        <ele>1971</ele>
        <time>2000-01-01T04:42:06.000Z</time>
      </trkpt>
      <trkpt lat="46.19769" lon="6.81073">
        <ele>1969.3</ele>
        <time>2000-01-01T04:42:16.000Z</time>
      </trkpt>
      <trkpt lat="46.1977" lon="6.81061">
        <ele>1969.2</ele>
        <time>2000-01-01T04:42:26.000Z</time>
      </trkpt>
      <trkpt lat="46.19773" lon="6.81056">
        <ele>1971</ele>
        <time>2000-01-01T04:42:36.000Z</time>
      </trkpt>
      <trkpt lat="46.19777" lon="6.81039">
        <ele>1968.9</ele>
        <time>2000-01-01T04:42:46.000Z</time>
      </trkpt>
      <trkpt lat="46.1978" lon="6.81029">
        <ele>1971</ele>
        <time>2000-01-01T04:42:56.000Z</time>
      </trkpt>
      <trkpt lat="46.19794" lon="6.81016">
        <ele>1968</ele>
        <time>2000-01-01T04:43:06.000Z</time>
      </trkpt>
      <trkpt lat="46.19802" lon="6.81002">
        <ele>1971</ele>
        <time>2000-01-01T04:43:16.000Z</time>
      </trkpt>
      <trkpt lat="46.19802" lon="6.80983">
        <ele>1968.8</ele>
        <time>2000-01-01T04:43:26.000Z</time>
      </trkpt>
      <trkpt lat="46.19795" lon="6.80965">
        <ele>1971</ele>
        <time>2000-01-01T04:43:36.000Z</time>
      </trkpt>
      <trkpt lat="46.19783" lon="6.80954">
        <ele>1971.6</ele>
        <time>2000-01-01T04:43:46.000Z</time>
      </trkpt>
      <trkpt lat="46.19783" lon="6.80947">
        <ele>1972</ele>
        <time>2000-01-01T04:43:56.000Z</time>
      </trkpt>
      <trkpt lat="46.19784" lon="6.80933">
        <ele>1973</ele>
        <time>2000-01-01T04:44:06.000Z</time>
      </trkpt>
      <trkpt lat="46.19781" lon="6.80919">
        <ele>1973</ele>
        <time>2000-01-01T04:44:16.000Z</time>
      </trkpt>
      <trkpt lat="46.19773" lon="6.80907">
        <ele>1975</ele>
        <time>2000-01-01T04:44:26.000Z</time>
      </trkpt>
      <trkpt lat="46.19775" lon="6.809">
        <ele>1975.4</ele>
        <time>2000-01-01T04:44:36.000Z</time>
      </trkpt>
      <trkpt lat="46.19782" lon="6.80895">
        <ele>1974</ele>
        <time>2000-01-01T04:44:46.000Z</time>
      </trkpt>
      <trkpt lat="46.19785" lon="6.8089">
        <ele>1975.8</ele>
        <time>2000-01-01T04:44:56.000Z</time>
      </trkpt>
      <trkpt lat="46.19785" lon="6.80879">
        <ele>1976.5</ele>
        <time>2000-01-01T04:45:06.000Z</time>
      </trkpt>
      <trkpt lat="46.19783" lon="6.80863">
        <ele>1975</ele>
        <time>2000-01-01T04:45:16.000Z</time>
      </trkpt>
      <trkpt lat="46.19782" lon="6.80853">
        <ele>1978.2</ele>
        <time>2000-01-01T04:45:26.000Z</time>
      </trkpt>
      <trkpt lat="46.19773" lon="6.80844">
        <ele>1978.7</ele>
        <time>2000-01-01T04:45:36.000Z</time>
      </trkpt>
      <trkpt lat="46.19765" lon="6.8084">
        <ele>1977</ele>
        <time>2000-01-01T04:45:46.000Z</time>
      </trkpt>
      <trkpt lat="46.19759" lon="6.80838">
        <ele>1978.9</ele>
        <time>2000-01-01T04:45:56.000Z</time>
      </trkpt>
      <trkpt lat="46.19756" lon="6.80829">
        <ele>1979.7</ele>
        <time>2000-01-01T04:46:06.000Z</time>
      </trkpt>
      <trkpt lat="46.19757" lon="6.80816">
        <ele>1979</ele>
        <time>2000-01-01T04:46:16.000Z</time>
      </trkpt>
      <trkpt lat="46.19755" lon="6.80793">
        <ele>1984.5</ele>
        <time>2000-01-01T04:46:26.000Z</time>
      </trkpt>
      <trkpt lat="46.19749" lon="6.80775">
        <ele>1982</ele>
        <time>2000-01-01T04:46:36.000Z</time>
      </trkpt>
      <trkpt lat="46.1974" lon="6.80757">
        <ele>1989.6</ele>
        <time>2000-01-01T04:46:46.000Z</time>
      </trkpt>
      <trkpt lat="46.19735" lon="6.80735">
        <ele>1983</ele>
        <time>2000-01-01T04:46:56.000Z</time>
      </trkpt>
      <trkpt lat="46.19729" lon="6.80719">
        <ele>1994.9</ele>
        <time>2000-01-01T04:47:06.000Z</time>
      </trkpt>
      <trkpt lat="46.1973" lon="6.80696">
        <ele>1985</ele>
        <time>2000-01-01T04:47:16.000Z</time>
      </trkpt>
      <trkpt lat="46.19727" lon="6.80681">
        <ele>1999.6</ele>
        <time>2000-01-01T04:47:26.000Z</time>
      </trkpt>
      <trkpt lat="46.1972" lon="6.80659">
        <ele>1990</ele>
        <time>2000-01-01T04:47:36.000Z</time>
      </trkpt>
      <trkpt lat="46.19707" lon="6.80647">
        <ele>2000.4</ele>
        <time>2000-01-01T04:47:46.000Z</time>
      </trkpt>
      <trkpt lat="46.19699" lon="6.8064">
        <ele>1990</ele>
        <time>2000-01-01T04:47:56.000Z</time>
      </trkpt>
      <trkpt lat="46.19699" lon="6.80622">
        <ele>2000</ele>
        <time>2000-01-01T04:48:06.000Z</time>
      </trkpt>
      <trkpt lat="46.19698" lon="6.80575">
        <ele>1991</ele>
        <time>2000-01-01T04:48:16.000Z</time>
      </trkpt>
      <trkpt lat="46.19696" lon="6.80526">
        <ele>1991</ele>
        <time>2000-01-01T04:48:26.000Z</time>
      </trkpt>
      <trkpt lat="46.19697" lon="6.80494">
        <ele>1992</ele>
        <time>2000-01-01T04:48:36.000Z</time>
      </trkpt>
      <trkpt lat="46.19706" lon="6.80463">
        <ele>1992</ele>
        <time>2000-01-01T04:48:46.000Z</time>
      </trkpt>
      <trkpt lat="46.19709" lon="6.80439">
        <ele>1989.3</ele>
        <time>2000-01-01T04:48:56.000Z</time>
      </trkpt>
      <trkpt lat="46.19724" lon="6.80414">
        <ele>1985</ele>
        <time>2000-01-01T04:49:06.000Z</time>
      </trkpt>
      <trkpt lat="46.19737" lon="6.8038">
        <ele>1981</ele>
        <time>2000-01-01T04:49:16.000Z</time>
      </trkpt>
      <trkpt lat="46.19744" lon="6.80342">
        <ele>1978</ele>
        <time>2000-01-01T04:49:26.000Z</time>
      </trkpt>
      <trkpt lat="46.19754" lon="6.80327">
        <ele>1979.1</ele>
        <time>2000-01-01T04:49:36.000Z</time>
      </trkpt>
      <trkpt lat="46.19759" lon="6.80304">
        <ele>1973</ele>
        <time>2000-01-01T04:49:46.000Z</time>
      </trkpt>
      <trkpt lat="46.19772" lon="6.80279">
        <ele>1971</ele>
        <time>2000-01-01T04:49:56.000Z</time>
      </trkpt>
      <trkpt lat="46.19778" lon="6.8026">
        <ele>1973.7</ele>
        <time>2000-01-01T04:50:06.000Z</time>
      </trkpt>
      <trkpt lat="46.19788" lon="6.80242">
        <ele>1967</ele>
        <time>2000-01-01T04:50:16.000Z</time>
      </trkpt>
      <trkpt lat="46.19791" lon="6.80219">
        <ele>1971.2</ele>
        <time>2000-01-01T04:50:26.000Z</time>
      </trkpt>
      <trkpt lat="46.19789" lon="6.802">
        <ele>1965</ele>
        <time>2000-01-01T04:50:36.000Z</time>
      </trkpt>
      <trkpt lat="46.19794" lon="6.80184">
        <ele>1967.5</ele>
        <time>2000-01-01T04:50:46.000Z</time>
      </trkpt>
      <trkpt lat="46.19793" lon="6.80171">
        <ele>1963</ele>
        <time>2000-01-01T04:50:56.000Z</time>
      </trkpt>
      <trkpt lat="46.19795" lon="6.80155">
        <ele>1964</ele>
        <time>2000-01-01T04:51:06.000Z</time>
      </trkpt>
      <trkpt lat="46.19802" lon="6.80135">
        <ele>1960</ele>
        <time>2000-01-01T04:51:16.000Z</time>
      </trkpt>
      <trkpt lat="46.19801" lon="6.80122">
        <ele>1961.5</ele>
        <time>2000-01-01T04:51:26.000Z</time>
      </trkpt>
      <trkpt lat="46.19798" lon="6.80108">
        <ele>1957</ele>
        <time>2000-01-01T04:51:36.000Z</time>
      </trkpt>
      <trkpt lat="46.19801" lon="6.80084">
        <ele>1956.6</ele>
        <time>2000-01-01T04:51:46.000Z</time>
      </trkpt>
      <trkpt lat="46.19802" lon="6.80069">
        <ele>1957</ele>
        <time>2000-01-01T04:51:56.000Z</time>
      </trkpt>
      <trkpt lat="46.19812" lon="6.80047">
        <ele>1955.6</ele>
        <time>2000-01-01T04:52:06.000Z</time>
      </trkpt>
      <trkpt lat="46.19857" lon="6.79941">
        <ele>1946</ele>
        <time>2000-01-01T04:52:16.000Z</time>
      </trkpt>
      <trkpt lat="46.19871" lon="6.79884">
        <ele>1940</ele>
        <time>2000-01-01T04:52:26.000Z</time>
      </trkpt>
      <trkpt lat="46.19881" lon="6.79852">
        <ele>1936</ele>
        <time>2000-01-01T04:52:36.000Z</time>
      </trkpt>
      <trkpt lat="46.19893" lon="6.79817">
        <ele>1936</ele>
        <time>2000-01-01T04:52:46.000Z</time>
      </trkpt>
      <trkpt lat="46.1992" lon="6.79782">
        <ele>1935</ele>
        <time>2000-01-01T04:52:56.000Z</time>
      </trkpt>
      <trkpt lat="46.19943" lon="6.79774">
        <ele>1932</ele>
        <time>2000-01-01T04:53:06.000Z</time>
      </trkpt>
      <trkpt lat="46.19969" lon="6.79764">
        <ele>1930</ele>
        <time>2000-01-01T04:53:16.000Z</time>
      </trkpt>
      <trkpt lat="46.19989" lon="6.7976">
        <ele>1929</ele>
        <time>2000-01-01T04:53:26.000Z</time>
      </trkpt>
      <trkpt lat="46.20016" lon="6.79762">
        <ele>1928</ele>
        <time>2000-01-01T04:53:36.000Z</time>
      </trkpt>
      <trkpt lat="46.20028" lon="6.79752">
        <ele>1932.5</ele>
        <time>2000-01-01T04:53:46.000Z</time>
      </trkpt>
      <trkpt lat="46.20041" lon="6.79717">
        <ele>1927</ele>
        <time>2000-01-01T04:53:56.000Z</time>
      </trkpt>
      <trkpt lat="46.20052" lon="6.79713">
        <ele>1924.9</ele>
        <time>2000-01-01T04:54:06.000Z</time>
      </trkpt>
      <trkpt lat="46.20071" lon="6.79722">
        <ele>1925</ele>
        <time>2000-01-01T04:54:16.000Z</time>
      </trkpt>
      <trkpt lat="46.20105" lon="6.79729">
        <ele>1919</ele>
        <time>2000-01-01T04:54:26.000Z</time>
      </trkpt>
      <trkpt lat="46.20108" lon="6.79719">
        <ele>1932.4</ele>
        <time>2000-01-01T04:54:36.000Z</time>
      </trkpt>
      <trkpt lat="46.20097" lon="6.79711">
        <ele>1918</ele>
        <time>2000-01-01T04:54:46.000Z</time>
      </trkpt>
      <trkpt lat="46.20093" lon="6.79703">
        <ele>1924.5</ele>
        <time>2000-01-01T04:54:56.000Z</time>
      </trkpt>
      <trkpt lat="46.20085" lon="6.79694">
        <ele>1920.5</ele>
        <time>2000-01-01T04:55:06.000Z</time>
      </trkpt>
      <trkpt lat="46.20082" lon="6.79685">
        <ele>1912</ele>
        <time>2000-01-01T04:55:16.000Z</time>
      </trkpt>
      <trkpt lat="46.20096" lon="6.79685">
        <ele>1919.8</ele>
        <time>2000-01-01T04:55:26.000Z</time>
      </trkpt>
      <trkpt lat="46.20103" lon="6.79677">
        <ele>1907</ele>
        <time>2000-01-01T04:55:36.000Z</time>
      </trkpt>
      <trkpt lat="46.20108" lon="6.79662">
        <ele>1914.4</ele>
        <time>2000-01-01T04:55:46.000Z</time>
      </trkpt>
      <trkpt lat="46.2011" lon="6.79644">
        <ele>1902</ele>
        <time>2000-01-01T04:55:56.000Z</time>
      </trkpt>
      <trkpt lat="46.20121" lon="6.79631">
        <ele>1906.1</ele>
        <time>2000-01-01T04:56:06.000Z</time>
      </trkpt>
      <trkpt lat="46.20135" lon="6.7961">
        <ele>1894</ele>
        <time>2000-01-01T04:56:16.000Z</time>
      </trkpt>
      <trkpt lat="46.2014" lon="6.79584">
        <ele>1896.2</ele>
        <time>2000-01-01T04:56:26.000Z</time>
      </trkpt>
      <trkpt lat="46.20154" lon="6.7956">
        <ele>1885</ele>
        <time>2000-01-01T04:56:36.000Z</time>
      </trkpt>
      <trkpt lat="46.20164" lon="6.79534">
        <ele>1882</ele>
        <time>2000-01-01T04:56:46.000Z</time>
      </trkpt>
      <trkpt lat="46.20182" lon="6.79505">
        <ele>1879</ele>
        <time>2000-01-01T04:56:56.000Z</time>
      </trkpt>
      <trkpt lat="46.2021" lon="6.79467">
        <ele>1878</ele>
        <time>2000-01-01T04:57:06.000Z</time>
      </trkpt>
      <trkpt lat="46.20224" lon="6.7946">
        <ele>1886.9</ele>
        <time>2000-01-01T04:57:16.000Z</time>
      </trkpt>
      <trkpt lat="46.20227" lon="6.79451">
        <ele>1877</ele>
        <time>2000-01-01T04:57:26.000Z</time>
      </trkpt>
      <trkpt lat="46.20233" lon="6.79442">
        <ele>1884.1</ele>
        <time>2000-01-01T04:57:36.000Z</time>
      </trkpt>
      <trkpt lat="46.20242" lon="6.79435">
        <ele>1875</ele>
        <time>2000-01-01T04:57:46.000Z</time>
      </trkpt>
      <trkpt lat="46.20248" lon="6.79417">
        <ele>1881.4</ele>
        <time>2000-01-01T04:57:56.000Z</time>
      </trkpt>
      <trkpt lat="46.20278" lon="6.79383">
        <ele>1870</ele>
        <time>2000-01-01T04:58:06.000Z</time>
      </trkpt>
      <trkpt lat="46.20282" lon="6.79372">
        <ele>1875.2</ele>
        <time>2000-01-01T04:58:16.000Z</time>
      </trkpt>
      <trkpt lat="46.20286" lon="6.79357">
        <ele>1865</ele>
        <time>2000-01-01T04:58:26.000Z</time>
      </trkpt>
      <trkpt lat="46.20305" lon="6.79331">
        <ele>1865</ele>
        <time>2000-01-01T04:58:36.000Z</time>
      </trkpt>
      <trkpt lat="46.20321" lon="6.79314">
        <ele>1865</ele>
        <time>2000-01-01T04:58:46.000Z</time>
      </trkpt>
      <trkpt lat="46.20325" lon="6.79302">
        <ele>1867.4</ele>
        <time>2000-01-01T04:58:56.000Z</time>
      </trkpt>
      <trkpt lat="46.20333" lon="6.79281">
        <ele>1859</ele>
        <time>2000-01-01T04:59:06.000Z</time>
      </trkpt>
      <trkpt lat="46.20343" lon="6.79265">
        <ele>1860.7</ele>
        <time>2000-01-01T04:59:16.000Z</time>
      </trkpt>
      <trkpt lat="46.20364" lon="6.79259">
        <ele>1858</ele>
        <time>2000-01-01T04:59:26.000Z</time>
      </trkpt>
      <trkpt lat="46.20392" lon="6.79254">
        <ele>1858</ele>
        <time>2000-01-01T04:59:36.000Z</time>
      </trkpt>
      <trkpt lat="46.20422" lon="6.7924">
        <ele>1856</ele>
        <time>2000-01-01T04:59:46.000Z</time>
      </trkpt>
      <trkpt lat="46.20434" lon="6.79229">
        <ele>1860.1</ele>
        <time>2000-01-01T04:59:56.000Z</time>
      </trkpt>
      <trkpt lat="46.2046" lon="6.79222">
        <ele>1848</ele>
        <time>2000-01-01T05:00:06.000Z</time>
      </trkpt>
      <trkpt lat="46.20479" lon="6.79205">
        <ele>1844</ele>
        <time>2000-01-01T05:00:16.000Z</time>
      </trkpt>
      <trkpt lat="46.20515" lon="6.7919">
        <ele>1842</ele>
        <time>2000-01-01T05:00:26.000Z</time>
      </trkpt>
      <trkpt lat="46.20543" lon="6.79151">
        <ele>1837</ele>
        <time>2000-01-01T05:00:36.000Z</time>
      </trkpt>
      <trkpt lat="46.20554" lon="6.7914">
        <ele>1842.6</ele>
        <time>2000-01-01T05:00:46.000Z</time>
      </trkpt>
      <trkpt lat="46.20571" lon="6.7913">
        <ele>1835</ele>
        <time>2000-01-01T05:00:56.000Z</time>
      </trkpt>
      <trkpt lat="46.20593" lon="6.79103">
        <ele>1834</ele>
        <time>2000-01-01T05:01:06.000Z</time>
      </trkpt>
      <trkpt lat="46.20603" lon="6.79084">
        <ele>1836.3</ele>
        <time>2000-01-01T05:01:16.000Z</time>
      </trkpt>
      <trkpt lat="46.20614" lon="6.79063">
        <ele>1832</ele>
        <time>2000-01-01T05:01:26.000Z</time>
      </trkpt>
      <trkpt lat="46.20627" lon="6.79042">
        <ele>1828</ele>
        <time>2000-01-01T05:01:36.000Z</time>
      </trkpt>
      <trkpt lat="46.20643" lon="6.7903">
        <ele>1829.6</ele>
        <time>2000-01-01T05:01:46.000Z</time>
      </trkpt>
      <trkpt lat="46.20653" lon="6.79023">
        <ele>1823</ele>
        <time>2000-01-01T05:01:56.000Z</time>
      </trkpt>
      <trkpt lat="46.20662" lon="6.7902">
        <ele>1829.2</ele>
        <time>2000-01-01T05:02:06.000Z</time>
      </trkpt>
      <trkpt lat="46.20667" lon="6.78999">
        <ele>1818</ele>
        <time>2000-01-01T05:02:16.000Z</time>
      </trkpt>
      <trkpt lat="46.20677" lon="6.78988">
        <ele>1825.6</ele>
        <time>2000-01-01T05:02:26.000Z</time>
      </trkpt>
      <trkpt lat="46.20681" lon="6.78984">
        <ele>1825.2</ele>
        <time>2000-01-01T05:02:36.000Z</time>
      </trkpt>
      <trkpt lat="46.20685" lon="6.78977">
        <ele>1814</ele>
        <time>2000-01-01T05:02:46.000Z</time>
      </trkpt>
      <trkpt lat="46.20695" lon="6.78977">
        <ele>1825.3</ele>
        <time>2000-01-01T05:02:56.000Z</time>
      </trkpt>
      <trkpt lat="46.20697" lon="6.78969">
        <ele>1824</ele>
        <time>2000-01-01T05:03:06.000Z</time>
      </trkpt>
      <trkpt lat="46.20697" lon="6.78951">
        <ele>1811</ele>
        <time>2000-01-01T05:03:16.000Z</time>
      </trkpt>
      <trkpt lat="46.20701" lon="6.78931">
        <ele>1817.2</ele>
        <time>2000-01-01T05:03:26.000Z</time>
      </trkpt>
      <trkpt lat="46.20708" lon="6.78908">
        <ele>1808</ele>
        <time>2000-01-01T05:03:36.000Z</time>
      </trkpt>
      <trkpt lat="46.20715" lon="6.78887">
        <ele>1812.4</ele>
        <time>2000-01-01T05:03:46.000Z</time>
      </trkpt>
      <trkpt lat="46.2073" lon="6.78858">
        <ele>1804</ele>
        <time>2000-01-01T05:03:56.000Z</time>
      </trkpt>
      <trkpt lat="46.20735" lon="6.7885">
        <ele>1809.7</ele>
        <time>2000-01-01T05:04:06.000Z</time>
      </trkpt>
      <trkpt lat="46.20742" lon="6.78845">
        <ele>1809.8</ele>
        <time>2000-01-01T05:04:16.000Z</time>
      </trkpt>
      <trkpt lat="46.2074" lon="6.78837">
        <ele>1804</ele>
        <time>2000-01-01T05:04:26.000Z</time>
      </trkpt>
      <trkpt lat="46.20742" lon="6.78825">
        <ele>1806.9</ele>
        <time>2000-01-01T05:04:36.000Z</time>
      </trkpt>
      <trkpt lat="46.2075" lon="6.78819">
        <ele>1806.9</ele>
        <time>2000-01-01T05:04:46.000Z</time>
      </trkpt>
      <trkpt lat="46.20766" lon="6.7881">
        <ele>1804</ele>
        <time>2000-01-01T05:04:56.000Z</time>
      </trkpt>
      <trkpt lat="46.20786" lon="6.78817">
        <ele>1807</ele>
        <time>2000-01-01T05:05:06.000Z</time>
      </trkpt>
      <trkpt lat="46.20801" lon="6.7882">
        <ele>1810.6</ele>
        <time>2000-01-01T05:05:16.000Z</time>
      </trkpt>
      <trkpt lat="46.2082" lon="6.78826">
        <ele>1808</ele>
        <time>2000-01-01T05:05:26.000Z</time>
      </trkpt>
      <trkpt lat="46.20835" lon="6.78822">
        <ele>1813.4</ele>
        <time>2000-01-01T05:05:36.000Z</time>
      </trkpt>
      <trkpt lat="46.20853" lon="6.78811">
        <ele>1809</ele>
        <time>2000-01-01T05:05:46.000Z</time>
      </trkpt>
      <trkpt lat="46.20878" lon="6.78806">
        <ele>1810</ele>
        <time>2000-01-01T05:05:56.000Z</time>
      </trkpt>
      <trkpt lat="46.20892" lon="6.78805">
        <ele>1811.3</ele>
        <time>2000-01-01T05:06:06.000Z</time>
      </trkpt>
      <trkpt lat="46.20906" lon="6.78806">
        <ele>1810</ele>
        <time>2000-01-01T05:06:16.000Z</time>
      </trkpt>
      <trkpt lat="46.20919" lon="6.78813">
        <ele>1814.8</ele>
        <time>2000-01-01T05:06:26.000Z</time>
      </trkpt>
      <trkpt lat="46.20941" lon="6.78826">
        <ele>1813</ele>
        <time>2000-01-01T05:06:36.000Z</time>
      </trkpt>
      <trkpt lat="46.20948" lon="6.78834">
        <ele>1821.9</ele>
        <time>2000-01-01T05:06:46.000Z</time>
      </trkpt>
      <trkpt lat="46.20956" lon="6.78838">
        <ele>1823.3</ele>
        <time>2000-01-01T05:06:56.000Z</time>
      </trkpt>
      <trkpt lat="46.20965" lon="6.78836">
        <ele>1812</ele>
        <time>2000-01-01T05:07:06.000Z</time>
      </trkpt>
      <trkpt lat="46.20975" lon="6.78831">
        <ele>1821.8</ele>
        <time>2000-01-01T05:07:16.000Z</time>
      </trkpt>
      <trkpt lat="46.20989" lon="6.7881">
        <ele>1811</ele>
        <time>2000-01-01T05:07:26.000Z</time>
      </trkpt>
      <trkpt lat="46.21006" lon="6.78797">
        <ele>1812</ele>
        <time>2000-01-01T05:07:36.000Z</time>
      </trkpt>
      <trkpt lat="46.21032" lon="6.78778">
        <ele>1813</ele>
        <time>2000-01-01T05:07:46.000Z</time>
      </trkpt>
      <trkpt lat="46.21054" lon="6.78754">
        <ele>1813</ele>
        <time>2000-01-01T05:07:56.000Z</time>
      </trkpt>
      <trkpt lat="46.2108" lon="6.78736">
        <ele>1813</ele>
        <time>2000-01-01T05:08:06.000Z</time>
      </trkpt>
      <trkpt lat="46.21097" lon="6.78726">
        <ele>1822.3</ele>
        <time>2000-01-01T05:08:16.000Z</time>
      </trkpt>
      <trkpt lat="46.21109" lon="6.78716">
        <ele>1813</ele>
        <time>2000-01-01T05:08:26.000Z</time>
      </trkpt>
      <trkpt lat="46.21118" lon="6.78704">
        <ele>1823.4</ele>
        <time>2000-01-01T05:08:36.000Z</time>
      </trkpt>
      <trkpt lat="46.2113" lon="6.7869">
        <ele>1813</ele>
        <time>2000-01-01T05:08:46.000Z</time>
      </trkpt>
      <trkpt lat="46.21142" lon="6.78669">
        <ele>1813</ele>
        <time>2000-01-01T05:08:56.000Z</time>
      </trkpt>
      <trkpt lat="46.21157" lon="6.78642">
        <ele>1813</ele>
        <time>2000-01-01T05:09:06.000Z</time>
      </trkpt>
      <trkpt lat="46.21164" lon="6.78622">
        <ele>1823.2</ele>
        <time>2000-01-01T05:09:16.000Z</time>
      </trkpt>
      <trkpt lat="46.21167" lon="6.78583">
        <ele>1814</ele>
        <time>2000-01-01T05:09:26.000Z</time>
      </trkpt>
      <trkpt lat="46.21175" lon="6.78552">
        <ele>1816</ele>
        <time>2000-01-01T05:09:36.000Z</time>
      </trkpt>
      <trkpt lat="46.2119" lon="6.78539">
        <ele>1818.8</ele>
        <time>2000-01-01T05:09:46.000Z</time>
      </trkpt>
      <trkpt lat="46.21207" lon="6.78537">
        <ele>1818</ele>
        <time>2000-01-01T05:09:56.000Z</time>
      </trkpt>
      <trkpt lat="46.21214" lon="6.78531">
        <ele>1823.4</ele>
        <time>2000-01-01T05:10:06.000Z</time>
      </trkpt>
      <trkpt lat="46.21219" lon="6.78518">
        <ele>1822.4</ele>
        <time>2000-01-01T05:10:16.000Z</time>
      </trkpt>
      <trkpt lat="46.21234" lon="6.78504">
        <ele>1821</ele>
        <time>2000-01-01T05:10:26.000Z</time>
      </trkpt>
      <trkpt lat="46.21261" lon="6.78487">
        <ele>1821</ele>
        <time>2000-01-01T05:10:36.000Z</time>
      </trkpt>
      <trkpt lat="46.2128" lon="6.78475">
        <ele>1821</ele>
        <time>2000-01-01T05:10:46.000Z</time>
      </trkpt>
      <trkpt lat="46.21312" lon="6.7847">
        <ele>1821</ele>
        <time>2000-01-01T05:10:56.000Z</time>
      </trkpt>
      <trkpt lat="46.21328" lon="6.78447">
        <ele>1821</ele>
        <time>2000-01-01T05:11:06.000Z</time>
      </trkpt>
      <trkpt lat="46.21358" lon="6.7842">
        <ele>1823</ele>
        <time>2000-01-01T05:11:16.000Z</time>
      </trkpt>
      <trkpt lat="46.21376" lon="6.78397">
        <ele>1824</ele>
        <time>2000-01-01T05:11:26.000Z</time>
      </trkpt>
      <trkpt lat="46.21395" lon="6.78372">
        <ele>1824</ele>
        <time>2000-01-01T05:11:36.000Z</time>
      </trkpt>
      <trkpt lat="46.21419" lon="6.7835">
        <ele>1823</ele>
        <time>2000-01-01T05:11:46.000Z</time>
      </trkpt>
      <trkpt lat="46.21455" lon="6.78317">
        <ele>1823</ele>
        <time>2000-01-01T05:11:56.000Z</time>
      </trkpt>
      <trkpt lat="46.21455" lon="6.78312">
        <ele>1829.3</ele>
        <time>2000-01-01T05:12:06.000Z</time>
      </trkpt>
      <trkpt lat="46.21481" lon="6.78274">
        <ele>1823</ele>
        <time>2000-01-01T05:12:16.000Z</time>
      </trkpt>
      <trkpt lat="46.21501" lon="6.78223">
        <ele>1823</ele>
        <time>2000-01-01T05:12:26.000Z</time>
      </trkpt>
      <trkpt lat="46.21511" lon="6.78203">
        <ele>1833.1</ele>
        <time>2000-01-01T05:12:36.000Z</time>
      </trkpt>
      <trkpt lat="46.21515" lon="6.78186">
        <ele>1821</ele>
        <time>2000-01-01T05:12:46.000Z</time>
      </trkpt>
      <trkpt lat="46.21516" lon="6.78167">
        <ele>1832.2</ele>
        <time>2000-01-01T05:12:56.000Z</time>
      </trkpt>
      <trkpt lat="46.21519" lon="6.78133">
        <ele>1820</ele>
        <time>2000-01-01T05:13:06.000Z</time>
      </trkpt>
      <trkpt lat="46.21524" lon="6.78111">
        <ele>1827.9</ele>
        <time>2000-01-01T05:13:16.000Z</time>
      </trkpt>
      <trkpt lat="46.21534" lon="6.7808">
        <ele>1820</ele>
        <time>2000-01-01T05:13:26.000Z</time>
      </trkpt>
      <trkpt lat="46.21537" lon="6.78056">
        <ele>1825.7</ele>
        <time>2000-01-01T05:13:36.000Z</time>
      </trkpt>
      <trkpt lat="46.21554" lon="6.78001">
        <ele>1820</ele>
        <time>2000-01-01T05:13:46.000Z</time>
      </trkpt>
      <trkpt lat="46.21562" lon="6.7798">
        <ele>1823.2</ele>
        <time>2000-01-01T05:13:56.000Z</time>
      </trkpt>
      <trkpt lat="46.21567" lon="6.77957">
        <ele>1820</ele>
        <time>2000-01-01T05:14:06.000Z</time>
      </trkpt>
      <trkpt lat="46.21572" lon="6.77945">
        <ele>1819.9</ele>
        <time>2000-01-01T05:14:16.000Z</time>
      </trkpt>
      <trkpt lat="46.2158" lon="6.77931">
        <ele>1821</ele>
        <time>2000-01-01T05:14:26.000Z</time>
      </trkpt>
      <trkpt lat="46.21599" lon="6.77905">
        <ele>1821</ele>
        <time>2000-01-01T05:14:36.000Z</time>
      </trkpt>
      <trkpt lat="46.21623" lon="6.77873">
        <ele>1821</ele>
        <time>2000-01-01T05:14:46.000Z</time>
      </trkpt>
      <trkpt lat="46.21633" lon="6.77861">
        <ele>1818.1</ele>
        <time>2000-01-01T05:14:56.000Z</time>
      </trkpt>
      <trkpt lat="46.21649" lon="6.77851">
        <ele>1819</ele>
        <time>2000-01-01T05:15:06.000Z</time>
      </trkpt>
      <trkpt lat="46.21661" lon="6.77847">
        <ele>1821.1</ele>
        <time>2000-01-01T05:15:16.000Z</time>
      </trkpt>
      <trkpt lat="46.21694" lon="6.77827">
        <ele>1814</ele>
        <time>2000-01-01T05:15:26.000Z</time>
      </trkpt>
      <trkpt lat="46.21717" lon="6.7781">
        <ele>1811</ele>
        <time>2000-01-01T05:15:36.000Z</time>
      </trkpt>
      <trkpt lat="46.21745" lon="6.77789">
        <ele>1811</ele>
        <time>2000-01-01T05:15:46.000Z</time>
      </trkpt>
      <trkpt lat="46.21777" lon="6.77759">
        <ele>1811</ele>
        <time>2000-01-01T05:15:56.000Z</time>
      </trkpt>
      <trkpt lat="46.21801" lon="6.77729">
        <ele>1809</ele>
        <time>2000-01-01T05:16:06.000Z</time>
      </trkpt>
      <trkpt lat="46.21817" lon="6.77697">
        <ele>1809</ele>
        <time>2000-01-01T05:16:16.000Z</time>
      </trkpt>
      <trkpt lat="46.21834" lon="6.77661">
        <ele>1809</ele>
        <time>2000-01-01T05:16:26.000Z</time>
      </trkpt>
      <trkpt lat="46.21848" lon="6.77631">
        <ele>1804</ele>
        <time>2000-01-01T05:16:36.000Z</time>
      </trkpt>
      <trkpt lat="46.21865" lon="6.77595">
        <ele>1801</ele>
        <time>2000-01-01T05:16:46.000Z</time>
      </trkpt>
      <trkpt lat="46.21875" lon="6.77564">
        <ele>1796</ele>
        <time>2000-01-01T05:16:56.000Z</time>
      </trkpt>
      <trkpt lat="46.21886" lon="6.77531">
        <ele>1795</ele>
        <time>2000-01-01T05:17:06.000Z</time>
      </trkpt>
      <trkpt lat="46.21896" lon="6.77508">
        <ele>1794</ele>
        <time>2000-01-01T05:17:16.000Z</time>
      </trkpt>
      <trkpt lat="46.21917" lon="6.77478">
        <ele>1794</ele>
        <time>2000-01-01T05:17:26.000Z</time>
      </trkpt>
      <trkpt lat="46.21934" lon="6.77453">
        <ele>1794</ele>
        <time>2000-01-01T05:17:36.000Z</time>
      </trkpt>
      <trkpt lat="46.21953" lon="6.77425">
        <ele>1792</ele>
        <time>2000-01-01T05:17:46.000Z</time>
      </trkpt>
      <trkpt lat="46.21988" lon="6.77394">
        <ele>1792</ele>
        <time>2000-01-01T05:17:56.000Z</time>
      </trkpt>
      <trkpt lat="46.22011" lon="6.77369">
        <ele>1790</ele>
        <time>2000-01-01T05:18:06.000Z</time>
      </trkpt>
      <trkpt lat="46.22047" lon="6.77329">
        <ele>1785</ele>
        <time>2000-01-01T05:18:16.000Z</time>
      </trkpt>
      <trkpt lat="46.22072" lon="6.7731">
        <ele>1784</ele>
        <time>2000-01-01T05:18:26.000Z</time>
      </trkpt>
      <trkpt lat="46.2211" lon="6.77287">
        <ele>1783</ele>
        <time>2000-01-01T05:18:36.000Z</time>
      </trkpt>
      <trkpt lat="46.22138" lon="6.77281">
        <ele>1783</ele>
        <time>2000-01-01T05:18:46.000Z</time>
      </trkpt>
      <trkpt lat="46.2216" lon="6.77262">
        <ele>1781</ele>
        <time>2000-01-01T05:18:56.000Z</time>
      </trkpt>
      <trkpt lat="46.22186" lon="6.7724">
        <ele>1779</ele>
        <time>2000-01-01T05:19:06.000Z</time>
      </trkpt>
      <trkpt lat="46.22213" lon="6.77218">
        <ele>1779</ele>
        <time>2000-01-01T05:19:16.000Z</time>
      </trkpt>
      <trkpt lat="46.22232" lon="6.77208">
        <ele>1781</ele>
        <time>2000-01-01T05:19:26.000Z</time>
      </trkpt>
      <trkpt lat="46.22248" lon="6.77216">
        <ele>1780.7</ele>
        <time>2000-01-01T05:19:36.000Z</time>
      </trkpt>
      <trkpt lat="46.22255" lon="6.77228">
        <ele>1781</ele>
        <time>2000-01-01T05:19:46.000Z</time>
      </trkpt>
      <trkpt lat="46.22258" lon="6.77239">
        <ele>1778.8</ele>
        <time>2000-01-01T05:19:56.000Z</time>
      </trkpt>
      <trkpt lat="46.22257" lon="6.77246">
        <ele>1778.7</ele>
        <time>2000-01-01T05:20:06.000Z</time>
      </trkpt>
      <trkpt lat="46.22252" lon="6.77262">
        <ele>1781</ele>
        <time>2000-01-01T05:20:16.000Z</time>
      </trkpt>
      <trkpt lat="46.2224" lon="6.77284">
        <ele>1782</ele>
        <time>2000-01-01T05:20:26.000Z</time>
      </trkpt>
      <trkpt lat="46.22219" lon="6.77315">
        <ele>1782</ele>
        <time>2000-01-01T05:20:36.000Z</time>
      </trkpt>
      <trkpt lat="46.22197" lon="6.77336">
        <ele>1782</ele>
        <time>2000-01-01T05:20:46.000Z</time>
      </trkpt>
      <trkpt lat="46.22176" lon="6.77353">
        <ele>1781</ele>
        <time>2000-01-01T05:20:56.000Z</time>
      </trkpt>
      <trkpt lat="46.2216" lon="6.77372">
        <ele>1781</ele>
        <time>2000-01-01T05:21:06.000Z</time>
      </trkpt>
      <trkpt lat="46.22147" lon="6.77392">
        <ele>1781</ele>
        <time>2000-01-01T05:21:16.000Z</time>
      </trkpt>
      <trkpt lat="46.22134" lon="6.77421">
        <ele>1781</ele>
        <time>2000-01-01T05:21:26.000Z</time>
      </trkpt>
      <trkpt lat="46.22125" lon="6.77452">
        <ele>1781</ele>
        <time>2000-01-01T05:21:36.000Z</time>
      </trkpt>
      <trkpt lat="46.22116" lon="6.77508">
        <ele>1781</ele>
        <time>2000-01-01T05:21:46.000Z</time>
      </trkpt>
      <trkpt lat="46.22123" lon="6.77514">
        <ele>1781.3</ele>
        <time>2000-01-01T05:21:56.000Z</time>
      </trkpt>
      <trkpt lat="46.22137" lon="6.77516">
        <ele>1776</ele>
        <time>2000-01-01T05:22:06.000Z</time>
      </trkpt>
      <trkpt lat="46.22144" lon="6.7752">
        <ele>1773.4</ele>
        <time>2000-01-01T05:22:16.000Z</time>
      </trkpt>
      <trkpt lat="46.22149" lon="6.77529">
        <ele>1771.4</ele>
        <time>2000-01-01T05:22:26.000Z</time>
      </trkpt>
      <trkpt lat="46.22151" lon="6.77537">
        <ele>1771</ele>
        <time>2000-01-01T05:22:36.000Z</time>
      </trkpt>
      <trkpt lat="46.22148" lon="6.77547">
        <ele>1771.8</ele>
        <time>2000-01-01T05:22:46.000Z</time>
      </trkpt>
      <trkpt lat="46.22137" lon="6.77565">
        <ele>1771</ele>
        <time>2000-01-01T05:22:56.000Z</time>
      </trkpt>
      <trkpt lat="46.22134" lon="6.77578">
        <ele>1777.3</ele>
        <time>2000-01-01T05:23:06.000Z</time>
      </trkpt>
      <trkpt lat="46.22133" lon="6.77591">
        <ele>1777.7</ele>
        <time>2000-01-01T05:23:16.000Z</time>
      </trkpt>
      <trkpt lat="46.22136" lon="6.77598">
        <ele>1768</ele>
        <time>2000-01-01T05:23:26.000Z</time>
      </trkpt>
      <trkpt lat="46.22149" lon="6.77608">
        <ele>1771.3</ele>
        <time>2000-01-01T05:23:36.000Z</time>
      </trkpt>
      <trkpt lat="46.22155" lon="6.77615">
        <ele>1764</ele>
        <time>2000-01-01T05:23:46.000Z</time>
      </trkpt>
      <trkpt lat="46.22163" lon="6.77629">
        <ele>1766</ele>
        <time>2000-01-01T05:23:56.000Z</time>
      </trkpt>
      <trkpt lat="46.22175" lon="6.77643">
        <ele>1764</ele>
        <time>2000-01-01T05:24:06.000Z</time>
      </trkpt>
      <trkpt lat="46.2219" lon="6.77662">
        <ele>1763</ele>
        <time>2000-01-01T05:24:16.000Z</time>
      </trkpt>
      <trkpt lat="46.22192" lon="6.77671">
        <ele>1755.4</ele>
        <time>2000-01-01T05:24:26.000Z</time>
      </trkpt>
      <trkpt lat="46.22187" lon="6.77683">
        <ele>1757.7</ele>
        <time>2000-01-01T05:24:36.000Z</time>
      </trkpt>
      <trkpt lat="46.22174" lon="6.77701">
        <ele>1758</ele>
        <time>2000-01-01T05:24:46.000Z</time>
      </trkpt>
      <trkpt lat="46.22168" lon="6.77715">
        <ele>1764.6</ele>
        <time>2000-01-01T05:24:56.000Z</time>
      </trkpt>
      <trkpt lat="46.22167" lon="6.77722">
        <ele>1764.9</ele>
        <time>2000-01-01T05:25:06.000Z</time>
      </trkpt>
      <trkpt lat="46.22168" lon="6.77726">
        <ele>1757</ele>
        <time>2000-01-01T05:25:16.000Z</time>
      </trkpt>
      <trkpt lat="46.22169" lon="6.77728">
        <ele>1764.3</ele>
        <time>2000-01-01T05:25:26.000Z</time>
      </trkpt>
      <trkpt lat="46.22179" lon="6.77734">
        <ele>1761.6</ele>
        <time>2000-01-01T05:25:36.000Z</time>
      </trkpt>
      <trkpt lat="46.22202" lon="6.77744">
        <ele>1748</ele>
        <time>2000-01-01T05:25:46.000Z</time>
      </trkpt>
      <trkpt lat="46.22218" lon="6.77753">
        <ele>1752.6</ele>
        <time>2000-01-01T05:25:56.000Z</time>
      </trkpt>
      <trkpt lat="46.22235" lon="6.77752">
        <ele>1742</ele>
        <time>2000-01-01T05:26:06.000Z</time>
      </trkpt>
      <trkpt lat="46.2226" lon="6.77757">
        <ele>1735</ele>
        <time>2000-01-01T05:26:16.000Z</time>
      </trkpt>
      <trkpt lat="46.22292" lon="6.77765">
        <ele>1726</ele>
        <time>2000-01-01T05:26:26.000Z</time>
      </trkpt>
      <trkpt lat="46.22319" lon="6.77773">
        <ele>1721</ele>
        <time>2000-01-01T05:26:36.000Z</time>
      </trkpt>
      <trkpt lat="46.22327" lon="6.7778">
        <ele>1721.7</ele>
        <time>2000-01-01T05:26:46.000Z</time>
      </trkpt>
      <trkpt lat="46.22342" lon="6.77803">
        <ele>1714</ele>
        <time>2000-01-01T05:26:56.000Z</time>
      </trkpt>
      <trkpt lat="46.22359" lon="6.77814">
        <ele>1719.8</ele>
        <time>2000-01-01T05:27:06.000Z</time>
      </trkpt>
      <trkpt lat="46.22374" lon="6.77816">
        <ele>1707</ele>
        <time>2000-01-01T05:27:16.000Z</time>
      </trkpt>
      <trkpt lat="46.22378" lon="6.77818">
        <ele>1716.1</ele>
        <time>2000-01-01T05:27:26.000Z</time>
      </trkpt>
      <trkpt lat="46.2238" lon="6.77821">
        <ele>1716.1</ele>
        <time>2000-01-01T05:27:36.000Z</time>
      </trkpt>
      <trkpt lat="46.22403" lon="6.77867">
        <ele>1705</ele>
        <time>2000-01-01T05:27:46.000Z</time>
      </trkpt>
      <trkpt lat="46.22408" lon="6.77845">
        <ele>1712.1</ele>
        <time>2000-01-01T05:27:56.000Z</time>
      </trkpt>
      <trkpt lat="46.22417" lon="6.77817">
        <ele>1699</ele>
        <time>2000-01-01T05:28:06.000Z</time>
      </trkpt>
      <trkpt lat="46.22427" lon="6.77798">
        <ele>1702.9</ele>
        <time>2000-01-01T05:28:16.000Z</time>
      </trkpt>
      <trkpt lat="46.22435" lon="6.77788">
        <ele>1691</ele>
        <time>2000-01-01T05:28:26.000Z</time>
      </trkpt>
      <trkpt lat="46.22443" lon="6.77783">
        <ele>1697.6</ele>
        <time>2000-01-01T05:28:36.000Z</time>
      </trkpt>
      <trkpt lat="46.22456" lon="6.77779">
        <ele>1686</ele>
        <time>2000-01-01T05:28:46.000Z</time>
      </trkpt>
      <trkpt lat="46.22463" lon="6.77775">
        <ele>1692.1</ele>
        <time>2000-01-01T05:28:56.000Z</time>
      </trkpt>
      <trkpt lat="46.22469" lon="6.77767">
        <ele>1689.7</ele>
        <time>2000-01-01T05:29:06.000Z</time>
      </trkpt>
      <trkpt lat="46.22472" lon="6.77759">
        <ele>1683</ele>
        <time>2000-01-01T05:29:16.000Z</time>
      </trkpt>
      <trkpt lat="46.22472" lon="6.77743">
        <ele>1686.3</ele>
        <time>2000-01-01T05:29:26.000Z</time>
      </trkpt>
      <trkpt lat="46.22467" lon="6.77731">
        <ele>1681</ele>
        <time>2000-01-01T05:29:36.000Z</time>
      </trkpt>
      <trkpt lat="46.22443" lon="6.777">
        <ele>1680</ele>
        <time>2000-01-01T05:29:46.000Z</time>
      </trkpt>
      <trkpt lat="46.22436" lon="6.77693">
        <ele>1688.7</ele>
        <time>2000-01-01T05:29:56.000Z</time>
      </trkpt>
      <trkpt lat="46.22431" lon="6.77684">
        <ele>1688.4</ele>
        <time>2000-01-01T05:30:06.000Z</time>
      </trkpt>
      <trkpt lat="46.22431" lon="6.77677">
        <ele>1678</ele>
        <time>2000-01-01T05:30:16.000Z</time>
      </trkpt>
      <trkpt lat="46.22435" lon="6.77675">
        <ele>1686.8</ele>
        <time>2000-01-01T05:30:26.000Z</time>
      </trkpt>
      <trkpt lat="46.2245" lon="6.77674">
        <ele>1677</ele>
        <time>2000-01-01T05:30:36.000Z</time>
      </trkpt>
      <trkpt lat="46.22462" lon="6.77672">
        <ele>1683</ele>
        <time>2000-01-01T05:30:46.000Z</time>
      </trkpt>
      <trkpt lat="46.22474" lon="6.77674">
        <ele>1674</ele>
        <time>2000-01-01T05:30:56.000Z</time>
      </trkpt>
      <trkpt lat="46.22489" lon="6.77681">
        <ele>1679.9</ele>
        <time>2000-01-01T05:31:06.000Z</time>
      </trkpt>
      <trkpt lat="46.225" lon="6.77693">
        <ele>1672</ele>
        <time>2000-01-01T05:31:16.000Z</time>
      </trkpt>
      <trkpt lat="46.22513" lon="6.77711">
        <ele>1676.2</ele>
        <time>2000-01-01T05:31:26.000Z</time>
      </trkpt>
      <trkpt lat="46.22518" lon="6.77719">
        <ele>1669</ele>
        <time>2000-01-01T05:31:36.000Z</time>
      </trkpt>
      <trkpt lat="46.22519" lon="6.77734">
        <ele>1675.9</ele>
        <time>2000-01-01T05:31:46.000Z</time>
      </trkpt>
      <trkpt lat="46.22517" lon="6.77758">
        <ele>1669</ele>
        <time>2000-01-01T05:31:56.000Z</time>
      </trkpt>
      <trkpt lat="46.2252" lon="6.77766">
        <ele>1678.4</ele>
        <time>2000-01-01T05:32:06.000Z</time>
      </trkpt>
      <trkpt lat="46.22526" lon="6.77769">
        <ele>1677.6</ele>
        <time>2000-01-01T05:32:16.000Z</time>
      </trkpt>
      <trkpt lat="46.2253" lon="6.77765">
        <ele>1676.4</ele>
        <time>2000-01-01T05:32:26.000Z</time>
      </trkpt>
      <trkpt lat="46.22537" lon="6.77753">
        <ele>1664</ele>
        <time>2000-01-01T05:32:36.000Z</time>
      </trkpt>
      <trkpt lat="46.22568" lon="6.77704">
        <ele>1658</ele>
        <time>2000-01-01T05:32:46.000Z</time>
      </trkpt>
      <trkpt lat="46.22574" lon="6.77693">
        <ele>1661.1</ele>
        <time>2000-01-01T05:32:56.000Z</time>
      </trkpt>
      <trkpt lat="46.22581" lon="6.77685">
        <ele>1658.6</ele>
        <time>2000-01-01T05:33:06.000Z</time>
      </trkpt>
      <trkpt lat="46.22592" lon="6.77674">
        <ele>1655</ele>
        <time>2000-01-01T05:33:16.000Z</time>
      </trkpt>
      <trkpt lat="46.22605" lon="6.77647">
        <ele>1652</ele>
        <time>2000-01-01T05:33:26.000Z</time>
      </trkpt>
      <trkpt lat="46.22611" lon="6.77627">
        <ele>1656</ele>
        <time>2000-01-01T05:33:36.000Z</time>
      </trkpt>
      <trkpt lat="46.22617" lon="6.77619">
        <ele>1652</ele>
        <time>2000-01-01T05:33:46.000Z</time>
      </trkpt>
      <trkpt lat="46.22624" lon="6.77615">
        <ele>1655.8</ele>
        <time>2000-01-01T05:33:56.000Z</time>
      </trkpt>
      <trkpt lat="46.22659" lon="6.77616">
        <ele>1652</ele>
        <time>2000-01-01T05:34:06.000Z</time>
      </trkpt>
      <trkpt lat="46.22676" lon="6.77613">
        <ele>1653.7</ele>
        <time>2000-01-01T05:34:16.000Z</time>
      </trkpt>
      <trkpt lat="46.22697" lon="6.77601">
        <ele>1649</ele>
        <time>2000-01-01T05:34:26.000Z</time>
      </trkpt>
      <trkpt lat="46.22721" lon="6.77583">
        <ele>1647</ele>
        <time>2000-01-01T05:34:36.000Z</time>
      </trkpt>
      <trkpt lat="46.22736" lon="6.77569">
        <ele>1648.5</ele>
        <time>2000-01-01T05:34:46.000Z</time>
      </trkpt>
      <trkpt lat="46.22745" lon="6.77557">
        <ele>1645</ele>
        <time>2000-01-01T05:34:56.000Z</time>
      </trkpt>
      <trkpt lat="46.22758" lon="6.77527">
        <ele>1644</ele>
        <time>2000-01-01T05:35:06.000Z</time>
      </trkpt>
      <trkpt lat="46.22762" lon="6.77522">
        <ele>1648.6</ele>
        <time>2000-01-01T05:35:16.000Z</time>
      </trkpt>
      <trkpt lat="46.22767" lon="6.77523">
        <ele>1648.1</ele>
        <time>2000-01-01T05:35:26.000Z</time>
      </trkpt>
      <trkpt lat="46.22782" lon="6.77529">
        <ele>1642</ele>
        <time>2000-01-01T05:35:36.000Z</time>
      </trkpt>
      <trkpt lat="46.22818" lon="6.77525">
        <ele>1642</ele>
        <time>2000-01-01T05:35:46.000Z</time>
      </trkpt>
      <trkpt lat="46.22827" lon="6.77518">
        <ele>1643.4</ele>
        <time>2000-01-01T05:35:56.000Z</time>
      </trkpt>
      <trkpt lat="46.22835" lon="6.77514">
        <ele>1643.3</ele>
        <time>2000-01-01T05:36:06.000Z</time>
      </trkpt>
      <trkpt lat="46.22866" lon="6.77505">
        <ele>1641</ele>
        <time>2000-01-01T05:36:16.000Z</time>
      </trkpt>
      <trkpt lat="46.22871" lon="6.775">
        <ele>1645</ele>
        <time>2000-01-01T05:36:26.000Z</time>
      </trkpt>
      <trkpt lat="46.22878" lon="6.77481">
        <ele>1641</ele>
        <time>2000-01-01T05:36:36.000Z</time>
      </trkpt>
      <trkpt lat="46.22884" lon="6.7747">
        <ele>1648.4</ele>
        <time>2000-01-01T05:36:46.000Z</time>
      </trkpt>
      <trkpt lat="46.22891" lon="6.77461">
        <ele>1641</ele>
        <time>2000-01-01T05:36:56.000Z</time>
      </trkpt>
      <trkpt lat="46.22909" lon="6.77453">
        <ele>1641</ele>
        <time>2000-01-01T05:37:06.000Z</time>
      </trkpt>
      <trkpt lat="46.22923" lon="6.77428">
        <ele>1649</ele>
        <time>2000-01-01T05:37:16.000Z</time>
      </trkpt>
      <trkpt lat="46.22924" lon="6.77423">
        <ele>1654.7</ele>
        <time>2000-01-01T05:37:26.000Z</time>
      </trkpt>
      <trkpt lat="46.22913" lon="6.77405">
        <ele>1652</ele>
        <time>2000-01-01T05:37:36.000Z</time>
      </trkpt>
      <trkpt lat="46.22906" lon="6.7739">
        <ele>1658.2</ele>
        <time>2000-01-01T05:37:46.000Z</time>
      </trkpt>
      <trkpt lat="46.22907" lon="6.77384">
        <ele>1659.1</ele>
        <time>2000-01-01T05:37:56.000Z</time>
      </trkpt>
      <trkpt lat="46.22911" lon="6.7738">
        <ele>1657</ele>
        <time>2000-01-01T05:38:06.000Z</time>
      </trkpt>
      <trkpt lat="46.22931" lon="6.77385">
        <ele>1659</ele>
        <time>2000-01-01T05:38:16.000Z</time>
      </trkpt>
      <trkpt lat="46.22943" lon="6.77387">
        <ele>1661.6</ele>
        <time>2000-01-01T05:38:26.000Z</time>
      </trkpt>
      <trkpt lat="46.22952" lon="6.77386">
        <ele>1661</ele>
        <time>2000-01-01T05:38:36.000Z</time>
      </trkpt>
      <trkpt lat="46.22959" lon="6.77378">
        <ele>1663.9</ele>
        <time>2000-01-01T05:38:46.000Z</time>
      </trkpt>
      <trkpt lat="46.22969" lon="6.77363">
        <ele>1663</ele>
        <time>2000-01-01T05:38:56.000Z</time>
      </trkpt>
      <trkpt lat="46.22993" lon="6.77404">
        <ele>1667</ele>
        <time>2000-01-01T05:39:06.000Z</time>
      </trkpt>
      <trkpt lat="46.23028" lon="6.77437">
        <ele>1669</ele>
        <time>2000-01-01T05:39:16.000Z</time>
      </trkpt>
      <trkpt lat="46.23039" lon="6.77444">
        <ele>1671.2</ele>
        <time>2000-01-01T05:39:26.000Z</time>
      </trkpt>
      <trkpt lat="46.23052" lon="6.77447">
        <ele>1669</ele>
        <time>2000-01-01T05:39:36.000Z</time>
      </trkpt>
      <trkpt lat="46.23061" lon="6.77455">
        <ele>1673.9</ele>
        <time>2000-01-01T05:39:46.000Z</time>
      </trkpt>
      <trkpt lat="46.2307" lon="6.77491">
        <ele>1670</ele>
        <time>2000-01-01T05:39:56.000Z</time>
      </trkpt>
      <trkpt lat="46.23072" lon="6.77512">
        <ele>1677.5</ele>
        <time>2000-01-01T05:40:06.000Z</time>
      </trkpt>
      <trkpt lat="46.2308" lon="6.77541">
        <ele>1673</ele>
        <time>2000-01-01T05:40:16.000Z</time>
      </trkpt>
      <trkpt lat="46.23103" lon="6.77582">
        <ele>1680</ele>
        <time>2000-01-01T05:40:26.000Z</time>
      </trkpt>
      <trkpt lat="46.23113" lon="6.7762">
        <ele>1681</ele>
        <time>2000-01-01T05:40:36.000Z</time>
      </trkpt>
      <trkpt lat="46.2312" lon="6.77639">
        <ele>1687.1</ele>
        <time>2000-01-01T05:40:46.000Z</time>
      </trkpt>
      <trkpt lat="46.23139" lon="6.77668">
        <ele>1682</ele>
        <time>2000-01-01T05:40:56.000Z</time>
      </trkpt>
      <trkpt lat="46.2316" lon="6.77696">
        <ele>1682</ele>
        <time>2000-01-01T05:41:06.000Z</time>
      </trkpt>
      <trkpt lat="46.23188" lon="6.77705">
        <ele>1681</ele>
        <time>2000-01-01T05:41:16.000Z</time>
      </trkpt>
      <trkpt lat="46.23202" lon="6.77724">
        <ele>1681</ele>
        <time>2000-01-01T05:41:26.000Z</time>
      </trkpt>
      <trkpt lat="46.23227" lon="6.7773">
        <ele>1681</ele>
        <time>2000-01-01T05:41:36.000Z</time>
      </trkpt>
      <trkpt lat="46.23251" lon="6.7773">
        <ele>1681</ele>
        <time>2000-01-01T05:41:46.000Z</time>
      </trkpt>
      <trkpt lat="46.23282" lon="6.77716">
        <ele>1682</ele>
        <time>2000-01-01T05:41:56.000Z</time>
      </trkpt>
      <trkpt lat="46.23307" lon="6.77712">
        <ele>1684</ele>
        <time>2000-01-01T05:42:06.000Z</time>
      </trkpt>
      <trkpt lat="46.23326" lon="6.77708">
        <ele>1687</ele>
        <time>2000-01-01T05:42:16.000Z</time>
      </trkpt>
      <trkpt lat="46.23351" lon="6.77701">
        <ele>1687</ele>
        <time>2000-01-01T05:42:26.000Z</time>
      </trkpt>
      <trkpt lat="46.2337" lon="6.77717">
        <ele>1686</ele>
        <time>2000-01-01T05:42:36.000Z</time>
      </trkpt>
      <trkpt lat="46.23393" lon="6.77763">
        <ele>1686</ele>
        <time>2000-01-01T05:42:46.000Z</time>
      </trkpt>
      <trkpt lat="46.23405" lon="6.7778">
        <ele>1687.2</ele>
        <time>2000-01-01T05:42:56.000Z</time>
      </trkpt>
      <trkpt lat="46.2342" lon="6.7778">
        <ele>1692</ele>
        <time>2000-01-01T05:43:06.000Z</time>
      </trkpt>
      <trkpt lat="46.23432" lon="6.77775">
        <ele>1693.1</ele>
        <time>2000-01-01T05:43:16.000Z</time>
      </trkpt>
      <trkpt lat="46.23448" lon="6.77766">
        <ele>1696</ele>
        <time>2000-01-01T05:43:26.000Z</time>
      </trkpt>
      <trkpt lat="46.23457" lon="6.77757">
        <ele>1699.8</ele>
        <time>2000-01-01T05:43:36.000Z</time>
      </trkpt>
      <trkpt lat="46.23473" lon="6.77749">
        <ele>1699</ele>
        <time>2000-01-01T05:43:46.000Z</time>
      </trkpt>
      <trkpt lat="46.23485" lon="6.77746">
        <ele>1705.4</ele>
        <time>2000-01-01T05:43:56.000Z</time>
      </trkpt>
      <trkpt lat="46.23493" lon="6.77749">
        <ele>1699</ele>
        <time>2000-01-01T05:44:06.000Z</time>
      </trkpt>
      <trkpt lat="46.23498" lon="6.77757">
        <ele>1706</ele>
        <time>2000-01-01T05:44:16.000Z</time>
      </trkpt>
      <trkpt lat="46.23501" lon="6.77769">
        <ele>1705.5</ele>
        <time>2000-01-01T05:44:26.000Z</time>
      </trkpt>
      <trkpt lat="46.23503" lon="6.77801">
        <ele>1698</ele>
        <time>2000-01-01T05:44:36.000Z</time>
      </trkpt>
      <trkpt lat="46.23508" lon="6.77832">
        <ele>1699</ele>
        <time>2000-01-01T05:44:46.000Z</time>
      </trkpt>
      <trkpt lat="46.23514" lon="6.77854">
        <ele>1700.1</ele>
        <time>2000-01-01T05:44:56.000Z</time>
      </trkpt>
      <trkpt lat="46.23521" lon="6.7787">
        <ele>1699</ele>
        <time>2000-01-01T05:45:06.000Z</time>
      </trkpt>
      <trkpt lat="46.23529" lon="6.77881">
        <ele>1699.6</ele>
        <time>2000-01-01T05:45:16.000Z</time>
      </trkpt>
      <trkpt lat="46.23548" lon="6.77896">
        <ele>1699</ele>
        <time>2000-01-01T05:45:26.000Z</time>
      </trkpt>
      <trkpt lat="46.23571" lon="6.77909">
        <ele>1700</ele>
        <time>2000-01-01T05:45:36.000Z</time>
      </trkpt>
      <trkpt lat="46.23598" lon="6.77921">
        <ele>1700</ele>
        <time>2000-01-01T05:45:46.000Z</time>
      </trkpt>
      <trkpt lat="46.23612" lon="6.77933">
        <ele>1707.9</ele>
        <time>2000-01-01T05:45:56.000Z</time>
      </trkpt>
      <trkpt lat="46.23626" lon="6.77941">
        <ele>1701</ele>
        <time>2000-01-01T05:46:06.000Z</time>
      </trkpt>
      <trkpt lat="46.2366" lon="6.77957">
        <ele>1705</ele>
        <time>2000-01-01T05:46:16.000Z</time>
      </trkpt>
      <trkpt lat="46.23681" lon="6.77963">
        <ele>1705</ele>
        <time>2000-01-01T05:46:26.000Z</time>
      </trkpt>
      <trkpt lat="46.23701" lon="6.77964">
        <ele>1708</ele>
        <time>2000-01-01T05:46:36.000Z</time>
      </trkpt>
      <trkpt lat="46.23712" lon="6.7797">
        <ele>1711.3</ele>
        <time>2000-01-01T05:46:46.000Z</time>
      </trkpt>
      <trkpt lat="46.23726" lon="6.7798">
        <ele>1708</ele>
        <time>2000-01-01T05:46:56.000Z</time>
      </trkpt>
      <trkpt lat="46.23743" lon="6.77984">
        <ele>1710.6</ele>
        <time>2000-01-01T05:47:06.000Z</time>
      </trkpt>
      <trkpt lat="46.23756" lon="6.77992">
        <ele>1710</ele>
        <time>2000-01-01T05:47:16.000Z</time>
      </trkpt>
      <trkpt lat="46.23777" lon="6.77999">
        <ele>1710</ele>
        <time>2000-01-01T05:47:26.000Z</time>
      </trkpt>
      <trkpt lat="46.23797" lon="6.78002">
        <ele>1711</ele>
        <time>2000-01-01T05:47:36.000Z</time>
      </trkpt>
      <trkpt lat="46.23823" lon="6.78013">
        <ele>1712</ele>
        <time>2000-01-01T05:47:46.000Z</time>
      </trkpt>
      <trkpt lat="46.23843" lon="6.78019">
        <ele>1712</ele>
        <time>2000-01-01T05:47:56.000Z</time>
      </trkpt>
      <trkpt lat="46.23875" lon="6.78031">
        <ele>1712</ele>
        <time>2000-01-01T05:48:06.000Z</time>
      </trkpt>
      <trkpt lat="46.239" lon="6.78046">
        <ele>1713</ele>
        <time>2000-01-01T05:48:16.000Z</time>
      </trkpt>
      <trkpt lat="46.23929" lon="6.78053">
        <ele>1712</ele>
        <time>2000-01-01T05:48:26.000Z</time>
      </trkpt>
      <trkpt lat="46.23942" lon="6.78066">
        <ele>1716.5</ele>
        <time>2000-01-01T05:48:36.000Z</time>
      </trkpt>
      <trkpt lat="46.23967" lon="6.78084">
        <ele>1712</ele>
        <time>2000-01-01T05:48:46.000Z</time>
      </trkpt>
      <trkpt lat="46.24003" lon="6.78091">
        <ele>1716</ele>
        <time>2000-01-01T05:48:56.000Z</time>
      </trkpt>
      <trkpt lat="46.24021" lon="6.78099">
        <ele>1716</ele>
        <time>2000-01-01T05:49:06.000Z</time>
      </trkpt>
      <trkpt lat="46.24035" lon="6.78101">
        <ele>1713.3</ele>
        <time>2000-01-01T05:49:16.000Z</time>
      </trkpt>
      <trkpt lat="46.24071" lon="6.78085">
        <ele>1717</ele>
        <time>2000-01-01T05:49:26.000Z</time>
      </trkpt>
      <trkpt lat="46.2411" lon="6.78066">
        <ele>1720</ele>
        <time>2000-01-01T05:49:36.000Z</time>
      </trkpt>
      <trkpt lat="46.24134" lon="6.78042">
        <ele>1720</ele>
        <time>2000-01-01T05:49:46.000Z</time>
      </trkpt>
      <trkpt lat="46.24154" lon="6.78023">
        <ele>1720</ele>
        <time>2000-01-01T05:49:56.000Z</time>
      </trkpt>
      <trkpt lat="46.24175" lon="6.78003">
        <ele>1723</ele>
        <time>2000-01-01T05:50:06.000Z</time>
      </trkpt>
      <trkpt lat="46.24201" lon="6.77987">
        <ele>1722</ele>
        <time>2000-01-01T05:50:16.000Z</time>
      </trkpt>
      <trkpt lat="46.24243" lon="6.77961">
        <ele>1722</ele>
        <time>2000-01-01T05:50:26.000Z</time>
      </trkpt>
      <trkpt lat="46.24267" lon="6.77945">
        <ele>1726</ele>
        <time>2000-01-01T05:50:36.000Z</time>
      </trkpt>
      <trkpt lat="46.24299" lon="6.77922">
        <ele>1727</ele>
        <time>2000-01-01T05:50:46.000Z</time>
      </trkpt>
      <trkpt lat="46.24325" lon="6.77906">
        <ele>1729</ele>
        <time>2000-01-01T05:50:56.000Z</time>
      </trkpt>
      <trkpt lat="46.24368" lon="6.7788">
        <ele>1728</ele>
        <time>2000-01-01T05:51:06.000Z</time>
      </trkpt>
      <trkpt lat="46.24384" lon="6.77863">
        <ele>1728</ele>
        <time>2000-01-01T05:51:16.000Z</time>
      </trkpt>
      <trkpt lat="46.24394" lon="6.77849">
        <ele>1729.3</ele>
        <time>2000-01-01T05:51:26.000Z</time>
      </trkpt>
      <trkpt lat="46.244" lon="6.77843">
        <ele>1728</ele>
        <time>2000-01-01T05:51:36.000Z</time>
      </trkpt>
      <trkpt lat="46.24412" lon="6.77838">
        <ele>1726.3</ele>
        <time>2000-01-01T05:51:46.000Z</time>
      </trkpt>
      <trkpt lat="46.2443" lon="6.77825">
        <ele>1728</ele>
        <time>2000-01-01T05:51:56.000Z</time>
      </trkpt>
      <trkpt lat="46.24456" lon="6.77817">
        <ele>1728</ele>
        <time>2000-01-01T05:52:06.000Z</time>
      </trkpt>
      <trkpt lat="46.24478" lon="6.77803">
        <ele>1729</ele>
        <time>2000-01-01T05:52:16.000Z</time>
      </trkpt>
      <trkpt lat="46.24494" lon="6.77796">
        <ele>1719.6</ele>
        <time>2000-01-01T05:52:26.000Z</time>
      </trkpt>
      <trkpt lat="46.24507" lon="6.77788">
        <ele>1729</ele>
        <time>2000-01-01T05:52:36.000Z</time>
      </trkpt>
      <trkpt lat="46.24523" lon="6.77773">
        <ele>1726</ele>
        <time>2000-01-01T05:52:46.000Z</time>
      </trkpt>
      <trkpt lat="46.24533" lon="6.77765">
        <ele>1724.4</ele>
        <time>2000-01-01T05:52:56.000Z</time>
      </trkpt>
      <trkpt lat="46.24534" lon="6.77768">
        <ele>1723.7</ele>
        <time>2000-01-01T05:53:06.000Z</time>
      </trkpt>
      <trkpt lat="46.24533" lon="6.77772">
        <ele>1722.9</ele>
        <time>2000-01-01T05:53:16.000Z</time>
      </trkpt>
      <trkpt lat="46.24531" lon="6.77776">
        <ele>1725</ele>
        <time>2000-01-01T05:53:26.000Z</time>
      </trkpt>
      <trkpt lat="46.24525" lon="6.77782">
        <ele>1720.9</ele>
        <time>2000-01-01T05:53:36.000Z</time>
      </trkpt>
      <trkpt lat="46.24523" lon="6.77785">
        <ele>1720.4</ele>
        <time>2000-01-01T05:53:46.000Z</time>
      </trkpt>
      <trkpt lat="46.24522" lon="6.7779">
        <ele>1719.3</ele>
        <time>2000-01-01T05:53:56.000Z</time>
      </trkpt>
      <trkpt lat="46.24524" lon="6.77793">
        <ele>1718.6</ele>
        <time>2000-01-01T05:54:06.000Z</time>
      </trkpt>
      <trkpt lat="46.24552" lon="6.77791">
        <ele>1717</ele>
        <time>2000-01-01T05:54:16.000Z</time>
      </trkpt>
      <trkpt lat="46.24558" lon="6.77792">
        <ele>1718</ele>
        <time>2000-01-01T05:54:26.000Z</time>
      </trkpt>
      <trkpt lat="46.24561" lon="6.77795">
        <ele>1717.3</ele>
        <time>2000-01-01T05:54:36.000Z</time>
      </trkpt>
      <trkpt lat="46.24562" lon="6.77799">
        <ele>1716.4</ele>
        <time>2000-01-01T05:54:46.000Z</time>
      </trkpt>
      <trkpt lat="46.24559" lon="6.77805">
        <ele>1715.1</ele>
        <time>2000-01-01T05:54:56.000Z</time>
      </trkpt>
      <trkpt lat="46.24536" lon="6.77822">
        <ele>1711</ele>
        <time>2000-01-01T05:55:06.000Z</time>
      </trkpt>
      <trkpt lat="46.24534" lon="6.77825">
        <ele>1711.6</ele>
        <time>2000-01-01T05:55:16.000Z</time>
      </trkpt>
      <trkpt lat="46.24534" lon="6.77828">
        <ele>1710.9</ele>
        <time>2000-01-01T05:55:26.000Z</time>
      </trkpt>
      <trkpt lat="46.24535" lon="6.77833">
        <ele>1709.8</ele>
        <time>2000-01-01T05:55:36.000Z</time>
      </trkpt>
      <trkpt lat="46.24564" lon="6.77855">
        <ele>1701</ele>
        <time>2000-01-01T05:55:46.000Z</time>
      </trkpt>
      <trkpt lat="46.24592" lon="6.77866">
        <ele>1696</ele>
        <time>2000-01-01T05:55:56.000Z</time>
      </trkpt>
      <trkpt lat="46.24601" lon="6.77873">
        <ele>1699.7</ele>
        <time>2000-01-01T05:56:06.000Z</time>
      </trkpt>
      <trkpt lat="46.24603" lon="6.77878">
        <ele>1698.8</ele>
        <time>2000-01-01T05:56:16.000Z</time>
      </trkpt>
      <trkpt lat="46.24604" lon="6.77886">
        <ele>1692</ele>
        <time>2000-01-01T05:56:26.000Z</time>
      </trkpt>
      <trkpt lat="46.246" lon="6.779">
        <ele>1693.9</ele>
        <time>2000-01-01T05:56:36.000Z</time>
      </trkpt>
      <trkpt lat="46.24604" lon="6.77905">
        <ele>1693.4</ele>
        <time>2000-01-01T05:56:46.000Z</time>
      </trkpt>
      <trkpt lat="46.2461" lon="6.77909">
        <ele>1688</ele>
        <time>2000-01-01T05:56:56.000Z</time>
      </trkpt>
      <trkpt lat="46.24615" lon="6.77914">
        <ele>1693.1</ele>
        <time>2000-01-01T05:57:06.000Z</time>
      </trkpt>
      <trkpt lat="46.24618" lon="6.7792">
        <ele>1692.6</ele>
        <time>2000-01-01T05:57:16.000Z</time>
      </trkpt>
      <trkpt lat="46.24619" lon="6.77928">
        <ele>1691.8</ele>
        <time>2000-01-01T05:57:26.000Z</time>
      </trkpt>
      <trkpt lat="46.24614" lon="6.77951">
        <ele>1681</ele>
        <time>2000-01-01T05:57:36.000Z</time>
      </trkpt>
      <trkpt lat="46.24614" lon="6.77958">
        <ele>1687.3</ele>
        <time>2000-01-01T05:57:46.000Z</time>
      </trkpt>
      <trkpt lat="46.24617" lon="6.77966">
        <ele>1687</ele>
        <time>2000-01-01T05:57:56.000Z</time>
      </trkpt>
      <trkpt lat="46.24617" lon="6.77977">
        <ele>1678</ele>
        <time>2000-01-01T05:58:06.000Z</time>
      </trkpt>
      <trkpt lat="46.24615" lon="6.77988">
        <ele>1683.8</ele>
        <time>2000-01-01T05:58:16.000Z</time>
      </trkpt>
      <trkpt lat="46.24609" lon="6.78002">
        <ele>1668</ele>
        <time>2000-01-01T05:58:26.000Z</time>
      </trkpt>
      <trkpt lat="46.24604" lon="6.78011">
        <ele>1679.6</ele>
        <time>2000-01-01T05:58:36.000Z</time>
      </trkpt>
      <trkpt lat="46.24599" lon="6.78018">
        <ele>1678.3</ele>
        <time>2000-01-01T05:58:46.000Z</time>
      </trkpt>
      <trkpt lat="46.2459" lon="6.78024">
        <ele>1660</ele>
        <time>2000-01-01T05:58:56.000Z</time>
      </trkpt>
      <trkpt lat="46.24576" lon="6.78039">
        <ele>1673</ele>
        <time>2000-01-01T05:59:06.000Z</time>
      </trkpt>
      <trkpt lat="46.24567" lon="6.78051">
        <ele>1656</ele>
        <time>2000-01-01T05:59:16.000Z</time>
      </trkpt>
      <trkpt lat="46.24565" lon="6.78055">
        <ele>1670.6</ele>
        <time>2000-01-01T05:59:26.000Z</time>
      </trkpt>
      <trkpt lat="46.24565" lon="6.78063">
        <ele>1670.2</ele>
        <time>2000-01-01T05:59:36.000Z</time>
      </trkpt>
      <trkpt lat="46.24569" lon="6.78068">
        <ele>1670.8</ele>
        <time>2000-01-01T05:59:46.000Z</time>
      </trkpt>
      <trkpt lat="46.24569" lon="6.78074">
        <ele>1670.6</ele>
        <time>2000-01-01T05:59:56.000Z</time>
      </trkpt>
      <trkpt lat="46.2457" lon="6.78081">
        <ele>1653</ele>
        <time>2000-01-01T06:00:06.000Z</time>
      </trkpt>
      <trkpt lat="46.24568" lon="6.78085">
        <ele>1670.1</ele>
        <time>2000-01-01T06:00:16.000Z</time>
      </trkpt>
      <trkpt lat="46.24553" lon="6.781">
        <ele>1651</ele>
        <time>2000-01-01T06:00:26.000Z</time>
      </trkpt>
      <trkpt lat="46.24543" lon="6.78112">
        <ele>1665</ele>
        <time>2000-01-01T06:00:36.000Z</time>
      </trkpt>
      <trkpt lat="46.24534" lon="6.78125">
        <ele>1646</ele>
        <time>2000-01-01T06:00:46.000Z</time>
      </trkpt>
      <trkpt lat="46.24529" lon="6.78134">
        <ele>1660.8</ele>
        <time>2000-01-01T06:00:56.000Z</time>
      </trkpt>
      <trkpt lat="46.24526" lon="6.78146">
        <ele>1659.8</ele>
        <time>2000-01-01T06:01:06.000Z</time>
      </trkpt>
      <trkpt lat="46.24521" lon="6.78154">
        <ele>1644</ele>
        <time>2000-01-01T06:01:16.000Z</time>
      </trkpt>
      <trkpt lat="46.24509" lon="6.78168">
        <ele>1652.3</ele>
        <time>2000-01-01T06:01:26.000Z</time>
      </trkpt>
      <trkpt lat="46.24495" lon="6.78207">
        <ele>1631</ele>
        <time>2000-01-01T06:01:36.000Z</time>
      </trkpt>
      <trkpt lat="46.24476" lon="6.78235">
        <ele>1623</ele>
        <time>2000-01-01T06:01:46.000Z</time>
      </trkpt>
      <trkpt lat="46.24473" lon="6.78247">
        <ele>1642.4</ele>
        <time>2000-01-01T06:01:56.000Z</time>
      </trkpt>
      <trkpt lat="46.24471" lon="6.78252">
        <ele>1641.6</ele>
        <time>2000-01-01T06:02:06.000Z</time>
      </trkpt>
      <trkpt lat="46.24466" lon="6.78258">
        <ele>1620</ele>
        <time>2000-01-01T06:02:16.000Z</time>
      </trkpt>
      <trkpt lat="46.24454" lon="6.7827">
        <ele>1636.2</ele>
        <time>2000-01-01T06:02:26.000Z</time>
      </trkpt>
      <trkpt lat="46.24447" lon="6.78278">
        <ele>1614</ele>
        <time>2000-01-01T06:02:36.000Z</time>
      </trkpt>
      <trkpt lat="46.24439" lon="6.78292">
        <ele>1631.6</ele>
        <time>2000-01-01T06:02:46.000Z</time>
      </trkpt>
      <trkpt lat="46.24427" lon="6.78309">
        <ele>1610</ele>
        <time>2000-01-01T06:02:56.000Z</time>
      </trkpt>
      <trkpt lat="46.2441" lon="6.78335">
        <ele>1609</ele>
        <time>2000-01-01T06:03:06.000Z</time>
      </trkpt>
      <trkpt lat="46.24408" lon="6.78336">
        <ele>1623.7</ele>
        <time>2000-01-01T06:03:16.000Z</time>
      </trkpt>
      <trkpt lat="46.244" lon="6.78336">
        <ele>1622</ele>
        <time>2000-01-01T06:03:26.000Z</time>
      </trkpt>
      <trkpt lat="46.24398" lon="6.78337">
        <ele>1621.7</ele>
        <time>2000-01-01T06:03:36.000Z</time>
      </trkpt>
      <trkpt lat="46.24388" lon="6.7835">
        <ele>1605</ele>
        <time>2000-01-01T06:03:46.000Z</time>
      </trkpt>
      <trkpt lat="46.24384" lon="6.78354">
        <ele>1621</ele>
        <time>2000-01-01T06:03:56.000Z</time>
      </trkpt>
      <trkpt lat="46.24376" lon="6.7836">
        <ele>1619.9</ele>
        <time>2000-01-01T06:04:06.000Z</time>
      </trkpt>
      <trkpt lat="46.24369" lon="6.78363">
        <ele>1602</ele>
        <time>2000-01-01T06:04:16.000Z</time>
      </trkpt>
      <trkpt lat="46.24363" lon="6.78364">
        <ele>1617.3</ele>
        <time>2000-01-01T06:04:26.000Z</time>
      </trkpt>
      <trkpt lat="46.24355" lon="6.78371">
        <ele>1616.1</ele>
        <time>2000-01-01T06:04:36.000Z</time>
      </trkpt>
      <trkpt lat="46.2435" lon="6.78373">
        <ele>1598</ele>
        <time>2000-01-01T06:04:46.000Z</time>
      </trkpt>
      <trkpt lat="46.24343" lon="6.78372">
        <ele>1613.2</ele>
        <time>2000-01-01T06:04:56.000Z</time>
      </trkpt>
      <trkpt lat="46.24339" lon="6.78375">
        <ele>1612.4</ele>
        <time>2000-01-01T06:05:06.000Z</time>
      </trkpt>
      <trkpt lat="46.24331" lon="6.78384">
        <ele>1595</ele>
        <time>2000-01-01T06:05:16.000Z</time>
      </trkpt>
      <trkpt lat="46.24314" lon="6.78392">
        <ele>1608.7</ele>
        <time>2000-01-01T06:05:26.000Z</time>
      </trkpt>
      <trkpt lat="46.2431" lon="6.78395">
        <ele>1587</ele>
        <time>2000-01-01T06:05:36.000Z</time>
      </trkpt>
      <trkpt lat="46.24304" lon="6.784">
        <ele>1606.8</ele>
        <time>2000-01-01T06:05:46.000Z</time>
      </trkpt>
      <trkpt lat="46.24299" lon="6.78406">
        <ele>1605.6</ele>
        <time>2000-01-01T06:05:56.000Z</time>
      </trkpt>
      <trkpt lat="46.2429" lon="6.78419">
        <ele>1582</ele>
        <time>2000-01-01T06:06:06.000Z</time>
      </trkpt>
      <trkpt lat="46.24274" lon="6.78447">
        <ele>1582</ele>
        <time>2000-01-01T06:06:16.000Z</time>
      </trkpt>
      <trkpt lat="46.24271" lon="6.78451">
        <ele>1601.2</ele>
        <time>2000-01-01T06:06:26.000Z</time>
      </trkpt>
      <trkpt lat="46.24261" lon="6.78456">
        <ele>1598.4</ele>
        <time>2000-01-01T06:06:36.000Z</time>
      </trkpt>
      <trkpt lat="46.24255" lon="6.78461">
        <ele>1576</ele>
        <time>2000-01-01T06:06:46.000Z</time>
      </trkpt>
      <trkpt lat="46.24247" lon="6.78469">
        <ele>1594.7</ele>
        <time>2000-01-01T06:06:56.000Z</time>
      </trkpt>
      <trkpt lat="46.24236" lon="6.78482">
        <ele>1572</ele>
        <time>2000-01-01T06:07:06.000Z</time>
      </trkpt>
      <trkpt lat="46.24227" lon="6.78497">
        <ele>1589.1</ele>
        <time>2000-01-01T06:07:16.000Z</time>
      </trkpt>
      <trkpt lat="46.24213" lon="6.78504">
        <ele>1569</ele>
        <time>2000-01-01T06:07:26.000Z</time>
      </trkpt>
      <trkpt lat="46.24192" lon="6.78518">
        <ele>1562</ele>
        <time>2000-01-01T06:07:36.000Z</time>
      </trkpt>
      <trkpt lat="46.24186" lon="6.78519">
        <ele>1576.4</ele>
        <time>2000-01-01T06:07:46.000Z</time>
      </trkpt>
      <trkpt lat="46.24183" lon="6.78517">
        <ele>1575.1</ele>
        <time>2000-01-01T06:07:56.000Z</time>
      </trkpt>
      <trkpt lat="46.24175" lon="6.78515">
        <ele>1571.9</ele>
        <time>2000-01-01T06:08:06.000Z</time>
      </trkpt>
      <trkpt lat="46.24169" lon="6.78516">
        <ele>1547</ele>
        <time>2000-01-01T06:08:16.000Z</time>
      </trkpt>
      <trkpt lat="46.24161" lon="6.78523">
        <ele>1568.5</ele>
        <time>2000-01-01T06:08:26.000Z</time>
      </trkpt>
      <trkpt lat="46.24148" lon="6.78536">
        <ele>1541</ele>
        <time>2000-01-01T06:08:36.000Z</time>
      </trkpt>
      <trkpt lat="46.2414" lon="6.78547">
        <ele>1564.9</ele>
        <time>2000-01-01T06:08:46.000Z</time>
      </trkpt>
      <trkpt lat="46.24137" lon="6.78558">
        <ele>1540</ele>
        <time>2000-01-01T06:08:56.000Z</time>
      </trkpt>
      <trkpt lat="46.2413" lon="6.78591">
        <ele>1540</ele>
        <time>2000-01-01T06:09:06.000Z</time>
      </trkpt>
      <trkpt lat="46.2413" lon="6.78627">
        <ele>1538</ele>
        <time>2000-01-01T06:09:16.000Z</time>
      </trkpt>
      <trkpt lat="46.24121" lon="6.78662">
        <ele>1537</ele>
        <time>2000-01-01T06:09:26.000Z</time>
      </trkpt>
      <trkpt lat="46.24121" lon="6.78673">
        <ele>1543.5</ele>
        <time>2000-01-01T06:09:36.000Z</time>
      </trkpt>
      <trkpt lat="46.24122" lon="6.78681">
        <ele>1542.2</ele>
        <time>2000-01-01T06:09:46.000Z</time>
      </trkpt>
      <trkpt lat="46.24127" lon="6.78695">
        <ele>1530</ele>
        <time>2000-01-01T06:09:56.000Z</time>
      </trkpt>
      <trkpt lat="46.24128" lon="6.7871">
        <ele>1538.9</ele>
        <time>2000-01-01T06:10:06.000Z</time>
      </trkpt>
      <trkpt lat="46.24125" lon="6.7874">
        <ele>1519</ele>
        <time>2000-01-01T06:10:16.000Z</time>
      </trkpt>
      <trkpt lat="46.24132" lon="6.78756">
        <ele>1529.6</ele>
        <time>2000-01-01T06:10:26.000Z</time>
      </trkpt>
      <trkpt lat="46.24132" lon="6.78781">
        <ele>1509</ele>
        <time>2000-01-01T06:10:36.000Z</time>
      </trkpt>
      <trkpt lat="46.24134" lon="6.78791">
        <ele>1517.8</ele>
        <time>2000-01-01T06:10:46.000Z</time>
      </trkpt>
      <trkpt lat="46.24143" lon="6.78818">
        <ele>1504</ele>
        <time>2000-01-01T06:10:56.000Z</time>
      </trkpt>
      <trkpt lat="46.24145" lon="6.78833">
        <ele>1507.3</ele>
        <time>2000-01-01T06:11:06.000Z</time>
      </trkpt>
      <trkpt lat="46.24153" lon="6.78854">
        <ele>1496</ele>
        <time>2000-01-01T06:11:16.000Z</time>
      </trkpt>
      <trkpt lat="46.24159" lon="6.78893">
        <ele>1486</ele>
        <time>2000-01-01T06:11:26.000Z</time>
      </trkpt>
      <trkpt lat="46.24159" lon="6.78901">
        <ele>1491.5</ele>
        <time>2000-01-01T06:11:36.000Z</time>
      </trkpt>
      <trkpt lat="46.24153" lon="6.78908">
        <ele>1487.1</ele>
        <time>2000-01-01T06:11:46.000Z</time>
      </trkpt>
      <trkpt lat="46.24151" lon="6.78904">
        <ele>1487.7</ele>
        <time>2000-01-01T06:11:56.000Z</time>
      </trkpt>
      <trkpt lat="46.24149" lon="6.78903">
        <ele>1482</ele>
        <time>2000-01-01T06:12:06.000Z</time>
      </trkpt>
      <trkpt lat="46.24147" lon="6.78903">
        <ele>1486.6</ele>
        <time>2000-01-01T06:12:16.000Z</time>
      </trkpt>
      <trkpt lat="46.24146" lon="6.78908">
        <ele>1484.7</ele>
        <time>2000-01-01T06:12:26.000Z</time>
      </trkpt>
      <trkpt lat="46.24149" lon="6.78925">
        <ele>1481.6</ele>
        <time>2000-01-01T06:12:36.000Z</time>
      </trkpt>
      <trkpt lat="46.24155" lon="6.78946">
        <ele>1478</ele>
        <time>2000-01-01T06:12:46.000Z</time>
      </trkpt>
      <trkpt lat="46.24162" lon="6.78964">
        <ele>1478.1</ele>
        <time>2000-01-01T06:12:56.000Z</time>
      </trkpt>
      <trkpt lat="46.24169" lon="6.78977">
        <ele>1476</ele>
        <time>2000-01-01T06:13:06.000Z</time>
      </trkpt>
      <trkpt lat="46.24184" lon="6.78999">
        <ele>1475</ele>
        <time>2000-01-01T06:13:16.000Z</time>
      </trkpt>
      <trkpt lat="46.24189" lon="6.79005">
        <ele>1479.1</ele>
        <time>2000-01-01T06:13:26.000Z</time>
      </trkpt>
      <trkpt lat="46.24192" lon="6.7901">
        <ele>1479.4</ele>
        <time>2000-01-01T06:13:36.000Z</time>
      </trkpt>
      <trkpt lat="46.24196" lon="6.79032">
        <ele>1469</ele>
        <time>2000-01-01T06:13:46.000Z</time>
      </trkpt>
      <trkpt lat="46.24205" lon="6.79073">
        <ele>1467</ele>
        <time>2000-01-01T06:13:56.000Z</time>
      </trkpt>
      <trkpt lat="46.24203" lon="6.7908">
        <ele>1473</ele>
        <time>2000-01-01T06:14:06.000Z</time>
      </trkpt>
      <trkpt lat="46.24199" lon="6.79082">
        <ele>1471.5</ele>
        <time>2000-01-01T06:14:16.000Z</time>
      </trkpt>
      <trkpt lat="46.24193" lon="6.79082">
        <ele>1469.8</ele>
        <time>2000-01-01T06:14:26.000Z</time>
      </trkpt>
      <trkpt lat="46.24176" lon="6.79079">
        <ele>1460</ele>
        <time>2000-01-01T06:14:36.000Z</time>
      </trkpt>
      <trkpt lat="46.24172" lon="6.7908">
        <ele>1463.9</ele>
        <time>2000-01-01T06:14:46.000Z</time>
      </trkpt>
      <trkpt lat="46.24165" lon="6.79083">
        <ele>1461.7</ele>
        <time>2000-01-01T06:14:56.000Z</time>
      </trkpt>
      <trkpt lat="46.24155" lon="6.79104">
        <ele>1456</ele>
        <time>2000-01-01T06:15:06.000Z</time>
      </trkpt>
      <trkpt lat="46.24152" lon="6.79105">
        <ele>1450.6</ele>
        <time>2000-01-01T06:15:16.000Z</time>
      </trkpt>
      <trkpt lat="46.24149" lon="6.79104">
        <ele>1450.2</ele>
        <time>2000-01-01T06:15:26.000Z</time>
      </trkpt>
      <trkpt lat="46.24144" lon="6.79101">
        <ele>1450.1</ele>
        <time>2000-01-01T06:15:36.000Z</time>
      </trkpt>
      <trkpt lat="46.24124" lon="6.79065">
        <ele>1451</ele>
        <time>2000-01-01T06:15:46.000Z</time>
      </trkpt>
      <trkpt lat="46.24115" lon="6.79031">
        <ele>1448</ele>
        <time>2000-01-01T06:15:56.000Z</time>
      </trkpt>
      <trkpt lat="46.24112" lon="6.79027">
        <ele>1456.7</ele>
        <time>2000-01-01T06:16:06.000Z</time>
      </trkpt>
      <trkpt lat="46.24071" lon="6.79">
        <ele>1443</ele>
        <time>2000-01-01T06:16:16.000Z</time>
      </trkpt>
      <trkpt lat="46.24051" lon="6.78981">
        <ele>1439</ele>
        <time>2000-01-01T06:16:26.000Z</time>
      </trkpt>
      <trkpt lat="46.2403" lon="6.78957">
        <ele>1437</ele>
        <time>2000-01-01T06:16:36.000Z</time>
      </trkpt>
      <trkpt lat="46.24021" lon="6.7894">
        <ele>1445.2</ele>
        <time>2000-01-01T06:16:46.000Z</time>
      </trkpt>
      <trkpt lat="46.24008" lon="6.78913">
        <ele>1437</ele>
        <time>2000-01-01T06:16:56.000Z</time>
      </trkpt>
      <trkpt lat="46.23995" lon="6.7888">
        <ele>1437</ele>
        <time>2000-01-01T06:17:06.000Z</time>
      </trkpt>
      <trkpt lat="46.2398" lon="6.78844">
        <ele>1437</ele>
        <time>2000-01-01T06:17:16.000Z</time>
      </trkpt>
      <trkpt lat="46.23979" lon="6.7883">
        <ele>1440.2</ele>
        <time>2000-01-01T06:17:26.000Z</time>
      </trkpt>
      <trkpt lat="46.23979" lon="6.78798">
        <ele>1438</ele>
        <time>2000-01-01T06:17:36.000Z</time>
      </trkpt>
      <trkpt lat="46.23981" lon="6.78786">
        <ele>1450.4</ele>
        <time>2000-01-01T06:17:46.000Z</time>
      </trkpt>
      <trkpt lat="46.23984" lon="6.78778">
        <ele>1452.6</ele>
        <time>2000-01-01T06:17:56.000Z</time>
      </trkpt>
      <trkpt lat="46.23985" lon="6.7877">
        <ele>1440</ele>
        <time>2000-01-01T06:18:06.000Z</time>
      </trkpt>
      <trkpt lat="46.23984" lon="6.78763">
        <ele>1456</ele>
        <time>2000-01-01T06:18:16.000Z</time>
      </trkpt>
      <trkpt lat="46.23982" lon="6.7876">
        <ele>1456.4</ele>
        <time>2000-01-01T06:18:26.000Z</time>
      </trkpt>
      <trkpt lat="46.23978" lon="6.78759">
        <ele>1456.1</ele>
        <time>2000-01-01T06:18:36.000Z</time>
      </trkpt>
      <trkpt lat="46.23972" lon="6.78763">
        <ele>1454.4</ele>
        <time>2000-01-01T06:18:46.000Z</time>
      </trkpt>
      <trkpt lat="46.23964" lon="6.78767">
        <ele>1439</ele>
        <time>2000-01-01T06:18:56.000Z</time>
      </trkpt>
      <trkpt lat="46.23946" lon="6.78766">
        <ele>1450.3</ele>
        <time>2000-01-01T06:19:06.000Z</time>
      </trkpt>
      <trkpt lat="46.23939" lon="6.78764">
        <ele>1441</ele>
        <time>2000-01-01T06:19:16.000Z</time>
      </trkpt>
      <trkpt lat="46.23933" lon="6.7876">
        <ele>1450</ele>
        <time>2000-01-01T06:19:26.000Z</time>
      </trkpt>
      <trkpt lat="46.23923" lon="6.78749">
        <ele>1440</ele>
        <time>2000-01-01T06:19:36.000Z</time>
      </trkpt>
      <trkpt lat="46.2391" lon="6.78732">
        <ele>1453.2</ele>
        <time>2000-01-01T06:19:46.000Z</time>
      </trkpt>
      <trkpt lat="46.23871" lon="6.78712">
        <ele>1442</ele>
        <time>2000-01-01T06:19:56.000Z</time>
      </trkpt>
      <trkpt lat="46.23866" lon="6.78707">
        <ele>1450.8</ele>
        <time>2000-01-01T06:20:06.000Z</time>
      </trkpt>
      <trkpt lat="46.23863" lon="6.78701">
        <ele>1451.9</ele>
        <time>2000-01-01T06:20:16.000Z</time>
      </trkpt>
      <trkpt lat="46.23857" lon="6.78676">
        <ele>1441</ele>
        <time>2000-01-01T06:20:26.000Z</time>
      </trkpt>
      <trkpt lat="46.23854" lon="6.78673">
        <ele>1458.8</ele>
        <time>2000-01-01T06:20:36.000Z</time>
      </trkpt>
      <trkpt lat="46.23848" lon="6.78671">
        <ele>1458.3</ele>
        <time>2000-01-01T06:20:46.000Z</time>
      </trkpt>
      <trkpt lat="46.23843" lon="6.78672">
        <ele>1457</ele>
        <time>2000-01-01T06:20:56.000Z</time>
      </trkpt>
      <trkpt lat="46.23833" lon="6.78678">
        <ele>1440</ele>
        <time>2000-01-01T06:21:06.000Z</time>
      </trkpt>
      <trkpt lat="46.23827" lon="6.78683">
        <ele>1450.3</ele>
        <time>2000-01-01T06:21:16.000Z</time>
      </trkpt>
      <trkpt lat="46.23816" lon="6.78689">
        <ele>1433</ele>
        <time>2000-01-01T06:21:26.000Z</time>
      </trkpt>
      <trkpt lat="46.23808" lon="6.78707">
        <ele>1437.9</ele>
        <time>2000-01-01T06:21:36.000Z</time>
      </trkpt>
      <trkpt lat="46.23805" lon="6.7871">
        <ele>1436.1</ele>
        <time>2000-01-01T06:21:46.000Z</time>
      </trkpt>
      <trkpt lat="46.23801" lon="6.7871">
        <ele>1423</ele>
        <time>2000-01-01T06:21:56.000Z</time>
      </trkpt>
      <trkpt lat="46.23792" lon="6.78703">
        <ele>1435.4</ele>
        <time>2000-01-01T06:22:06.000Z</time>
      </trkpt>
      <trkpt lat="46.23783" lon="6.78701">
        <ele>1418</ele>
        <time>2000-01-01T06:22:16.000Z</time>
      </trkpt>
      <trkpt lat="46.23775" lon="6.78695">
        <ele>1434.3</ele>
        <time>2000-01-01T06:22:26.000Z</time>
      </trkpt>
      <trkpt lat="46.2377" lon="6.78694">
        <ele>1433.5</ele>
        <time>2000-01-01T06:22:36.000Z</time>
      </trkpt>
      <trkpt lat="46.23767" lon="6.78695">
        <ele>1432.4</ele>
        <time>2000-01-01T06:22:46.000Z</time>
      </trkpt>
      <trkpt lat="46.23764" lon="6.78698">
        <ele>1418</ele>
        <time>2000-01-01T06:22:56.000Z</time>
      </trkpt>
      <trkpt lat="46.23753" lon="6.78716">
        <ele>1421.4</ele>
        <time>2000-01-01T06:23:06.000Z</time>
      </trkpt>
      <trkpt lat="46.23745" lon="6.78724">
        <ele>1402</ele>
        <time>2000-01-01T06:23:16.000Z</time>
      </trkpt>
      <trkpt lat="46.2374" lon="6.78724">
        <ele>1415.5</ele>
        <time>2000-01-01T06:23:26.000Z</time>
      </trkpt>
      <trkpt lat="46.23733" lon="6.78721">
        <ele>1415.2</ele>
        <time>2000-01-01T06:23:36.000Z</time>
      </trkpt>
      <trkpt lat="46.23728" lon="6.78716">
        <ele>1416.1</ele>
        <time>2000-01-01T06:23:46.000Z</time>
      </trkpt>
      <trkpt lat="46.23721" lon="6.78714">
        <ele>1402</ele>
        <time>2000-01-01T06:23:56.000Z</time>
      </trkpt>
      <trkpt lat="46.2371" lon="6.78718">
        <ele>1411.6</ele>
        <time>2000-01-01T06:24:06.000Z</time>
      </trkpt>
      <trkpt lat="46.23705" lon="6.78718">
        <ele>1410.6</ele>
        <time>2000-01-01T06:24:16.000Z</time>
      </trkpt>
      <trkpt lat="46.23699" lon="6.78716">
        <ele>1401</ele>
        <time>2000-01-01T06:24:26.000Z</time>
      </trkpt>
      <trkpt lat="46.23696" lon="6.78713">
        <ele>1410.8</ele>
        <time>2000-01-01T06:24:36.000Z</time>
      </trkpt>
      <trkpt lat="46.23694" lon="6.78705">
        <ele>1413.8</ele>
        <time>2000-01-01T06:24:46.000Z</time>
      </trkpt>
      <trkpt lat="46.23693" lon="6.78696">
        <ele>1417.5</ele>
        <time>2000-01-01T06:24:56.000Z</time>
      </trkpt>
      <trkpt lat="46.2369" lon="6.7869">
        <ele>1400</ele>
        <time>2000-01-01T06:25:06.000Z</time>
      </trkpt>
      <trkpt lat="46.23686" lon="6.78686">
        <ele>1420.6</ele>
        <time>2000-01-01T06:25:16.000Z</time>
      </trkpt>
      <trkpt lat="46.23681" lon="6.78684">
        <ele>1420.6</ele>
        <time>2000-01-01T06:25:26.000Z</time>
      </trkpt>
      <trkpt lat="46.23674" lon="6.78684">
        <ele>1419.4</ele>
        <time>2000-01-01T06:25:36.000Z</time>
      </trkpt>
      <trkpt lat="46.23669" lon="6.78685">
        <ele>1396</ele>
        <time>2000-01-01T06:25:46.000Z</time>
      </trkpt>
      <trkpt lat="46.23662" lon="6.78688">
        <ele>1415.3</ele>
        <time>2000-01-01T06:25:56.000Z</time>
      </trkpt>
      <trkpt lat="46.23655" lon="6.78694">
        <ele>1411.1</ele>
        <time>2000-01-01T06:26:06.000Z</time>
      </trkpt>
      <trkpt lat="46.23651" lon="6.787">
        <ele>1386</ele>
        <time>2000-01-01T06:26:16.000Z</time>
      </trkpt>
      <trkpt lat="46.23651" lon="6.78713">
        <ele>1401.3</ele>
        <time>2000-01-01T06:26:26.000Z</time>
      </trkpt>
      <trkpt lat="46.23649" lon="6.78716">
        <ele>1399.5</ele>
        <time>2000-01-01T06:26:36.000Z</time>
      </trkpt>
      <trkpt lat="46.23645" lon="6.78719">
        <ele>1397.2</ele>
        <time>2000-01-01T06:26:46.000Z</time>
      </trkpt>
      <trkpt lat="46.23628" lon="6.78722">
        <ele>1378</ele>
        <time>2000-01-01T06:26:56.000Z</time>
      </trkpt>
      <trkpt lat="46.23621" lon="6.78721">
        <ele>1390.7</ele>
        <time>2000-01-01T06:27:06.000Z</time>
      </trkpt>
      <trkpt lat="46.23614" lon="6.78716">
        <ele>1391.5</ele>
        <time>2000-01-01T06:27:16.000Z</time>
      </trkpt>
      <trkpt lat="46.23608" lon="6.7871">
        <ele>1371</ele>
        <time>2000-01-01T06:27:26.000Z</time>
      </trkpt>
      <trkpt lat="46.23599" lon="6.78708">
        <ele>1392.1</ele>
        <time>2000-01-01T06:27:36.000Z</time>
      </trkpt>
      <trkpt lat="46.23594" lon="6.78706">
        <ele>1392.1</ele>
        <time>2000-01-01T06:27:46.000Z</time>
      </trkpt>
      <trkpt lat="46.23592" lon="6.78707">
        <ele>1391.1</ele>
        <time>2000-01-01T06:27:56.000Z</time>
      </trkpt>
      <trkpt lat="46.23592" lon="6.7871">
        <ele>1389.6</ele>
        <time>2000-01-01T06:28:06.000Z</time>
      </trkpt>
      <trkpt lat="46.23595" lon="6.78715">
        <ele>1364</ele>
        <time>2000-01-01T06:28:16.000Z</time>
      </trkpt>
      <trkpt lat="46.23602" lon="6.78723">
        <ele>1385.3</ele>
        <time>2000-01-01T06:28:26.000Z</time>
      </trkpt>
      <trkpt lat="46.23608" lon="6.78733">
        <ele>1381.7</ele>
        <time>2000-01-01T06:28:36.000Z</time>
      </trkpt>
      <trkpt lat="46.23611" lon="6.78741">
        <ele>1361</ele>
        <time>2000-01-01T06:28:46.000Z</time>
      </trkpt>
      <trkpt lat="46.23614" lon="6.78747">
        <ele>1376.2</ele>
        <time>2000-01-01T06:28:56.000Z</time>
      </trkpt>
      <trkpt lat="46.23618" lon="6.78751">
        <ele>1375.4</ele>
        <time>2000-01-01T06:29:06.000Z</time>
      </trkpt>
      <trkpt lat="46.23625" lon="6.78752">
        <ele>1376.8</ele>
        <time>2000-01-01T06:29:16.000Z</time>
      </trkpt>
      <trkpt lat="46.23636" lon="6.7875">
        <ele>1358</ele>
        <time>2000-01-01T06:29:26.000Z</time>
      </trkpt>
      <trkpt lat="46.23646" lon="6.7875">
        <ele>1382.8</ele>
        <time>2000-01-01T06:29:36.000Z</time>
      </trkpt>
      <trkpt lat="46.23651" lon="6.78752">
        <ele>1383.3</ele>
        <time>2000-01-01T06:29:46.000Z</time>
      </trkpt>
      <trkpt lat="46.23653" lon="6.78756">
        <ele>1382.2</ele>
        <time>2000-01-01T06:29:56.000Z</time>
      </trkpt>
      <trkpt lat="46.23653" lon="6.78762">
        <ele>1353</ele>
        <time>2000-01-01T06:30:06.000Z</time>
      </trkpt>
      <trkpt lat="46.23651" lon="6.78786">
        <ele>1370.1</ele>
        <time>2000-01-01T06:30:16.000Z</time>
      </trkpt>
      <trkpt lat="46.23651" lon="6.78791">
        <ele>1341</ele>
        <time>2000-01-01T06:30:26.000Z</time>
      </trkpt>
      <trkpt lat="46.23661" lon="6.78804">
        <ele>1365.4</ele>
        <time>2000-01-01T06:30:36.000Z</time>
      </trkpt>
      <trkpt lat="46.23671" lon="6.78811">
        <ele>1337</ele>
        <time>2000-01-01T06:30:46.000Z</time>
      </trkpt>
      <trkpt lat="46.2368" lon="6.78819">
        <ele>1363.3</ele>
        <time>2000-01-01T06:30:56.000Z</time>
      </trkpt>
      <trkpt lat="46.23687" lon="6.78829">
        <ele>1336</ele>
        <time>2000-01-01T06:31:06.000Z</time>
      </trkpt>
      <trkpt lat="46.23701" lon="6.7886">
        <ele>1330</ele>
        <time>2000-01-01T06:31:16.000Z</time>
      </trkpt>
      <trkpt lat="46.23707" lon="6.78871">
        <ele>1344.8</ele>
        <time>2000-01-01T06:31:26.000Z</time>
      </trkpt>
      <trkpt lat="46.23719" lon="6.78885">
        <ele>1320</ele>
        <time>2000-01-01T06:31:36.000Z</time>
      </trkpt>
      <trkpt lat="46.23721" lon="6.78895">
        <ele>1337.9</ele>
        <time>2000-01-01T06:31:46.000Z</time>
      </trkpt>
      <trkpt lat="46.23722" lon="6.78904">
        <ele>1334.2</ele>
        <time>2000-01-01T06:31:56.000Z</time>
      </trkpt>
      <trkpt lat="46.23717" lon="6.7891">
        <ele>1312</ele>
        <time>2000-01-01T06:32:06.000Z</time>
      </trkpt>
      <trkpt lat="46.237" lon="6.78919">
        <ele>1319.7</ele>
        <time>2000-01-01T06:32:16.000Z</time>
      </trkpt>
      <trkpt lat="46.23655" lon="6.78936">
        <ele>1293</ele>
        <time>2000-01-01T06:32:26.000Z</time>
      </trkpt>
      <trkpt lat="46.23644" lon="6.78943">
        <ele>1299.8</ele>
        <time>2000-01-01T06:32:36.000Z</time>
      </trkpt>
      <trkpt lat="46.23636" lon="6.7895">
        <ele>1291</ele>
        <time>2000-01-01T06:32:46.000Z</time>
      </trkpt>
      <trkpt lat="46.23628" lon="6.7897">
        <ele>1291.6</ele>
        <time>2000-01-01T06:32:56.000Z</time>
      </trkpt>
      <trkpt lat="46.23626" lon="6.78981">
        <ele>1284</ele>
        <time>2000-01-01T06:33:06.000Z</time>
      </trkpt>
      <trkpt lat="46.23615" lon="6.79014">
        <ele>1280</ele>
        <time>2000-01-01T06:33:16.000Z</time>
      </trkpt>
      <trkpt lat="46.23599" lon="6.79045">
        <ele>1275</ele>
        <time>2000-01-01T06:33:26.000Z</time>
      </trkpt>
      <trkpt lat="46.23614" lon="6.79092">
        <ele>1274</ele>
        <time>2000-01-01T06:33:36.000Z</time>
      </trkpt>
      <trkpt lat="46.23587" lon="6.79094">
        <ele>1275</ele>
        <time>2000-01-01T06:33:46.000Z</time>
      </trkpt>
      <trkpt lat="46.23554" lon="6.79098">
        <ele>1276</ele>
        <time>2000-01-01T06:33:56.000Z</time>
      </trkpt>
      <trkpt lat="46.23543" lon="6.7906">
        <ele>1277</ele>
        <time>2000-01-01T06:34:06.000Z</time>
      </trkpt>
      <trkpt lat="46.23534" lon="6.79047">
        <ele>1283.3</ele>
        <time>2000-01-01T06:34:16.000Z</time>
      </trkpt>
      <trkpt lat="46.23486" lon="6.79115">
        <ele>1281</ele>
        <time>2000-01-01T06:34:26.000Z</time>
      </trkpt>
      <trkpt lat="46.23457" lon="6.79146">
        <ele>1284</ele>
        <time>2000-01-01T06:34:36.000Z</time>
      </trkpt>
      <trkpt lat="46.23424" lon="6.79189">
        <ele>1306</ele>
        <time>2000-01-01T06:34:46.000Z</time>
      </trkpt>
      <trkpt lat="46.2339" lon="6.79228">
        <ele>1336</ele>
        <time>2000-01-01T06:34:56.000Z</time>
      </trkpt>
      <trkpt lat="46.23371" lon="6.79253">
        <ele>1355</ele>
        <time>2000-01-01T06:35:06.000Z</time>
      </trkpt>
      <trkpt lat="46.23349" lon="6.79282">
        <ele>1381</ele>
        <time>2000-01-01T06:35:16.000Z</time>
      </trkpt>
      <trkpt lat="46.23327" lon="6.79309">
        <ele>1400</ele>
        <time>2000-01-01T06:35:26.000Z</time>
      </trkpt>
      <trkpt lat="46.23309" lon="6.79331">
        <ele>1429</ele>
        <time>2000-01-01T06:35:36.000Z</time>
      </trkpt>
      <trkpt lat="46.2329" lon="6.79354">
        <ele>1445</ele>
        <time>2000-01-01T06:35:46.000Z</time>
      </trkpt>
      <trkpt lat="46.23264" lon="6.79387">
        <ele>1469</ele>
        <time>2000-01-01T06:35:56.000Z</time>
      </trkpt>
      <trkpt lat="46.23243" lon="6.79412">
        <ele>1495</ele>
        <time>2000-01-01T06:36:06.000Z</time>
      </trkpt>
      <trkpt lat="46.23215" lon="6.79448">
        <ele>1511</ele>
        <time>2000-01-01T06:36:16.000Z</time>
      </trkpt>
      <trkpt lat="46.2319" lon="6.79479">
        <ele>1524</ele>
        <time>2000-01-01T06:36:26.000Z</time>
      </trkpt>
      <trkpt lat="46.23164" lon="6.7951">
        <ele>1540</ele>
        <time>2000-01-01T06:36:36.000Z</time>
      </trkpt>
      <trkpt lat="46.23146" lon="6.79533">
        <ele>1564</ele>
        <time>2000-01-01T06:36:46.000Z</time>
      </trkpt>
      <trkpt lat="46.23126" lon="6.79558">
        <ele>1577</ele>
        <time>2000-01-01T06:36:56.000Z</time>
      </trkpt>
      <trkpt lat="46.23099" lon="6.79591">
        <ele>1584</ele>
        <time>2000-01-01T06:37:06.000Z</time>
      </trkpt>
      <trkpt lat="46.23074" lon="6.79623">
        <ele>1588</ele>
        <time>2000-01-01T06:37:16.000Z</time>
      </trkpt>
      <trkpt lat="46.23049" lon="6.79654">
        <ele>1591</ele>
        <time>2000-01-01T06:37:26.000Z</time>
      </trkpt>
      <trkpt lat="46.23032" lon="6.79677">
        <ele>1600</ele>
        <time>2000-01-01T06:37:36.000Z</time>
      </trkpt>
      <trkpt lat="46.23013" lon="6.79701">
        <ele>1614</ele>
        <time>2000-01-01T06:37:46.000Z</time>
      </trkpt>
      <trkpt lat="46.22992" lon="6.79727">
        <ele>1624</ele>
        <time>2000-01-01T06:37:56.000Z</time>
      </trkpt>
      <trkpt lat="46.2296" lon="6.79766">
        <ele>1633</ele>
        <time>2000-01-01T06:38:06.000Z</time>
      </trkpt>
      <trkpt lat="46.22936" lon="6.79796">
        <ele>1638</ele>
        <time>2000-01-01T06:38:16.000Z</time>
      </trkpt>
      <trkpt lat="46.22912" lon="6.79827">
        <ele>1638</ele>
        <time>2000-01-01T06:38:26.000Z</time>
      </trkpt>
      <trkpt lat="46.22882" lon="6.79864">
        <ele>1641</ele>
        <time>2000-01-01T06:38:36.000Z</time>
      </trkpt>
      <trkpt lat="46.22857" lon="6.79894">
        <ele>1647</ele>
        <time>2000-01-01T06:38:46.000Z</time>
      </trkpt>
      <trkpt lat="46.22832" lon="6.79925">
        <ele>1654</ele>
        <time>2000-01-01T06:38:56.000Z</time>
      </trkpt>
      <trkpt lat="46.22797" lon="6.79967">
        <ele>1667</ele>
        <time>2000-01-01T06:39:06.000Z</time>
      </trkpt>
      <trkpt lat="46.22776" lon="6.79993">
        <ele>1674</ele>
        <time>2000-01-01T06:39:16.000Z</time>
      </trkpt>
      <trkpt lat="46.22745" lon="6.80031">
        <ele>1682</ele>
        <time>2000-01-01T06:39:26.000Z</time>
      </trkpt>
      <trkpt lat="46.2271" lon="6.80072">
        <ele>1698</ele>
        <time>2000-01-01T06:39:36.000Z</time>
      </trkpt>
      <trkpt lat="46.22676" lon="6.80114">
        <ele>1718</ele>
        <time>2000-01-01T06:39:46.000Z</time>
      </trkpt>
      <trkpt lat="46.22641" lon="6.80155">
        <ele>1741</ele>
        <time>2000-01-01T06:39:56.000Z</time>
      </trkpt>
      <trkpt lat="46.22622" lon="6.80178">
        <ele>1749</ele>
        <time>2000-01-01T06:40:06.000Z</time>
      </trkpt>
      <trkpt lat="46.22599" lon="6.80206">
        <ele>1765</ele>
        <time>2000-01-01T06:40:16.000Z</time>
      </trkpt>
      <trkpt lat="46.22576" lon="6.80233">
        <ele>1771</ele>
        <time>2000-01-01T06:40:26.000Z</time>
      </trkpt>
      <trkpt lat="46.22571" lon="6.80235">
        <ele>1773.8</ele>
        <time>2000-01-01T06:40:36.000Z</time>
      </trkpt>
      <trkpt lat="46.22571" lon="6.80238">
        <ele>1774.2</ele>
        <time>2000-01-01T06:40:46.000Z</time>
      </trkpt>
      <trkpt lat="46.22574" lon="6.80245">
        <ele>1774.5</ele>
        <time>2000-01-01T06:40:56.000Z</time>
      </trkpt>
      <trkpt lat="46.22579" lon="6.80255">
        <ele>1771</ele>
        <time>2000-01-01T06:41:06.000Z</time>
      </trkpt>
      <trkpt lat="46.22584" lon="6.80263">
        <ele>1773</ele>
        <time>2000-01-01T06:41:16.000Z</time>
      </trkpt>
      <trkpt lat="46.22586" lon="6.80273">
        <ele>1772.5</ele>
        <time>2000-01-01T06:41:26.000Z</time>
      </trkpt>
      <trkpt lat="46.22587" lon="6.80283">
        <ele>1771</ele>
        <time>2000-01-01T06:41:36.000Z</time>
      </trkpt>
      <trkpt lat="46.22586" lon="6.80291">
        <ele>1772.8</ele>
        <time>2000-01-01T06:41:46.000Z</time>
      </trkpt>
      <trkpt lat="46.22583" lon="6.80299">
        <ele>1773.7</ele>
        <time>2000-01-01T06:41:56.000Z</time>
      </trkpt>
      <trkpt lat="46.2258" lon="6.80305">
        <ele>1774.3</ele>
        <time>2000-01-01T06:42:06.000Z</time>
      </trkpt>
      <trkpt lat="46.22576" lon="6.8031">
        <ele>1770</ele>
        <time>2000-01-01T06:42:16.000Z</time>
      </trkpt>
      <trkpt lat="46.22574" lon="6.80318">
        <ele>1775.6</ele>
        <time>2000-01-01T06:42:26.000Z</time>
      </trkpt>
      <trkpt lat="46.22576" lon="6.80327">
        <ele>1775.3</ele>
        <time>2000-01-01T06:42:36.000Z</time>
      </trkpt>
      <trkpt lat="46.22584" lon="6.80327">
        <ele>1769</ele>
        <time>2000-01-01T06:42:46.000Z</time>
      </trkpt>
      <trkpt lat="46.22612" lon="6.80323">
        <ele>1764</ele>
        <time>2000-01-01T06:42:56.000Z</time>
      </trkpt>
      <trkpt lat="46.22625" lon="6.80324">
        <ele>1766.2</ele>
        <time>2000-01-01T06:43:06.000Z</time>
      </trkpt>
      <trkpt lat="46.22633" lon="6.80327">
        <ele>1759</ele>
        <time>2000-01-01T06:43:16.000Z</time>
      </trkpt>
      <trkpt lat="46.22641" lon="6.80329">
        <ele>1763.8</ele>
        <time>2000-01-01T06:43:26.000Z</time>
      </trkpt>
      <trkpt lat="46.22651" lon="6.8033">
        <ele>1762.2</ele>
        <time>2000-01-01T06:43:36.000Z</time>
      </trkpt>
      <trkpt lat="46.22664" lon="6.80325">
        <ele>1752</ele>
        <time>2000-01-01T06:43:46.000Z</time>
      </trkpt>
      <trkpt lat="46.22679" lon="6.80321">
        <ele>1754.9</ele>
        <time>2000-01-01T06:43:56.000Z</time>
      </trkpt>
      <trkpt lat="46.22692" lon="6.80319">
        <ele>1741</ele>
        <time>2000-01-01T06:44:06.000Z</time>
      </trkpt>
      <trkpt lat="46.22721" lon="6.8031">
        <ele>1736</ele>
        <time>2000-01-01T06:44:16.000Z</time>
      </trkpt>
      <trkpt lat="46.22728" lon="6.80309">
        <ele>1740.5</ele>
        <time>2000-01-01T06:44:26.000Z</time>
      </trkpt>
      <trkpt lat="46.22734" lon="6.80306">
        <ele>1738.5</ele>
        <time>2000-01-01T06:44:36.000Z</time>
      </trkpt>
      <trkpt lat="46.22745" lon="6.80297">
        <ele>1736</ele>
        <time>2000-01-01T06:44:46.000Z</time>
      </trkpt>
      <trkpt lat="46.22753" lon="6.80292">
        <ele>1731.9</ele>
        <time>2000-01-01T06:44:56.000Z</time>
      </trkpt>
      <trkpt lat="46.2276" lon="6.80285">
        <ele>1730.4</ele>
        <time>2000-01-01T06:45:06.000Z</time>
      </trkpt>
      <trkpt lat="46.22763" lon="6.80272">
        <ele>1731</ele>
        <time>2000-01-01T06:45:16.000Z</time>
      </trkpt>
      <trkpt lat="46.22771" lon="6.80296">
        <ele>1731.7</ele>
        <time>2000-01-01T06:45:26.000Z</time>
      </trkpt>
      <trkpt lat="46.22777" lon="6.80324">
        <ele>1729</ele>
        <time>2000-01-01T06:45:36.000Z</time>
      </trkpt>
      <trkpt lat="46.22782" lon="6.80344">
        <ele>1739.4</ele>
        <time>2000-01-01T06:45:46.000Z</time>
      </trkpt>
      <trkpt lat="46.22787" lon="6.80361">
        <ele>1729</ele>
        <time>2000-01-01T06:45:56.000Z</time>
      </trkpt>
      <trkpt lat="46.22791" lon="6.80357">
        <ele>1741.1</ele>
        <time>2000-01-01T06:46:06.000Z</time>
      </trkpt>
      <trkpt lat="46.22804" lon="6.80353">
        <ele>1740.1</ele>
        <time>2000-01-01T06:46:16.000Z</time>
      </trkpt>
      <trkpt lat="46.2281" lon="6.80354">
        <ele>1727</ele>
        <time>2000-01-01T06:46:26.000Z</time>
      </trkpt>
      <trkpt lat="46.22818" lon="6.80357">
        <ele>1740.4</ele>
        <time>2000-01-01T06:46:36.000Z</time>
      </trkpt>
      <trkpt lat="46.22821" lon="6.80355">
        <ele>1740</ele>
        <time>2000-01-01T06:46:46.000Z</time>
      </trkpt>
      <trkpt lat="46.22823" lon="6.80352">
        <ele>1739.4</ele>
        <time>2000-01-01T06:46:56.000Z</time>
      </trkpt>
      <trkpt lat="46.22825" lon="6.80346">
        <ele>1721</ele>
        <time>2000-01-01T06:47:06.000Z</time>
      </trkpt>
      <trkpt lat="46.22831" lon="6.80335">
        <ele>1736.4</ele>
        <time>2000-01-01T06:47:16.000Z</time>
      </trkpt>
      <trkpt lat="46.22848" lon="6.80308">
        <ele>1715</ele>
        <time>2000-01-01T06:47:26.000Z</time>
      </trkpt>
      <trkpt lat="46.22852" lon="6.80299">
        <ele>1732.9</ele>
        <time>2000-01-01T06:47:36.000Z</time>
      </trkpt>
      <trkpt lat="46.22857" lon="6.80291">
        <ele>1732.3</ele>
        <time>2000-01-01T06:47:46.000Z</time>
      </trkpt>
      <trkpt lat="46.2286" lon="6.80284">
        <ele>1714</ele>
        <time>2000-01-01T06:47:56.000Z</time>
      </trkpt>
      <trkpt lat="46.22864" lon="6.8028">
        <ele>1731.3</ele>
        <time>2000-01-01T06:48:06.000Z</time>
      </trkpt>
      <trkpt lat="46.22865" lon="6.80276">
        <ele>1730.7</ele>
        <time>2000-01-01T06:48:16.000Z</time>
      </trkpt>
      <trkpt lat="46.22863" lon="6.80271">
        <ele>1729.3</ele>
        <time>2000-01-01T06:48:26.000Z</time>
      </trkpt>
      <trkpt lat="46.22864" lon="6.80268">
        <ele>1728.8</ele>
        <time>2000-01-01T06:48:36.000Z</time>
      </trkpt>
      <trkpt lat="46.22866" lon="6.80257">
        <ele>1713</ele>
        <time>2000-01-01T06:48:46.000Z</time>
      </trkpt>
      <trkpt lat="46.22872" lon="6.80246">
        <ele>1725.4</ele>
        <time>2000-01-01T06:48:56.000Z</time>
      </trkpt>
      <trkpt lat="46.22881" lon="6.8024">
        <ele>1713</ele>
        <time>2000-01-01T06:49:06.000Z</time>
      </trkpt>
      <trkpt lat="46.22882" lon="6.80237">
        <ele>1724.5</ele>
        <time>2000-01-01T06:49:16.000Z</time>
      </trkpt>
      <trkpt lat="46.22886" lon="6.80232">
        <ele>1723.7</ele>
        <time>2000-01-01T06:49:26.000Z</time>
      </trkpt>
      <trkpt lat="46.2289" lon="6.80224">
        <ele>1722</ele>
        <time>2000-01-01T06:49:36.000Z</time>
      </trkpt>
      <trkpt lat="46.22905" lon="6.802">
        <ele>1701</ele>
        <time>2000-01-01T06:49:46.000Z</time>
      </trkpt>
      <trkpt lat="46.22908" lon="6.80192">
        <ele>1714.4</ele>
        <time>2000-01-01T06:49:56.000Z</time>
      </trkpt>
      <trkpt lat="46.22919" lon="6.80167">
        <ele>1696</ele>
        <time>2000-01-01T06:50:06.000Z</time>
      </trkpt>
      <trkpt lat="46.22919" lon="6.80164">
        <ele>1706.4</ele>
        <time>2000-01-01T06:50:16.000Z</time>
      </trkpt>
      <trkpt lat="46.2292" lon="6.80161">
        <ele>1705.8</ele>
        <time>2000-01-01T06:50:26.000Z</time>
      </trkpt>
      <trkpt lat="46.22931" lon="6.80154">
        <ele>1704.3</ele>
        <time>2000-01-01T06:50:36.000Z</time>
      </trkpt>
      <trkpt lat="46.22938" lon="6.80141">
        <ele>1696</ele>
        <time>2000-01-01T06:50:46.000Z</time>
      </trkpt>
      <trkpt lat="46.22942" lon="6.80135">
        <ele>1700.5</ele>
        <time>2000-01-01T06:50:56.000Z</time>
      </trkpt>
      <trkpt lat="46.22949" lon="6.80133">
        <ele>1700.1</ele>
        <time>2000-01-01T06:51:06.000Z</time>
      </trkpt>
      <trkpt lat="46.22953" lon="6.80134">
        <ele>1700.2</ele>
        <time>2000-01-01T06:51:16.000Z</time>
      </trkpt>
      <trkpt lat="46.22957" lon="6.80137">
        <ele>1694</ele>
        <time>2000-01-01T06:51:26.000Z</time>
      </trkpt>
      <trkpt lat="46.22958" lon="6.80143">
        <ele>1701.7</ele>
        <time>2000-01-01T06:51:36.000Z</time>
      </trkpt>
      <trkpt lat="46.2296" lon="6.80145">
        <ele>1702.1</ele>
        <time>2000-01-01T06:51:46.000Z</time>
      </trkpt>
      <trkpt lat="46.22968" lon="6.80148">
        <ele>1702.5</ele>
        <time>2000-01-01T06:51:56.000Z</time>
      </trkpt>
      <trkpt lat="46.22973" lon="6.80149">
        <ele>1693</ele>
        <time>2000-01-01T06:52:06.000Z</time>
      </trkpt>
      <trkpt lat="46.22979" lon="6.80147">
        <ele>1702.1</ele>
        <time>2000-01-01T06:52:16.000Z</time>
      </trkpt>
      <trkpt lat="46.22985" lon="6.80144">
        <ele>1701.5</ele>
        <time>2000-01-01T06:52:26.000Z</time>
      </trkpt>
      <trkpt lat="46.22997" lon="6.80135">
        <ele>1688</ele>
        <time>2000-01-01T06:52:36.000Z</time>
      </trkpt>
      <trkpt lat="46.23007" lon="6.8012">
        <ele>1696.3</ele>
        <time>2000-01-01T06:52:46.000Z</time>
      </trkpt>
      <trkpt lat="46.23012" lon="6.80106">
        <ele>1683</ele>
        <time>2000-01-01T06:52:56.000Z</time>
      </trkpt>
      <trkpt lat="46.23018" lon="6.80095">
        <ele>1690.5</ele>
        <time>2000-01-01T06:53:06.000Z</time>
      </trkpt>
      <trkpt lat="46.23029" lon="6.80094">
        <ele>1681</ele>
        <time>2000-01-01T06:53:16.000Z</time>
      </trkpt>
      <trkpt lat="46.23038" lon="6.8009">
        <ele>1686.8</ele>
        <time>2000-01-01T06:53:26.000Z</time>
      </trkpt>
      <trkpt lat="46.23046" lon="6.80083">
        <ele>1676</ele>
        <time>2000-01-01T06:53:36.000Z</time>
      </trkpt>
      <trkpt lat="46.2305" lon="6.80071">
        <ele>1682.8</ele>
        <time>2000-01-01T06:53:46.000Z</time>
      </trkpt>
      <trkpt lat="46.2305" lon="6.80054">
        <ele>1674</ele>
        <time>2000-01-01T06:53:56.000Z</time>
      </trkpt>
      <trkpt lat="46.23051" lon="6.80046">
        <ele>1680.5</ele>
        <time>2000-01-01T06:54:06.000Z</time>
      </trkpt>
      <trkpt lat="46.23053" lon="6.80043">
        <ele>1679.9</ele>
        <time>2000-01-01T06:54:16.000Z</time>
      </trkpt>
      <trkpt lat="46.23051" lon="6.80037">
        <ele>1679.7</ele>
        <time>2000-01-01T06:54:26.000Z</time>
      </trkpt>
      <trkpt lat="46.23053" lon="6.80034">
        <ele>1679.1</ele>
        <time>2000-01-01T06:54:36.000Z</time>
      </trkpt>
      <trkpt lat="46.23059" lon="6.80028">
        <ele>1671</ele>
        <time>2000-01-01T06:54:46.000Z</time>
      </trkpt>
      <trkpt lat="46.23094" lon="6.80031">
        <ele>1664</ele>
        <time>2000-01-01T06:54:56.000Z</time>
      </trkpt>
      <trkpt lat="46.23119" lon="6.80052">
        <ele>1664</ele>
        <time>2000-01-01T06:55:06.000Z</time>
      </trkpt>
      <trkpt lat="46.23146" lon="6.80073">
        <ele>1664</ele>
        <time>2000-01-01T06:55:16.000Z</time>
      </trkpt>
      <trkpt lat="46.23171" lon="6.80094">
        <ele>1663</ele>
        <time>2000-01-01T06:55:26.000Z</time>
      </trkpt>
      <trkpt lat="46.23183" lon="6.80102">
        <ele>1672</ele>
        <time>2000-01-01T06:55:36.000Z</time>
      </trkpt>
      <trkpt lat="46.23191" lon="6.80101">
        <ele>1663</ele>
        <time>2000-01-01T06:55:46.000Z</time>
      </trkpt>
      <trkpt lat="46.23198" lon="6.80097">
        <ele>1668.1</ele>
        <time>2000-01-01T06:55:56.000Z</time>
      </trkpt>
      <trkpt lat="46.2321" lon="6.80098">
        <ele>1661</ele>
        <time>2000-01-01T06:56:06.000Z</time>
      </trkpt>
      <trkpt lat="46.23218" lon="6.80082">
        <ele>1661</ele>
        <time>2000-01-01T06:56:16.000Z</time>
      </trkpt>
      <trkpt lat="46.23226" lon="6.80064">
        <ele>1659</ele>
        <time>2000-01-01T06:56:26.000Z</time>
      </trkpt>
      <trkpt lat="46.2324" lon="6.80021">
        <ele>1656</ele>
        <time>2000-01-01T06:56:36.000Z</time>
      </trkpt>
      <trkpt lat="46.23245" lon="6.80003">
        <ele>1649</ele>
        <time>2000-01-01T06:56:46.000Z</time>
      </trkpt>
      <trkpt lat="46.23247" lon="6.79988">
        <ele>1651</ele>
        <time>2000-01-01T06:56:56.000Z</time>
      </trkpt>
      <trkpt lat="46.23247" lon="6.79971">
        <ele>1646.7</ele>
        <time>2000-01-01T06:57:06.000Z</time>
      </trkpt>
      <trkpt lat="46.23256" lon="6.79985">
        <ele>1648</ele>
        <time>2000-01-01T06:57:16.000Z</time>
      </trkpt>
      <trkpt lat="46.23265" lon="6.80015">
        <ele>1646</ele>
        <time>2000-01-01T06:57:26.000Z</time>
      </trkpt>
      <trkpt lat="46.2327" lon="6.80029">
        <ele>1647.6</ele>
        <time>2000-01-01T06:57:36.000Z</time>
      </trkpt>
      <trkpt lat="46.23278" lon="6.80042">
        <ele>1644</ele>
        <time>2000-01-01T06:57:46.000Z</time>
      </trkpt>
      <trkpt lat="46.23289" lon="6.80063">
        <ele>1648.9</ele>
        <time>2000-01-01T06:57:56.000Z</time>
      </trkpt>
      <trkpt lat="46.23297" lon="6.80071">
        <ele>1638</ele>
        <time>2000-01-01T06:58:06.000Z</time>
      </trkpt>
      <trkpt lat="46.23308" lon="6.80076">
        <ele>1648.4</ele>
        <time>2000-01-01T06:58:16.000Z</time>
      </trkpt>
      <trkpt lat="46.23319" lon="6.80076">
        <ele>1637</ele>
        <time>2000-01-01T06:58:26.000Z</time>
      </trkpt>
      <trkpt lat="46.23346" lon="6.8008">
        <ele>1637</ele>
        <time>2000-01-01T06:58:36.000Z</time>
      </trkpt>
      <trkpt lat="46.23351" lon="6.80085">
        <ele>1647.7</ele>
        <time>2000-01-01T06:58:46.000Z</time>
      </trkpt>
      <trkpt lat="46.23357" lon="6.80088">
        <ele>1648.7</ele>
        <time>2000-01-01T06:58:56.000Z</time>
      </trkpt>
      <trkpt lat="46.23363" lon="6.80092">
        <ele>1635</ele>
        <time>2000-01-01T06:59:06.000Z</time>
      </trkpt>
      <trkpt lat="46.23375" lon="6.80096">
        <ele>1651.1</ele>
        <time>2000-01-01T06:59:16.000Z</time>
      </trkpt>
      <trkpt lat="46.2338" lon="6.80095">
        <ele>1650.9</ele>
        <time>2000-01-01T06:59:26.000Z</time>
      </trkpt>
      <trkpt lat="46.23387" lon="6.8009">
        <ele>1635</ele>
        <time>2000-01-01T06:59:36.000Z</time>
      </trkpt>
      <trkpt lat="46.23394" lon="6.80084">
        <ele>1647.9</ele>
        <time>2000-01-01T06:59:46.000Z</time>
      </trkpt>
      <trkpt lat="46.23399" lon="6.80078">
        <ele>1646.7</ele>
        <time>2000-01-01T06:59:56.000Z</time>
      </trkpt>
      <trkpt lat="46.23415" lon="6.80062">
        <ele>1636</ele>
        <time>2000-01-01T07:00:06.000Z</time>
      </trkpt>
      <trkpt lat="46.23419" lon="6.8006">
        <ele>1642.9</ele>
        <time>2000-01-01T07:00:16.000Z</time>
      </trkpt>
      <trkpt lat="46.23425" lon="6.80059">
        <ele>1642.4</ele>
        <time>2000-01-01T07:00:26.000Z</time>
      </trkpt>
      <trkpt lat="46.23438" lon="6.80059">
        <ele>1637</ele>
        <time>2000-01-01T07:00:36.000Z</time>
      </trkpt>
      <trkpt lat="46.23444" lon="6.80062">
        <ele>1642.4</ele>
        <time>2000-01-01T07:00:46.000Z</time>
      </trkpt>
      <trkpt lat="46.23448" lon="6.80067">
        <ele>1643.5</ele>
        <time>2000-01-01T07:00:56.000Z</time>
      </trkpt>
      <trkpt lat="46.23456" lon="6.8008">
        <ele>1640</ele>
        <time>2000-01-01T07:01:06.000Z</time>
      </trkpt>
      <trkpt lat="46.23463" lon="6.80095">
        <ele>1650.5</ele>
        <time>2000-01-01T07:01:16.000Z</time>
      </trkpt>
      <trkpt lat="46.23465" lon="6.80098">
        <ele>1651.2</ele>
        <time>2000-01-01T07:01:26.000Z</time>
      </trkpt>
      <trkpt lat="46.23469" lon="6.80098">
        <ele>1640</ele>
        <time>2000-01-01T07:01:36.000Z</time>
      </trkpt>
      <trkpt lat="46.23476" lon="6.8009">
        <ele>1649</ele>
        <time>2000-01-01T07:01:46.000Z</time>
      </trkpt>
      <trkpt lat="46.23485" lon="6.80085">
        <ele>1647.6</ele>
        <time>2000-01-01T07:01:56.000Z</time>
      </trkpt>
      <trkpt lat="46.23491" lon="6.80084">
        <ele>1634</ele>
        <time>2000-01-01T07:02:06.000Z</time>
      </trkpt>
      <trkpt lat="46.23496" lon="6.80085">
        <ele>1647.5</ele>
        <time>2000-01-01T07:02:16.000Z</time>
      </trkpt>
      <trkpt lat="46.23501" lon="6.80084">
        <ele>1647</ele>
        <time>2000-01-01T07:02:26.000Z</time>
      </trkpt>
      <trkpt lat="46.23505" lon="6.80082">
        <ele>1645.8</ele>
        <time>2000-01-01T07:02:36.000Z</time>
      </trkpt>
      <trkpt lat="46.23516" lon="6.80069">
        <ele>1637</ele>
        <time>2000-01-01T07:02:46.000Z</time>
      </trkpt>
      <trkpt lat="46.2353" lon="6.80063">
        <ele>1634.9</ele>
        <time>2000-01-01T07:02:56.000Z</time>
      </trkpt>
      <trkpt lat="46.23538" lon="6.80064">
        <ele>1634</ele>
        <time>2000-01-01T07:03:06.000Z</time>
      </trkpt>
      <trkpt lat="46.23542" lon="6.80067">
        <ele>1634.2</ele>
        <time>2000-01-01T07:03:16.000Z</time>
      </trkpt>
      <trkpt lat="46.23548" lon="6.8007">
        <ele>1634.2</ele>
        <time>2000-01-01T07:03:26.000Z</time>
      </trkpt>
      <trkpt lat="46.23553" lon="6.80071">
        <ele>1633.8</ele>
        <time>2000-01-01T07:03:36.000Z</time>
      </trkpt>
      <trkpt lat="46.23558" lon="6.8007">
        <ele>1637</ele>
        <time>2000-01-01T07:03:46.000Z</time>
      </trkpt>
      <trkpt lat="46.23564" lon="6.80071">
        <ele>1631.8</ele>
        <time>2000-01-01T07:03:56.000Z</time>
      </trkpt>
      <trkpt lat="46.2357" lon="6.80073">
        <ele>1631.6</ele>
        <time>2000-01-01T07:04:06.000Z</time>
      </trkpt>
      <trkpt lat="46.23575" lon="6.80081">
        <ele>1637</ele>
        <time>2000-01-01T07:04:16.000Z</time>
      </trkpt>
      <trkpt lat="46.23589" lon="6.80098">
        <ele>1637</ele>
        <time>2000-01-01T07:04:26.000Z</time>
      </trkpt>
      <trkpt lat="46.23603" lon="6.80113">
        <ele>1637</ele>
        <time>2000-01-01T07:04:36.000Z</time>
      </trkpt>
      <trkpt lat="46.23616" lon="6.80129">
        <ele>1634.1</ele>
        <time>2000-01-01T07:04:46.000Z</time>
      </trkpt>
      <trkpt lat="46.23621" lon="6.80134">
        <ele>1633</ele>
        <time>2000-01-01T07:04:56.000Z</time>
      </trkpt>
      <trkpt lat="46.2363" lon="6.80151">
        <ele>1633.9</ele>
        <time>2000-01-01T07:05:06.000Z</time>
      </trkpt>
      <trkpt lat="46.23633" lon="6.8016">
        <ele>1631</ele>
        <time>2000-01-01T07:05:16.000Z</time>
      </trkpt>
      <trkpt lat="46.23637" lon="6.80165">
        <ele>1634.6</ele>
        <time>2000-01-01T07:05:26.000Z</time>
      </trkpt>
      <trkpt lat="46.23646" lon="6.80174">
        <ele>1632.7</ele>
        <time>2000-01-01T07:05:36.000Z</time>
      </trkpt>
      <trkpt lat="46.23653" lon="6.80182">
        <ele>1626</ele>
        <time>2000-01-01T07:05:46.000Z</time>
      </trkpt>
      <trkpt lat="46.2366" lon="6.80193">
        <ele>1631.4</ele>
        <time>2000-01-01T07:05:56.000Z</time>
      </trkpt>
      <trkpt lat="46.23667" lon="6.80201">
        <ele>1626</ele>
        <time>2000-01-01T07:06:06.000Z</time>
      </trkpt>
      <trkpt lat="46.23668" lon="6.80201">
        <ele>1629.3</ele>
        <time>2000-01-01T07:06:16.000Z</time>
      </trkpt>
      <trkpt lat="46.2368" lon="6.8021">
        <ele>1624.9</ele>
        <time>2000-01-01T07:06:26.000Z</time>
      </trkpt>
      <trkpt lat="46.23685" lon="6.80219">
        <ele>1623</ele>
        <time>2000-01-01T07:06:36.000Z</time>
      </trkpt>
      <trkpt lat="46.23687" lon="6.80226">
        <ele>1625.7</ele>
        <time>2000-01-01T07:06:46.000Z</time>
      </trkpt>
      <trkpt lat="46.23688" lon="6.80232">
        <ele>1627</ele>
        <time>2000-01-01T07:06:56.000Z</time>
      </trkpt>
      <trkpt lat="46.23693" lon="6.80238">
        <ele>1625.3</ele>
        <time>2000-01-01T07:07:06.000Z</time>
      </trkpt>
      <trkpt lat="46.23698" lon="6.80249">
        <ele>1622</ele>
        <time>2000-01-01T07:07:16.000Z</time>
      </trkpt>
      <trkpt lat="46.23703" lon="6.80263">
        <ele>1622.9</ele>
        <time>2000-01-01T07:07:26.000Z</time>
      </trkpt>
      <trkpt lat="46.23706" lon="6.80279">
        <ele>1619</ele>
        <time>2000-01-01T07:07:36.000Z</time>
      </trkpt>
      <trkpt lat="46.23713" lon="6.80333">
        <ele>1616</ele>
        <time>2000-01-01T07:07:46.000Z</time>
      </trkpt>
      <trkpt lat="46.23713" lon="6.80341">
        <ele>1621.2</ele>
        <time>2000-01-01T07:07:56.000Z</time>
      </trkpt>
      <trkpt lat="46.23714" lon="6.80356">
        <ele>1618.8</ele>
        <time>2000-01-01T07:08:06.000Z</time>
      </trkpt>
      <trkpt lat="46.23713" lon="6.80358">
        <ele>1619.5</ele>
        <time>2000-01-01T07:08:16.000Z</time>
      </trkpt>
      <trkpt lat="46.23707" lon="6.8038">
        <ele>1617</ele>
        <time>2000-01-01T07:08:26.000Z</time>
      </trkpt>
      <trkpt lat="46.23699" lon="6.80416">
        <ele>1615</ele>
        <time>2000-01-01T07:08:36.000Z</time>
      </trkpt>
      <trkpt lat="46.23696" lon="6.80437">
        <ele>1625.3</ele>
        <time>2000-01-01T07:08:46.000Z</time>
      </trkpt>
      <trkpt lat="46.23689" lon="6.80477">
        <ele>1614</ele>
        <time>2000-01-01T07:08:56.000Z</time>
      </trkpt>
      <trkpt lat="46.23683" lon="6.80493">
        <ele>1627.3</ele>
        <time>2000-01-01T07:09:06.000Z</time>
      </trkpt>
      <trkpt lat="46.23682" lon="6.80504">
        <ele>1605</ele>
        <time>2000-01-01T07:09:16.000Z</time>
      </trkpt>
      <trkpt lat="46.23683" lon="6.80509">
        <ele>1626.4</ele>
        <time>2000-01-01T07:09:26.000Z</time>
      </trkpt>
      <trkpt lat="46.23685" lon="6.80515">
        <ele>1625.2</ele>
        <time>2000-01-01T07:09:36.000Z</time>
      </trkpt>
      <trkpt lat="46.23693" lon="6.80526">
        <ele>1602</ele>
        <time>2000-01-01T07:09:46.000Z</time>
      </trkpt>
      <trkpt lat="46.23701" lon="6.80528">
        <ele>1614.9</ele>
        <time>2000-01-01T07:09:56.000Z</time>
      </trkpt>
      <trkpt lat="46.23706" lon="6.80532">
        <ele>1611.8</ele>
        <time>2000-01-01T07:10:06.000Z</time>
      </trkpt>
      <trkpt lat="46.23709" lon="6.80536">
        <ele>1610.2</ele>
        <time>2000-01-01T07:10:16.000Z</time>
      </trkpt>
      <trkpt lat="46.23709" lon="6.80542">
        <ele>1601</ele>
        <time>2000-01-01T07:10:26.000Z</time>
      </trkpt>
      <trkpt lat="46.23704" lon="6.80555">
        <ele>1614.6</ele>
        <time>2000-01-01T07:10:36.000Z</time>
      </trkpt>
      <trkpt lat="46.23703" lon="6.8056">
        <ele>1615.5</ele>
        <time>2000-01-01T07:10:46.000Z</time>
      </trkpt>
      <trkpt lat="46.23703" lon="6.80567">
        <ele>1599</ele>
        <time>2000-01-01T07:10:56.000Z</time>
      </trkpt>
      <trkpt lat="46.23705" lon="6.80571">
        <ele>1615</ele>
        <time>2000-01-01T07:11:06.000Z</time>
      </trkpt>
      <trkpt lat="46.23709" lon="6.80584">
        <ele>1613.6</ele>
        <time>2000-01-01T07:11:16.000Z</time>
      </trkpt>
      <trkpt lat="46.23712" lon="6.80591">
        <ele>1596</ele>
        <time>2000-01-01T07:11:26.000Z</time>
      </trkpt>
      <trkpt lat="46.23717" lon="6.80598">
        <ele>1609.2</ele>
        <time>2000-01-01T07:11:36.000Z</time>
      </trkpt>
      <trkpt lat="46.23721" lon="6.80608">
        <ele>1607.1</ele>
        <time>2000-01-01T07:11:46.000Z</time>
      </trkpt>
      <trkpt lat="46.23725" lon="6.80614">
        <ele>1593</ele>
        <time>2000-01-01T07:11:56.000Z</time>
      </trkpt>
      <trkpt lat="46.2373" lon="6.80619">
        <ele>1602.4</ele>
        <time>2000-01-01T07:12:06.000Z</time>
      </trkpt>
      <trkpt lat="46.23743" lon="6.80629">
        <ele>1587</ele>
        <time>2000-01-01T07:12:16.000Z</time>
      </trkpt>
      <trkpt lat="46.23747" lon="6.80635">
        <ele>1593.8</ele>
        <time>2000-01-01T07:12:26.000Z</time>
      </trkpt>
      <trkpt lat="46.23752" lon="6.80649">
        <ele>1591.9</ele>
        <time>2000-01-01T07:12:36.000Z</time>
      </trkpt>
      <trkpt lat="46.23755" lon="6.80655">
        <ele>1586</ele>
        <time>2000-01-01T07:12:46.000Z</time>
      </trkpt>
      <trkpt lat="46.23759" lon="6.8066">
        <ele>1590.1</ele>
        <time>2000-01-01T07:12:56.000Z</time>
      </trkpt>
      <trkpt lat="46.23768" lon="6.80664">
        <ele>1587.5</ele>
        <time>2000-01-01T07:13:06.000Z</time>
      </trkpt>
      <trkpt lat="46.23774" lon="6.80669">
        <ele>1578</ele>
        <time>2000-01-01T07:13:16.000Z</time>
      </trkpt>
      <trkpt lat="46.23777" lon="6.80676">
        <ele>1586.2</ele>
        <time>2000-01-01T07:13:26.000Z</time>
      </trkpt>
      <trkpt lat="46.23781" lon="6.80683">
        <ele>1586</ele>
        <time>2000-01-01T07:13:36.000Z</time>
      </trkpt>
      <trkpt lat="46.23785" lon="6.80687">
        <ele>1585.4</ele>
        <time>2000-01-01T07:13:46.000Z</time>
      </trkpt>
      <trkpt lat="46.2379" lon="6.80688">
        <ele>1576</ele>
        <time>2000-01-01T07:13:56.000Z</time>
      </trkpt>
      <trkpt lat="46.23794" lon="6.80691">
        <ele>1583.3</ele>
        <time>2000-01-01T07:14:06.000Z</time>
      </trkpt>
      <trkpt lat="46.23797" lon="6.80696">
        <ele>1583.2</ele>
        <time>2000-01-01T07:14:16.000Z</time>
      </trkpt>
      <trkpt lat="46.23798" lon="6.80701">
        <ele>1583.6</ele>
        <time>2000-01-01T07:14:26.000Z</time>
      </trkpt>
      <trkpt lat="46.238" lon="6.80707">
        <ele>1583.9</ele>
        <time>2000-01-01T07:14:36.000Z</time>
      </trkpt>
      <trkpt lat="46.23804" lon="6.8071">
        <ele>1571</ele>
        <time>2000-01-01T07:14:46.000Z</time>
      </trkpt>
      <trkpt lat="46.2381" lon="6.80713">
        <ele>1581.9</ele>
        <time>2000-01-01T07:14:56.000Z</time>
      </trkpt>
      <trkpt lat="46.23815" lon="6.80714">
        <ele>1580.6</ele>
        <time>2000-01-01T07:15:06.000Z</time>
      </trkpt>
      <trkpt lat="46.2383" lon="6.8072">
        <ele>1570</ele>
        <time>2000-01-01T07:15:16.000Z</time>
      </trkpt>
      <trkpt lat="46.23835" lon="6.80719">
        <ele>1575.9</ele>
        <time>2000-01-01T07:15:26.000Z</time>
      </trkpt>
      <trkpt lat="46.23842" lon="6.80719">
        <ele>1574.7</ele>
        <time>2000-01-01T07:15:36.000Z</time>
      </trkpt>
      <trkpt lat="46.23847" lon="6.8072">
        <ele>1574.1</ele>
        <time>2000-01-01T07:15:46.000Z</time>
      </trkpt>
      <trkpt lat="46.23866" lon="6.80736">
        <ele>1569</ele>
        <time>2000-01-01T07:15:56.000Z</time>
      </trkpt>
      <trkpt lat="46.23874" lon="6.80739">
        <ele>1572.5</ele>
        <time>2000-01-01T07:16:06.000Z</time>
      </trkpt>
      <trkpt lat="46.23884" lon="6.80741">
        <ele>1571.1</ele>
        <time>2000-01-01T07:16:16.000Z</time>
      </trkpt>
      <trkpt lat="46.23889" lon="6.80743">
        <ele>1565</ele>
        <time>2000-01-01T07:16:26.000Z</time>
      </trkpt>
      <trkpt lat="46.23894" lon="6.80746">
        <ele>1570.2</ele>
        <time>2000-01-01T07:16:36.000Z</time>
      </trkpt>
      <trkpt lat="46.23906" lon="6.8075">
        <ele>1568.8</ele>
        <time>2000-01-01T07:16:46.000Z</time>
      </trkpt>
      <trkpt lat="46.23913" lon="6.80756">
        <ele>1563</ele>
        <time>2000-01-01T07:16:56.000Z</time>
      </trkpt>
      <trkpt lat="46.23919" lon="6.80765">
        <ele>1568.9</ele>
        <time>2000-01-01T07:17:06.000Z</time>
      </trkpt>
      <trkpt lat="46.23923" lon="6.80769">
        <ele>1568.6</ele>
        <time>2000-01-01T07:17:16.000Z</time>
      </trkpt>
      <trkpt lat="46.23935" lon="6.80772">
        <ele>1560</ele>
        <time>2000-01-01T07:17:26.000Z</time>
      </trkpt>
      <trkpt lat="46.23941" lon="6.80777">
        <ele>1565.6</ele>
        <time>2000-01-01T07:17:36.000Z</time>
      </trkpt>
      <trkpt lat="46.23946" lon="6.80785">
        <ele>1566.1</ele>
        <time>2000-01-01T07:17:46.000Z</time>
      </trkpt>
      <trkpt lat="46.23951" lon="6.80796">
        <ele>1557</ele>
        <time>2000-01-01T07:17:56.000Z</time>
      </trkpt>
      <trkpt lat="46.23959" lon="6.80803">
        <ele>1567.3</ele>
        <time>2000-01-01T07:18:06.000Z</time>
      </trkpt>
      <trkpt lat="46.23965" lon="6.80807">
        <ele>1567</ele>
        <time>2000-01-01T07:18:16.000Z</time>
      </trkpt>
      <trkpt lat="46.23971" lon="6.80808">
        <ele>1549</ele>
        <time>2000-01-01T07:18:26.000Z</time>
      </trkpt>
      <trkpt lat="46.23977" lon="6.80807">
        <ele>1564.6</ele>
        <time>2000-01-01T07:18:36.000Z</time>
      </trkpt>
      <trkpt lat="46.23985" lon="6.80807">
        <ele>1563.1</ele>
        <time>2000-01-01T07:18:46.000Z</time>
      </trkpt>
      <trkpt lat="46.23997" lon="6.8081">
        <ele>1545</ele>
        <time>2000-01-01T07:18:56.000Z</time>
      </trkpt>
      <trkpt lat="46.24003" lon="6.80814">
        <ele>1561.7</ele>
        <time>2000-01-01T07:19:06.000Z</time>
      </trkpt>
      <trkpt lat="46.24017" lon="6.80818">
        <ele>1544</ele>
        <time>2000-01-01T07:19:16.000Z</time>
      </trkpt>
      <trkpt lat="46.24024" lon="6.80818">
        <ele>1559.6</ele>
        <time>2000-01-01T07:19:26.000Z</time>
      </trkpt>
      <trkpt lat="46.24036" lon="6.80814">
        <ele>1543</ele>
        <time>2000-01-01T07:19:36.000Z</time>
      </trkpt>
      <trkpt lat="46.24047" lon="6.80812">
        <ele>1554.1</ele>
        <time>2000-01-01T07:19:46.000Z</time>
      </trkpt>
      <trkpt lat="46.24059" lon="6.80811">
        <ele>1543</ele>
        <time>2000-01-01T07:19:56.000Z</time>
      </trkpt>
      <trkpt lat="46.24074" lon="6.80812">
        <ele>1549.8</ele>
        <time>2000-01-01T07:20:06.000Z</time>
      </trkpt>
      <trkpt lat="46.24091" lon="6.80812">
        <ele>1539</ele>
        <time>2000-01-01T07:20:16.000Z</time>
      </trkpt>
      <trkpt lat="46.241" lon="6.80814">
        <ele>1546</ele>
        <time>2000-01-01T07:20:26.000Z</time>
      </trkpt>
      <trkpt lat="46.24122" lon="6.80822">
        <ele>1537</ele>
        <time>2000-01-01T07:20:36.000Z</time>
      </trkpt>
      <trkpt lat="46.24139" lon="6.8083">
        <ele>1543.9</ele>
        <time>2000-01-01T07:20:46.000Z</time>
      </trkpt>
      <trkpt lat="46.24149" lon="6.80839">
        <ele>1537</ele>
        <time>2000-01-01T07:20:56.000Z</time>
      </trkpt>
      <trkpt lat="46.24161" lon="6.80851">
        <ele>1546</ele>
        <time>2000-01-01T07:21:06.000Z</time>
      </trkpt>
      <trkpt lat="46.24168" lon="6.80855">
        <ele>1537</ele>
        <time>2000-01-01T07:21:16.000Z</time>
      </trkpt>
      <trkpt lat="46.24174" lon="6.80855">
        <ele>1544.1</ele>
        <time>2000-01-01T07:21:26.000Z</time>
      </trkpt>
      <trkpt lat="46.24182" lon="6.80858">
        <ele>1542.6</ele>
        <time>2000-01-01T07:21:36.000Z</time>
      </trkpt>
      <trkpt lat="46.24199" lon="6.8086">
        <ele>1532</ele>
        <time>2000-01-01T07:21:46.000Z</time>
      </trkpt>
      <trkpt lat="46.24205" lon="6.8086">
        <ele>1536.6</ele>
        <time>2000-01-01T07:21:56.000Z</time>
      </trkpt>
      <trkpt lat="46.24215" lon="6.80862">
        <ele>1534.4</ele>
        <time>2000-01-01T07:22:06.000Z</time>
      </trkpt>
      <trkpt lat="46.24222" lon="6.80867">
        <ele>1531</ele>
        <time>2000-01-01T07:22:16.000Z</time>
      </trkpt>
      <trkpt lat="46.2423" lon="6.80874">
        <ele>1534.2</ele>
        <time>2000-01-01T07:22:26.000Z</time>
      </trkpt>
      <trkpt lat="46.24232" lon="6.80876">
        <ele>1534.3</ele>
        <time>2000-01-01T07:22:36.000Z</time>
      </trkpt>
      <trkpt lat="46.24247" lon="6.80899">
        <ele>1531</ele>
        <time>2000-01-01T07:22:46.000Z</time>
      </trkpt>
      <trkpt lat="46.24264" lon="6.80928">
        <ele>1530</ele>
        <time>2000-01-01T07:22:56.000Z</time>
      </trkpt>
      <trkpt lat="46.24287" lon="6.80968">
        <ele>1529</ele>
        <time>2000-01-01T07:23:06.000Z</time>
      </trkpt>
      <trkpt lat="46.24296" lon="6.80985">
        <ele>1535.3</ele>
        <time>2000-01-01T07:23:16.000Z</time>
      </trkpt>
      <trkpt lat="46.24307" lon="6.81002">
        <ele>1528</ele>
        <time>2000-01-01T07:23:26.000Z</time>
      </trkpt>
      <trkpt lat="46.24314" lon="6.81014">
        <ele>1535.2</ele>
        <time>2000-01-01T07:23:36.000Z</time>
      </trkpt>
      <trkpt lat="46.24316" lon="6.81028">
        <ele>1525</ele>
        <time>2000-01-01T07:23:46.000Z</time>
      </trkpt>
      <trkpt lat="46.2432" lon="6.81039">
        <ele>1541.5</ele>
        <time>2000-01-01T07:23:56.000Z</time>
      </trkpt>
      <trkpt lat="46.24325" lon="6.81049">
        <ele>1543</ele>
        <time>2000-01-01T07:24:06.000Z</time>
      </trkpt>
      <trkpt lat="46.24331" lon="6.81056">
        <ele>1525</ele>
        <time>2000-01-01T07:24:16.000Z</time>
      </trkpt>
      <trkpt lat="46.24339" lon="6.81062">
        <ele>1541.3</ele>
        <time>2000-01-01T07:24:26.000Z</time>
      </trkpt>
      <trkpt lat="46.24345" lon="6.81068">
        <ele>1540.2</ele>
        <time>2000-01-01T07:24:36.000Z</time>
      </trkpt>
      <trkpt lat="46.2435" lon="6.81072">
        <ele>1523</ele>
        <time>2000-01-01T07:24:46.000Z</time>
      </trkpt>
      <trkpt lat="46.24361" lon="6.81079">
        <ele>1535.1</ele>
        <time>2000-01-01T07:24:56.000Z</time>
      </trkpt>
      <trkpt lat="46.24373" lon="6.81095">
        <ele>1526</ele>
        <time>2000-01-01T07:25:06.000Z</time>
      </trkpt>
      <trkpt lat="46.24379" lon="6.81101">
        <ele>1533.4</ele>
        <time>2000-01-01T07:25:16.000Z</time>
      </trkpt>
      <trkpt lat="46.24396" lon="6.81121">
        <ele>1523</ele>
        <time>2000-01-01T07:25:26.000Z</time>
      </trkpt>
      <trkpt lat="46.24416" lon="6.81169">
        <ele>1521</ele>
        <time>2000-01-01T07:25:36.000Z</time>
      </trkpt>
      <trkpt lat="46.24426" lon="6.81197">
        <ele>1520</ele>
        <time>2000-01-01T07:25:46.000Z</time>
      </trkpt>
      <trkpt lat="46.24445" lon="6.81223">
        <ele>1526</ele>
        <time>2000-01-01T07:25:56.000Z</time>
      </trkpt>
      <trkpt lat="46.24469" lon="6.81252">
        <ele>1533</ele>
        <time>2000-01-01T07:26:06.000Z</time>
      </trkpt>
      <trkpt lat="46.24485" lon="6.81277">
        <ele>1529</ele>
        <time>2000-01-01T07:26:16.000Z</time>
      </trkpt>
      <trkpt lat="46.24501" lon="6.81303">
        <ele>1526</ele>
        <time>2000-01-01T07:26:26.000Z</time>
      </trkpt>
      <trkpt lat="46.24526" lon="6.81346">
        <ele>1527</ele>
        <time>2000-01-01T07:26:36.000Z</time>
      </trkpt>
      <trkpt lat="46.2454" lon="6.81378">
        <ele>1526</ele>
        <time>2000-01-01T07:26:46.000Z</time>
      </trkpt>
      <trkpt lat="46.24543" lon="6.81386">
        <ele>1512.9</ele>
        <time>2000-01-01T07:26:56.000Z</time>
      </trkpt>
      <trkpt lat="46.24544" lon="6.81392">
        <ele>1512.5</ele>
        <time>2000-01-01T07:27:06.000Z</time>
      </trkpt>
      <trkpt lat="46.24542" lon="6.81422">
        <ele>1526</ele>
        <time>2000-01-01T07:27:16.000Z</time>
      </trkpt>
      <trkpt lat="46.24543" lon="6.81434">
        <ele>1511.8</ele>
        <time>2000-01-01T07:27:26.000Z</time>
      </trkpt>
      <trkpt lat="46.24541" lon="6.81453">
        <ele>1524</ele>
        <time>2000-01-01T07:27:36.000Z</time>
      </trkpt>
      <trkpt lat="46.24538" lon="6.8146">
        <ele>1510.5</ele>
        <time>2000-01-01T07:27:46.000Z</time>
      </trkpt>
      <trkpt lat="46.24533" lon="6.81469">
        <ele>1512.4</ele>
        <time>2000-01-01T07:27:56.000Z</time>
      </trkpt>
      <trkpt lat="46.24528" lon="6.81476">
        <ele>1523</ele>
        <time>2000-01-01T07:28:06.000Z</time>
      </trkpt>
      <trkpt lat="46.24519" lon="6.81482">
        <ele>1519.6</ele>
        <time>2000-01-01T07:28:16.000Z</time>
      </trkpt>
      <trkpt lat="46.24517" lon="6.81485">
        <ele>1520.3</ele>
        <time>2000-01-01T07:28:26.000Z</time>
      </trkpt>
      <trkpt lat="46.24516" lon="6.8149">
        <ele>1519.7</ele>
        <time>2000-01-01T07:28:36.000Z</time>
      </trkpt>
      <trkpt lat="46.24513" lon="6.81498">
        <ele>1518</ele>
        <time>2000-01-01T07:28:46.000Z</time>
      </trkpt>
      <trkpt lat="46.24501" lon="6.81517">
        <ele>1520.8</ele>
        <time>2000-01-01T07:28:56.000Z</time>
      </trkpt>
      <trkpt lat="46.24497" lon="6.81525">
        <ele>1508</ele>
        <time>2000-01-01T07:29:06.000Z</time>
      </trkpt>
      <trkpt lat="46.24487" lon="6.8154">
        <ele>1519</ele>
        <time>2000-01-01T07:29:16.000Z</time>
      </trkpt>
      <trkpt lat="46.24484" lon="6.81547">
        <ele>1506</ele>
        <time>2000-01-01T07:29:26.000Z</time>
      </trkpt>
      <trkpt lat="46.24482" lon="6.81556">
        <ele>1514.6</ele>
        <time>2000-01-01T07:29:36.000Z</time>
      </trkpt>
      <trkpt lat="46.24478" lon="6.81567">
        <ele>1511.6</ele>
        <time>2000-01-01T07:29:46.000Z</time>
      </trkpt>
      <trkpt lat="46.24471" lon="6.81577">
        <ele>1499</ele>
        <time>2000-01-01T07:29:56.000Z</time>
      </trkpt>
      <trkpt lat="46.24466" lon="6.81586">
        <ele>1508.5</ele>
        <time>2000-01-01T07:30:06.000Z</time>
      </trkpt>
      <trkpt lat="46.24464" lon="6.81594">
        <ele>1507.7</ele>
        <time>2000-01-01T07:30:16.000Z</time>
      </trkpt>
      <trkpt lat="46.2446" lon="6.81603">
        <ele>1493</ele>
        <time>2000-01-01T07:30:26.000Z</time>
      </trkpt>
      <trkpt lat="46.24454" lon="6.81611">
        <ele>1507.4</ele>
        <time>2000-01-01T07:30:36.000Z</time>
      </trkpt>
      <trkpt lat="46.24455" lon="6.81615">
        <ele>1506.2</ele>
        <time>2000-01-01T07:30:46.000Z</time>
      </trkpt>
      <trkpt lat="46.24454" lon="6.8162">
        <ele>1505.4</ele>
        <time>2000-01-01T07:30:56.000Z</time>
      </trkpt>
      <trkpt lat="46.24452" lon="6.81626">
        <ele>1490</ele>
        <time>2000-01-01T07:31:06.000Z</time>
      </trkpt>
      <trkpt lat="46.24446" lon="6.81635">
        <ele>1504.1</ele>
        <time>2000-01-01T07:31:16.000Z</time>
      </trkpt>
      <trkpt lat="46.24442" lon="6.81643">
        <ele>1503.1</ele>
        <time>2000-01-01T07:31:26.000Z</time>
      </trkpt>
      <trkpt lat="46.2444" lon="6.81654">
        <ele>1489</ele>
        <time>2000-01-01T07:31:36.000Z</time>
      </trkpt>
      <trkpt lat="46.24444" lon="6.81705">
        <ele>1481</ele>
        <time>2000-01-01T07:31:46.000Z</time>
      </trkpt>
      <trkpt lat="46.24445" lon="6.81712">
        <ele>1493.7</ele>
        <time>2000-01-01T07:31:56.000Z</time>
      </trkpt>
      <trkpt lat="46.24448" lon="6.81718">
        <ele>1492.8</ele>
        <time>2000-01-01T07:32:06.000Z</time>
      </trkpt>
      <trkpt lat="46.24453" lon="6.81722">
        <ele>1491.6</ele>
        <time>2000-01-01T07:32:16.000Z</time>
      </trkpt>
      <trkpt lat="46.24464" lon="6.81727">
        <ele>1476</ele>
        <time>2000-01-01T07:32:26.000Z</time>
      </trkpt>
      <trkpt lat="46.24482" lon="6.81744">
        <ele>1474</ele>
        <time>2000-01-01T07:32:36.000Z</time>
      </trkpt>
      <trkpt lat="46.24493" lon="6.81749">
        <ele>1483.2</ele>
        <time>2000-01-01T07:32:46.000Z</time>
      </trkpt>
      <trkpt lat="46.24507" lon="6.81754">
        <ele>1471</ele>
        <time>2000-01-01T07:32:56.000Z</time>
      </trkpt>
      <trkpt lat="46.24522" lon="6.81763">
        <ele>1481</ele>
        <time>2000-01-01T07:33:06.000Z</time>
      </trkpt>
      <trkpt lat="46.24533" lon="6.81766">
        <ele>1469</ele>
        <time>2000-01-01T07:33:16.000Z</time>
      </trkpt>
      <trkpt lat="46.2454" lon="6.81767">
        <ele>1479.5</ele>
        <time>2000-01-01T07:33:26.000Z</time>
      </trkpt>
      <trkpt lat="46.24561" lon="6.81766">
        <ele>1466</ele>
        <time>2000-01-01T07:33:36.000Z</time>
      </trkpt>
      <trkpt lat="46.24589" lon="6.81762">
        <ele>1466</ele>
        <time>2000-01-01T07:33:46.000Z</time>
      </trkpt>
      <trkpt lat="46.24595" lon="6.81762">
        <ele>1470.3</ele>
        <time>2000-01-01T07:33:56.000Z</time>
      </trkpt>
      <trkpt lat="46.24602" lon="6.81763">
        <ele>1468.1</ele>
        <time>2000-01-01T07:34:06.000Z</time>
      </trkpt>
      <trkpt lat="46.24609" lon="6.81766">
        <ele>1465</ele>
        <time>2000-01-01T07:34:16.000Z</time>
      </trkpt>
      <trkpt lat="46.24619" lon="6.81774">
        <ele>1463.4</ele>
        <time>2000-01-01T07:34:26.000Z</time>
      </trkpt>
      <trkpt lat="46.24631" lon="6.81786">
        <ele>1460</ele>
        <time>2000-01-01T07:34:36.000Z</time>
      </trkpt>
      <trkpt lat="46.24639" lon="6.81797">
        <ele>1458.6</ele>
        <time>2000-01-01T07:34:46.000Z</time>
      </trkpt>
      <trkpt lat="46.24647" lon="6.8181">
        <ele>1457</ele>
        <time>2000-01-01T07:34:56.000Z</time>
      </trkpt>
      <trkpt lat="46.24651" lon="6.81819">
        <ele>1456.4</ele>
        <time>2000-01-01T07:35:06.000Z</time>
      </trkpt>
      <trkpt lat="46.24654" lon="6.81828">
        <ele>1456.1</ele>
        <time>2000-01-01T07:35:16.000Z</time>
      </trkpt>
      <trkpt lat="46.24656" lon="6.81846">
        <ele>1457</ele>
        <time>2000-01-01T07:35:26.000Z</time>
      </trkpt>
      <trkpt lat="46.24656" lon="6.81863">
        <ele>1458.8</ele>
        <time>2000-01-01T07:35:36.000Z</time>
      </trkpt>
      <trkpt lat="46.24655" lon="6.81879">
        <ele>1454</ele>
        <time>2000-01-01T07:35:46.000Z</time>
      </trkpt>
      <trkpt lat="46.24656" lon="6.81888">
        <ele>1461.4</ele>
        <time>2000-01-01T07:35:56.000Z</time>
      </trkpt>
      <trkpt lat="46.24664" lon="6.81908">
        <ele>1450</ele>
        <time>2000-01-01T07:36:06.000Z</time>
      </trkpt>
      <trkpt lat="46.24667" lon="6.81913">
        <ele>1458.5</ele>
        <time>2000-01-01T07:36:16.000Z</time>
      </trkpt>
      <trkpt lat="46.24668" lon="6.81916">
        <ele>1458.1</ele>
        <time>2000-01-01T07:36:26.000Z</time>
      </trkpt>
      <trkpt lat="46.24678" lon="6.8193">
        <ele>1447</ele>
        <time>2000-01-01T07:36:36.000Z</time>
      </trkpt>
      <trkpt lat="46.247" lon="6.81952">
        <ele>1444</ele>
        <time>2000-01-01T07:36:46.000Z</time>
      </trkpt>
      <trkpt lat="46.24711" lon="6.81969">
        <ele>1440.3</ele>
        <time>2000-01-01T07:36:56.000Z</time>
      </trkpt>
      <trkpt lat="46.24719" lon="6.81983">
        <ele>1437</ele>
        <time>2000-01-01T07:37:06.000Z</time>
      </trkpt>
      <trkpt lat="46.24726" lon="6.81998">
        <ele>1433</ele>
        <time>2000-01-01T07:37:16.000Z</time>
      </trkpt>
      <trkpt lat="46.24736" lon="6.82035">
        <ele>1427</ele>
        <time>2000-01-01T07:37:26.000Z</time>
      </trkpt>
      <trkpt lat="46.24746" lon="6.82092">
        <ele>1424</ele>
        <time>2000-01-01T07:37:36.000Z</time>
      </trkpt>
      <trkpt lat="46.24748" lon="6.82115">
        <ele>1422.1</ele>
        <time>2000-01-01T07:37:46.000Z</time>
      </trkpt>
      <trkpt lat="46.24754" lon="6.82144">
        <ele>1422</ele>
        <time>2000-01-01T07:37:56.000Z</time>
      </trkpt>
      <trkpt lat="46.24756" lon="6.82158">
        <ele>1414.5</ele>
        <time>2000-01-01T07:38:06.000Z</time>
      </trkpt>
      <trkpt lat="46.24756" lon="6.82173">
        <ele>1421</ele>
        <time>2000-01-01T07:38:16.000Z</time>
      </trkpt>
      <trkpt lat="46.24754" lon="6.82193">
        <ele>1412.1</ele>
        <time>2000-01-01T07:38:26.000Z</time>
      </trkpt>
      <trkpt lat="46.24748" lon="6.82236">
        <ele>1411</ele>
        <time>2000-01-01T07:38:36.000Z</time>
      </trkpt>
      <trkpt lat="46.24748" lon="6.82245">
        <ele>1408.6</ele>
        <time>2000-01-01T07:38:46.000Z</time>
      </trkpt>
      <trkpt lat="46.2475" lon="6.82255">
        <ele>1406</ele>
        <time>2000-01-01T07:38:56.000Z</time>
      </trkpt>
      <trkpt lat="46.24751" lon="6.82265">
        <ele>1405</ele>
        <time>2000-01-01T07:39:06.000Z</time>
      </trkpt>
      <trkpt lat="46.24751" lon="6.82276">
        <ele>1401.2</ele>
        <time>2000-01-01T07:39:16.000Z</time>
      </trkpt>
      <trkpt lat="46.24749" lon="6.82287">
        <ele>1399.8</ele>
        <time>2000-01-01T07:39:26.000Z</time>
      </trkpt>
      <trkpt lat="46.24746" lon="6.82294">
        <ele>1403</ele>
        <time>2000-01-01T07:39:36.000Z</time>
      </trkpt>
      <trkpt lat="46.24739" lon="6.82304">
        <ele>1399.8</ele>
        <time>2000-01-01T07:39:46.000Z</time>
      </trkpt>
      <trkpt lat="46.24731" lon="6.82314">
        <ele>1398</ele>
        <time>2000-01-01T07:39:56.000Z</time>
      </trkpt>
      <trkpt lat="46.24725" lon="6.82326">
        <ele>1399.3</ele>
        <time>2000-01-01T07:40:06.000Z</time>
      </trkpt>
      <trkpt lat="46.24719" lon="6.82342">
        <ele>1397</ele>
        <time>2000-01-01T07:40:16.000Z</time>
      </trkpt>
      <trkpt lat="46.24711" lon="6.82361">
        <ele>1398</ele>
        <time>2000-01-01T07:40:26.000Z</time>
      </trkpt>
      <trkpt lat="46.24704" lon="6.82383">
        <ele>1391</ele>
        <time>2000-01-01T07:40:36.000Z</time>
      </trkpt>
      <trkpt lat="46.24693" lon="6.82412">
        <ele>1390</ele>
        <time>2000-01-01T07:40:46.000Z</time>
      </trkpt>
      <trkpt lat="46.24686" lon="6.82425">
        <ele>1394.3</ele>
        <time>2000-01-01T07:40:56.000Z</time>
      </trkpt>
      <trkpt lat="46.24677" lon="6.8244">
        <ele>1389</ele>
        <time>2000-01-01T07:41:06.000Z</time>
      </trkpt>
      <trkpt lat="46.24673" lon="6.8245">
        <ele>1393.5</ele>
        <time>2000-01-01T07:41:16.000Z</time>
      </trkpt>
      <trkpt lat="46.24671" lon="6.82458">
        <ele>1392.8</ele>
        <time>2000-01-01T07:41:26.000Z</time>
      </trkpt>
      <trkpt lat="46.24672" lon="6.82469">
        <ele>1381</ele>
        <time>2000-01-01T07:41:36.000Z</time>
      </trkpt>
      <trkpt lat="46.24674" lon="6.82478">
        <ele>1389.8</ele>
        <time>2000-01-01T07:41:46.000Z</time>
      </trkpt>
      <trkpt lat="46.24686" lon="6.82497">
        <ele>1378</ele>
        <time>2000-01-01T07:41:56.000Z</time>
      </trkpt>
      <trkpt lat="46.24699" lon="6.82509">
        <ele>1384.9</ele>
        <time>2000-01-01T07:42:06.000Z</time>
      </trkpt>
      <trkpt lat="46.24717" lon="6.82524">
        <ele>1374</ele>
        <time>2000-01-01T07:42:16.000Z</time>
      </trkpt>
      <trkpt lat="46.24736" lon="6.82538">
        <ele>1373</ele>
        <time>2000-01-01T07:42:26.000Z</time>
      </trkpt>
      <trkpt lat="46.24769" lon="6.82571">
        <ele>1370</ele>
        <time>2000-01-01T07:42:36.000Z</time>
      </trkpt>
      <trkpt lat="46.24784" lon="6.82582">
        <ele>1387.4</ele>
        <time>2000-01-01T07:42:46.000Z</time>
      </trkpt>
      <trkpt lat="46.24798" lon="6.82588">
        <ele>1367</ele>
        <time>2000-01-01T07:42:56.000Z</time>
      </trkpt>
      <trkpt lat="46.24811" lon="6.82592">
        <ele>1387.5</ele>
        <time>2000-01-01T07:43:06.000Z</time>
      </trkpt>
      <trkpt lat="46.24833" lon="6.82596">
        <ele>1363</ele>
        <time>2000-01-01T07:43:16.000Z</time>
      </trkpt>
      <trkpt lat="46.24859" lon="6.82599">
        <ele>1361</ele>
        <time>2000-01-01T07:43:26.000Z</time>
      </trkpt>
      <trkpt lat="46.24903" lon="6.82599">
        <ele>1356</ele>
        <time>2000-01-01T07:43:36.000Z</time>
      </trkpt>
      <trkpt lat="46.24915" lon="6.826">
        <ele>1370.5</ele>
        <time>2000-01-01T07:43:46.000Z</time>
      </trkpt>
      <trkpt lat="46.24971" lon="6.82609">
        <ele>1343</ele>
        <time>2000-01-01T07:43:56.000Z</time>
      </trkpt>
      <trkpt lat="46.2498" lon="6.82613">
        <ele>1355.4</ele>
        <time>2000-01-01T07:44:06.000Z</time>
      </trkpt>
      <trkpt lat="46.25014" lon="6.82645">
        <ele>1340</ele>
        <time>2000-01-01T07:44:16.000Z</time>
      </trkpt>
      <trkpt lat="46.25042" lon="6.82684">
        <ele>1334</ele>
        <time>2000-01-01T07:44:26.000Z</time>
      </trkpt>
      <trkpt lat="46.25065" lon="6.82707">
        <ele>1330</ele>
        <time>2000-01-01T07:44:36.000Z</time>
      </trkpt>
      <trkpt lat="46.251" lon="6.82743">
        <ele>1323</ele>
        <time>2000-01-01T07:44:46.000Z</time>
      </trkpt>
      <trkpt lat="46.25116" lon="6.82765">
        <ele>1319</ele>
        <time>2000-01-01T07:44:56.000Z</time>
      </trkpt>
      <trkpt lat="46.25127" lon="6.82782">
        <ele>1323.8</ele>
        <time>2000-01-01T07:45:06.000Z</time>
      </trkpt>
      <trkpt lat="46.25129" lon="6.82786">
        <ele>1316</ele>
        <time>2000-01-01T07:45:16.000Z</time>
      </trkpt>
      <trkpt lat="46.25138" lon="6.82798">
        <ele>1320.5</ele>
        <time>2000-01-01T07:45:26.000Z</time>
      </trkpt>
      <trkpt lat="46.25159" lon="6.82818">
        <ele>1308</ele>
        <time>2000-01-01T07:45:36.000Z</time>
      </trkpt>
      <trkpt lat="46.25167" lon="6.82827">
        <ele>1306.3</ele>
        <time>2000-01-01T07:45:46.000Z</time>
      </trkpt>
      <trkpt lat="46.2517" lon="6.82836">
        <ele>1305.4</ele>
        <time>2000-01-01T07:45:56.000Z</time>
      </trkpt>
      <trkpt lat="46.25171" lon="6.82852">
        <ele>1302</ele>
        <time>2000-01-01T07:46:06.000Z</time>
      </trkpt>
      <trkpt lat="46.25171" lon="6.82871">
        <ele>1307.4</ele>
        <time>2000-01-01T07:46:16.000Z</time>
      </trkpt>
      <trkpt lat="46.25173" lon="6.82893">
        <ele>1301</ele>
        <time>2000-01-01T07:46:26.000Z</time>
      </trkpt>
      <trkpt lat="46.25177" lon="6.82927">
        <ele>1300</ele>
        <time>2000-01-01T07:46:36.000Z</time>
      </trkpt>
      <trkpt lat="46.25181" lon="6.82964">
        <ele>1290</ele>
        <time>2000-01-01T07:46:46.000Z</time>
      </trkpt>
      <trkpt lat="46.25184" lon="6.82983">
        <ele>1306.9</ele>
        <time>2000-01-01T07:46:56.000Z</time>
      </trkpt>
      <trkpt lat="46.25203" lon="6.83042">
        <ele>1284</ele>
        <time>2000-01-01T07:47:06.000Z</time>
      </trkpt>
      <trkpt lat="46.25217" lon="6.83095">
        <ele>1279</ele>
        <time>2000-01-01T07:47:16.000Z</time>
      </trkpt>
      <trkpt lat="46.25224" lon="6.83117">
        <ele>1298.9</ele>
        <time>2000-01-01T07:47:26.000Z</time>
      </trkpt>
      <trkpt lat="46.25233" lon="6.83138">
        <ele>1273</ele>
        <time>2000-01-01T07:47:36.000Z</time>
      </trkpt>
      <trkpt lat="46.25248" lon="6.83163">
        <ele>1271</ele>
        <time>2000-01-01T07:47:46.000Z</time>
      </trkpt>
      <trkpt lat="46.25271" lon="6.83199">
        <ele>1266</ele>
        <time>2000-01-01T07:47:56.000Z</time>
      </trkpt>
      <trkpt lat="46.25282" lon="6.83219">
        <ele>1283.4</ele>
        <time>2000-01-01T07:48:06.000Z</time>
      </trkpt>
      <trkpt lat="46.25287" lon="6.83234">
        <ele>1266</ele>
        <time>2000-01-01T07:48:16.000Z</time>
      </trkpt>
      <trkpt lat="46.25291" lon="6.83243">
        <ele>1283.5</ele>
        <time>2000-01-01T07:48:26.000Z</time>
      </trkpt>
      <trkpt lat="46.25315" lon="6.8327">
        <ele>1260</ele>
        <time>2000-01-01T07:48:36.000Z</time>
      </trkpt>
      <trkpt lat="46.25326" lon="6.83295">
        <ele>1260</ele>
        <time>2000-01-01T07:48:46.000Z</time>
      </trkpt>
      <trkpt lat="46.25331" lon="6.83302">
        <ele>1274.8</ele>
        <time>2000-01-01T07:48:56.000Z</time>
      </trkpt>
      <trkpt lat="46.25352" lon="6.83335">
        <ele>1255</ele>
        <time>2000-01-01T07:49:06.000Z</time>
      </trkpt>
      <trkpt lat="46.25382" lon="6.83386">
        <ele>1256</ele>
        <time>2000-01-01T07:49:16.000Z</time>
      </trkpt>
      <trkpt lat="46.254" lon="6.83418">
        <ele>1255</ele>
        <time>2000-01-01T07:49:26.000Z</time>
      </trkpt>
      <trkpt lat="46.25428" lon="6.83467">
        <ele>1255</ele>
        <time>2000-01-01T07:49:36.000Z</time>
      </trkpt>
      <trkpt lat="46.25446" lon="6.83503">
        <ele>1255</ele>
        <time>2000-01-01T07:49:46.000Z</time>
      </trkpt>
      <trkpt lat="46.25463" lon="6.83546">
        <ele>1255</ele>
        <time>2000-01-01T07:49:56.000Z</time>
      </trkpt>
      <trkpt lat="46.2548" lon="6.83588">
        <ele>1256</ele>
        <time>2000-01-01T07:50:06.000Z</time>
      </trkpt>
      <trkpt lat="46.25493" lon="6.83621">
        <ele>1256</ele>
        <time>2000-01-01T07:50:16.000Z</time>
      </trkpt>
      <trkpt lat="46.25509" lon="6.83661">
        <ele>1256</ele>
        <time>2000-01-01T07:50:26.000Z</time>
      </trkpt>
      <trkpt lat="46.25522" lon="6.83688">
        <ele>1256</ele>
        <time>2000-01-01T07:50:36.000Z</time>
      </trkpt>
      <trkpt lat="46.25533" lon="6.83709">
        <ele>1263.6</ele>
        <time>2000-01-01T07:50:46.000Z</time>
      </trkpt>
      <trkpt lat="46.25545" lon="6.8373">
        <ele>1257</ele>
        <time>2000-01-01T07:50:56.000Z</time>
      </trkpt>
      <trkpt lat="46.25555" lon="6.83744">
        <ele>1263.6</ele>
        <time>2000-01-01T07:51:06.000Z</time>
      </trkpt>
      <trkpt lat="46.2557" lon="6.8376">
        <ele>1257</ele>
        <time>2000-01-01T07:51:16.000Z</time>
      </trkpt>
      <trkpt lat="46.25583" lon="6.83778">
        <ele>1258.5</ele>
        <time>2000-01-01T07:51:26.000Z</time>
      </trkpt>
      <trkpt lat="46.25603" lon="6.83817">
        <ele>1255</ele>
        <time>2000-01-01T07:51:36.000Z</time>
      </trkpt>
      <trkpt lat="46.25615" lon="6.83837">
        <ele>1258.3</ele>
        <time>2000-01-01T07:51:46.000Z</time>
      </trkpt>
      <trkpt lat="46.25623" lon="6.83856">
        <ele>1254</ele>
        <time>2000-01-01T07:51:56.000Z</time>
      </trkpt>
      <trkpt lat="46.25635" lon="6.83887">
        <ele>1254</ele>
        <time>2000-01-01T07:52:06.000Z</time>
      </trkpt>
      <trkpt lat="46.25648" lon="6.83923">
        <ele>1253</ele>
        <time>2000-01-01T07:52:16.000Z</time>
      </trkpt>
      <trkpt lat="46.25669" lon="6.83944">
        <ele>1252</ele>
        <time>2000-01-01T07:52:26.000Z</time>
      </trkpt>
      <trkpt lat="46.25696" lon="6.83971">
        <ele>1249</ele>
        <time>2000-01-01T07:52:36.000Z</time>
      </trkpt>
      <trkpt lat="46.2571" lon="6.83989">
        <ele>1247</ele>
        <time>2000-01-01T07:52:46.000Z</time>
      </trkpt>
      <trkpt lat="46.25721" lon="6.84008">
        <ele>1246.4</ele>
        <time>2000-01-01T07:52:56.000Z</time>
      </trkpt>
      <trkpt lat="46.25729" lon="6.84027">
        <ele>1242</ele>
        <time>2000-01-01T07:53:06.000Z</time>
      </trkpt>
      <trkpt lat="46.25733" lon="6.84028">
        <ele>1244.8</ele>
        <time>2000-01-01T07:53:16.000Z</time>
      </trkpt>
      <trkpt lat="46.25763" lon="6.84007">
        <ele>1241</ele>
        <time>2000-01-01T07:53:26.000Z</time>
      </trkpt>
    </trkseg>
  </trk>
</gpx>